<?xml version='1.0' encoding='UTF-8'?><gpx version="1.1" creator="JPX - https://github.com/jenetics/jpx" xmlns="http://www.topografix.com/GPX/1/1"><trk><trkseg><trkpt lat="42.1500497" lon="14.5852403"><ele>205.0</ele><time>2026-04-11T06:32:05.568Z</time></trkpt><trkpt lat="42.1501171" lon="14.585249"><ele>205.0</ele><time>2026-04-11T06:33:40.856Z</time></trkpt><trkpt lat="42.1501822" lon="14.5852517"><ele>205.0</ele><time>2026-04-11T06:33:46.857Z</time></trkpt><trkpt lat="42.1502291" lon="14.5851948"><ele>205.0</ele><time>2026-04-11T06:33:49.856Z</time></trkpt><trkpt lat="42.150294" lon="14.5851445"><ele>205.0</ele><time>2026-04-11T06:33:54.856Z</time></trkpt><trkpt lat="42.15033" lon="14.5850733"><ele>205.0</ele><time>2026-04-11T06:33:57.857Z</time></trkpt><trkpt lat="42.150415" lon="14.58506"><ele>205.0</ele><time>2026-04-11T06:34:00.857Z</time></trkpt><trkpt lat="42.1505083" lon="14.5850417"><ele>204.99999999999997</ele><time>2026-04-11T06:34:03.857Z</time></trkpt><trkpt lat="42.1505917" lon="14.585035"><ele>205.0</ele><time>2026-04-11T06:34:06.857Z</time></trkpt><trkpt lat="42.15067" lon="14.5850467"><ele>205.0</ele><time>2026-04-11T06:34:09.857Z</time></trkpt><trkpt lat="42.15074" lon="14.5850717"><ele>205.0</ele><time>2026-04-11T06:34:11.856Z</time></trkpt><trkpt lat="42.150815" lon="14.5850617"><ele>204.99999999999997</ele><time>2026-04-11T06:34:13.856Z</time></trkpt><trkpt lat="42.1509033" lon="14.5850183"><ele>205.0</ele><time>2026-04-11T06:34:15.857Z</time></trkpt><trkpt lat="42.151005" lon="14.584965"><ele>205.16666666666666</ele><time>2026-04-11T06:34:17.857Z</time></trkpt><trkpt lat="42.1511117" lon="14.5849617"><ele>205.33333333333331</ele><time>2026-04-11T06:34:19.856Z</time></trkpt><trkpt lat="42.151175" lon="14.584955"><ele>205.5</ele><time>2026-04-11T06:34:20.856Z</time></trkpt><trkpt lat="42.1512467" lon="14.5849467"><ele>205.66666666666669</ele><time>2026-04-11T06:34:21.857Z</time></trkpt><trkpt lat="42.15131" lon="14.5849533"><ele>205.83333333333334</ele><time>2026-04-11T06:34:22.857Z</time></trkpt><trkpt lat="42.1514183" lon="14.58494"><ele>206.0</ele><time>2026-04-11T06:34:24.856Z</time></trkpt><trkpt lat="42.1515567" lon="14.5849267"><ele>204.8</ele><time>2026-04-11T06:34:26.856Z</time></trkpt><trkpt lat="42.15163" lon="14.5848833"><ele>203.60000000000002</ele><time>2026-04-11T06:34:27.857Z</time></trkpt><trkpt lat="42.15175" lon="14.5848617"><ele>202.4</ele><time>2026-04-11T06:34:29.856Z</time></trkpt><trkpt lat="42.1518683" lon="14.5848583"><ele>201.2</ele><time>2026-04-11T06:34:31.857Z</time></trkpt><trkpt lat="42.1519717" lon="14.584825"><ele>200.0</ele><time>2026-04-11T06:34:33.857Z</time></trkpt><trkpt lat="42.152075" lon="14.58477"><ele>200.00000000000003</ele><time>2026-04-11T06:34:35.857Z</time></trkpt><trkpt lat="42.1521667" lon="14.58473"><ele>200.0</ele><time>2026-04-11T06:34:37.856Z</time></trkpt><trkpt lat="42.1522617" lon="14.5847317"><ele>200.0</ele><time>2026-04-11T06:34:39.857Z</time></trkpt><trkpt lat="42.1523283" lon="14.584755"><ele>200.0</ele><time>2026-04-11T06:34:40.857Z</time></trkpt><trkpt lat="42.1523917" lon="14.5848133"><ele>200.00000000000003</ele><time>2026-04-11T06:34:41.856Z</time></trkpt><trkpt lat="42.15246" lon="14.5848817"><ele>200.0</ele><time>2026-04-11T06:34:42.857Z</time></trkpt><trkpt lat="42.1525283" lon="14.584955"><ele>198.16666666666669</ele><time>2026-04-11T06:34:43.857Z</time></trkpt><trkpt lat="42.1525967" lon="14.5850183"><ele>196.33333333333334</ele><time>2026-04-11T06:34:44.857Z</time></trkpt><trkpt lat="42.1526633" lon="14.58508"><ele>194.5</ele><time>2026-04-11T06:34:45.857Z</time></trkpt><trkpt lat="42.15273" lon="14.5851417"><ele>192.66666666666669</ele><time>2026-04-11T06:34:46.857Z</time></trkpt><trkpt lat="42.152795" lon="14.5852067"><ele>190.83333333333334</ele><time>2026-04-11T06:34:47.857Z</time></trkpt><trkpt lat="42.1528583" lon="14.5852717"><ele>189.0</ele><time>2026-04-11T06:34:48.856Z</time></trkpt><trkpt lat="42.15294" lon="14.5853067"><ele>189.0</ele><time>2026-04-11T06:34:49.856Z</time></trkpt><trkpt lat="42.1530167" lon="14.5853317"><ele>189.0</ele><time>2026-04-11T06:34:50.856Z</time></trkpt><trkpt lat="42.1530967" lon="14.5853417"><ele>189.0</ele><time>2026-04-11T06:34:51.857Z</time></trkpt><trkpt lat="42.1531667" lon="14.58534"><ele>189.0</ele><time>2026-04-11T06:34:52.857Z</time></trkpt><trkpt lat="42.1532783" lon="14.5853333"><ele>189.0</ele><time>2026-04-11T06:34:54.857Z</time></trkpt><trkpt lat="42.153385" lon="14.5853267"><ele>189.0</ele><time>2026-04-11T06:34:56.857Z</time></trkpt><trkpt lat="42.153485" lon="14.58531"><ele>187.0</ele><time>2026-04-11T06:34:58.856Z</time></trkpt><trkpt lat="42.15361" lon="14.5852767"><ele>185.0</ele><time>2026-04-11T06:35:00.857Z</time></trkpt><trkpt lat="42.1536817" lon="14.5852633"><ele>183.0</ele><time>2026-04-11T06:35:01.856Z</time></trkpt><trkpt lat="42.1537617" lon="14.5852517"><ele>181.0</ele><time>2026-04-11T06:35:02.857Z</time></trkpt><trkpt lat="42.1538417" lon="14.5852467"><ele>179.0</ele><time>2026-04-11T06:35:03.857Z</time></trkpt><trkpt lat="42.1539233" lon="14.5852383"><ele>177.0</ele><time>2026-04-11T06:35:04.857Z</time></trkpt><trkpt lat="42.1540067" lon="14.5852367"><ele>176.0</ele><time>2026-04-11T06:35:05.857Z</time></trkpt><trkpt lat="42.1540917" lon="14.5852333"><ele>175.0</ele><time>2026-04-11T06:35:06.856Z</time></trkpt><trkpt lat="42.15418" lon="14.585225"><ele>174.0</ele><time>2026-04-11T06:35:07.857Z</time></trkpt><trkpt lat="42.1542783" lon="14.585235"><ele>173.0</ele><time>2026-04-11T06:35:08.856Z</time></trkpt><trkpt lat="42.154365" lon="14.5852733"><ele>172.0</ele><time>2026-04-11T06:35:09.857Z</time></trkpt><trkpt lat="42.1544417" lon="14.585335"><ele>171.66666666666669</ele><time>2026-04-11T06:35:10.856Z</time></trkpt><trkpt lat="42.1545083" lon="14.5854167"><ele>171.33333333333334</ele><time>2026-04-11T06:35:11.857Z</time></trkpt><trkpt lat="42.1545667" lon="14.58551"><ele>171.0</ele><time>2026-04-11T06:35:12.857Z</time></trkpt><trkpt lat="42.15461" lon="14.5856083"><ele>170.66666666666666</ele><time>2026-04-11T06:35:13.857Z</time></trkpt><trkpt lat="42.15465" lon="14.58571"><ele>170.33333333333331</ele><time>2026-04-11T06:35:14.856Z</time></trkpt><trkpt lat="42.1546867" lon="14.5858117"><ele>170.0</ele><time>2026-04-11T06:35:15.857Z</time></trkpt><trkpt lat="42.15473" lon="14.58591"><ele>170.0</ele><time>2026-04-11T06:35:16.857Z</time></trkpt><trkpt lat="42.1547783" lon="14.5860117"><ele>170.0</ele><time>2026-04-11T06:35:17.856Z</time></trkpt><trkpt lat="42.15483" lon="14.5861117"><ele>170.0</ele><time>2026-04-11T06:35:18.857Z</time></trkpt><trkpt lat="42.1548783" lon="14.5862167"><ele>170.0</ele><time>2026-04-11T06:35:19.857Z</time></trkpt><trkpt lat="42.1549267" lon="14.58632"><ele>170.0</ele><time>2026-04-11T06:35:20.856Z</time></trkpt><trkpt lat="42.1549783" lon="14.586425"><ele>169.0</ele><time>2026-04-11T06:35:21.857Z</time></trkpt><trkpt lat="42.1550317" lon="14.586525"><ele>168.0</ele><time>2026-04-11T06:35:22.857Z</time></trkpt><trkpt lat="42.15508" lon="14.5866283"><ele>167.0</ele><time>2026-04-11T06:35:23.857Z</time></trkpt><trkpt lat="42.1551317" lon="14.586725"><ele>166.0</ele><time>2026-04-11T06:35:24.857Z</time></trkpt><trkpt lat="42.1551867" lon="14.58681"><ele>165.0</ele><time>2026-04-11T06:35:25.856Z</time></trkpt><trkpt lat="42.1552467" lon="14.5868933"><ele>164.0</ele><time>2026-04-11T06:35:26.857Z</time></trkpt><trkpt lat="42.1553067" lon="14.5869767"><ele>163.66666666666666</ele><time>2026-04-11T06:35:27.857Z</time></trkpt><trkpt lat="42.15537" lon="14.5870617"><ele>163.33333333333331</ele><time>2026-04-11T06:35:28.857Z</time></trkpt><trkpt lat="42.1554283" lon="14.58714"><ele>163.0</ele><time>2026-04-11T06:35:29.857Z</time></trkpt><trkpt lat="42.1554917" lon="14.5872217"><ele>162.66666666666666</ele><time>2026-04-11T06:35:30.857Z</time></trkpt><trkpt lat="42.15555" lon="14.5873017"><ele>162.33333333333334</ele><time>2026-04-11T06:35:31.857Z</time></trkpt><trkpt lat="42.15561" lon="14.5873817"><ele>162.0</ele><time>2026-04-11T06:35:32.857Z</time></trkpt><trkpt lat="42.1556683" lon="14.5874633"><ele>161.66666666666666</ele><time>2026-04-11T06:35:33.857Z</time></trkpt><trkpt lat="42.1557233" lon="14.5875483"><ele>161.33333333333334</ele><time>2026-04-11T06:35:34.856Z</time></trkpt><trkpt lat="42.1557767" lon="14.5876267"><ele>161.0</ele><time>2026-04-11T06:35:35.856Z</time></trkpt><trkpt lat="42.155835" lon="14.587705"><ele>160.66666666666669</ele><time>2026-04-11T06:35:36.857Z</time></trkpt><trkpt lat="42.1558933" lon="14.5877833"><ele>160.33333333333334</ele><time>2026-04-11T06:35:37.857Z</time></trkpt><trkpt lat="42.1559417" lon="14.5878617"><ele>160.0</ele><time>2026-04-11T06:35:38.857Z</time></trkpt><trkpt lat="42.1559867" lon="14.5879483"><ele>160.0</ele><time>2026-04-11T06:35:39.856Z</time></trkpt><trkpt lat="42.156035" lon="14.5880317"><ele>160.0</ele><time>2026-04-11T06:35:40.857Z</time></trkpt><trkpt lat="42.156085" lon="14.5881183"><ele>160.0</ele><time>2026-04-11T06:35:41.857Z</time></trkpt><trkpt lat="42.1561283" lon="14.58819"><ele>160.0</ele><time>2026-04-11T06:35:42.857Z</time></trkpt><trkpt lat="42.1561733" lon="14.5882583"><ele>160.0</ele><time>2026-04-11T06:35:43.857Z</time></trkpt><trkpt lat="42.15622" lon="14.5883217"><ele>160.0</ele><time>2026-04-11T06:35:44.856Z</time></trkpt><trkpt lat="42.156265" lon="14.5883933"><ele>160.0</ele><time>2026-04-11T06:35:45.857Z</time></trkpt><trkpt lat="42.1563083" lon="14.5884633"><ele>160.0</ele><time>2026-04-11T06:35:46.857Z</time></trkpt><trkpt lat="42.1563867" lon="14.5885983"><ele>160.0</ele><time>2026-04-11T06:35:48.857Z</time></trkpt><trkpt lat="42.1564317" lon="14.5886633"><ele>160.0</ele><time>2026-04-11T06:35:49.857Z</time></trkpt><trkpt lat="42.1564717" lon="14.58873"><ele>160.0</ele><time>2026-04-11T06:35:50.857Z</time></trkpt><trkpt lat="42.156545" lon="14.58885"><ele>160.0</ele><time>2026-04-11T06:35:52.857Z</time></trkpt><trkpt lat="42.1566233" lon="14.5889767"><ele>159.8</ele><time>2026-04-11T06:35:54.857Z</time></trkpt><trkpt lat="42.1566683" lon="14.589045"><ele>159.6</ele><time>2026-04-11T06:35:55.857Z</time></trkpt><trkpt lat="42.15675" lon="14.589175"><ele>159.4</ele><time>2026-04-11T06:35:57.857Z</time></trkpt><trkpt lat="42.1567933" lon="14.5892383"><ele>159.2</ele><time>2026-04-11T06:35:58.857Z</time></trkpt><trkpt lat="42.1568783" lon="14.58936"><ele>159.0</ele><time>2026-04-11T06:36:00.856Z</time></trkpt><trkpt lat="42.1569617" lon="14.58948"><ele>158.2</ele><time>2026-04-11T06:36:02.857Z</time></trkpt><trkpt lat="42.1570117" lon="14.5895317"><ele>157.4</ele><time>2026-04-11T06:36:03.857Z</time></trkpt><trkpt lat="42.157115" lon="14.5896317"><ele>156.6</ele><time>2026-04-11T06:36:05.856Z</time></trkpt><trkpt lat="42.15717" lon="14.58968"><ele>155.8</ele><time>2026-04-11T06:36:06.856Z</time></trkpt><trkpt lat="42.1572683" lon="14.5897633"><ele>155.0</ele><time>2026-04-11T06:36:08.857Z</time></trkpt><trkpt lat="42.1573633" lon="14.58984"><ele>155.75</ele><time>2026-04-11T06:36:10.857Z</time></trkpt><trkpt lat="42.1574683" lon="14.5899283"><ele>156.5</ele><time>2026-04-11T06:36:12.857Z</time></trkpt><trkpt lat="42.15757" lon="14.5900117"><ele>157.25</ele><time>2026-04-11T06:36:14.857Z</time></trkpt><trkpt lat="42.1576667" lon="14.5901"><ele>158.0</ele><time>2026-04-11T06:36:16.856Z</time></trkpt><trkpt lat="42.1577683" lon="14.5901833"><ele>158.0</ele><time>2026-04-11T06:36:18.857Z</time></trkpt><trkpt lat="42.157865" lon="14.5902667"><ele>158.0</ele><time>2026-04-11T06:36:20.856Z</time></trkpt><trkpt lat="42.15796" lon="14.5903467"><ele>158.0</ele><time>2026-04-11T06:36:22.857Z</time></trkpt><trkpt lat="42.1580533" lon="14.590425"><ele>158.0</ele><time>2026-04-11T06:36:24.857Z</time></trkpt><trkpt lat="42.1581617" lon="14.590515"><ele>157.85714285714286</ele><time>2026-04-11T06:36:26.857Z</time></trkpt><trkpt lat="42.1582183" lon="14.5905667"><ele>157.71428571428572</ele><time>2026-04-11T06:36:27.857Z</time></trkpt><trkpt lat="42.1582733" lon="14.5906217"><ele>157.57142857142856</ele><time>2026-04-11T06:36:28.856Z</time></trkpt><trkpt lat="42.1583283" lon="14.5906783"><ele>157.42857142857144</ele><time>2026-04-11T06:36:29.856Z</time></trkpt><trkpt lat="42.158385" lon="14.590735"><ele>157.28571428571428</ele><time>2026-04-11T06:36:30.857Z</time></trkpt><trkpt lat="42.1584333" lon="14.5907933"><ele>157.14285714285714</ele><time>2026-04-11T06:36:31.856Z</time></trkpt><trkpt lat="42.15848" lon="14.590855"><ele>157.0</ele><time>2026-04-11T06:36:32.856Z</time></trkpt><trkpt lat="42.1585317" lon="14.590915"><ele>156.99999999999997</ele><time>2026-04-11T06:36:33.856Z</time></trkpt><trkpt lat="42.1585867" lon="14.5909767"><ele>157.0</ele><time>2026-04-11T06:36:34.857Z</time></trkpt><trkpt lat="42.1586417" lon="14.5910367"><ele>157.0</ele><time>2026-04-11T06:36:35.857Z</time></trkpt><trkpt lat="42.1586983" lon="14.5910967"><ele>157.0</ele><time>2026-04-11T06:36:36.856Z</time></trkpt><trkpt lat="42.158755" lon="14.591165"><ele>157.0</ele><time>2026-04-11T06:36:37.857Z</time></trkpt><trkpt lat="42.1588133" lon="14.5912333"><ele>156.99999999999997</ele><time>2026-04-11T06:36:38.856Z</time></trkpt><trkpt lat="42.15887" lon="14.591305"><ele>157.0</ele><time>2026-04-11T06:36:39.856Z</time></trkpt><trkpt lat="42.1589233" lon="14.5913667"><ele>156.7142857142857</ele><time>2026-04-11T06:36:40.857Z</time></trkpt><trkpt lat="42.158975" lon="14.59143"><ele>156.42857142857142</ele><time>2026-04-11T06:36:41.857Z</time></trkpt><trkpt lat="42.15903" lon="14.5914967"><ele>156.14285714285714</ele><time>2026-04-11T06:36:42.857Z</time></trkpt><trkpt lat="42.1590833" lon="14.5915617"><ele>155.85714285714283</ele><time>2026-04-11T06:36:43.856Z</time></trkpt><trkpt lat="42.159135" lon="14.591625"><ele>155.57142857142856</ele><time>2026-04-11T06:36:44.857Z</time></trkpt><trkpt lat="42.1591917" lon="14.59169"><ele>155.28571428571428</ele><time>2026-04-11T06:36:45.856Z</time></trkpt><trkpt lat="42.15925" lon="14.59175"><ele>155.0</ele><time>2026-04-11T06:36:46.857Z</time></trkpt><trkpt lat="42.1593083" lon="14.59181"><ele>154.85714285714286</ele><time>2026-04-11T06:36:47.856Z</time></trkpt><trkpt lat="42.159365" lon="14.5918733"><ele>154.71428571428572</ele><time>2026-04-11T06:36:48.856Z</time></trkpt><trkpt lat="42.1594267" lon="14.591935"><ele>154.57142857142856</ele><time>2026-04-11T06:36:49.857Z</time></trkpt><trkpt lat="42.1594833" lon="14.59199"><ele>154.42857142857144</ele><time>2026-04-11T06:36:50.857Z</time></trkpt><trkpt lat="42.15954" lon="14.5920567"><ele>154.28571428571428</ele><time>2026-04-11T06:36:51.857Z</time></trkpt><trkpt lat="42.1595933" lon="14.592115"><ele>154.14285714285714</ele><time>2026-04-11T06:36:52.856Z</time></trkpt><trkpt lat="42.1596533" lon="14.5921733"><ele>154.0</ele><time>2026-04-11T06:36:53.856Z</time></trkpt><trkpt lat="42.1597117" lon="14.59224"><ele>153.85714285714286</ele><time>2026-04-11T06:36:54.857Z</time></trkpt><trkpt lat="42.159765" lon="14.5923033"><ele>153.71428571428572</ele><time>2026-04-11T06:36:55.857Z</time></trkpt><trkpt lat="42.1598167" lon="14.5923717"><ele>153.57142857142856</ele><time>2026-04-11T06:36:56.856Z</time></trkpt><trkpt lat="42.159875" lon="14.5924367"><ele>153.42857142857144</ele><time>2026-04-11T06:36:57.857Z</time></trkpt><trkpt lat="42.1599333" lon="14.592505"><ele>153.28571428571428</ele><time>2026-04-11T06:36:58.857Z</time></trkpt><trkpt lat="42.1599883" lon="14.5925567"><ele>153.14285714285714</ele><time>2026-04-11T06:36:59.857Z</time></trkpt><trkpt lat="42.1600483" lon="14.59261"><ele>153.0</ele><time>2026-04-11T06:37:00.856Z</time></trkpt><trkpt lat="42.160105" lon="14.592675"><ele>152.83333333333334</ele><time>2026-04-11T06:37:01.857Z</time></trkpt><trkpt lat="42.16016" lon="14.59274"><ele>152.66666666666666</ele><time>2026-04-11T06:37:02.857Z</time></trkpt><trkpt lat="42.1602217" lon="14.5928017"><ele>152.5</ele><time>2026-04-11T06:37:03.857Z</time></trkpt><trkpt lat="42.1602817" lon="14.5928633"><ele>152.33333333333331</ele><time>2026-04-11T06:37:04.857Z</time></trkpt><trkpt lat="42.16034" lon="14.59293"><ele>152.16666666666666</ele><time>2026-04-11T06:37:05.857Z</time></trkpt><trkpt lat="42.1603917" lon="14.5930017"><ele>152.0</ele><time>2026-04-11T06:37:06.856Z</time></trkpt><trkpt lat="42.160445" lon="14.5930733"><ele>151.7142857142857</ele><time>2026-04-11T06:37:07.857Z</time></trkpt><trkpt lat="42.1604967" lon="14.5931417"><ele>151.42857142857144</ele><time>2026-04-11T06:37:08.857Z</time></trkpt><trkpt lat="42.16055" lon="14.5932067"><ele>151.14285714285714</ele><time>2026-04-11T06:37:09.857Z</time></trkpt><trkpt lat="42.1606017" lon="14.593275"><ele>150.85714285714283</ele><time>2026-04-11T06:37:10.857Z</time></trkpt><trkpt lat="42.1606533" lon="14.5933433"><ele>150.57142857142856</ele><time>2026-04-11T06:37:11.857Z</time></trkpt><trkpt lat="42.1607083" lon="14.5934167"><ele>150.28571428571428</ele><time>2026-04-11T06:37:12.857Z</time></trkpt><trkpt lat="42.160765" lon="14.5934867"><ele>150.0</ele><time>2026-04-11T06:37:13.857Z</time></trkpt><trkpt lat="42.1608217" lon="14.5935567"><ele>149.7142857142857</ele><time>2026-04-11T06:37:14.857Z</time></trkpt><trkpt lat="42.1608767" lon="14.59363"><ele>149.42857142857142</ele><time>2026-04-11T06:37:15.856Z</time></trkpt><trkpt lat="42.1609317" lon="14.5937017"><ele>149.14285714285714</ele><time>2026-04-11T06:37:16.857Z</time></trkpt><trkpt lat="42.1609867" lon="14.5937717"><ele>148.85714285714283</ele><time>2026-04-11T06:37:17.857Z</time></trkpt><trkpt lat="42.1610383" lon="14.593845"><ele>148.57142857142856</ele><time>2026-04-11T06:37:18.856Z</time></trkpt><trkpt lat="42.1610883" lon="14.593915"><ele>148.28571428571428</ele><time>2026-04-11T06:37:19.856Z</time></trkpt><trkpt lat="42.1611367" lon="14.5939867"><ele>148.0</ele><time>2026-04-11T06:37:20.856Z</time></trkpt><trkpt lat="42.1611917" lon="14.5940583"><ele>147.85714285714286</ele><time>2026-04-11T06:37:21.857Z</time></trkpt><trkpt lat="42.16124" lon="14.5941283"><ele>147.71428571428572</ele><time>2026-04-11T06:37:22.857Z</time></trkpt><trkpt lat="42.1612967" lon="14.5941933"><ele>147.57142857142856</ele><time>2026-04-11T06:37:23.857Z</time></trkpt><trkpt lat="42.1613483" lon="14.5942683"><ele>147.42857142857144</ele><time>2026-04-11T06:37:24.856Z</time></trkpt><trkpt lat="42.1614083" lon="14.594335"><ele>147.28571428571428</ele><time>2026-04-11T06:37:25.857Z</time></trkpt><trkpt lat="42.1614633" lon="14.5944033"><ele>147.14285714285714</ele><time>2026-04-11T06:37:26.857Z</time></trkpt><trkpt lat="42.1615183" lon="14.5944717"><ele>147.0</ele><time>2026-04-11T06:37:27.856Z</time></trkpt><trkpt lat="42.1615683" lon="14.5945383"><ele>146.28571428571428</ele><time>2026-04-11T06:37:28.857Z</time></trkpt><trkpt lat="42.1616217" lon="14.5946067"><ele>145.57142857142856</ele><time>2026-04-11T06:37:29.857Z</time></trkpt><trkpt lat="42.1616767" lon="14.5946733"><ele>144.85714285714286</ele><time>2026-04-11T06:37:30.856Z</time></trkpt><trkpt lat="42.161725" lon="14.594735"><ele>144.14285714285714</ele><time>2026-04-11T06:37:31.856Z</time></trkpt><trkpt lat="42.16177" lon="14.594805"><ele>143.42857142857142</ele><time>2026-04-11T06:37:32.856Z</time></trkpt><trkpt lat="42.1618267" lon="14.5948767"><ele>142.71428571428572</ele><time>2026-04-11T06:37:33.857Z</time></trkpt><trkpt lat="42.1618767" lon="14.5949467"><ele>142.0</ele><time>2026-04-11T06:37:34.857Z</time></trkpt><trkpt lat="42.16193" lon="14.5950183"><ele>142.0</ele><time>2026-04-11T06:37:35.857Z</time></trkpt><trkpt lat="42.16198" lon="14.5950833"><ele>142.0</ele><time>2026-04-11T06:37:36.857Z</time></trkpt><trkpt lat="42.16203" lon="14.5951483"><ele>142.0</ele><time>2026-04-11T06:37:37.857Z</time></trkpt><trkpt lat="42.162075" lon="14.5952233"><ele>142.0</ele><time>2026-04-11T06:37:38.856Z</time></trkpt><trkpt lat="42.1621233" lon="14.5952983"><ele>142.0</ele><time>2026-04-11T06:37:39.857Z</time></trkpt><trkpt lat="42.1621717" lon="14.595375"><ele>142.0</ele><time>2026-04-11T06:37:40.857Z</time></trkpt><trkpt lat="42.1622233" lon="14.5954533"><ele>142.0</ele><time>2026-04-11T06:37:41.857Z</time></trkpt><trkpt lat="42.1622733" lon="14.59553"><ele>142.0</ele><time>2026-04-11T06:37:42.857Z</time></trkpt><trkpt lat="42.1623233" lon="14.5956067"><ele>142.0</ele><time>2026-04-11T06:37:43.857Z</time></trkpt><trkpt lat="42.1623733" lon="14.595685"><ele>142.0</ele><time>2026-04-11T06:37:44.857Z</time></trkpt><trkpt lat="42.16242" lon="14.5957633"><ele>142.0</ele><time>2026-04-11T06:37:45.857Z</time></trkpt><trkpt lat="42.1624667" lon="14.59584"><ele>142.0</ele><time>2026-04-11T06:37:46.856Z</time></trkpt><trkpt lat="42.162515" lon="14.5959183"><ele>142.0</ele><time>2026-04-11T06:37:47.856Z</time></trkpt><trkpt lat="42.1625633" lon="14.595995"><ele>141.85714285714286</ele><time>2026-04-11T06:37:48.857Z</time></trkpt><trkpt lat="42.162605" lon="14.59607"><ele>141.7142857142857</ele><time>2026-04-11T06:37:49.857Z</time></trkpt><trkpt lat="42.1626517" lon="14.596145"><ele>141.57142857142856</ele><time>2026-04-11T06:37:50.857Z</time></trkpt><trkpt lat="42.1626933" lon="14.59622"><ele>141.42857142857142</ele><time>2026-04-11T06:37:51.857Z</time></trkpt><trkpt lat="42.1627367" lon="14.5963"><ele>141.28571428571428</ele><time>2026-04-11T06:37:52.856Z</time></trkpt><trkpt lat="42.1627817" lon="14.5963783"><ele>141.14285714285714</ele><time>2026-04-11T06:37:53.857Z</time></trkpt><trkpt lat="42.1628267" lon="14.5964517"><ele>141.0</ele><time>2026-04-11T06:37:54.857Z</time></trkpt><trkpt lat="42.1628667" lon="14.5965267"><ele>141.0</ele><time>2026-04-11T06:37:55.856Z</time></trkpt><trkpt lat="42.1629117" lon="14.5966033"><ele>141.0</ele><time>2026-04-11T06:37:56.857Z</time></trkpt><trkpt lat="42.1629583" lon="14.59668"><ele>141.0</ele><time>2026-04-11T06:37:57.857Z</time></trkpt><trkpt lat="42.1630033" lon="14.596755"><ele>141.0</ele><time>2026-04-11T06:37:58.856Z</time></trkpt><trkpt lat="42.16305" lon="14.5968283"><ele>141.0</ele><time>2026-04-11T06:37:59.857Z</time></trkpt><trkpt lat="42.163095" lon="14.5969017"><ele>141.0</ele><time>2026-04-11T06:38:00.857Z</time></trkpt><trkpt lat="42.1631417" lon="14.5969767"><ele>141.0</ele><time>2026-04-11T06:38:01.857Z</time></trkpt><trkpt lat="42.163185" lon="14.5970467"><ele>140.42857142857144</ele><time>2026-04-11T06:38:02.857Z</time></trkpt><trkpt lat="42.1632267" lon="14.597115"><ele>139.85714285714286</ele><time>2026-04-11T06:38:03.857Z</time></trkpt><trkpt lat="42.1632667" lon="14.597185"><ele>139.28571428571428</ele><time>2026-04-11T06:38:04.856Z</time></trkpt><trkpt lat="42.1633067" lon="14.5972567"><ele>138.71428571428572</ele><time>2026-04-11T06:38:05.856Z</time></trkpt><trkpt lat="42.1633483" lon="14.5973267"><ele>138.14285714285714</ele><time>2026-04-11T06:38:06.856Z</time></trkpt><trkpt lat="42.1633933" lon="14.5973967"><ele>137.57142857142858</ele><time>2026-04-11T06:38:07.856Z</time></trkpt><trkpt lat="42.16344" lon="14.5974683"><ele>137.0</ele><time>2026-04-11T06:38:08.856Z</time></trkpt><trkpt lat="42.1635217" lon="14.5975933"><ele>137.0</ele><time>2026-04-11T06:38:10.856Z</time></trkpt><trkpt lat="42.1635917" lon="14.5977167"><ele>137.0</ele><time>2026-04-11T06:38:12.857Z</time></trkpt><trkpt lat="42.1636833" lon="14.5978183"><ele>137.0</ele><time>2026-04-11T06:38:14.857Z</time></trkpt><trkpt lat="42.16374" lon="14.5978567"><ele>137.0</ele><time>2026-04-11T06:38:15.857Z</time></trkpt><trkpt lat="42.1638633" lon="14.5979133"><ele>137.0</ele><time>2026-04-11T06:38:17.856Z</time></trkpt><trkpt lat="42.1639283" lon="14.5979383"><ele>136.85714285714286</ele><time>2026-04-11T06:38:18.857Z</time></trkpt><trkpt lat="42.1639933" lon="14.5979683"><ele>136.71428571428572</ele><time>2026-04-11T06:38:19.856Z</time></trkpt><trkpt lat="42.16406" lon="14.598"><ele>136.57142857142856</ele><time>2026-04-11T06:38:20.856Z</time></trkpt><trkpt lat="42.1641267" lon="14.5980333"><ele>136.42857142857144</ele><time>2026-04-11T06:38:21.857Z</time></trkpt><trkpt lat="42.16419" lon="14.5980717"><ele>136.28571428571428</ele><time>2026-04-11T06:38:22.856Z</time></trkpt><trkpt lat="42.16425" lon="14.5981167"><ele>136.14285714285714</ele><time>2026-04-11T06:38:23.856Z</time></trkpt><trkpt lat="42.1643083" lon="14.598165"><ele>136.0</ele><time>2026-04-11T06:38:24.856Z</time></trkpt><trkpt lat="42.164365" lon="14.5982133"><ele>135.7142857142857</ele><time>2026-04-11T06:38:25.857Z</time></trkpt><trkpt lat="42.16442" lon="14.5982567"><ele>135.42857142857142</ele><time>2026-04-11T06:38:26.857Z</time></trkpt><trkpt lat="42.164475" lon="14.5983067"><ele>135.14285714285714</ele><time>2026-04-11T06:38:27.856Z</time></trkpt><trkpt lat="42.1645317" lon="14.598365"><ele>134.85714285714283</ele><time>2026-04-11T06:38:28.856Z</time></trkpt><trkpt lat="42.1645833" lon="14.5984233"><ele>134.57142857142856</ele><time>2026-04-11T06:38:29.857Z</time></trkpt><trkpt lat="42.164635" lon="14.5984833"><ele>134.28571428571428</ele><time>2026-04-11T06:38:30.857Z</time></trkpt><trkpt lat="42.164685" lon="14.598545"><ele>134.0</ele><time>2026-04-11T06:38:31.856Z</time></trkpt><trkpt lat="42.164735" lon="14.5986083"><ele>133.83333333333331</ele><time>2026-04-11T06:38:32.857Z</time></trkpt><trkpt lat="42.1647817" lon="14.59867"><ele>133.66666666666666</ele><time>2026-04-11T06:38:33.856Z</time></trkpt><trkpt lat="42.16483" lon="14.59873"><ele>133.5</ele><time>2026-04-11T06:38:34.856Z</time></trkpt><trkpt lat="42.1648767" lon="14.5987933"><ele>133.33333333333334</ele><time>2026-04-11T06:38:35.857Z</time></trkpt><trkpt lat="42.164955" lon="14.5989167"><ele>133.16666666666669</ele><time>2026-04-11T06:38:37.857Z</time></trkpt><trkpt lat="42.165025" lon="14.5990217"><ele>133.0</ele><time>2026-04-11T06:38:39.857Z</time></trkpt><trkpt lat="42.1650733" lon="14.5991"><ele>132.85714285714286</ele><time>2026-04-11T06:38:41.857Z</time></trkpt><trkpt lat="42.1651217" lon="14.5991767"><ele>132.71428571428572</ele><time>2026-04-11T06:38:44.857Z</time></trkpt><trkpt lat="42.1651683" lon="14.5992533"><ele>132.57142857142856</ele><time>2026-04-11T06:38:48.857Z</time></trkpt><trkpt lat="42.1652167" lon="14.59934"><ele>132.42857142857144</ele><time>2026-04-11T06:39:11.857Z</time></trkpt><trkpt lat="42.165235" lon="14.59944"><ele>132.28571428571428</ele><time>2026-04-11T06:39:17.857Z</time></trkpt><trkpt lat="42.1652467" lon="14.599535"><ele>132.14285714285714</ele><time>2026-04-11T06:39:20.856Z</time></trkpt><trkpt lat="42.1652683" lon="14.5996283"><ele>132.0</ele><time>2026-04-11T06:39:23.856Z</time></trkpt><trkpt lat="42.165295" lon="14.59971"><ele>132.0</ele><time>2026-04-11T06:39:25.857Z</time></trkpt><trkpt lat="42.1653217" lon="14.5997883"><ele>132.0</ele><time>2026-04-11T06:39:27.857Z</time></trkpt><trkpt lat="42.16535" lon="14.5998667"><ele>132.0</ele><time>2026-04-11T06:39:29.857Z</time></trkpt><trkpt lat="42.1653833" lon="14.5999433"><ele>132.0</ele><time>2026-04-11T06:39:31.857Z</time></trkpt><trkpt lat="42.1654383" lon="14.6000083"><ele>132.0</ele><time>2026-04-11T06:39:33.856Z</time></trkpt><trkpt lat="42.165495" lon="14.6000717"><ele>132.0</ele><time>2026-04-11T06:39:35.857Z</time></trkpt><trkpt lat="42.165545" lon="14.6001383"><ele>132.0</ele><time>2026-04-11T06:39:37.856Z</time></trkpt><trkpt lat="42.1655967" lon="14.6002"><ele>132.0</ele><time>2026-04-11T06:39:39.856Z</time></trkpt><trkpt lat="42.1656567" lon="14.6002717"><ele>132.0</ele><time>2026-04-11T06:39:41.857Z</time></trkpt><trkpt lat="42.1657183" lon="14.6003467"><ele>132.0</ele><time>2026-04-11T06:39:43.857Z</time></trkpt><trkpt lat="42.1657867" lon="14.6004133"><ele>132.0</ele><time>2026-04-11T06:39:45.857Z</time></trkpt><trkpt lat="42.1658517" lon="14.6004883"><ele>132.0</ele><time>2026-04-11T06:39:47.857Z</time></trkpt><trkpt lat="42.1659133" lon="14.6005617"><ele>132.0</ele><time>2026-04-11T06:39:49.857Z</time></trkpt><trkpt lat="42.1659733" lon="14.600635"><ele>131.66666666666666</ele><time>2026-04-11T06:39:51.857Z</time></trkpt><trkpt lat="42.1660333" lon="14.6007083"><ele>131.33333333333334</ele><time>2026-04-11T06:39:53.857Z</time></trkpt><trkpt lat="42.1660933" lon="14.6007833"><ele>131.0</ele><time>2026-04-11T06:39:55.856Z</time></trkpt><trkpt lat="42.1661583" lon="14.6008633"><ele>130.66666666666669</ele><time>2026-04-11T06:39:57.857Z</time></trkpt><trkpt lat="42.166225" lon="14.6009383"><ele>130.33333333333334</ele><time>2026-04-11T06:39:59.857Z</time></trkpt><trkpt lat="42.1662933" lon="14.6010233"><ele>130.0</ele><time>2026-04-11T06:40:01.856Z</time></trkpt><trkpt lat="42.1663617" lon="14.6010983"><ele>130.0</ele><time>2026-04-11T06:40:03.857Z</time></trkpt><trkpt lat="42.1664233" lon="14.6011583"><ele>130.0</ele><time>2026-04-11T06:40:05.857Z</time></trkpt><trkpt lat="42.1664783" lon="14.6012133"><ele>130.0</ele><time>2026-04-11T06:40:07.856Z</time></trkpt><trkpt lat="42.1665383" lon="14.60129"><ele>130.0</ele><time>2026-04-11T06:40:09.856Z</time></trkpt><trkpt lat="42.1666017" lon="14.60137"><ele>130.0</ele><time>2026-04-11T06:40:11.857Z</time></trkpt><trkpt lat="42.16667" lon="14.6014533"><ele>130.0</ele><time>2026-04-11T06:40:13.856Z</time></trkpt><trkpt lat="42.1667433" lon="14.6015417"><ele>129.4</ele><time>2026-04-11T06:40:15.856Z</time></trkpt><trkpt lat="42.1668167" lon="14.601625"><ele>128.8</ele><time>2026-04-11T06:40:17.856Z</time></trkpt><trkpt lat="42.1668883" lon="14.6016983"><ele>128.2</ele><time>2026-04-11T06:40:19.857Z</time></trkpt><trkpt lat="42.16696" lon="14.6017767"><ele>127.6</ele><time>2026-04-11T06:40:21.857Z</time></trkpt><trkpt lat="42.16703" lon="14.6018583"><ele>127.0</ele><time>2026-04-11T06:40:23.856Z</time></trkpt><trkpt lat="42.1670933" lon="14.60195"><ele>126.83333333333334</ele><time>2026-04-11T06:40:25.858Z</time></trkpt><trkpt lat="42.16716" lon="14.6020417"><ele>126.66666666666667</ele><time>2026-04-11T06:40:27.858Z</time></trkpt><trkpt lat="42.1672217" lon="14.60213"><ele>126.5</ele><time>2026-04-11T06:40:29.857Z</time></trkpt><trkpt lat="42.1672817" lon="14.6022083"><ele>126.33333333333334</ele><time>2026-04-11T06:40:31.858Z</time></trkpt><trkpt lat="42.1673383" lon="14.6022817"><ele>126.16666666666667</ele><time>2026-04-11T06:40:33.858Z</time></trkpt><trkpt lat="42.1674" lon="14.60237"><ele>126.0</ele><time>2026-04-11T06:40:35.857Z</time></trkpt><trkpt lat="42.1674733" lon="14.6024433"><ele>125.8</ele><time>2026-04-11T06:40:37.858Z</time></trkpt><trkpt lat="42.1675417" lon="14.6025183"><ele>125.6</ele><time>2026-04-11T06:40:39.858Z</time></trkpt><trkpt lat="42.1676067" lon="14.6026083"><ele>125.4</ele><time>2026-04-11T06:40:41.858Z</time></trkpt><trkpt lat="42.1676733" lon="14.6026967"><ele>125.2</ele><time>2026-04-11T06:40:43.858Z</time></trkpt><trkpt lat="42.1677417" lon="14.6027783"><ele>125.0</ele><time>2026-04-11T06:40:45.858Z</time></trkpt><trkpt lat="42.1678233" lon="14.602875"><ele>125.0</ele><time>2026-04-11T06:40:47.858Z</time></trkpt><trkpt lat="42.1679033" lon="14.6029633"><ele>125.0</ele><time>2026-04-11T06:40:49.857Z</time></trkpt><trkpt lat="42.1679817" lon="14.6030567"><ele>125.0</ele><time>2026-04-11T06:40:51.858Z</time></trkpt><trkpt lat="42.168055" lon="14.6031433"><ele>125.0</ele><time>2026-04-11T06:40:53.858Z</time></trkpt><trkpt lat="42.1681217" lon="14.6032317"><ele>125.0</ele><time>2026-04-11T06:40:55.858Z</time></trkpt><trkpt lat="42.1681717" lon="14.6033333"><ele>124.4</ele><time>2026-04-11T06:40:57.858Z</time></trkpt><trkpt lat="42.1682333" lon="14.6034333"><ele>123.8</ele><time>2026-04-11T06:40:59.858Z</time></trkpt><trkpt lat="42.1682917" lon="14.6035417"><ele>123.19999999999999</ele><time>2026-04-11T06:41:01.858Z</time></trkpt><trkpt lat="42.16835" lon="14.6036533"><ele>122.6</ele><time>2026-04-11T06:41:03.858Z</time></trkpt><trkpt lat="42.1684033" lon="14.603765"><ele>122.0</ele><time>2026-04-11T06:41:05.858Z</time></trkpt><trkpt lat="42.168465" lon="14.6038633"><ele>122.0</ele><time>2026-04-11T06:41:07.857Z</time></trkpt><trkpt lat="42.1685367" lon="14.60396"><ele>121.99999999999999</ele><time>2026-04-11T06:41:09.857Z</time></trkpt><trkpt lat="42.1686083" lon="14.60406"><ele>121.99999999999999</ele><time>2026-04-11T06:41:11.858Z</time></trkpt><trkpt lat="42.1686767" lon="14.6041517"><ele>122.0</ele><time>2026-04-11T06:41:13.858Z</time></trkpt><trkpt lat="42.168745" lon="14.604245"><ele>122.0</ele><time>2026-04-11T06:41:15.858Z</time></trkpt><trkpt lat="42.1688133" lon="14.60434"><ele>122.0</ele><time>2026-04-11T06:41:17.858Z</time></trkpt><trkpt lat="42.1688833" lon="14.6044433"><ele>121.99999999999999</ele><time>2026-04-11T06:41:19.858Z</time></trkpt><trkpt lat="42.1689517" lon="14.6045483"><ele>121.99999999999999</ele><time>2026-04-11T06:41:21.857Z</time></trkpt><trkpt lat="42.1690233" lon="14.604645"><ele>122.0</ele><time>2026-04-11T06:41:23.858Z</time></trkpt><trkpt lat="42.169095" lon="14.6047417"><ele>122.0</ele><time>2026-04-11T06:41:25.858Z</time></trkpt><trkpt lat="42.16916" lon="14.6048333"><ele>121.39999999999999</ele><time>2026-04-11T06:41:27.857Z</time></trkpt><trkpt lat="42.169235" lon="14.6049267"><ele>120.79999999999998</ele><time>2026-04-11T06:41:29.858Z</time></trkpt><trkpt lat="42.169305" lon="14.60504"><ele>120.2</ele><time>2026-04-11T06:41:31.858Z</time></trkpt><trkpt lat="42.1693767" lon="14.6051267"><ele>119.6</ele><time>2026-04-11T06:41:33.857Z</time></trkpt><trkpt lat="42.1694583" lon="14.6052217"><ele>119.0</ele><time>2026-04-11T06:41:35.857Z</time></trkpt><trkpt lat="42.169535" lon="14.6053167"><ele>119.0</ele><time>2026-04-11T06:41:37.858Z</time></trkpt><trkpt lat="42.1696017" lon="14.6054083"><ele>119.0</ele><time>2026-04-11T06:41:39.857Z</time></trkpt><trkpt lat="42.16967" lon="14.6054983"><ele>119.0</ele><time>2026-04-11T06:41:41.857Z</time></trkpt><trkpt lat="42.1697517" lon="14.6055833"><ele>119.0</ele><time>2026-04-11T06:41:43.858Z</time></trkpt><trkpt lat="42.1698283" lon="14.6056783"><ele>119.0</ele><time>2026-04-11T06:41:45.857Z</time></trkpt><trkpt lat="42.1698983" lon="14.6057683"><ele>118.6</ele><time>2026-04-11T06:41:47.858Z</time></trkpt><trkpt lat="42.1699667" lon="14.60585"><ele>118.2</ele><time>2026-04-11T06:41:49.857Z</time></trkpt><trkpt lat="42.170035" lon="14.60593"><ele>117.79999999999998</ele><time>2026-04-11T06:41:51.857Z</time></trkpt><trkpt lat="42.1701017" lon="14.606015"><ele>117.39999999999999</ele><time>2026-04-11T06:41:53.857Z</time></trkpt><trkpt lat="42.170165" lon="14.6060967"><ele>117.0</ele><time>2026-04-11T06:41:55.858Z</time></trkpt><trkpt lat="42.1702333" lon="14.6061783"><ele>117.0</ele><time>2026-04-11T06:41:57.857Z</time></trkpt><trkpt lat="42.170305" lon="14.60626"><ele>116.99999999999999</ele><time>2026-04-11T06:41:59.857Z</time></trkpt><trkpt lat="42.1703767" lon="14.6063483"><ele>116.99999999999999</ele><time>2026-04-11T06:42:01.857Z</time></trkpt><trkpt lat="42.170455" lon="14.60644"><ele>117.0</ele><time>2026-04-11T06:42:03.857Z</time></trkpt><trkpt lat="42.1705233" lon="14.6065333"><ele>117.0</ele><time>2026-04-11T06:42:05.857Z</time></trkpt><trkpt lat="42.17059" lon="14.6066383"><ele>117.0</ele><time>2026-04-11T06:42:07.858Z</time></trkpt><trkpt lat="42.170665" lon="14.6067367"><ele>116.99999999999999</ele><time>2026-04-11T06:42:09.858Z</time></trkpt><trkpt lat="42.17073" lon="14.6068283"><ele>116.99999999999999</ele><time>2026-04-11T06:42:11.858Z</time></trkpt><trkpt lat="42.1708083" lon="14.6069233"><ele>117.0</ele><time>2026-04-11T06:42:13.858Z</time></trkpt><trkpt lat="42.1708867" lon="14.6070217"><ele>117.0</ele><time>2026-04-11T06:42:15.858Z</time></trkpt><trkpt lat="42.1709567" lon="14.6071167"><ele>116.6</ele><time>2026-04-11T06:42:17.857Z</time></trkpt><trkpt lat="42.171025" lon="14.6072117"><ele>116.19999999999999</ele><time>2026-04-11T06:42:19.858Z</time></trkpt><trkpt lat="42.1710983" lon="14.6073067"><ele>115.8</ele><time>2026-04-11T06:42:21.857Z</time></trkpt><trkpt lat="42.1711683" lon="14.6073983"><ele>115.4</ele><time>2026-04-11T06:42:23.857Z</time></trkpt><trkpt lat="42.1712317" lon="14.60749"><ele>115.0</ele><time>2026-04-11T06:42:25.858Z</time></trkpt><trkpt lat="42.1713017" lon="14.6075883"><ele>115.0</ele><time>2026-04-11T06:42:27.858Z</time></trkpt><trkpt lat="42.1713733" lon="14.6076883"><ele>115.0</ele><time>2026-04-11T06:42:29.858Z</time></trkpt><trkpt lat="42.171445" lon="14.6077983"><ele>115.0</ele><time>2026-04-11T06:42:31.858Z</time></trkpt><trkpt lat="42.171515" lon="14.6079217"><ele>115.0</ele><time>2026-04-11T06:42:33.858Z</time></trkpt><trkpt lat="42.171585" lon="14.6080317"><ele>115.0</ele><time>2026-04-11T06:42:35.858Z</time></trkpt><trkpt lat="42.17165" lon="14.6081483"><ele>114.4</ele><time>2026-04-11T06:42:37.858Z</time></trkpt><trkpt lat="42.1717183" lon="14.6082417"><ele>113.8</ele><time>2026-04-11T06:42:39.858Z</time></trkpt><trkpt lat="42.1717883" lon="14.608335"><ele>113.19999999999999</ele><time>2026-04-11T06:42:41.858Z</time></trkpt><trkpt lat="42.1718767" lon="14.6084217"><ele>112.6</ele><time>2026-04-11T06:42:43.857Z</time></trkpt><trkpt lat="42.1719667" lon="14.6085183"><ele>112.0</ele><time>2026-04-11T06:42:45.858Z</time></trkpt><trkpt lat="42.1720567" lon="14.6086117"><ele>111.19999999999999</ele><time>2026-04-11T06:42:47.858Z</time></trkpt><trkpt lat="42.1721467" lon="14.60871"><ele>110.39999999999999</ele><time>2026-04-11T06:42:49.857Z</time></trkpt><trkpt lat="42.172225" lon="14.6088"><ele>109.60000000000001</ele><time>2026-04-11T06:42:51.858Z</time></trkpt><trkpt lat="42.1722983" lon="14.6088983"><ele>108.80000000000001</ele><time>2026-04-11T06:42:53.858Z</time></trkpt><trkpt lat="42.17238" lon="14.609"><ele>108.0</ele><time>2026-04-11T06:42:55.858Z</time></trkpt><trkpt lat="42.1724583" lon="14.6091183"><ele>108.0</ele><time>2026-04-11T06:42:57.857Z</time></trkpt><trkpt lat="42.1725017" lon="14.6091817"><ele>108.00000000000001</ele><time>2026-04-11T06:42:58.857Z</time></trkpt><trkpt lat="42.17259" lon="14.6092967"><ele>108.00000000000001</ele><time>2026-04-11T06:43:00.857Z</time></trkpt><trkpt lat="42.1726733" lon="14.6094067"><ele>108.0</ele><time>2026-04-11T06:43:02.858Z</time></trkpt><trkpt lat="42.1727633" lon="14.6095083"><ele>108.0</ele><time>2026-04-11T06:43:04.858Z</time></trkpt><trkpt lat="42.1728733" lon="14.60957"><ele>106.85714285714286</ele><time>2026-04-11T06:43:06.858Z</time></trkpt><trkpt lat="42.1729367" lon="14.6096017"><ele>105.71428571428571</ele><time>2026-04-11T06:43:07.858Z</time></trkpt><trkpt lat="42.173" lon="14.6096367"><ele>104.57142857142858</ele><time>2026-04-11T06:43:08.858Z</time></trkpt><trkpt lat="42.1730633" lon="14.609675"><ele>103.42857142857143</ele><time>2026-04-11T06:43:09.857Z</time></trkpt><trkpt lat="42.1731183" lon="14.6097183"><ele>102.28571428571429</ele><time>2026-04-11T06:43:10.857Z</time></trkpt><trkpt lat="42.1731683" lon="14.60977"><ele>101.14285714285715</ele><time>2026-04-11T06:43:11.858Z</time></trkpt><trkpt lat="42.1732533" lon="14.6098767"><ele>100.0</ele><time>2026-04-11T06:43:13.858Z</time></trkpt><trkpt lat="42.1733417" lon="14.6099767"><ele>99.8</ele><time>2026-04-11T06:43:15.857Z</time></trkpt><trkpt lat="42.1734217" lon="14.6100583"><ele>99.6</ele><time>2026-04-11T06:43:17.857Z</time></trkpt><trkpt lat="42.173505" lon="14.6100783"><ele>99.4</ele><time>2026-04-11T06:43:19.858Z</time></trkpt><trkpt lat="42.1736" lon="14.6100617"><ele>99.2</ele><time>2026-04-11T06:43:21.858Z</time></trkpt><trkpt lat="42.17369" lon="14.6100333"><ele>99.0</ele><time>2026-04-11T06:43:23.858Z</time></trkpt><trkpt lat="42.1737667" lon="14.6100167"><ele>99.0</ele><time>2026-04-11T06:43:25.858Z</time></trkpt><trkpt lat="42.17383" lon="14.6100183"><ele>99.0</ele><time>2026-04-11T06:43:27.858Z</time></trkpt><trkpt lat="42.1739183" lon="14.6100317"><ele>99.0</ele><time>2026-04-11T06:43:30.857Z</time></trkpt><trkpt lat="42.1740083" lon="14.6100583"><ele>99.0</ele><time>2026-04-11T06:43:33.858Z</time></trkpt><trkpt lat="42.1740783" lon="14.6100583"><ele>99.0</ele><time>2026-04-11T06:43:35.857Z</time></trkpt><trkpt lat="42.1741567" lon="14.61005"><ele>99.0</ele><time>2026-04-11T06:43:37.857Z</time></trkpt><trkpt lat="42.1742333" lon="14.6100817"><ele>98.0</ele><time>2026-04-11T06:43:39.858Z</time></trkpt><trkpt lat="42.1743117" lon="14.6101267"><ele>97.0</ele><time>2026-04-11T06:43:41.858Z</time></trkpt><trkpt lat="42.1743883" lon="14.6101717"><ele>96.0</ele><time>2026-04-11T06:43:43.858Z</time></trkpt><trkpt lat="42.174465" lon="14.610195"><ele>95.0</ele><time>2026-04-11T06:43:45.858Z</time></trkpt><trkpt lat="42.1745417" lon="14.6102317"><ele>94.0</ele><time>2026-04-11T06:43:47.858Z</time></trkpt><trkpt lat="42.1746233" lon="14.6102617"><ele>93.0</ele><time>2026-04-11T06:43:49.858Z</time></trkpt><trkpt lat="42.1747167" lon="14.61028"><ele>93.0</ele><time>2026-04-11T06:43:51.858Z</time></trkpt><trkpt lat="42.1748183" lon="14.6102933"><ele>93.0</ele><time>2026-04-11T06:43:53.857Z</time></trkpt><trkpt lat="42.1749183" lon="14.6103267"><ele>93.0</ele><time>2026-04-11T06:43:55.857Z</time></trkpt><trkpt lat="42.1750133" lon="14.61035"><ele>93.0</ele><time>2026-04-11T06:43:57.858Z</time></trkpt><trkpt lat="42.1751083" lon="14.6103767"><ele>93.0</ele><time>2026-04-11T06:43:59.858Z</time></trkpt><trkpt lat="42.1752183" lon="14.6104033"><ele>89.4</ele><time>2026-04-11T06:44:01.857Z</time></trkpt><trkpt lat="42.17533" lon="14.610425"><ele>85.80000000000001</ele><time>2026-04-11T06:44:03.857Z</time></trkpt><trkpt lat="42.1754283" lon="14.6104383"><ele>82.2</ele><time>2026-04-11T06:44:05.857Z</time></trkpt><trkpt lat="42.17552" lon="14.61045"><ele>78.6</ele><time>2026-04-11T06:44:07.858Z</time></trkpt><trkpt lat="42.1756033" lon="14.6104567"><ele>75.0</ele><time>2026-04-11T06:44:09.858Z</time></trkpt><trkpt lat="42.1756833" lon="14.610465"><ele>73.71428571428571</ele><time>2026-04-11T06:44:11.857Z</time></trkpt><trkpt lat="42.1757667" lon="14.6104933"><ele>72.42857142857143</ele><time>2026-04-11T06:44:13.858Z</time></trkpt><trkpt lat="42.17584" lon="14.610535"><ele>71.14285714285714</ele><time>2026-04-11T06:44:15.858Z</time></trkpt><trkpt lat="42.1759033" lon="14.610585"><ele>69.85714285714286</ele><time>2026-04-11T06:44:17.857Z</time></trkpt><trkpt lat="42.175955" lon="14.6106567"><ele>68.57142857142857</ele><time>2026-04-11T06:44:19.858Z</time></trkpt><trkpt lat="42.1760067" lon="14.61072"><ele>67.28571428571428</ele><time>2026-04-11T06:44:21.858Z</time></trkpt><trkpt lat="42.1760517" lon="14.61078"><ele>66.0</ele><time>2026-04-11T06:44:23.858Z</time></trkpt><trkpt lat="42.1761067" lon="14.610865"><ele>66.0</ele><time>2026-04-11T06:44:26.858Z</time></trkpt><trkpt lat="42.1761517" lon="14.6109283"><ele>66.0</ele><time>2026-04-11T06:44:28.858Z</time></trkpt><trkpt lat="42.17621" lon="14.61098"><ele>66.0</ele><time>2026-04-11T06:44:30.858Z</time></trkpt><trkpt lat="42.17626" lon="14.6110417"><ele>66.0</ele><time>2026-04-11T06:44:32.857Z</time></trkpt><trkpt lat="42.1763167" lon="14.61109"><ele>66.0</ele><time>2026-04-11T06:44:34.858Z</time></trkpt><trkpt lat="42.1763683" lon="14.611145"><ele>66.0</ele><time>2026-04-11T06:44:36.857Z</time></trkpt><trkpt lat="42.1764283" lon="14.6112483"><ele>66.0</ele><time>2026-04-11T06:44:39.858Z</time></trkpt><trkpt lat="42.1764733" lon="14.61132"><ele>65.0</ele><time>2026-04-11T06:44:41.857Z</time></trkpt><trkpt lat="42.17653" lon="14.6113883"><ele>64.0</ele><time>2026-04-11T06:44:43.858Z</time></trkpt><trkpt lat="42.17658" lon="14.6114483"><ele>63.0</ele><time>2026-04-11T06:44:45.858Z</time></trkpt><trkpt lat="42.17664" lon="14.6114967"><ele>62.0</ele><time>2026-04-11T06:44:47.858Z</time></trkpt><trkpt lat="42.1767083" lon="14.6115083"><ele>61.0</ele><time>2026-04-11T06:44:49.858Z</time></trkpt><trkpt lat="42.1768033" lon="14.6114833"><ele>60.0</ele><time>2026-04-11T06:44:52.857Z</time></trkpt><trkpt lat="42.176865" lon="14.6114483"><ele>59.0</ele><time>2026-04-11T06:44:54.858Z</time></trkpt><trkpt lat="42.17693" lon="14.6114267"><ele>59.00000000000001</ele><time>2026-04-11T06:44:56.858Z</time></trkpt><trkpt lat="42.1770033" lon="14.61141"><ele>59.0</ele><time>2026-04-11T06:44:58.858Z</time></trkpt><trkpt lat="42.1770767" lon="14.6114"><ele>59.0</ele><time>2026-04-11T06:45:00.858Z</time></trkpt><trkpt lat="42.17716" lon="14.6113833"><ele>59.0</ele><time>2026-04-11T06:45:02.857Z</time></trkpt><trkpt lat="42.177235" lon="14.6113717"><ele>59.00000000000001</ele><time>2026-04-11T06:45:04.858Z</time></trkpt><trkpt lat="42.17731" lon="14.6113517"><ele>59.0</ele><time>2026-04-11T06:45:06.858Z</time></trkpt><trkpt lat="42.17738" lon="14.6113417"><ele>58.50000000000001</ele><time>2026-04-11T06:45:08.857Z</time></trkpt><trkpt lat="42.1774633" lon="14.6113283"><ele>58.0</ele><time>2026-04-11T06:45:10.857Z</time></trkpt><trkpt lat="42.1775417" lon="14.6113117"><ele>57.5</ele><time>2026-04-11T06:45:12.857Z</time></trkpt><trkpt lat="42.1776233" lon="14.6112983"><ele>57.0</ele><time>2026-04-11T06:45:14.858Z</time></trkpt><trkpt lat="42.1777117" lon="14.6112883"><ele>56.50000000000001</ele><time>2026-04-11T06:45:16.858Z</time></trkpt><trkpt lat="42.1777933" lon="14.6112767"><ele>56.0</ele><time>2026-04-11T06:45:18.858Z</time></trkpt><trkpt lat="42.177865" lon="14.611275"><ele>56.0</ele><time>2026-04-11T06:45:20.858Z</time></trkpt><trkpt lat="42.1779467" lon="14.6112583"><ele>56.0</ele><time>2026-04-11T06:45:23.857Z</time></trkpt><trkpt lat="42.1780083" lon="14.6112883"><ele>56.0</ele><time>2026-04-11T06:45:44.857Z</time></trkpt><trkpt lat="42.17808" lon="14.6113383"><ele>56.0</ele><time>2026-04-11T06:45:47.858Z</time></trkpt><trkpt lat="42.1781367" lon="14.6113917"><ele>56.0</ele><time>2026-04-11T06:45:49.858Z</time></trkpt><trkpt lat="42.1782033" lon="14.611425"><ele>56.0</ele><time>2026-04-11T06:45:51.858Z</time></trkpt><trkpt lat="42.1782683" lon="14.61147"><ele>56.0</ele><time>2026-04-11T06:45:53.858Z</time></trkpt><trkpt lat="42.1783433" lon="14.6115167"><ele>55.833333333333336</ele><time>2026-04-11T06:45:55.858Z</time></trkpt><trkpt lat="42.17842" lon="14.6115617"><ele>55.66666666666667</ele><time>2026-04-11T06:45:57.858Z</time></trkpt><trkpt lat="42.1785" lon="14.6115867"><ele>55.5</ele><time>2026-04-11T06:45:59.857Z</time></trkpt><trkpt lat="42.1785783" lon="14.6116033"><ele>55.33333333333333</ele><time>2026-04-11T06:46:01.858Z</time></trkpt><trkpt lat="42.1786467" lon="14.6116167"><ele>55.166666666666664</ele><time>2026-04-11T06:46:03.858Z</time></trkpt><trkpt lat="42.17872" lon="14.61163"><ele>55.0</ele><time>2026-04-11T06:46:05.857Z</time></trkpt><trkpt lat="42.178805" lon="14.6116383"><ele>54.99999999999999</ele><time>2026-04-11T06:46:07.858Z</time></trkpt><trkpt lat="42.1788817" lon="14.61165"><ele>55.0</ele><time>2026-04-11T06:46:09.858Z</time></trkpt><trkpt lat="42.1789583" lon="14.61166"><ele>55.0</ele><time>2026-04-11T06:46:11.858Z</time></trkpt><trkpt lat="42.1790467" lon="14.6116683"><ele>55.0</ele><time>2026-04-11T06:46:13.857Z</time></trkpt><trkpt lat="42.1791267" lon="14.61167"><ele>54.99999999999999</ele><time>2026-04-11T06:46:15.858Z</time></trkpt><trkpt lat="42.179195" lon="14.611665"><ele>55.0</ele><time>2026-04-11T06:46:17.857Z</time></trkpt><trkpt lat="42.179265" lon="14.611655"><ele>54.857142857142854</ele><time>2026-04-11T06:46:19.858Z</time></trkpt><trkpt lat="42.17934" lon="14.61164"><ele>54.714285714285715</ele><time>2026-04-11T06:46:21.857Z</time></trkpt><trkpt lat="42.17942" lon="14.6116217"><ele>54.57142857142857</ele><time>2026-04-11T06:46:23.858Z</time></trkpt><trkpt lat="42.1794967" lon="14.6116117"><ele>54.42857142857143</ele><time>2026-04-11T06:46:25.857Z</time></trkpt><trkpt lat="42.1795633" lon="14.611615"><ele>54.285714285714285</ele><time>2026-04-11T06:46:27.858Z</time></trkpt><trkpt lat="42.17963" lon="14.6116267"><ele>54.14285714285714</ele><time>2026-04-11T06:46:29.858Z</time></trkpt><trkpt lat="42.179705" lon="14.6116467"><ele>54.0</ele><time>2026-04-11T06:46:31.858Z</time></trkpt><trkpt lat="42.1798067" lon="14.61166"><ele>53.400000000000006</ele><time>2026-04-11T06:46:33.857Z</time></trkpt><trkpt lat="42.1799067" lon="14.6116617"><ele>52.800000000000004</ele><time>2026-04-11T06:46:35.857Z</time></trkpt><trkpt lat="42.1800033" lon="14.611655"><ele>52.2</ele><time>2026-04-11T06:46:37.858Z</time></trkpt><trkpt lat="42.180105" lon="14.6116333"><ele>51.599999999999994</ele><time>2026-04-11T06:46:39.858Z</time></trkpt><trkpt lat="42.1801933" lon="14.6116017"><ele>51.0</ele><time>2026-04-11T06:46:41.858Z</time></trkpt><trkpt lat="42.18027" lon="14.61156"><ele>51.0</ele><time>2026-04-11T06:46:43.858Z</time></trkpt><trkpt lat="42.180345" lon="14.6115133"><ele>51.0</ele><time>2026-04-11T06:46:45.857Z</time></trkpt><trkpt lat="42.1804067" lon="14.6114767"><ele>51.0</ele><time>2026-04-11T06:46:47.858Z</time></trkpt><trkpt lat="42.1804783" lon="14.61143"><ele>51.0</ele><time>2026-04-11T06:46:50.857Z</time></trkpt><trkpt lat="42.180555" lon="14.6113567"><ele>51.0</ele><time>2026-04-11T06:46:53.858Z</time></trkpt><trkpt lat="42.180615" lon="14.6113083"><ele>51.0</ele><time>2026-04-11T06:46:55.858Z</time></trkpt><trkpt lat="42.18067" lon="14.6112633"><ele>50.5</ele><time>2026-04-11T06:46:57.858Z</time></trkpt><trkpt lat="42.1807567" lon="14.61121"><ele>50.0</ele><time>2026-04-11T06:47:00.858Z</time></trkpt><trkpt lat="42.1808167" lon="14.611175"><ele>49.5</ele><time>2026-04-11T06:47:02.857Z</time></trkpt><trkpt lat="42.1808767" lon="14.6111383"><ele>49.0</ele><time>2026-04-11T06:47:04.858Z</time></trkpt><trkpt lat="42.1809367" lon="14.6110967"><ele>48.5</ele><time>2026-04-11T06:47:06.858Z</time></trkpt><trkpt lat="42.1810133" lon="14.611045"><ele>48.0</ele><time>2026-04-11T06:47:08.858Z</time></trkpt><trkpt lat="42.181085" lon="14.610995"><ele>48.5</ele><time>2026-04-11T06:47:10.857Z</time></trkpt><trkpt lat="42.181155" lon="14.6109633"><ele>49.0</ele><time>2026-04-11T06:47:12.857Z</time></trkpt><trkpt lat="42.1812267" lon="14.610935"><ele>49.5</ele><time>2026-04-11T06:47:14.857Z</time></trkpt><trkpt lat="42.181305" lon="14.61091"><ele>50.0</ele><time>2026-04-11T06:47:16.858Z</time></trkpt><trkpt lat="42.18138" lon="14.61089"><ele>50.5</ele><time>2026-04-11T06:47:18.858Z</time></trkpt><trkpt lat="42.1814567" lon="14.61087"><ele>51.0</ele><time>2026-04-11T06:47:20.858Z</time></trkpt><trkpt lat="42.1815283" lon="14.6108283"><ele>51.0</ele><time>2026-04-11T06:47:22.857Z</time></trkpt><trkpt lat="42.1815967" lon="14.6108017"><ele>51.0</ele><time>2026-04-11T06:47:24.857Z</time></trkpt><trkpt lat="42.1816717" lon="14.6107767"><ele>51.0</ele><time>2026-04-11T06:47:26.857Z</time></trkpt><trkpt lat="42.18177" lon="14.6107467"><ele>51.0</ele><time>2026-04-11T06:47:28.857Z</time></trkpt><trkpt lat="42.181865" lon="14.6107233"><ele>51.0</ele><time>2026-04-11T06:47:30.857Z</time></trkpt><trkpt lat="42.1819683" lon="14.610715"><ele>51.0</ele><time>2026-04-11T06:47:32.858Z</time></trkpt><trkpt lat="42.182075" lon="14.610705"><ele>51.0</ele><time>2026-04-11T06:47:34.857Z</time></trkpt><trkpt lat="42.1821733" lon="14.6107083"><ele>51.0</ele><time>2026-04-11T06:47:36.857Z</time></trkpt><trkpt lat="42.182275" lon="14.6107083"><ele>51.0</ele><time>2026-04-11T06:47:38.857Z</time></trkpt><trkpt lat="42.18239" lon="14.6107017"><ele>51.0</ele><time>2026-04-11T06:47:40.857Z</time></trkpt><trkpt lat="42.182505" lon="14.6107"><ele>51.0</ele><time>2026-04-11T06:47:42.857Z</time></trkpt><trkpt lat="42.18262" lon="14.6107083"><ele>50.599999999999994</ele><time>2026-04-11T06:47:44.857Z</time></trkpt><trkpt lat="42.1827267" lon="14.610725"><ele>50.2</ele><time>2026-04-11T06:47:46.857Z</time></trkpt><trkpt lat="42.18283" lon="14.61073"><ele>49.8</ele><time>2026-04-11T06:47:48.858Z</time></trkpt><trkpt lat="42.18293" lon="14.6107333"><ele>49.400000000000006</ele><time>2026-04-11T06:47:50.858Z</time></trkpt><trkpt lat="42.1830233" lon="14.6107383"><ele>49.0</ele><time>2026-04-11T06:47:52.857Z</time></trkpt><trkpt lat="42.183115" lon="14.610765"><ele>48.2</ele><time>2026-04-11T06:47:54.858Z</time></trkpt><trkpt lat="42.18321" lon="14.6108067"><ele>47.400000000000006</ele><time>2026-04-11T06:47:56.857Z</time></trkpt><trkpt lat="42.1832983" lon="14.6108417"><ele>46.6</ele><time>2026-04-11T06:47:58.857Z</time></trkpt><trkpt lat="42.183385" lon="14.6108667"><ele>45.8</ele><time>2026-04-11T06:48:00.858Z</time></trkpt><trkpt lat="42.183475" lon="14.6108717"><ele>45.0</ele><time>2026-04-11T06:48:02.858Z</time></trkpt><trkpt lat="42.1835617" lon="14.6108617"><ele>45.0</ele><time>2026-04-11T06:48:04.858Z</time></trkpt><trkpt lat="42.1836317" lon="14.6108417"><ele>45.0</ele><time>2026-04-11T06:48:06.858Z</time></trkpt><trkpt lat="42.1837267" lon="14.6108283"><ele>45.0</ele><time>2026-04-11T06:48:09.858Z</time></trkpt><trkpt lat="42.183795" lon="14.6108267"><ele>45.0</ele><time>2026-04-11T06:48:11.857Z</time></trkpt><trkpt lat="42.1838717" lon="14.6108167"><ele>45.0</ele><time>2026-04-11T06:48:13.858Z</time></trkpt><trkpt lat="42.183965" lon="14.6108017"><ele>45.0</ele><time>2026-04-11T06:48:15.858Z</time></trkpt><trkpt lat="42.184055" lon="14.6107767"><ele>44.666666666666664</ele><time>2026-04-11T06:48:17.858Z</time></trkpt><trkpt lat="42.1841267" lon="14.6107583"><ele>44.333333333333336</ele><time>2026-04-11T06:48:19.858Z</time></trkpt><trkpt lat="42.1842133" lon="14.6107217"><ele>44.0</ele><time>2026-04-11T06:48:22.858Z</time></trkpt><trkpt lat="42.1842833" lon="14.6107233"><ele>43.66666666666667</ele><time>2026-04-11T06:48:25.857Z</time></trkpt><trkpt lat="42.1843683" lon="14.610745"><ele>43.333333333333336</ele><time>2026-04-11T06:48:29.858Z</time></trkpt><trkpt lat="42.1844317" lon="14.610785"><ele>43.0</ele><time>2026-04-11T06:48:33.858Z</time></trkpt><trkpt lat="42.184485" lon="14.6108367"><ele>43.0</ele><time>2026-04-11T06:48:37.858Z</time></trkpt><trkpt lat="42.18454" lon="14.610905"><ele>43.0</ele><time>2026-04-11T06:48:42.857Z</time></trkpt><trkpt lat="42.1845933" lon="14.6109767"><ele>43.0</ele><time>2026-04-11T06:48:46.858Z</time></trkpt><trkpt lat="42.184655" lon="14.61103"><ele>43.0</ele><time>2026-04-11T06:48:49.858Z</time></trkpt><trkpt lat="42.1847" lon="14.61112"><ele>43.0</ele><time>2026-04-11T06:48:53.857Z</time></trkpt><trkpt lat="42.18469" lon="14.6112133"><ele>43.0</ele><time>2026-04-11T06:48:57.858Z</time></trkpt><trkpt lat="42.1846567" lon="14.61132"><ele>43.5</ele><time>2026-04-11T06:49:01.858Z</time></trkpt><trkpt lat="42.1846183" lon="14.611405"><ele>44.0</ele><time>2026-04-11T06:49:04.858Z</time></trkpt><trkpt lat="42.1846" lon="14.6114883"><ele>44.5</ele><time>2026-04-11T06:49:07.858Z</time></trkpt><trkpt lat="42.18458" lon="14.6115817"><ele>45.0</ele><time>2026-04-11T06:49:11.858Z</time></trkpt><trkpt lat="42.1845433" lon="14.61168"><ele>45.5</ele><time>2026-04-11T06:49:16.857Z</time></trkpt><trkpt lat="42.18456" lon="14.6117883"><ele>46.0</ele><time>2026-04-11T06:49:19.858Z</time></trkpt><trkpt lat="42.1846183" lon="14.6118983"><ele>46.0</ele><time>2026-04-11T06:49:22.858Z</time></trkpt><trkpt lat="42.1846733" lon="14.6119717"><ele>46.0</ele><time>2026-04-11T06:49:24.857Z</time></trkpt><trkpt lat="42.1847267" lon="14.6120417"><ele>46.0</ele><time>2026-04-11T06:49:26.858Z</time></trkpt><trkpt lat="42.1847883" lon="14.612095"><ele>46.0</ele><time>2026-04-11T06:49:28.858Z</time></trkpt><trkpt lat="42.1848517" lon="14.6121533"><ele>46.0</ele><time>2026-04-11T06:49:30.857Z</time></trkpt><trkpt lat="42.1849117" lon="14.612205"><ele>46.0</ele><time>2026-04-11T06:49:32.857Z</time></trkpt><trkpt lat="42.18497" lon="14.6122433"><ele>46.0</ele><time>2026-04-11T06:49:34.858Z</time></trkpt><trkpt lat="42.18503" lon="14.61227"><ele>47.199999999999996</ele><time>2026-04-11T06:49:36.857Z</time></trkpt><trkpt lat="42.1851283" lon="14.61229"><ele>48.4</ele><time>2026-04-11T06:49:39.858Z</time></trkpt><trkpt lat="42.1852167" lon="14.6123267"><ele>49.6</ele><time>2026-04-11T06:49:41.857Z</time></trkpt><trkpt lat="42.185305" lon="14.6123833"><ele>50.8</ele><time>2026-04-11T06:49:43.857Z</time></trkpt><trkpt lat="42.1853917" lon="14.6124433"><ele>52.0</ele><time>2026-04-11T06:49:45.858Z</time></trkpt><trkpt lat="42.18547" lon="14.6125083"><ele>52.0</ele><time>2026-04-11T06:49:47.858Z</time></trkpt><trkpt lat="42.1855483" lon="14.61258"><ele>52.0</ele><time>2026-04-11T06:49:49.858Z</time></trkpt><trkpt lat="42.1856317" lon="14.612635"><ele>52.0</ele><time>2026-04-11T06:49:51.858Z</time></trkpt><trkpt lat="42.185715" lon="14.6126867"><ele>52.0</ele><time>2026-04-11T06:49:53.857Z</time></trkpt><trkpt lat="42.1858017" lon="14.6127567"><ele>52.0</ele><time>2026-04-11T06:49:55.858Z</time></trkpt><trkpt lat="42.1858917" lon="14.6128383"><ele>53.2</ele><time>2026-04-11T06:49:57.858Z</time></trkpt><trkpt lat="42.1859833" lon="14.61292"><ele>54.400000000000006</ele><time>2026-04-11T06:49:59.858Z</time></trkpt><trkpt lat="42.1860733" lon="14.612985"><ele>55.599999999999994</ele><time>2026-04-11T06:50:01.857Z</time></trkpt><trkpt lat="42.186165" lon="14.61305"><ele>56.8</ele><time>2026-04-11T06:50:03.857Z</time></trkpt><trkpt lat="42.1862483" lon="14.61311"><ele>58.0</ele><time>2026-04-11T06:50:05.858Z</time></trkpt><trkpt lat="42.1863317" lon="14.6131867"><ele>58.0</ele><time>2026-04-11T06:50:07.857Z</time></trkpt><trkpt lat="42.1864117" lon="14.6132683"><ele>58.0</ele><time>2026-04-11T06:50:09.857Z</time></trkpt><trkpt lat="42.1865017" lon="14.6133833"><ele>58.0</ele><time>2026-04-11T06:50:11.858Z</time></trkpt><trkpt lat="42.1865917" lon="14.6134867"><ele>58.0</ele><time>2026-04-11T06:50:13.857Z</time></trkpt><trkpt lat="42.1866733" lon="14.61357"><ele>58.0</ele><time>2026-04-11T06:50:15.858Z</time></trkpt><trkpt lat="42.1867583" lon="14.6136367"><ele>57.8</ele><time>2026-04-11T06:50:17.858Z</time></trkpt><trkpt lat="42.186835" lon="14.6137033"><ele>57.599999999999994</ele><time>2026-04-11T06:50:19.858Z</time></trkpt><trkpt lat="42.1869083" lon="14.6137667"><ele>57.400000000000006</ele><time>2026-04-11T06:50:21.858Z</time></trkpt><trkpt lat="42.1869867" lon="14.6138483"><ele>57.2</ele><time>2026-04-11T06:50:23.858Z</time></trkpt><trkpt lat="42.1870667" lon="14.6139433"><ele>57.0</ele><time>2026-04-11T06:50:25.857Z</time></trkpt><trkpt lat="42.1871667" lon="14.6140167"><ele>57.0</ele><time>2026-04-11T06:50:27.858Z</time></trkpt><trkpt lat="42.1872633" lon="14.6140733"><ele>57.0</ele><time>2026-04-11T06:50:29.858Z</time></trkpt><trkpt lat="42.1873583" lon="14.6141533"><ele>57.0</ele><time>2026-04-11T06:50:31.857Z</time></trkpt><trkpt lat="42.18745" lon="14.6142183"><ele>57.0</ele><time>2026-04-11T06:50:33.857Z</time></trkpt><trkpt lat="42.1875433" lon="14.614275"><ele>57.0</ele><time>2026-04-11T06:50:35.858Z</time></trkpt><trkpt lat="42.1876533" lon="14.6143333"><ele>57.25</ele><time>2026-04-11T06:50:37.858Z</time></trkpt><trkpt lat="42.1877583" lon="14.6143933"><ele>57.5</ele><time>2026-04-11T06:50:39.858Z</time></trkpt><trkpt lat="42.18786" lon="14.6144617"><ele>57.75</ele><time>2026-04-11T06:50:41.858Z</time></trkpt><trkpt lat="42.187955" lon="14.6145567"><ele>58.0</ele><time>2026-04-11T06:50:43.857Z</time></trkpt><trkpt lat="42.1880417" lon="14.6146583"><ele>58.0</ele><time>2026-04-11T06:50:45.857Z</time></trkpt><trkpt lat="42.1880883" lon="14.6147167"><ele>58.0</ele><time>2026-04-11T06:50:46.858Z</time></trkpt><trkpt lat="42.18818" lon="14.61481"><ele>58.0</ele><time>2026-04-11T06:50:48.857Z</time></trkpt><trkpt lat="42.1882733" lon="14.6148883"><ele>58.0</ele><time>2026-04-11T06:50:50.858Z</time></trkpt><trkpt lat="42.188345" lon="14.6149667"><ele>58.0</ele><time>2026-04-11T06:50:52.858Z</time></trkpt><trkpt lat="42.18842" lon="14.61504"><ele>57.2</ele><time>2026-04-11T06:50:54.858Z</time></trkpt><trkpt lat="42.188505" lon="14.615145"><ele>56.4</ele><time>2026-04-11T06:50:56.858Z</time></trkpt><trkpt lat="42.1885917" lon="14.615255"><ele>55.60000000000001</ele><time>2026-04-11T06:50:58.858Z</time></trkpt><trkpt lat="42.1886967" lon="14.61535"><ele>54.800000000000004</ele><time>2026-04-11T06:51:00.858Z</time></trkpt><trkpt lat="42.1887533" lon="14.6154067"><ele>54.0</ele><time>2026-04-11T06:51:01.858Z</time></trkpt><trkpt lat="42.1888517" lon="14.6154717"><ele>54.0</ele><time>2026-04-11T06:51:03.857Z</time></trkpt><trkpt lat="42.1889417" lon="14.6155333"><ele>54.00000000000001</ele><time>2026-04-11T06:51:05.858Z</time></trkpt><trkpt lat="42.18903" lon="14.61559"><ele>54.00000000000001</ele><time>2026-04-11T06:51:07.858Z</time></trkpt><trkpt lat="42.1891183" lon="14.6156483"><ele>54.0</ele><time>2026-04-11T06:51:09.858Z</time></trkpt><trkpt lat="42.1892" lon="14.6157017"><ele>54.0</ele><time>2026-04-11T06:51:11.858Z</time></trkpt><trkpt lat="42.1892733" lon="14.6157517"><ele>50.2</ele><time>2026-04-11T06:51:13.859Z</time></trkpt><trkpt lat="42.1893667" lon="14.6157767"><ele>46.400000000000006</ele><time>2026-04-11T06:51:15.858Z</time></trkpt><trkpt lat="42.1894683" lon="14.61583"><ele>42.6</ele><time>2026-04-11T06:51:17.858Z</time></trkpt><trkpt lat="42.1895717" lon="14.61586"><ele>38.8</ele><time>2026-04-11T06:51:19.859Z</time></trkpt><trkpt lat="42.1896833" lon="14.6158867"><ele>35.0</ele><time>2026-04-11T06:51:21.858Z</time></trkpt><trkpt lat="42.1898" lon="14.6158883"><ele>34.0</ele><time>2026-04-11T06:51:23.858Z</time></trkpt><trkpt lat="42.189865" lon="14.6158733"><ele>33.0</ele><time>2026-04-11T06:51:24.858Z</time></trkpt><trkpt lat="42.1899817" lon="14.6158467"><ele>32.0</ele><time>2026-04-11T06:51:26.858Z</time></trkpt><trkpt lat="42.1900917" lon="14.6158217"><ele>31.0</ele><time>2026-04-11T06:51:28.858Z</time></trkpt><trkpt lat="42.190195" lon="14.6158067"><ele>30.0</ele><time>2026-04-11T06:51:30.858Z</time></trkpt><trkpt lat="42.1902883" lon="14.6158033"><ele>30.0</ele><time>2026-04-11T06:51:32.859Z</time></trkpt><trkpt lat="42.19038" lon="14.6157967"><ele>30.0</ele><time>2026-04-11T06:51:34.858Z</time></trkpt><trkpt lat="42.1904783" lon="14.6158017"><ele>30.0</ele><time>2026-04-11T06:51:36.858Z</time></trkpt><trkpt lat="42.1905417" lon="14.6158333"><ele>30.0</ele><time>2026-04-11T06:51:37.859Z</time></trkpt><trkpt lat="42.190605" lon="14.6158717"><ele>30.0</ele><time>2026-04-11T06:51:38.859Z</time></trkpt><trkpt lat="42.1907017" lon="14.6159083"><ele>30.0</ele><time>2026-04-11T06:51:40.858Z</time></trkpt><trkpt lat="42.1907967" lon="14.61593"><ele>28.6</ele><time>2026-04-11T06:51:42.858Z</time></trkpt><trkpt lat="42.19089" lon="14.61594"><ele>27.2</ele><time>2026-04-11T06:51:44.858Z</time></trkpt><trkpt lat="42.1909883" lon="14.61594"><ele>25.799999999999997</ele><time>2026-04-11T06:51:46.859Z</time></trkpt><trkpt lat="42.19109" lon="14.6159583"><ele>24.4</ele><time>2026-04-11T06:51:48.859Z</time></trkpt><trkpt lat="42.191195" lon="14.6160083"><ele>23.0</ele><time>2026-04-11T06:51:50.858Z</time></trkpt><trkpt lat="42.1912733" lon="14.6161067"><ele>22.4</ele><time>2026-04-11T06:51:52.859Z</time></trkpt><trkpt lat="42.1913383" lon="14.61624"><ele>21.799999999999997</ele><time>2026-04-11T06:51:54.858Z</time></trkpt><trkpt lat="42.19141" lon="14.6163833"><ele>21.2</ele><time>2026-04-11T06:51:56.859Z</time></trkpt><trkpt lat="42.191485" lon="14.6165217"><ele>20.6</ele><time>2026-04-11T06:51:58.859Z</time></trkpt><trkpt lat="42.1915367" lon="14.6165833"><ele>20.0</ele><time>2026-04-11T06:51:59.858Z</time></trkpt><trkpt lat="42.19158" lon="14.616645"><ele>20.0</ele><time>2026-04-11T06:52:00.859Z</time></trkpt><trkpt lat="42.1916167" lon="14.616725"><ele>20.0</ele><time>2026-04-11T06:52:01.859Z</time></trkpt><trkpt lat="42.191655" lon="14.616795"><ele>20.0</ele><time>2026-04-11T06:52:02.859Z</time></trkpt><trkpt lat="42.1917033" lon="14.61685"><ele>20.0</ele><time>2026-04-11T06:52:03.859Z</time></trkpt><trkpt lat="42.191785" lon="14.61695"><ele>20.0</ele><time>2026-04-11T06:52:05.858Z</time></trkpt><trkpt lat="42.1918667" lon="14.6170567"><ele>20.0</ele><time>2026-04-11T06:52:07.859Z</time></trkpt><trkpt lat="42.1919483" lon="14.6171667"><ele>23.6</ele><time>2026-04-11T06:52:09.859Z</time></trkpt><trkpt lat="42.19203" lon="14.617275"><ele>27.2</ele><time>2026-04-11T06:52:11.859Z</time></trkpt><trkpt lat="42.192105" lon="14.6173717"><ele>30.799999999999997</ele><time>2026-04-11T06:52:13.859Z</time></trkpt><trkpt lat="42.19217" lon="14.61745"><ele>34.4</ele><time>2026-04-11T06:52:15.859Z</time></trkpt><trkpt lat="42.19225" lon="14.61752"><ele>38.0</ele><time>2026-04-11T06:52:17.859Z</time></trkpt><trkpt lat="42.1923367" lon="14.6175767"><ele>34.8</ele><time>2026-04-11T06:52:19.858Z</time></trkpt><trkpt lat="42.1924267" lon="14.6176017"><ele>31.599999999999998</ele><time>2026-04-11T06:52:21.859Z</time></trkpt><trkpt lat="42.1925333" lon="14.6175917"><ele>28.4</ele><time>2026-04-11T06:52:23.859Z</time></trkpt><trkpt lat="42.1926317" lon="14.61756"><ele>25.200000000000003</ele><time>2026-04-11T06:52:25.859Z</time></trkpt><trkpt lat="42.19273" lon="14.6175117"><ele>22.0</ele><time>2026-04-11T06:52:27.859Z</time></trkpt><trkpt lat="42.1928217" lon="14.6174617"><ele>22.0</ele><time>2026-04-11T06:52:29.859Z</time></trkpt><trkpt lat="42.192915" lon="14.6174067"><ele>22.0</ele><time>2026-04-11T06:52:31.859Z</time></trkpt><trkpt lat="42.1929933" lon="14.6173683"><ele>22.0</ele><time>2026-04-11T06:52:33.859Z</time></trkpt><trkpt lat="42.1930983" lon="14.6173233"><ele>22.0</ele><time>2026-04-11T06:52:35.858Z</time></trkpt><trkpt lat="42.1931967" lon="14.6172833"><ele>22.0</ele><time>2026-04-11T06:52:37.859Z</time></trkpt><trkpt lat="42.193295" lon="14.6172383"><ele>21.200000000000003</ele><time>2026-04-11T06:52:39.859Z</time></trkpt><trkpt lat="42.1933967" lon="14.61721"><ele>20.400000000000002</ele><time>2026-04-11T06:52:41.859Z</time></trkpt><trkpt lat="42.1934917" lon="14.6172317"><ele>19.6</ele><time>2026-04-11T06:52:43.858Z</time></trkpt><trkpt lat="42.1935667" lon="14.6173033"><ele>18.8</ele><time>2026-04-11T06:52:45.858Z</time></trkpt><trkpt lat="42.1936117" lon="14.6174117"><ele>18.0</ele><time>2026-04-11T06:52:47.859Z</time></trkpt><trkpt lat="42.1936283" lon="14.6175467"><ele>18.0</ele><time>2026-04-11T06:52:49.859Z</time></trkpt><trkpt lat="42.1936367" lon="14.61768"><ele>18.0</ele><time>2026-04-11T06:52:51.858Z</time></trkpt><trkpt lat="42.19364" lon="14.6178217"><ele>18.0</ele><time>2026-04-11T06:52:53.859Z</time></trkpt><trkpt lat="42.1936533" lon="14.6179667"><ele>18.0</ele><time>2026-04-11T06:52:55.859Z</time></trkpt><trkpt lat="42.1936717" lon="14.618105"><ele>18.0</ele><time>2026-04-11T06:52:57.859Z</time></trkpt><trkpt lat="42.1936983" lon="14.618245"><ele>19.8</ele><time>2026-04-11T06:52:59.859Z</time></trkpt><trkpt lat="42.1937217" lon="14.618395"><ele>21.6</ele><time>2026-04-11T06:53:01.858Z</time></trkpt><trkpt lat="42.1937383" lon="14.6185417"><ele>23.400000000000002</ele><time>2026-04-11T06:53:03.859Z</time></trkpt><trkpt lat="42.19376" lon="14.61868"><ele>25.200000000000003</ele><time>2026-04-11T06:53:05.859Z</time></trkpt><trkpt lat="42.1937883" lon="14.6188183"><ele>27.0</ele><time>2026-04-11T06:53:07.858Z</time></trkpt><trkpt lat="42.1938167" lon="14.6189567"><ele>28.400000000000002</ele><time>2026-04-11T06:53:09.859Z</time></trkpt><trkpt lat="42.193845" lon="14.6190817"><ele>29.800000000000004</ele><time>2026-04-11T06:53:11.858Z</time></trkpt><trkpt lat="42.1938783" lon="14.6192167"><ele>31.2</ele><time>2026-04-11T06:53:13.859Z</time></trkpt><trkpt lat="42.1939133" lon="14.619345"><ele>32.6</ele><time>2026-04-11T06:53:15.858Z</time></trkpt><trkpt lat="42.19395" lon="14.6194733"><ele>34.0</ele><time>2026-04-11T06:53:17.859Z</time></trkpt><trkpt lat="42.19399" lon="14.6196033"><ele>29.8</ele><time>2026-04-11T06:53:19.858Z</time></trkpt><trkpt lat="42.194025" lon="14.6197333"><ele>25.599999999999998</ele><time>2026-04-11T06:53:21.858Z</time></trkpt><trkpt lat="42.19406" lon="14.6198667"><ele>21.4</ele><time>2026-04-11T06:53:23.858Z</time></trkpt><trkpt lat="42.1941033" lon="14.6200033"><ele>17.2</ele><time>2026-04-11T06:53:25.859Z</time></trkpt><trkpt lat="42.194145" lon="14.6201467"><ele>13.0</ele><time>2026-04-11T06:53:27.858Z</time></trkpt><trkpt lat="42.1941783" lon="14.6202967"><ele>13.0</ele><time>2026-04-11T06:53:29.859Z</time></trkpt><trkpt lat="42.19421" lon="14.6204333"><ele>13.0</ele><time>2026-04-11T06:53:31.859Z</time></trkpt><trkpt lat="42.1942467" lon="14.620575"><ele>13.0</ele><time>2026-04-11T06:53:33.859Z</time></trkpt><trkpt lat="42.19429" lon="14.6207133"><ele>13.0</ele><time>2026-04-11T06:53:35.859Z</time></trkpt><trkpt lat="42.1943333" lon="14.6208417"><ele>13.0</ele><time>2026-04-11T06:53:37.858Z</time></trkpt><trkpt lat="42.194375" lon="14.6209867"><ele>13.0</ele><time>2026-04-11T06:53:39.859Z</time></trkpt><trkpt lat="42.1944183" lon="14.621135"><ele>13.0</ele><time>2026-04-11T06:53:41.858Z</time></trkpt><trkpt lat="42.194465" lon="14.62128"><ele>13.0</ele><time>2026-04-11T06:53:43.859Z</time></trkpt><trkpt lat="42.1945183" lon="14.6214133"><ele>13.0</ele><time>2026-04-11T06:53:45.859Z</time></trkpt><trkpt lat="42.1945783" lon="14.621535"><ele>13.2</ele><time>2026-04-11T06:53:47.859Z</time></trkpt><trkpt lat="42.19464" lon="14.6216467"><ele>13.4</ele><time>2026-04-11T06:53:49.858Z</time></trkpt><trkpt lat="42.1947" lon="14.62176"><ele>13.599999999999998</ele><time>2026-04-11T06:53:51.859Z</time></trkpt><trkpt lat="42.1947667" lon="14.6218667"><ele>13.799999999999999</ele><time>2026-04-11T06:53:53.859Z</time></trkpt><trkpt lat="42.1948383" lon="14.6219717"><ele>14.0</ele><time>2026-04-11T06:53:55.859Z</time></trkpt><trkpt lat="42.19491" lon="14.6220783"><ele>13.2</ele><time>2026-04-11T06:53:57.859Z</time></trkpt><trkpt lat="42.1949733" lon="14.622195"><ele>12.399999999999999</ele><time>2026-04-11T06:53:59.859Z</time></trkpt><trkpt lat="42.1950283" lon="14.6223033"><ele>11.6</ele><time>2026-04-11T06:54:01.859Z</time></trkpt><trkpt lat="42.1951233" lon="14.622395"><ele>10.8</ele><time>2026-04-11T06:54:03.858Z</time></trkpt><trkpt lat="42.195165" lon="14.6224717"><ele>10.0</ele><time>2026-04-11T06:54:04.859Z</time></trkpt><trkpt lat="42.1951967" lon="14.6225517"><ele>10.0</ele><time>2026-04-11T06:54:05.859Z</time></trkpt><trkpt lat="42.1952483" lon="14.6226683"><ele>10.0</ele><time>2026-04-11T06:54:07.859Z</time></trkpt><trkpt lat="42.1952983" lon="14.6227767"><ele>10.0</ele><time>2026-04-11T06:54:09.859Z</time></trkpt><trkpt lat="42.19534" lon="14.62288"><ele>10.0</ele><time>2026-04-11T06:54:11.858Z</time></trkpt><trkpt lat="42.1953633" lon="14.6229867"><ele>10.0</ele><time>2026-04-11T06:54:13.858Z</time></trkpt><trkpt lat="42.1953833" lon="14.6230783"><ele>10.0</ele><time>2026-04-11T06:54:15.859Z</time></trkpt><trkpt lat="42.1954017" lon="14.6231617"><ele>10.4</ele><time>2026-04-11T06:54:17.858Z</time></trkpt><trkpt lat="42.1954183" lon="14.6232467"><ele>10.8</ele><time>2026-04-11T06:54:19.858Z</time></trkpt><trkpt lat="42.1954317" lon="14.6233483"><ele>11.2</ele><time>2026-04-11T06:54:21.858Z</time></trkpt><trkpt lat="42.195455" lon="14.6235033"><ele>11.6</ele><time>2026-04-11T06:54:23.859Z</time></trkpt><trkpt lat="42.1954867" lon="14.6236433"><ele>12.0</ele><time>2026-04-11T06:54:25.859Z</time></trkpt><trkpt lat="42.1955117" lon="14.6237917"><ele>12.0</ele><time>2026-04-11T06:54:27.859Z</time></trkpt><trkpt lat="42.1955417" lon="14.6239483"><ele>12.0</ele><time>2026-04-11T06:54:29.859Z</time></trkpt><trkpt lat="42.1955617" lon="14.62403"><ele>12.0</ele><time>2026-04-11T06:54:30.858Z</time></trkpt><trkpt lat="42.1955867" lon="14.6241083"><ele>12.0</ele><time>2026-04-11T06:54:31.858Z</time></trkpt><trkpt lat="42.19562" lon="14.6242367"><ele>12.0</ele><time>2026-04-11T06:54:33.859Z</time></trkpt><trkpt lat="42.19566" lon="14.6243867"><ele>11.8</ele><time>2026-04-11T06:54:35.859Z</time></trkpt><trkpt lat="42.1956717" lon="14.6244733"><ele>11.6</ele><time>2026-04-11T06:54:36.859Z</time></trkpt><trkpt lat="42.19569" lon="14.6246333"><ele>11.4</ele><time>2026-04-11T06:54:38.858Z</time></trkpt><trkpt lat="42.1957" lon="14.62479"><ele>11.200000000000001</ele><time>2026-04-11T06:54:40.859Z</time></trkpt><trkpt lat="42.1956983" lon="14.6249433"><ele>11.0</ele><time>2026-04-11T06:54:42.859Z</time></trkpt><trkpt lat="42.1957067" lon="14.625095"><ele>10.600000000000001</ele><time>2026-04-11T06:54:44.859Z</time></trkpt><trkpt lat="42.1957117" lon="14.6252367"><ele>10.200000000000001</ele><time>2026-04-11T06:54:46.859Z</time></trkpt><trkpt lat="42.19571" lon="14.6253767"><ele>9.8</ele><time>2026-04-11T06:54:48.858Z</time></trkpt><trkpt lat="42.19571" lon="14.6255083"><ele>9.4</ele><time>2026-04-11T06:54:50.858Z</time></trkpt><trkpt lat="42.1957083" lon="14.6256583"><ele>9.0</ele><time>2026-04-11T06:54:52.858Z</time></trkpt><trkpt lat="42.1957067" lon="14.6258033"><ele>9.0</ele><time>2026-04-11T06:54:54.859Z</time></trkpt><trkpt lat="42.1956833" lon="14.6259283"><ele>9.0</ele><time>2026-04-11T06:54:56.858Z</time></trkpt><trkpt lat="42.1956533" lon="14.62604"><ele>9.0</ele><time>2026-04-11T06:54:58.858Z</time></trkpt><trkpt lat="42.1955817" lon="14.626135"><ele>9.0</ele><time>2026-04-11T06:55:00.859Z</time></trkpt><trkpt lat="42.19551" lon="14.6262367"><ele>9.0</ele><time>2026-04-11T06:55:02.859Z</time></trkpt><trkpt lat="42.195445" lon="14.626345"><ele>9.0</ele><time>2026-04-11T06:55:04.859Z</time></trkpt><trkpt lat="42.195395" lon="14.6264433"><ele>9.0</ele><time>2026-04-11T06:55:06.859Z</time></trkpt><trkpt lat="42.1953433" lon="14.6265367"><ele>9.0</ele><time>2026-04-11T06:55:08.858Z</time></trkpt><trkpt lat="42.1952933" lon="14.6266333"><ele>9.0</ele><time>2026-04-11T06:55:10.859Z</time></trkpt><trkpt lat="42.1952583" lon="14.62675"><ele>9.0</ele><time>2026-04-11T06:55:12.858Z</time></trkpt><trkpt lat="42.1952367" lon="14.6268817"><ele>9.0</ele><time>2026-04-11T06:55:14.859Z</time></trkpt><trkpt lat="42.1952283" lon="14.627015"><ele>9.0</ele><time>2026-04-11T06:55:16.859Z</time></trkpt><trkpt lat="42.19523" lon="14.62715"><ele>9.0</ele><time>2026-04-11T06:55:18.858Z</time></trkpt><trkpt lat="42.195225" lon="14.6272517"><ele>9.0</ele><time>2026-04-11T06:55:20.858Z</time></trkpt><trkpt lat="42.195225" lon="14.627375"><ele>9.0</ele><time>2026-04-11T06:55:23.859Z</time></trkpt><trkpt lat="42.1952583" lon="14.6274733"><ele>9.0</ele><time>2026-04-11T06:55:25.859Z</time></trkpt><trkpt lat="42.19532" lon="14.6275833"><ele>9.0</ele><time>2026-04-11T06:55:27.859Z</time></trkpt><trkpt lat="42.19536" lon="14.627655"><ele>9.0</ele><time>2026-04-11T06:55:28.859Z</time></trkpt><trkpt lat="42.195415" lon="14.62777"><ele>9.0</ele><time>2026-04-11T06:55:30.859Z</time></trkpt><trkpt lat="42.1954733" lon="14.6278467"><ele>9.0</ele><time>2026-04-11T06:55:32.858Z</time></trkpt><trkpt lat="42.195555" lon="14.6279983"><ele>9.0</ele><time>2026-04-11T06:55:34.858Z</time></trkpt><trkpt lat="42.1956083" lon="14.62813"><ele>8.8</ele><time>2026-04-11T06:55:36.859Z</time></trkpt><trkpt lat="42.1956433" lon="14.6282933"><ele>8.600000000000001</ele><time>2026-04-11T06:55:38.859Z</time></trkpt><trkpt lat="42.19569" lon="14.6283967"><ele>8.4</ele><time>2026-04-11T06:55:40.859Z</time></trkpt><trkpt lat="42.1957483" lon="14.6285133"><ele>8.200000000000001</ele><time>2026-04-11T06:55:42.858Z</time></trkpt><trkpt lat="42.195795" lon="14.628625"><ele>8.0</ele><time>2026-04-11T06:55:44.859Z</time></trkpt><trkpt lat="42.1958317" lon="14.6287233"><ele>7.428571428571428</ele><time>2026-04-11T06:55:46.859Z</time></trkpt><trkpt lat="42.1958683" lon="14.6288017"><ele>6.857142857142856</ele><time>2026-04-11T06:55:48.859Z</time></trkpt><trkpt lat="42.1959117" lon="14.6288683"><ele>6.285714285714286</ele><time>2026-04-11T06:55:50.859Z</time></trkpt><trkpt lat="42.1959567" lon="14.6289433"><ele>5.7142857142857135</ele><time>2026-04-11T06:55:52.859Z</time></trkpt><trkpt lat="42.1960067" lon="14.6290067"><ele>5.142857142857142</ele><time>2026-04-11T06:55:56.859Z</time></trkpt><trkpt lat="42.1960433" lon="14.6290833"><ele>4.571428571428571</ele><time>2026-04-11T06:56:00.858Z</time></trkpt><trkpt lat="42.1960333" lon="14.6292"><ele>4.0</ele><time>2026-04-11T06:56:04.859Z</time></trkpt><trkpt lat="42.1959983" lon="14.6293033"><ele>3.9999999999999996</ele><time>2026-04-11T06:56:07.858Z</time></trkpt><trkpt lat="42.1959617" lon="14.62938"><ele>4.0</ele><time>2026-04-11T06:56:09.859Z</time></trkpt><trkpt lat="42.1959267" lon="14.6294667"><ele>4.0</ele><time>2026-04-11T06:56:11.859Z</time></trkpt><trkpt lat="42.1959" lon="14.6295683"><ele>4.0</ele><time>2026-04-11T06:56:13.858Z</time></trkpt><trkpt lat="42.1958717" lon="14.6296717"><ele>3.9999999999999996</ele><time>2026-04-11T06:56:15.859Z</time></trkpt><trkpt lat="42.1958483" lon="14.62977"><ele>4.0</ele><time>2026-04-11T06:56:17.859Z</time></trkpt><trkpt lat="42.195825" lon="14.6298617"><ele>3.9999999999999996</ele><time>2026-04-11T06:56:19.859Z</time></trkpt><trkpt lat="42.1957917" lon="14.629945"><ele>4.0</ele><time>2026-04-11T06:56:21.859Z</time></trkpt><trkpt lat="42.19575" lon="14.6300633"><ele>4.0</ele><time>2026-04-11T06:56:24.859Z</time></trkpt><trkpt lat="42.1957217" lon="14.6301567"><ele>4.0</ele><time>2026-04-11T06:56:26.859Z</time></trkpt><trkpt lat="42.1956917" lon="14.6302567"><ele>3.9999999999999996</ele><time>2026-04-11T06:56:28.859Z</time></trkpt><trkpt lat="42.1956617" lon="14.6303517"><ele>4.0</ele><time>2026-04-11T06:56:30.858Z</time></trkpt><trkpt lat="42.19564" lon="14.630445"><ele>3.9999999999999996</ele><time>2026-04-11T06:56:32.859Z</time></trkpt><trkpt lat="42.1956167" lon="14.6305417"><ele>4.0</ele><time>2026-04-11T06:56:34.859Z</time></trkpt><trkpt lat="42.1955767" lon="14.630665"><ele>4.0</ele><time>2026-04-11T06:56:37.858Z</time></trkpt><trkpt lat="42.1955533" lon="14.63075"><ele>4.0</ele><time>2026-04-11T06:56:39.859Z</time></trkpt><trkpt lat="42.1955317" lon="14.6308317"><ele>3.9999999999999996</ele><time>2026-04-11T06:56:41.858Z</time></trkpt><trkpt lat="42.1955117" lon="14.6309133"><ele>4.0</ele><time>2026-04-11T06:56:43.859Z</time></trkpt><trkpt lat="42.195475" lon="14.6310333"><ele>3.9999999999999996</ele><time>2026-04-11T06:56:46.859Z</time></trkpt><trkpt lat="42.19545" lon="14.63112"><ele>4.0</ele><time>2026-04-11T06:56:48.859Z</time></trkpt><trkpt lat="42.1954283" lon="14.631215"><ele>4.0</ele><time>2026-04-11T06:56:50.858Z</time></trkpt><trkpt lat="42.1954" lon="14.6313367"><ele>4.0</ele><time>2026-04-11T06:56:53.858Z</time></trkpt><trkpt lat="42.1953717" lon="14.6314683"><ele>3.9999999999999996</ele><time>2026-04-11T06:56:56.858Z</time></trkpt><trkpt lat="42.1953383" lon="14.6315617"><ele>4.0</ele><time>2026-04-11T06:56:58.858Z</time></trkpt><trkpt lat="42.1953117" lon="14.63164"><ele>4.0</ele><time>2026-04-11T06:57:00.859Z</time></trkpt><trkpt lat="42.1952733" lon="14.631715"><ele>3.9999999999999996</ele><time>2026-04-11T06:57:02.859Z</time></trkpt><trkpt lat="42.1952467" lon="14.6317967"><ele>4.0</ele><time>2026-04-11T06:57:04.859Z</time></trkpt><trkpt lat="42.1952133" lon="14.6319067"><ele>4.0</ele><time>2026-04-11T06:57:07.859Z</time></trkpt><trkpt lat="42.1951933" lon="14.631995"><ele>3.9999999999999996</ele><time>2026-04-11T06:57:09.859Z</time></trkpt><trkpt lat="42.195175" lon="14.632085"><ele>4.0</ele><time>2026-04-11T06:57:11.859Z</time></trkpt><trkpt lat="42.19516" lon="14.6321717"><ele>4.0</ele><time>2026-04-11T06:57:13.859Z</time></trkpt><trkpt lat="42.1951283" lon="14.6322583"><ele>4.166666666666666</ele><time>2026-04-11T06:57:15.859Z</time></trkpt><trkpt lat="42.195105" lon="14.632355"><ele>4.333333333333333</ele><time>2026-04-11T06:57:17.858Z</time></trkpt><trkpt lat="42.1950867" lon="14.63245"><ele>4.5</ele><time>2026-04-11T06:57:19.858Z</time></trkpt><trkpt lat="42.1950567" lon="14.6325567"><ele>4.666666666666667</ele><time>2026-04-11T06:57:21.859Z</time></trkpt><trkpt lat="42.19501" lon="14.6326617"><ele>4.833333333333334</ele><time>2026-04-11T06:57:23.859Z</time></trkpt><trkpt lat="42.1949883" lon="14.63276"><ele>5.0</ele><time>2026-04-11T06:57:25.858Z</time></trkpt><trkpt lat="42.1949633" lon="14.6328617"><ele>5.166666666666667</ele><time>2026-04-11T06:57:27.859Z</time></trkpt><trkpt lat="42.1949333" lon="14.6329617"><ele>5.333333333333334</ele><time>2026-04-11T06:57:29.858Z</time></trkpt><trkpt lat="42.194905" lon="14.6330633"><ele>5.5</ele><time>2026-04-11T06:57:31.859Z</time></trkpt><trkpt lat="42.19488" lon="14.6331617"><ele>5.666666666666667</ele><time>2026-04-11T06:57:33.859Z</time></trkpt><trkpt lat="42.1948567" lon="14.6332617"><ele>5.833333333333333</ele><time>2026-04-11T06:57:35.859Z</time></trkpt><trkpt lat="42.19483" lon="14.6333667"><ele>6.0</ele><time>2026-04-11T06:57:37.859Z</time></trkpt><trkpt lat="42.1948017" lon="14.6334717"><ele>6.0</ele><time>2026-04-11T06:57:39.859Z</time></trkpt><trkpt lat="42.1947717" lon="14.633575"><ele>6.0</ele><time>2026-04-11T06:57:41.859Z</time></trkpt><trkpt lat="42.1947467" lon="14.6336783"><ele>6.0</ele><time>2026-04-11T06:57:43.858Z</time></trkpt><trkpt lat="42.194715" lon="14.63378"><ele>6.0</ele><time>2026-04-11T06:57:45.858Z</time></trkpt><trkpt lat="42.1946883" lon="14.6338817"><ele>6.0</ele><time>2026-04-11T06:57:47.858Z</time></trkpt><trkpt lat="42.194665" lon="14.6339683"><ele>6.0</ele><time>2026-04-11T06:57:49.859Z</time></trkpt><trkpt lat="42.1946417" lon="14.6340633"><ele>5.666666666666667</ele><time>2026-04-11T06:57:51.858Z</time></trkpt><trkpt lat="42.19461" lon="14.6341517"><ele>5.333333333333333</ele><time>2026-04-11T06:57:53.858Z</time></trkpt><trkpt lat="42.194565" lon="14.634255"><ele>5.0</ele><time>2026-04-11T06:57:55.859Z</time></trkpt><trkpt lat="42.1945217" lon="14.6343433"><ele>4.666666666666666</ele><time>2026-04-11T06:57:57.858Z</time></trkpt><trkpt lat="42.19449" lon="14.6344267"><ele>4.333333333333333</ele><time>2026-04-11T06:57:59.858Z</time></trkpt><trkpt lat="42.1944767" lon="14.634535"><ele>4.0</ele><time>2026-04-11T06:58:02.858Z</time></trkpt><trkpt lat="42.1944383" lon="14.6346117"><ele>3.6666666666666665</ele><time>2026-04-11T06:58:04.858Z</time></trkpt><trkpt lat="42.194415" lon="14.634705"><ele>3.333333333333333</ele><time>2026-04-11T06:58:06.859Z</time></trkpt><trkpt lat="42.19439" lon="14.634805"><ele>3.0</ele><time>2026-04-11T06:58:08.859Z</time></trkpt><trkpt lat="42.19436" lon="14.6349083"><ele>2.6666666666666665</ele><time>2026-04-11T06:58:10.858Z</time></trkpt><trkpt lat="42.1943433" lon="14.6350067"><ele>2.333333333333333</ele><time>2026-04-11T06:58:12.858Z</time></trkpt><trkpt lat="42.194325" lon="14.635105"><ele>2.0</ele><time>2026-04-11T06:58:14.858Z</time></trkpt><trkpt lat="42.19429" lon="14.635205"><ele>1.8333333333333333</ele><time>2026-04-11T06:58:16.858Z</time></trkpt><trkpt lat="42.1942517" lon="14.6353133"><ele>1.6666666666666665</ele><time>2026-04-11T06:58:18.859Z</time></trkpt><trkpt lat="42.194225" lon="14.6354133"><ele>1.5</ele><time>2026-04-11T06:58:20.859Z</time></trkpt><trkpt lat="42.1941933" lon="14.6355183"><ele>1.3333333333333333</ele><time>2026-04-11T06:58:22.859Z</time></trkpt><trkpt lat="42.19416" lon="14.63562"><ele>1.1666666666666665</ele><time>2026-04-11T06:58:24.859Z</time></trkpt><trkpt lat="42.19413" lon="14.6357233"><ele>1.0</ele><time>2026-04-11T06:58:26.859Z</time></trkpt><trkpt lat="42.19411" lon="14.6358233"><ele>0.9999999999999999</ele><time>2026-04-11T06:58:28.859Z</time></trkpt><trkpt lat="42.1940733" lon="14.635945"><ele>1.0</ele><time>2026-04-11T06:58:31.858Z</time></trkpt><trkpt lat="42.1940467" lon="14.6360433"><ele>1.0</ele><time>2026-04-11T06:58:33.859Z</time></trkpt><trkpt lat="42.1940117" lon="14.6361517"><ele>1.0</ele><time>2026-04-11T06:58:35.859Z</time></trkpt><trkpt lat="42.1939767" lon="14.6362433"><ele>0.9999999999999999</ele><time>2026-04-11T06:58:37.859Z</time></trkpt><trkpt lat="42.19395" lon="14.6363467"><ele>1.0</ele><time>2026-04-11T06:58:39.858Z</time></trkpt><trkpt lat="42.1939217" lon="14.636445"><ele>0.9999999999999999</ele><time>2026-04-11T06:58:41.859Z</time></trkpt><trkpt lat="42.1938867" lon="14.636545"><ele>1.0</ele><time>2026-04-11T06:58:43.859Z</time></trkpt><trkpt lat="42.1938567" lon="14.6366317"><ele>1.0</ele><time>2026-04-11T06:58:45.859Z</time></trkpt><trkpt lat="42.193835" lon="14.63673"><ele>1.0</ele><time>2026-04-11T06:58:47.859Z</time></trkpt><trkpt lat="42.1938117" lon="14.636835"><ele>0.9999999999999999</ele><time>2026-04-11T06:58:49.859Z</time></trkpt><trkpt lat="42.1937833" lon="14.63693"><ele>1.0</ele><time>2026-04-11T06:58:51.858Z</time></trkpt><trkpt lat="42.1937633" lon="14.6370217"><ele>0.9999999999999999</ele><time>2026-04-11T06:58:53.859Z</time></trkpt><trkpt lat="42.1937317" lon="14.6371033"><ele>1.0</ele><time>2026-04-11T06:58:55.858Z</time></trkpt><trkpt lat="42.1936967" lon="14.6371983"><ele>1.0</ele><time>2026-04-11T06:58:57.858Z</time></trkpt><trkpt lat="42.193675" lon="14.637285"><ele>1.0</ele><time>2026-04-11T06:58:59.858Z</time></trkpt><trkpt lat="42.193645" lon="14.63737"><ele>0.9999999999999999</ele><time>2026-04-11T06:59:01.858Z</time></trkpt><trkpt lat="42.193615" lon="14.6374833"><ele>1.0</ele><time>2026-04-11T06:59:04.859Z</time></trkpt><trkpt lat="42.19358" lon="14.637595"><ele>0.9999999999999999</ele><time>2026-04-11T06:59:07.859Z</time></trkpt><trkpt lat="42.193555" lon="14.6377217"><ele>1.0</ele><time>2026-04-11T06:59:10.859Z</time></trkpt><trkpt lat="42.1935417" lon="14.6378133"><ele>1.0</ele><time>2026-04-11T06:59:12.858Z</time></trkpt><trkpt lat="42.1935167" lon="14.6379217"><ele>1.0</ele><time>2026-04-11T06:59:15.858Z</time></trkpt><trkpt lat="42.193465" lon="14.63799"><ele>0.9999999999999999</ele><time>2026-04-11T06:59:17.859Z</time></trkpt><trkpt lat="42.1934333" lon="14.6380817"><ele>1.0</ele><time>2026-04-11T06:59:20.858Z</time></trkpt><trkpt lat="42.1934067" lon="14.6382033"><ele>0.9999999999999999</ele><time>2026-04-11T06:59:23.858Z</time></trkpt><trkpt lat="42.193375" lon="14.6383067"><ele>1.0</ele><time>2026-04-11T06:59:26.859Z</time></trkpt><trkpt lat="42.1933567" lon="14.6383883"><ele>1.0</ele><time>2026-04-11T06:59:28.859Z</time></trkpt><trkpt lat="42.19332" lon="14.638485"><ele>1.0</ele><time>2026-04-11T06:59:30.858Z</time></trkpt><trkpt lat="42.193305" lon="14.6385967"><ele>0.9999999999999999</ele><time>2026-04-11T06:59:32.859Z</time></trkpt><trkpt lat="42.19328" lon="14.6386967"><ele>1.0</ele><time>2026-04-11T06:59:34.859Z</time></trkpt><trkpt lat="42.1932483" lon="14.6387783"><ele>1.0</ele><time>2026-04-11T06:59:36.859Z</time></trkpt><trkpt lat="42.193215" lon="14.6388633"><ele>0.9999999999999999</ele><time>2026-04-11T06:59:38.858Z</time></trkpt><trkpt lat="42.193185" lon="14.6389517"><ele>1.0</ele><time>2026-04-11T06:59:40.859Z</time></trkpt><trkpt lat="42.193165" lon="14.6390533"><ele>1.0</ele><time>2026-04-11T06:59:42.859Z</time></trkpt><trkpt lat="42.19315" lon="14.63915"><ele>0.9999999999999999</ele><time>2026-04-11T06:59:44.858Z</time></trkpt><trkpt lat="42.1931283" lon="14.6392433"><ele>1.0</ele><time>2026-04-11T06:59:46.859Z</time></trkpt><trkpt lat="42.1931017" lon="14.6393417"><ele>1.0</ele><time>2026-04-11T06:59:48.859Z</time></trkpt><trkpt lat="42.1930767" lon="14.6394533"><ele>0.6666666666666666</ele><time>2026-04-11T06:59:50.859Z</time></trkpt><trkpt lat="42.1930517" lon="14.6395533"><ele>0.3333333333333333</ele><time>2026-04-11T06:59:52.859Z</time></trkpt><trkpt lat="42.19303" lon="14.6396617"><ele>0.0</ele><time>2026-04-11T06:59:54.859Z</time></trkpt><trkpt lat="42.193" lon="14.6397617"><ele>-0.3333333333333333</ele><time>2026-04-11T06:59:56.859Z</time></trkpt><trkpt lat="42.1929733" lon="14.6398833"><ele>-0.6666666666666666</ele><time>2026-04-11T06:59:58.858Z</time></trkpt><trkpt lat="42.19294" lon="14.6400017"><ele>-1.0</ele><time>2026-04-11T07:00:00.858Z</time></trkpt><trkpt lat="42.192905" lon="14.640115"><ele>-1.0</ele><time>2026-04-11T07:00:02.859Z</time></trkpt><trkpt lat="42.1928767" lon="14.640225"><ele>-0.9999999999999999</ele><time>2026-04-11T07:00:04.858Z</time></trkpt><trkpt lat="42.1928483" lon="14.64033"><ele>-1.0</ele><time>2026-04-11T07:00:06.859Z</time></trkpt><trkpt lat="42.1928267" lon="14.6404283"><ele>-1.0</ele><time>2026-04-11T07:00:08.859Z</time></trkpt><trkpt lat="42.192805" lon="14.640515"><ele>-0.9999999999999999</ele><time>2026-04-11T07:00:10.859Z</time></trkpt><trkpt lat="42.1927817" lon="14.6405967"><ele>-1.0</ele><time>2026-04-11T07:00:12.859Z</time></trkpt><trkpt lat="42.1927583" lon="14.6406883"><ele>-1.0</ele><time>2026-04-11T07:00:14.858Z</time></trkpt><trkpt lat="42.1927367" lon="14.6407783"><ele>-0.8333333333333333</ele><time>2026-04-11T07:00:16.858Z</time></trkpt><trkpt lat="42.1927117" lon="14.6408683"><ele>-0.6666666666666666</ele><time>2026-04-11T07:00:18.859Z</time></trkpt><trkpt lat="42.1926967" lon="14.6409533"><ele>-0.5</ele><time>2026-04-11T07:00:20.858Z</time></trkpt><trkpt lat="42.19267" lon="14.6410683"><ele>-0.3333333333333333</ele><time>2026-04-11T07:00:23.859Z</time></trkpt><trkpt lat="42.1926483" lon="14.6411933"><ele>-0.16666666666666666</ele><time>2026-04-11T07:00:26.859Z</time></trkpt><trkpt lat="42.192635" lon="14.6412783"><ele>0.0</ele><time>2026-04-11T07:00:28.859Z</time></trkpt><trkpt lat="42.192605" lon="14.64138"><ele>0.0</ele><time>2026-04-11T07:00:31.859Z</time></trkpt><trkpt lat="42.1925767" lon="14.6415"><ele>0.0</ele><time>2026-04-11T07:00:34.859Z</time></trkpt><trkpt lat="42.1925533" lon="14.6415833"><ele>0.0</ele><time>2026-04-11T07:00:36.859Z</time></trkpt><trkpt lat="42.1925317" lon="14.641675"><ele>0.0</ele><time>2026-04-11T07:00:38.858Z</time></trkpt><trkpt lat="42.1925" lon="14.64179"><ele>0.0</ele><time>2026-04-11T07:00:41.859Z</time></trkpt><trkpt lat="42.1924667" lon="14.6419017"><ele>0.0</ele><time>2026-04-11T07:00:44.859Z</time></trkpt><trkpt lat="42.192445" lon="14.6419917"><ele>0.0</ele><time>2026-04-11T07:00:46.859Z</time></trkpt><trkpt lat="42.192425" lon="14.6420833"><ele>0.0</ele><time>2026-04-11T07:00:48.859Z</time></trkpt><trkpt lat="42.192405" lon="14.6421717"><ele>0.0</ele><time>2026-04-11T07:00:50.859Z</time></trkpt><trkpt lat="42.19238" lon="14.642285"><ele>0.0</ele><time>2026-04-11T07:00:53.859Z</time></trkpt><trkpt lat="42.1923533" lon="14.6423717"><ele>0.0</ele><time>2026-04-11T07:00:55.859Z</time></trkpt><trkpt lat="42.192315" lon="14.6424583"><ele>0.0</ele><time>2026-04-11T07:00:57.859Z</time></trkpt><trkpt lat="42.1922717" lon="14.6425317"><ele>0.0</ele><time>2026-04-11T07:00:59.859Z</time></trkpt><trkpt lat="42.1922" lon="14.642605"><ele>0.0</ele><time>2026-04-11T07:01:02.859Z</time></trkpt><trkpt lat="42.1921433" lon="14.6426617"><ele>0.0</ele><time>2026-04-11T07:01:04.858Z</time></trkpt><trkpt lat="42.1920917" lon="14.6427283"><ele>0.0</ele><time>2026-04-11T07:01:06.859Z</time></trkpt><trkpt lat="42.1920417" lon="14.6427983"><ele>0.0</ele><time>2026-04-11T07:01:08.859Z</time></trkpt><trkpt lat="42.1919967" lon="14.6428683"><ele>0.0</ele><time>2026-04-11T07:01:10.858Z</time></trkpt><trkpt lat="42.1919517" lon="14.6429383"><ele>0.0</ele><time>2026-04-11T07:01:12.859Z</time></trkpt><trkpt lat="42.1919" lon="14.6430067"><ele>0.0</ele><time>2026-04-11T07:01:14.859Z</time></trkpt><trkpt lat="42.1918433" lon="14.6430667"><ele>0.0</ele><time>2026-04-11T07:01:16.859Z</time></trkpt><trkpt lat="42.1917917" lon="14.6431217"><ele>0.0</ele><time>2026-04-11T07:01:18.858Z</time></trkpt><trkpt lat="42.1917333" lon="14.6431667"><ele>0.0</ele><time>2026-04-11T07:01:20.858Z</time></trkpt><trkpt lat="42.1916783" lon="14.6432217"><ele>0.0</ele><time>2026-04-11T07:01:22.859Z</time></trkpt><trkpt lat="42.19162" lon="14.6432783"><ele>0.0</ele><time>2026-04-11T07:01:24.858Z</time></trkpt><trkpt lat="42.1915683" lon="14.643345"><ele>0.0</ele><time>2026-04-11T07:01:26.859Z</time></trkpt><trkpt lat="42.1915217" lon="14.6434333"><ele>0.0</ele><time>2026-04-11T07:01:28.859Z</time></trkpt><trkpt lat="42.1914683" lon="14.643515"><ele>0.2857142857142857</ele><time>2026-04-11T07:01:30.858Z</time></trkpt><trkpt lat="42.19142" lon="14.6436033"><ele>0.5714285714285714</ele><time>2026-04-11T07:01:32.858Z</time></trkpt><trkpt lat="42.1913767" lon="14.6436817"><ele>0.8571428571428571</ele><time>2026-04-11T07:01:34.859Z</time></trkpt><trkpt lat="42.191335" lon="14.64376"><ele>1.1428571428571428</ele><time>2026-04-11T07:01:36.859Z</time></trkpt><trkpt lat="42.1913" lon="14.6438333"><ele>1.4285714285714284</ele><time>2026-04-11T07:01:38.858Z</time></trkpt><trkpt lat="42.1912633" lon="14.6439333"><ele>1.7142857142857142</ele><time>2026-04-11T07:01:41.859Z</time></trkpt><trkpt lat="42.1912217" lon="14.64402"><ele>2.0</ele><time>2026-04-11T07:01:44.859Z</time></trkpt><trkpt lat="42.1911717" lon="14.64408"><ele>2.0</ele><time>2026-04-11T07:01:47.859Z</time></trkpt><trkpt lat="42.1911283" lon="14.6441483"><ele>1.9999999999999998</ele><time>2026-04-11T07:01:50.858Z</time></trkpt><trkpt lat="42.1910767" lon="14.6442117"><ele>2.0</ele><time>2026-04-11T07:01:53.859Z</time></trkpt><trkpt lat="42.1910217" lon="14.6442783"><ele>2.0</ele><time>2026-04-11T07:01:56.859Z</time></trkpt><trkpt lat="42.1909517" lon="14.6443333"><ele>1.9999999999999998</ele><time>2026-04-11T07:01:59.859Z</time></trkpt><trkpt lat="42.19088" lon="14.644365"><ele>2.0</ele><time>2026-04-11T07:02:02.859Z</time></trkpt><trkpt lat="42.19082" lon="14.6444"><ele>2.0</ele><time>2026-04-11T07:02:05.858Z</time></trkpt><trkpt lat="42.1907417" lon="14.6444217"><ele>2.142857142857143</ele><time>2026-04-11T07:02:08.859Z</time></trkpt><trkpt lat="42.1906733" lon="14.6444417"><ele>2.2857142857142856</ele><time>2026-04-11T07:02:11.859Z</time></trkpt><trkpt lat="42.1906" lon="14.6444667"><ele>2.4285714285714284</ele><time>2026-04-11T07:02:14.858Z</time></trkpt><trkpt lat="42.1905333" lon="14.644505"><ele>2.571428571428571</ele><time>2026-04-11T07:02:17.858Z</time></trkpt><trkpt lat="42.1904717" lon="14.6445383"><ele>2.7142857142857144</ele><time>2026-04-11T07:02:20.858Z</time></trkpt><trkpt lat="42.1903967" lon="14.6445617"><ele>2.8571428571428568</ele><time>2026-04-11T07:02:23.858Z</time></trkpt><trkpt lat="42.1903133" lon="14.644585"><ele>3.0</ele><time>2026-04-11T07:02:26.859Z</time></trkpt><trkpt lat="42.19025" lon="14.6446183"><ele>3.0</ele><time>2026-04-11T07:02:29.859Z</time></trkpt><trkpt lat="42.19021" lon="14.644695"><ele>3.0</ele><time>2026-04-11T07:02:32.859Z</time></trkpt><trkpt lat="42.19018" lon="14.6448117"><ele>3.0</ele><time>2026-04-11T07:02:35.859Z</time></trkpt><trkpt lat="42.1901533" lon="14.644905"><ele>3.0</ele><time>2026-04-11T07:02:37.859Z</time></trkpt><trkpt lat="42.1901233" lon="14.6449983"><ele>3.0</ele><time>2026-04-11T07:02:39.858Z</time></trkpt><trkpt lat="42.190095" lon="14.6450933"><ele>3.0</ele><time>2026-04-11T07:02:41.858Z</time></trkpt><trkpt lat="42.1900533" lon="14.6452067"><ele>2.9999999999999996</ele><time>2026-04-11T07:02:44.858Z</time></trkpt><trkpt lat="42.1900217" lon="14.6452833"><ele>3.0</ele><time>2026-04-11T07:02:46.859Z</time></trkpt><trkpt lat="42.189995" lon="14.6453633"><ele>3.0</ele><time>2026-04-11T07:02:48.859Z</time></trkpt><trkpt lat="42.18995" lon="14.64546"><ele>3.0</ele><time>2026-04-11T07:02:51.859Z</time></trkpt><trkpt lat="42.1899183" lon="14.645535"><ele>3.0</ele><time>2026-04-11T07:02:53.859Z</time></trkpt><trkpt lat="42.1898733" lon="14.6456317"><ele>2.9999999999999996</ele><time>2026-04-11T07:02:56.858Z</time></trkpt><trkpt lat="42.18984" lon="14.645705"><ele>3.0</ele><time>2026-04-11T07:02:58.858Z</time></trkpt><trkpt lat="42.18981" lon="14.6457833"><ele>3.0</ele><time>2026-04-11T07:03:00.858Z</time></trkpt><trkpt lat="42.1897833" lon="14.6459033"><ele>3.0</ele><time>2026-04-11T07:03:03.859Z</time></trkpt><trkpt lat="42.1897667" lon="14.6460033"><ele>3.0</ele><time>2026-04-11T07:03:05.859Z</time></trkpt><trkpt lat="42.1897517" lon="14.6461033"><ele>3.0</ele><time>2026-04-11T07:03:07.86Z</time></trkpt><trkpt lat="42.1897617" lon="14.6462117"><ele>3.0</ele><time>2026-04-11T07:03:09.86Z</time></trkpt><trkpt lat="42.18976" lon="14.6463267"><ele>3.0</ele><time>2026-04-11T07:03:11.86Z</time></trkpt><trkpt lat="42.1897417" lon="14.646435"><ele>3.2</ele><time>2026-04-11T07:03:13.859Z</time></trkpt><trkpt lat="42.1897217" lon="14.6465583"><ele>3.4</ele><time>2026-04-11T07:03:15.859Z</time></trkpt><trkpt lat="42.18972" lon="14.6466867"><ele>3.6000000000000005</ele><time>2026-04-11T07:03:17.86Z</time></trkpt><trkpt lat="42.189715" lon="14.64681"><ele>3.8000000000000003</ele><time>2026-04-11T07:03:19.86Z</time></trkpt><trkpt lat="42.1897017" lon="14.6469417"><ele>4.0</ele><time>2026-04-11T07:03:21.859Z</time></trkpt><trkpt lat="42.1896917" lon="14.6470633"><ele>4.0</ele><time>2026-04-11T07:03:23.859Z</time></trkpt><trkpt lat="42.18969" lon="14.6471967"><ele>4.0</ele><time>2026-04-11T07:03:25.859Z</time></trkpt><trkpt lat="42.1896917" lon="14.647335"><ele>4.0</ele><time>2026-04-11T07:03:27.859Z</time></trkpt><trkpt lat="42.18969" lon="14.6474733"><ele>4.0</ele><time>2026-04-11T07:03:29.86Z</time></trkpt><trkpt lat="42.1896867" lon="14.6476133"><ele>4.0</ele><time>2026-04-11T07:03:31.86Z</time></trkpt><trkpt lat="42.1896817" lon="14.6477467"><ele>4.6</ele><time>2026-04-11T07:03:33.86Z</time></trkpt><trkpt lat="42.1896817" lon="14.6478867"><ele>5.2</ele><time>2026-04-11T07:03:35.86Z</time></trkpt><trkpt lat="42.18969" lon="14.64803"><ele>5.799999999999999</ele><time>2026-04-11T07:03:37.859Z</time></trkpt><trkpt lat="42.189695" lon="14.64816"><ele>6.3999999999999995</ele><time>2026-04-11T07:03:39.86Z</time></trkpt><trkpt lat="42.1896933" lon="14.648285"><ele>7.0</ele><time>2026-04-11T07:03:41.86Z</time></trkpt><trkpt lat="42.18969" lon="14.648415"><ele>7.0</ele><time>2026-04-11T07:03:43.859Z</time></trkpt><trkpt lat="42.18969" lon="14.648545"><ele>6.999999999999999</ele><time>2026-04-11T07:03:45.86Z</time></trkpt><trkpt lat="42.1896883" lon="14.648675"><ele>6.999999999999999</ele><time>2026-04-11T07:03:47.859Z</time></trkpt><trkpt lat="42.1896767" lon="14.6487967"><ele>7.0</ele><time>2026-04-11T07:03:49.86Z</time></trkpt><trkpt lat="42.18967" lon="14.6489167"><ele>7.0</ele><time>2026-04-11T07:03:51.86Z</time></trkpt><trkpt lat="42.18967" lon="14.6490317"><ele>7.666666666666667</ele><time>2026-04-11T07:03:53.86Z</time></trkpt><trkpt lat="42.1896717" lon="14.6491317"><ele>8.333333333333334</ele><time>2026-04-11T07:03:55.859Z</time></trkpt><trkpt lat="42.18966" lon="14.64924"><ele>9.0</ele><time>2026-04-11T07:03:57.86Z</time></trkpt><trkpt lat="42.1896517" lon="14.649335"><ele>9.666666666666666</ele><time>2026-04-11T07:03:59.859Z</time></trkpt><trkpt lat="42.189615" lon="14.6494233"><ele>10.333333333333332</ele><time>2026-04-11T07:04:01.86Z</time></trkpt><trkpt lat="42.1895617" lon="14.6495067"><ele>11.0</ele><time>2026-04-11T07:04:03.86Z</time></trkpt><trkpt lat="42.1894967" lon="14.64957"><ele>12.571428571428571</ele><time>2026-04-11T07:04:05.859Z</time></trkpt><trkpt lat="42.1894283" lon="14.64962"><ele>14.142857142857142</ele><time>2026-04-11T07:04:07.86Z</time></trkpt><trkpt lat="42.1893767" lon="14.64967"><ele>15.714285714285715</ele><time>2026-04-11T07:04:09.859Z</time></trkpt><trkpt lat="42.1893367" lon="14.6497817"><ele>17.285714285714285</ele><time>2026-04-11T07:04:12.86Z</time></trkpt><trkpt lat="42.18933" lon="14.6498883"><ele>18.857142857142858</ele><time>2026-04-11T07:04:14.86Z</time></trkpt><trkpt lat="42.1893233" lon="14.6499767"><ele>20.42857142857143</ele><time>2026-04-11T07:04:16.859Z</time></trkpt><trkpt lat="42.18929" lon="14.6500533"><ele>22.0</ele><time>2026-04-11T07:04:19.86Z</time></trkpt><trkpt lat="42.1892483" lon="14.6501233"><ele>22.0</ele><time>2026-04-11T07:04:22.859Z</time></trkpt><trkpt lat="42.1892083" lon="14.6502267"><ele>22.0</ele><time>2026-04-11T07:04:26.86Z</time></trkpt><trkpt lat="42.18919" lon="14.6503133"><ele>22.0</ele><time>2026-04-11T07:04:29.859Z</time></trkpt><trkpt lat="42.1891767" lon="14.6504233"><ele>22.0</ele><time>2026-04-11T07:04:32.859Z</time></trkpt><trkpt lat="42.1891483" lon="14.6505033"><ele>22.0</ele><time>2026-04-11T07:04:34.86Z</time></trkpt><trkpt lat="42.1891" lon="14.650605"><ele>22.0</ele><time>2026-04-11T07:04:37.86Z</time></trkpt><trkpt lat="42.1890567" lon="14.6506867"><ele>23.0</ele><time>2026-04-11T07:04:40.86Z</time></trkpt><trkpt lat="42.189025" lon="14.650775"><ele>24.0</ele><time>2026-04-11T07:04:43.86Z</time></trkpt><trkpt lat="42.1889967" lon="14.650855"><ele>25.0</ele><time>2026-04-11T07:04:46.86Z</time></trkpt><trkpt lat="42.18897" lon="14.6509583"><ele>26.0</ele><time>2026-04-11T07:04:49.859Z</time></trkpt><trkpt lat="42.188935" lon="14.6510367"><ele>27.000000000000004</ele><time>2026-04-11T07:04:51.86Z</time></trkpt><trkpt lat="42.188895" lon="14.6511667"><ele>28.0</ele><time>2026-04-11T07:04:54.859Z</time></trkpt><trkpt lat="42.1888783" lon="14.6512667"><ele>30.500000000000004</ele><time>2026-04-11T07:04:56.86Z</time></trkpt><trkpt lat="42.1888617" lon="14.6513933"><ele>33.0</ele><time>2026-04-11T07:04:59.86Z</time></trkpt><trkpt lat="42.188845" lon="14.6514883"><ele>35.5</ele><time>2026-04-11T07:05:01.86Z</time></trkpt><trkpt lat="42.1888317" lon="14.65161"><ele>38.0</ele><time>2026-04-11T07:05:04.859Z</time></trkpt><trkpt lat="42.1887967" lon="14.651715"><ele>40.5</ele><time>2026-04-11T07:05:06.86Z</time></trkpt><trkpt lat="42.18875" lon="14.6518367"><ele>43.0</ele><time>2026-04-11T07:05:08.859Z</time></trkpt><trkpt lat="42.1886933" lon="14.6519617"><ele>43.0</ele><time>2026-04-11T07:05:10.86Z</time></trkpt><trkpt lat="42.18863" lon="14.6520717"><ele>43.0</ele><time>2026-04-11T07:05:12.859Z</time></trkpt><trkpt lat="42.1885933" lon="14.6521767"><ele>43.0</ele><time>2026-04-11T07:05:14.86Z</time></trkpt><trkpt lat="42.188545" lon="14.65231"><ele>43.0</ele><time>2026-04-11T07:05:16.859Z</time></trkpt><trkpt lat="42.1885067" lon="14.6523817"><ele>43.0</ele><time>2026-04-11T07:05:18.859Z</time></trkpt><trkpt lat="42.188455" lon="14.652465"><ele>43.0</ele><time>2026-04-11T07:05:20.86Z</time></trkpt><trkpt lat="42.18838" lon="14.6525517"><ele>43.0</ele><time>2026-04-11T07:05:22.86Z</time></trkpt><trkpt lat="42.18834" lon="14.652705"><ele>43.0</ele><time>2026-04-11T07:05:24.859Z</time></trkpt><trkpt lat="42.18829" lon="14.652805"><ele>43.0</ele><time>2026-04-11T07:05:26.859Z</time></trkpt><trkpt lat="42.188245" lon="14.6529317"><ele>43.0</ele><time>2026-04-11T07:05:28.86Z</time></trkpt><trkpt lat="42.1881917" lon="14.6530267"><ele>43.0</ele><time>2026-04-11T07:05:30.86Z</time></trkpt><trkpt lat="42.1881267" lon="14.653125"><ele>44.16666666666667</ele><time>2026-04-11T07:05:32.859Z</time></trkpt><trkpt lat="42.1880783" lon="14.6531983"><ele>45.333333333333336</ele><time>2026-04-11T07:05:34.859Z</time></trkpt><trkpt lat="42.1880017" lon="14.653275"><ele>46.5</ele><time>2026-04-11T07:05:37.859Z</time></trkpt><trkpt lat="42.1879367" lon="14.6533433"><ele>47.66666666666667</ele><time>2026-04-11T07:05:39.859Z</time></trkpt><trkpt lat="42.1878683" lon="14.65341"><ele>48.833333333333336</ele><time>2026-04-11T07:05:41.86Z</time></trkpt><trkpt lat="42.1877867" lon="14.6534683"><ele>50.0</ele><time>2026-04-11T07:05:43.86Z</time></trkpt><trkpt lat="42.1877" lon="14.65358"><ele>49.0</ele><time>2026-04-11T07:05:45.86Z</time></trkpt><trkpt lat="42.1876367" lon="14.6537167"><ele>48.0</ele><time>2026-04-11T07:05:47.86Z</time></trkpt><trkpt lat="42.1875733" lon="14.6538217"><ele>47.0</ele><time>2026-04-11T07:05:49.859Z</time></trkpt><trkpt lat="42.1875083" lon="14.6538933"><ele>46.0</ele><time>2026-04-11T07:05:51.86Z</time></trkpt><trkpt lat="42.1874417" lon="14.653975"><ele>45.0</ele><time>2026-04-11T07:05:53.86Z</time></trkpt><trkpt lat="42.18738" lon="14.654085"><ele>46.0</ele><time>2026-04-11T07:05:55.86Z</time></trkpt><trkpt lat="42.1873417" lon="14.65419"><ele>47.0</ele><time>2026-04-11T07:05:57.86Z</time></trkpt><trkpt lat="42.1873217" lon="14.6542817"><ele>48.0</ele><time>2026-04-11T07:05:59.86Z</time></trkpt><trkpt lat="42.187285" lon="14.6543783"><ele>49.0</ele><time>2026-04-11T07:06:01.86Z</time></trkpt><trkpt lat="42.1872417" lon="14.6544567"><ele>50.0</ele><time>2026-04-11T07:06:03.86Z</time></trkpt><trkpt lat="42.187205" lon="14.6545283"><ele>51.0</ele><time>2026-04-11T07:06:05.859Z</time></trkpt><trkpt lat="42.1871567" lon="14.65464"><ele>51.0</ele><time>2026-04-11T07:06:08.859Z</time></trkpt><trkpt lat="42.1871117" lon="14.65472"><ele>51.0</ele><time>2026-04-11T07:06:10.86Z</time></trkpt><trkpt lat="42.1870517" lon="14.6547867"><ele>51.0</ele><time>2026-04-11T07:06:12.859Z</time></trkpt><trkpt lat="42.1869883" lon="14.6548217"><ele>51.0</ele><time>2026-04-11T07:06:14.859Z</time></trkpt><trkpt lat="42.1869133" lon="14.6548283"><ele>51.0</ele><time>2026-04-11T07:06:16.86Z</time></trkpt><trkpt lat="42.1868433" lon="14.6548333"><ele>51.0</ele><time>2026-04-11T07:06:18.859Z</time></trkpt><trkpt lat="42.1867783" lon="14.654815"><ele>51.0</ele><time>2026-04-11T07:06:20.86Z</time></trkpt><trkpt lat="42.1867233" lon="14.6547533"><ele>51.0</ele><time>2026-04-11T07:06:22.86Z</time></trkpt><trkpt lat="42.1866717" lon="14.65467"><ele>51.0</ele><time>2026-04-11T07:06:24.86Z</time></trkpt><trkpt lat="42.18663" lon="14.6545867"><ele>51.0</ele><time>2026-04-11T07:06:26.859Z</time></trkpt><trkpt lat="42.1865967" lon="14.6545"><ele>51.0</ele><time>2026-04-11T07:06:28.859Z</time></trkpt><trkpt lat="42.1865633" lon="14.6544117"><ele>51.0</ele><time>2026-04-11T07:06:30.86Z</time></trkpt><trkpt lat="42.18652" lon="14.65433"><ele>51.0</ele><time>2026-04-11T07:06:32.859Z</time></trkpt><trkpt lat="42.1864783" lon="14.6542417"><ele>51.333333333333336</ele><time>2026-04-11T07:06:34.86Z</time></trkpt><trkpt lat="42.186435" lon="14.654145"><ele>51.66666666666667</ele><time>2026-04-11T07:06:36.86Z</time></trkpt><trkpt lat="42.1863983" lon="14.6540583"><ele>52.0</ele><time>2026-04-11T07:06:38.86Z</time></trkpt><trkpt lat="42.1863583" lon="14.65397"><ele>52.333333333333336</ele><time>2026-04-11T07:06:40.86Z</time></trkpt><trkpt lat="42.1863233" lon="14.6538867"><ele>52.66666666666667</ele><time>2026-04-11T07:06:42.859Z</time></trkpt><trkpt lat="42.1862833" lon="14.6537917"><ele>53.0</ele><time>2026-04-11T07:06:44.86Z</time></trkpt><trkpt lat="42.1862417" lon="14.6537"><ele>53.0</ele><time>2026-04-11T07:06:46.86Z</time></trkpt><trkpt lat="42.1862083" lon="14.653625"><ele>53.0</ele><time>2026-04-11T07:06:48.86Z</time></trkpt><trkpt lat="42.1861817" lon="14.65354"><ele>53.0</ele><time>2026-04-11T07:06:50.86Z</time></trkpt><trkpt lat="42.1861467" lon="14.6534417"><ele>53.0</ele><time>2026-04-11T07:06:52.86Z</time></trkpt><trkpt lat="42.186115" lon="14.6533317"><ele>53.0</ele><time>2026-04-11T07:06:54.86Z</time></trkpt><trkpt lat="42.18609" lon="14.6532383"><ele>53.0</ele><time>2026-04-11T07:06:56.86Z</time></trkpt><trkpt lat="42.18606" lon="14.65315"><ele>53.0</ele><time>2026-04-11T07:06:58.86Z</time></trkpt><trkpt lat="42.1860133" lon="14.6530883"><ele>53.16666666666667</ele><time>2026-04-11T07:07:00.86Z</time></trkpt><trkpt lat="42.18593" lon="14.653125"><ele>53.333333333333336</ele><time>2026-04-11T07:07:04.86Z</time></trkpt><trkpt lat="42.185885" lon="14.6532117"><ele>53.5</ele><time>2026-04-11T07:07:06.86Z</time></trkpt><trkpt lat="42.1858233" lon="14.6532883"><ele>53.66666666666667</ele><time>2026-04-11T07:07:08.859Z</time></trkpt><trkpt lat="42.18576" lon="14.6533667"><ele>53.833333333333336</ele><time>2026-04-11T07:07:10.86Z</time></trkpt><trkpt lat="42.1857017" lon="14.6534383"><ele>54.0</ele><time>2026-04-11T07:07:12.859Z</time></trkpt><trkpt lat="42.1856367" lon="14.6534817"><ele>54.0</ele><time>2026-04-11T07:07:14.859Z</time></trkpt><trkpt lat="42.18557" lon="14.653525"><ele>54.0</ele><time>2026-04-11T07:07:16.86Z</time></trkpt><trkpt lat="42.18551" lon="14.6535767"><ele>54.0</ele><time>2026-04-11T07:07:18.86Z</time></trkpt><trkpt lat="42.185445" lon="14.6536317"><ele>54.0</ele><time>2026-04-11T07:07:21.859Z</time></trkpt><trkpt lat="42.18537" lon="14.6536833"><ele>54.0</ele><time>2026-04-11T07:07:24.86Z</time></trkpt><trkpt lat="42.1852867" lon="14.653755"><ele>54.0</ele><time>2026-04-11T07:07:27.859Z</time></trkpt><trkpt lat="42.1852133" lon="14.65382"><ele>53.833333333333336</ele><time>2026-04-11T07:07:30.859Z</time></trkpt><trkpt lat="42.1851383" lon="14.6538767"><ele>53.66666666666667</ele><time>2026-04-11T07:07:33.859Z</time></trkpt><trkpt lat="42.18508" lon="14.653925"><ele>53.5</ele><time>2026-04-11T07:07:35.859Z</time></trkpt><trkpt lat="42.1850183" lon="14.6539783"><ele>53.333333333333336</ele><time>2026-04-11T07:07:37.86Z</time></trkpt><trkpt lat="42.1849617" lon="14.654025"><ele>53.16666666666667</ele><time>2026-04-11T07:07:39.859Z</time></trkpt><trkpt lat="42.1848733" lon="14.6540883"><ele>53.0</ele><time>2026-04-11T07:07:42.859Z</time></trkpt><trkpt lat="42.18481" lon="14.6541383"><ele>53.16666666666667</ele><time>2026-04-11T07:07:44.86Z</time></trkpt><trkpt lat="42.1847417" lon="14.654195"><ele>53.333333333333336</ele><time>2026-04-11T07:07:46.86Z</time></trkpt><trkpt lat="42.1846733" lon="14.6542517"><ele>53.5</ele><time>2026-04-11T07:07:48.859Z</time></trkpt><trkpt lat="42.1846067" lon="14.6542983"><ele>53.66666666666667</ele><time>2026-04-11T07:07:50.86Z</time></trkpt><trkpt lat="42.18454" lon="14.65435"><ele>53.833333333333336</ele><time>2026-04-11T07:07:52.859Z</time></trkpt><trkpt lat="42.1844717" lon="14.6544083"><ele>54.0</ele><time>2026-04-11T07:07:54.86Z</time></trkpt><trkpt lat="42.1844117" lon="14.6544633"><ele>54.0</ele><time>2026-04-11T07:07:56.859Z</time></trkpt><trkpt lat="42.1843533" lon="14.65451"><ele>54.0</ele><time>2026-04-11T07:07:58.86Z</time></trkpt><trkpt lat="42.18428" lon="14.6545783"><ele>54.0</ele><time>2026-04-11T07:08:01.86Z</time></trkpt><trkpt lat="42.1842233" lon="14.6546267"><ele>54.0</ele><time>2026-04-11T07:08:04.859Z</time></trkpt><trkpt lat="42.1841567" lon="14.6546817"><ele>54.0</ele><time>2026-04-11T07:08:07.859Z</time></trkpt><trkpt lat="42.1841" lon="14.6547317"><ele>54.0</ele><time>2026-04-11T07:08:09.86Z</time></trkpt><trkpt lat="42.184035" lon="14.654785"><ele>54.0</ele><time>2026-04-11T07:08:11.859Z</time></trkpt><trkpt lat="42.1839583" lon="14.65484"><ele>53.857142857142854</ele><time>2026-04-11T07:08:13.86Z</time></trkpt><trkpt lat="42.1838883" lon="14.654895"><ele>53.71428571428571</ele><time>2026-04-11T07:08:15.86Z</time></trkpt><trkpt lat="42.1838317" lon="14.654955"><ele>53.57142857142857</ele><time>2026-04-11T07:08:17.859Z</time></trkpt><trkpt lat="42.1837683" lon="14.6550033"><ele>53.42857142857143</ele><time>2026-04-11T07:08:19.859Z</time></trkpt><trkpt lat="42.1837017" lon="14.6550583"><ele>53.285714285714285</ele><time>2026-04-11T07:08:21.859Z</time></trkpt><trkpt lat="42.1836417" lon="14.655115"><ele>53.142857142857146</ele><time>2026-04-11T07:08:23.859Z</time></trkpt><trkpt lat="42.1835867" lon="14.65516"><ele>53.0</ele><time>2026-04-11T07:08:25.859Z</time></trkpt><trkpt lat="42.1835233" lon="14.6552117"><ele>53.0</ele><time>2026-04-11T07:08:27.859Z</time></trkpt><trkpt lat="42.1834583" lon="14.6552717"><ele>53.0</ele><time>2026-04-11T07:08:29.86Z</time></trkpt><trkpt lat="42.1833933" lon="14.6553167"><ele>53.0</ele><time>2026-04-11T07:08:31.859Z</time></trkpt><trkpt lat="42.1833333" lon="14.6553683"><ele>53.0</ele><time>2026-04-11T07:08:33.86Z</time></trkpt><trkpt lat="42.1832667" lon="14.6554117"><ele>53.0</ele><time>2026-04-11T07:08:35.86Z</time></trkpt><trkpt lat="42.1832083" lon="14.6554633"><ele>53.0</ele><time>2026-04-11T07:08:37.859Z</time></trkpt><trkpt lat="42.1831517" lon="14.6555167"><ele>53.0</ele><time>2026-04-11T07:08:39.86Z</time></trkpt><trkpt lat="42.1830967" lon="14.655565"><ele>53.16666666666667</ele><time>2026-04-11T07:08:41.86Z</time></trkpt><trkpt lat="42.18304" lon="14.6556133"><ele>53.333333333333336</ele><time>2026-04-11T07:08:43.86Z</time></trkpt><trkpt lat="42.18297" lon="14.6556617"><ele>53.5</ele><time>2026-04-11T07:08:45.86Z</time></trkpt><trkpt lat="42.182905" lon="14.6557117"><ele>53.66666666666667</ele><time>2026-04-11T07:08:47.86Z</time></trkpt><trkpt lat="42.18284" lon="14.6557633"><ele>53.833333333333336</ele><time>2026-04-11T07:08:49.86Z</time></trkpt><trkpt lat="42.182775" lon="14.655815"><ele>54.0</ele><time>2026-04-11T07:08:51.86Z</time></trkpt><trkpt lat="42.1827083" lon="14.6558717"><ele>54.0</ele><time>2026-04-11T07:08:53.86Z</time></trkpt><trkpt lat="42.1826383" lon="14.6559367"><ele>54.0</ele><time>2026-04-11T07:08:55.859Z</time></trkpt><trkpt lat="42.1825717" lon="14.65599"><ele>54.0</ele><time>2026-04-11T07:08:57.86Z</time></trkpt><trkpt lat="42.1825033" lon="14.6560483"><ele>54.0</ele><time>2026-04-11T07:08:59.859Z</time></trkpt><trkpt lat="42.1824433" lon="14.65612"><ele>54.0</ele><time>2026-04-11T07:09:01.86Z</time></trkpt><trkpt lat="42.1823883" lon="14.6561867"><ele>54.0</ele><time>2026-04-11T07:09:03.86Z</time></trkpt><trkpt lat="42.182325" lon="14.6562483"><ele>54.166666666666664</ele><time>2026-04-11T07:09:05.859Z</time></trkpt><trkpt lat="42.1822617" lon="14.6563217"><ele>54.33333333333333</ele><time>2026-04-11T07:09:07.86Z</time></trkpt><trkpt lat="42.1821917" lon="14.6563917"><ele>54.5</ele><time>2026-04-11T07:09:09.859Z</time></trkpt><trkpt lat="42.1821217" lon="14.6564733"><ele>54.666666666666664</ele><time>2026-04-11T07:09:11.859Z</time></trkpt><trkpt lat="42.182055" lon="14.6565417"><ele>54.83333333333333</ele><time>2026-04-11T07:09:13.859Z</time></trkpt><trkpt lat="42.1819917" lon="14.6566017"><ele>55.0</ele><time>2026-04-11T07:09:15.859Z</time></trkpt><trkpt lat="42.1819267" lon="14.6566767"><ele>54.99999999999999</ele><time>2026-04-11T07:09:17.859Z</time></trkpt><trkpt lat="42.1818633" lon="14.6567467"><ele>55.0</ele><time>2026-04-11T07:09:19.859Z</time></trkpt><trkpt lat="42.1817983" lon="14.6568233"><ele>55.0</ele><time>2026-04-11T07:09:21.86Z</time></trkpt><trkpt lat="42.1817317" lon="14.6568967"><ele>55.0</ele><time>2026-04-11T07:09:23.86Z</time></trkpt><trkpt lat="42.1816683" lon="14.6569717"><ele>54.99999999999999</ele><time>2026-04-11T07:09:25.86Z</time></trkpt><trkpt lat="42.1815967" lon="14.6570367"><ele>55.0</ele><time>2026-04-11T07:09:27.86Z</time></trkpt><trkpt lat="42.1815283" lon="14.65712"><ele>54.99999999999999</ele><time>2026-04-11T07:09:29.859Z</time></trkpt><trkpt lat="42.1814583" lon="14.657195"><ele>55.0</ele><time>2026-04-11T07:09:31.86Z</time></trkpt><trkpt lat="42.1813917" lon="14.65727"><ele>55.0</ele><time>2026-04-11T07:09:33.86Z</time></trkpt><trkpt lat="42.181325" lon="14.65734"><ele>55.0</ele><time>2026-04-11T07:09:35.859Z</time></trkpt><trkpt lat="42.1812583" lon="14.657415"><ele>54.99999999999999</ele><time>2026-04-11T07:09:37.86Z</time></trkpt><trkpt lat="42.181195" lon="14.6574883"><ele>55.0</ele><time>2026-04-11T07:09:39.86Z</time></trkpt><trkpt lat="42.18113" lon="14.6575567"><ele>54.99999999999999</ele><time>2026-04-11T07:09:41.859Z</time></trkpt><trkpt lat="42.1810683" lon="14.6576133"><ele>55.0</ele><time>2026-04-11T07:09:43.859Z</time></trkpt><trkpt lat="42.1810117" lon="14.6576783"><ele>55.0</ele><time>2026-04-11T07:09:45.86Z</time></trkpt><trkpt lat="42.1809533" lon="14.65774"><ele>55.0</ele><time>2026-04-11T07:09:47.859Z</time></trkpt><trkpt lat="42.1808867" lon="14.657795"><ele>54.99999999999999</ele><time>2026-04-11T07:09:49.86Z</time></trkpt><trkpt lat="42.1808217" lon="14.6578467"><ele>55.0</ele><time>2026-04-11T07:09:51.86Z</time></trkpt><trkpt lat="42.1807533" lon="14.6579033"><ele>54.83333333333333</ele><time>2026-04-11T07:09:53.859Z</time></trkpt><trkpt lat="42.18069" lon="14.6579533"><ele>54.666666666666664</ele><time>2026-04-11T07:09:55.86Z</time></trkpt><trkpt lat="42.1806233" lon="14.65799"><ele>54.5</ele><time>2026-04-11T07:09:57.86Z</time></trkpt><trkpt lat="42.1805617" lon="14.6580267"><ele>54.33333333333333</ele><time>2026-04-11T07:09:59.86Z</time></trkpt><trkpt lat="42.18048" lon="14.658095"><ele>54.166666666666664</ele><time>2026-04-11T07:10:02.86Z</time></trkpt><trkpt lat="42.1804167" lon="14.6581633"><ele>54.0</ele><time>2026-04-11T07:10:04.86Z</time></trkpt><trkpt lat="42.1803517" lon="14.6582483"><ele>54.0</ele><time>2026-04-11T07:10:06.86Z</time></trkpt><trkpt lat="42.180285" lon="14.6583367"><ele>54.00000000000001</ele><time>2026-04-11T07:10:08.859Z</time></trkpt><trkpt lat="42.1802283" lon="14.6584267"><ele>54.00000000000001</ele><time>2026-04-11T07:10:10.86Z</time></trkpt><trkpt lat="42.1801733" lon="14.65853"><ele>54.0</ele><time>2026-04-11T07:10:12.86Z</time></trkpt><trkpt lat="42.1801133" lon="14.658635"><ele>54.0</ele><time>2026-04-11T07:10:14.859Z</time></trkpt><trkpt lat="42.1800483" lon="14.6587483"><ele>53.800000000000004</ele><time>2026-04-11T07:10:16.859Z</time></trkpt><trkpt lat="42.1799867" lon="14.658855"><ele>53.60000000000001</ele><time>2026-04-11T07:10:18.86Z</time></trkpt><trkpt lat="42.1799283" lon="14.6589683"><ele>53.4</ele><time>2026-04-11T07:10:20.86Z</time></trkpt><trkpt lat="42.1798683" lon="14.65908"><ele>53.2</ele><time>2026-04-11T07:10:22.86Z</time></trkpt><trkpt lat="42.179805" lon="14.6592"><ele>53.0</ele><time>2026-04-11T07:10:24.86Z</time></trkpt><trkpt lat="42.1797433" lon="14.6593067"><ele>52.8</ele><time>2026-04-11T07:10:26.86Z</time></trkpt><trkpt lat="42.1796833" lon="14.6594167"><ele>52.599999999999994</ele><time>2026-04-11T07:10:28.86Z</time></trkpt><trkpt lat="42.1796217" lon="14.659535"><ele>52.400000000000006</ele><time>2026-04-11T07:10:30.86Z</time></trkpt><trkpt lat="42.1795583" lon="14.6596517"><ele>52.2</ele><time>2026-04-11T07:10:32.86Z</time></trkpt><trkpt lat="42.1794983" lon="14.6597433"><ele>52.0</ele><time>2026-04-11T07:10:34.86Z</time></trkpt><trkpt lat="42.179435" lon="14.6598183"><ele>51.5</ele><time>2026-04-11T07:10:36.86Z</time></trkpt><trkpt lat="42.1793683" lon="14.6599367"><ele>51.0</ele><time>2026-04-11T07:10:38.86Z</time></trkpt><trkpt lat="42.1793033" lon="14.660065"><ele>50.5</ele><time>2026-04-11T07:10:40.859Z</time></trkpt><trkpt lat="42.1792333" lon="14.6601833"><ele>50.0</ele><time>2026-04-11T07:10:42.859Z</time></trkpt><trkpt lat="42.17916" lon="14.6603067"><ele>50.0</ele><time>2026-04-11T07:10:44.859Z</time></trkpt><trkpt lat="42.1790917" lon="14.6604283"><ele>50.0</ele><time>2026-04-11T07:10:46.86Z</time></trkpt><trkpt lat="42.179025" lon="14.6605433"><ele>50.0</ele><time>2026-04-11T07:10:48.86Z</time></trkpt><trkpt lat="42.1789667" lon="14.66065"><ele>50.0</ele><time>2026-04-11T07:10:50.86Z</time></trkpt><trkpt lat="42.17892" lon="14.6607533"><ele>50.0</ele><time>2026-04-11T07:10:52.86Z</time></trkpt><trkpt lat="42.1788783" lon="14.66086"><ele>50.00000000000001</ele><time>2026-04-11T07:10:54.86Z</time></trkpt><trkpt lat="42.1788417" lon="14.6609667"><ele>50.0</ele><time>2026-04-11T07:10:56.859Z</time></trkpt><trkpt lat="42.1788167" lon="14.6610617"><ele>50.0</ele><time>2026-04-11T07:10:58.86Z</time></trkpt><trkpt lat="42.17879" lon="14.661175"><ele>50.0</ele><time>2026-04-11T07:11:01.86Z</time></trkpt><trkpt lat="42.1787883" lon="14.661285"><ele>50.00000000000001</ele><time>2026-04-11T07:11:04.86Z</time></trkpt><trkpt lat="42.17878" lon="14.66139"><ele>50.0</ele><time>2026-04-11T07:11:07.86Z</time></trkpt><trkpt lat="42.178745" lon="14.661465"><ele>50.16666666666667</ele><time>2026-04-11T07:11:40.86Z</time></trkpt><trkpt lat="42.1787233" lon="14.6615683"><ele>50.333333333333336</ele><time>2026-04-11T07:11:44.859Z</time></trkpt><trkpt lat="42.178705" lon="14.6616533"><ele>50.5</ele><time>2026-04-11T07:11:47.859Z</time></trkpt><trkpt lat="42.1786917" lon="14.6617433"><ele>50.66666666666667</ele><time>2026-04-11T07:11:50.859Z</time></trkpt><trkpt lat="42.178675" lon="14.6618567"><ele>50.833333333333336</ele><time>2026-04-11T07:11:53.859Z</time></trkpt><trkpt lat="42.17866" lon="14.6619583"><ele>51.0</ele><time>2026-04-11T07:11:55.86Z</time></trkpt><trkpt lat="42.17864" lon="14.6620567"><ele>50.666666666666664</ele><time>2026-04-11T07:11:57.859Z</time></trkpt><trkpt lat="42.17862" lon="14.6621717"><ele>50.33333333333333</ele><time>2026-04-11T07:11:59.859Z</time></trkpt><trkpt lat="42.1785967" lon="14.662285"><ele>50.0</ele><time>2026-04-11T07:12:01.859Z</time></trkpt><trkpt lat="42.1785767" lon="14.662395"><ele>49.666666666666664</ele><time>2026-04-11T07:12:03.859Z</time></trkpt><trkpt lat="42.178555" lon="14.662515"><ele>49.33333333333333</ele><time>2026-04-11T07:12:05.859Z</time></trkpt><trkpt lat="42.1785267" lon="14.6626217"><ele>49.0</ele><time>2026-04-11T07:12:07.86Z</time></trkpt><trkpt lat="42.178495" lon="14.66273"><ele>48.83333333333333</ele><time>2026-04-11T07:12:09.859Z</time></trkpt><trkpt lat="42.1784567" lon="14.6628317"><ele>48.666666666666664</ele><time>2026-04-11T07:12:11.86Z</time></trkpt><trkpt lat="42.17842" lon="14.6629283"><ele>48.5</ele><time>2026-04-11T07:12:13.86Z</time></trkpt><trkpt lat="42.1783767" lon="14.6630333"><ele>48.33333333333333</ele><time>2026-04-11T07:12:15.859Z</time></trkpt><trkpt lat="42.17833" lon="14.66313"><ele>48.166666666666664</ele><time>2026-04-11T07:12:17.86Z</time></trkpt><trkpt lat="42.1782833" lon="14.6632367"><ele>48.0</ele><time>2026-04-11T07:12:19.859Z</time></trkpt><trkpt lat="42.1782333" lon="14.66333"><ele>48.0</ele><time>2026-04-11T07:12:21.86Z</time></trkpt><trkpt lat="42.1781733" lon="14.663435"><ele>48.0</ele><time>2026-04-11T07:12:23.859Z</time></trkpt><trkpt lat="42.178115" lon="14.6635417"><ele>48.0</ele><time>2026-04-11T07:12:25.86Z</time></trkpt><trkpt lat="42.17806" lon="14.6636567"><ele>48.0</ele><time>2026-04-11T07:12:27.86Z</time></trkpt><trkpt lat="42.178" lon="14.66377"><ele>48.0</ele><time>2026-04-11T07:12:29.859Z</time></trkpt><trkpt lat="42.1779517" lon="14.66388"><ele>48.0</ele><time>2026-04-11T07:12:31.86Z</time></trkpt><trkpt lat="42.1779033" lon="14.6639817"><ele>48.0</ele><time>2026-04-11T07:12:33.86Z</time></trkpt><trkpt lat="42.1778567" lon="14.664085"><ele>48.0</ele><time>2026-04-11T07:12:35.859Z</time></trkpt><trkpt lat="42.1778033" lon="14.664175"><ele>48.0</ele><time>2026-04-11T07:12:37.86Z</time></trkpt><trkpt lat="42.177755" lon="14.664255"><ele>48.0</ele><time>2026-04-11T07:12:39.859Z</time></trkpt><trkpt lat="42.17771" lon="14.6643333"><ele>48.0</ele><time>2026-04-11T07:12:41.86Z</time></trkpt><trkpt lat="42.1776583" lon="14.6644117"><ele>47.857142857142854</ele><time>2026-04-11T07:12:43.86Z</time></trkpt><trkpt lat="42.17761" lon="14.6644733"><ele>47.714285714285715</ele><time>2026-04-11T07:12:45.859Z</time></trkpt><trkpt lat="42.1775617" lon="14.6645517"><ele>47.57142857142857</ele><time>2026-04-11T07:12:47.86Z</time></trkpt><trkpt lat="42.17752" lon="14.6646183"><ele>47.42857142857143</ele><time>2026-04-11T07:12:49.86Z</time></trkpt><trkpt lat="42.1774683" lon="14.66469"><ele>47.285714285714285</ele><time>2026-04-11T07:12:51.86Z</time></trkpt><trkpt lat="42.17742" lon="14.6647583"><ele>47.14285714285714</ele><time>2026-04-11T07:12:53.859Z</time></trkpt><trkpt lat="42.1773683" lon="14.6648333"><ele>47.0</ele><time>2026-04-11T07:12:55.859Z</time></trkpt><trkpt lat="42.1773083" lon="14.664895"><ele>47.33333333333333</ele><time>2026-04-11T07:12:57.859Z</time></trkpt><trkpt lat="42.177245" lon="14.664965"><ele>47.666666666666664</ele><time>2026-04-11T07:12:59.859Z</time></trkpt><trkpt lat="42.1771783" lon="14.6650383"><ele>48.0</ele><time>2026-04-11T07:13:01.86Z</time></trkpt><trkpt lat="42.1771167" lon="14.665105"><ele>48.33333333333333</ele><time>2026-04-11T07:13:03.859Z</time></trkpt><trkpt lat="42.1770567" lon="14.6651833"><ele>48.666666666666664</ele><time>2026-04-11T07:13:05.859Z</time></trkpt><trkpt lat="42.176995" lon="14.66525"><ele>49.0</ele><time>2026-04-11T07:13:07.86Z</time></trkpt><trkpt lat="42.1769383" lon="14.6653183"><ele>49.0</ele><time>2026-04-11T07:13:09.86Z</time></trkpt><trkpt lat="42.176885" lon="14.6653883"><ele>49.0</ele><time>2026-04-11T07:13:11.86Z</time></trkpt><trkpt lat="42.1768317" lon="14.6654467"><ele>49.0</ele><time>2026-04-11T07:13:13.86Z</time></trkpt><trkpt lat="42.17678" lon="14.66551"><ele>49.0</ele><time>2026-04-11T07:13:15.859Z</time></trkpt><trkpt lat="42.1767267" lon="14.6655717"><ele>49.0</ele><time>2026-04-11T07:13:17.859Z</time></trkpt><trkpt lat="42.1766717" lon="14.6656383"><ele>49.0</ele><time>2026-04-11T07:13:19.859Z</time></trkpt><trkpt lat="42.1766183" lon="14.6657033"><ele>49.0</ele><time>2026-04-11T07:13:21.86Z</time></trkpt><trkpt lat="42.176565" lon="14.6657633"><ele>48.99999999999999</ele><time>2026-04-11T07:13:23.859Z</time></trkpt><trkpt lat="42.17651" lon="14.6658333"><ele>49.0</ele><time>2026-04-11T07:13:25.859Z</time></trkpt><trkpt lat="42.1764533" lon="14.665905"><ele>49.0</ele><time>2026-04-11T07:13:27.859Z</time></trkpt><trkpt lat="42.176395" lon="14.665965"><ele>49.0</ele><time>2026-04-11T07:13:29.859Z</time></trkpt><trkpt lat="42.1763333" lon="14.666025"><ele>48.99999999999999</ele><time>2026-04-11T07:13:31.86Z</time></trkpt><trkpt lat="42.1762667" lon="14.6660867"><ele>49.0</ele><time>2026-04-11T07:13:33.859Z</time></trkpt><trkpt lat="42.1762" lon="14.6661383"><ele>48.49999999999999</ele><time>2026-04-11T07:13:35.86Z</time></trkpt><trkpt lat="42.1761283" lon="14.66619"><ele>48.0</ele><time>2026-04-11T07:13:37.86Z</time></trkpt><trkpt lat="42.1760617" lon="14.6662467"><ele>47.5</ele><time>2026-04-11T07:13:39.859Z</time></trkpt><trkpt lat="42.1759917" lon="14.6662917"><ele>47.0</ele><time>2026-04-11T07:13:41.86Z</time></trkpt><trkpt lat="42.1759317" lon="14.6663417"><ele>46.5</ele><time>2026-04-11T07:13:43.859Z</time></trkpt><trkpt lat="42.17585" lon="14.6663917"><ele>46.0</ele><time>2026-04-11T07:13:45.86Z</time></trkpt><trkpt lat="42.17578" lon="14.66643"><ele>46.0</ele><time>2026-04-11T07:13:47.86Z</time></trkpt><trkpt lat="42.17571" lon="14.6664883"><ele>46.0</ele><time>2026-04-11T07:13:49.86Z</time></trkpt><trkpt lat="42.1756333" lon="14.6665483"><ele>46.0</ele><time>2026-04-11T07:13:51.86Z</time></trkpt><trkpt lat="42.1755567" lon="14.6666167"><ele>46.0</ele><time>2026-04-11T07:13:53.86Z</time></trkpt><trkpt lat="42.1754717" lon="14.6666883"><ele>46.0</ele><time>2026-04-11T07:13:55.86Z</time></trkpt><trkpt lat="42.175385" lon="14.6667617"><ele>45.4</ele><time>2026-04-11T07:13:57.86Z</time></trkpt><trkpt lat="42.1752983" lon="14.666865"><ele>44.8</ele><time>2026-04-11T07:13:59.86Z</time></trkpt><trkpt lat="42.1752083" lon="14.6669883"><ele>44.199999999999996</ele><time>2026-04-11T07:14:01.859Z</time></trkpt><trkpt lat="42.1751567" lon="14.66705"><ele>43.599999999999994</ele><time>2026-04-11T07:14:02.859Z</time></trkpt><trkpt lat="42.1750983" lon="14.6671083"><ele>43.0</ele><time>2026-04-11T07:14:03.86Z</time></trkpt><trkpt lat="42.1750417" lon="14.66717"><ele>42.599999999999994</ele><time>2026-04-11T07:14:04.86Z</time></trkpt><trkpt lat="42.1749883" lon="14.6672283"><ele>42.199999999999996</ele><time>2026-04-11T07:14:05.859Z</time></trkpt><trkpt lat="42.1749367" lon="14.6672883"><ele>41.8</ele><time>2026-04-11T07:14:06.859Z</time></trkpt><trkpt lat="42.1748433" lon="14.6673933"><ele>41.4</ele><time>2026-04-11T07:14:08.86Z</time></trkpt><trkpt lat="42.1747567" lon="14.6674983"><ele>41.0</ele><time>2026-04-11T07:14:10.859Z</time></trkpt><trkpt lat="42.174685" lon="14.6675867"><ele>41.666666666666664</ele><time>2026-04-11T07:14:12.859Z</time></trkpt><trkpt lat="42.1746233" lon="14.6676617"><ele>42.33333333333333</ele><time>2026-04-11T07:14:14.86Z</time></trkpt><trkpt lat="42.17457" lon="14.6677267"><ele>43.0</ele><time>2026-04-11T07:14:16.86Z</time></trkpt><trkpt lat="42.174515" lon="14.6677883"><ele>43.666666666666664</ele><time>2026-04-11T07:14:18.859Z</time></trkpt><trkpt lat="42.174465" lon="14.667855"><ele>44.333333333333336</ele><time>2026-04-11T07:14:20.859Z</time></trkpt><trkpt lat="42.174415" lon="14.6679333"><ele>45.0</ele><time>2026-04-11T07:14:22.86Z</time></trkpt><trkpt lat="42.1743667" lon="14.6680133"><ele>45.285714285714285</ele><time>2026-04-11T07:14:24.861Z</time></trkpt><trkpt lat="42.1743333" lon="14.668095"><ele>45.57142857142858</ele><time>2026-04-11T07:14:26.861Z</time></trkpt><trkpt lat="42.174315" lon="14.6681867"><ele>45.85714285714286</ele><time>2026-04-11T07:14:28.86Z</time></trkpt><trkpt lat="42.1743083" lon="14.6682817"><ele>46.14285714285714</ele><time>2026-04-11T07:14:30.861Z</time></trkpt><trkpt lat="42.1742967" lon="14.6683683"><ele>46.42857142857143</ele><time>2026-04-11T07:14:32.861Z</time></trkpt><trkpt lat="42.1742833" lon="14.6684683"><ele>46.714285714285715</ele><time>2026-04-11T07:14:34.86Z</time></trkpt><trkpt lat="42.1742767" lon="14.66857"><ele>47.0</ele><time>2026-04-11T07:14:36.86Z</time></trkpt><trkpt lat="42.174265" lon="14.6686667"><ele>47.166666666666664</ele><time>2026-04-11T07:14:38.861Z</time></trkpt><trkpt lat="42.1742567" lon="14.6687633"><ele>47.33333333333333</ele><time>2026-04-11T07:14:40.86Z</time></trkpt><trkpt lat="42.1742417" lon="14.6688617"><ele>47.5</ele><time>2026-04-11T07:14:42.86Z</time></trkpt><trkpt lat="42.1742117" lon="14.6689667"><ele>47.666666666666664</ele><time>2026-04-11T07:14:45.861Z</time></trkpt><trkpt lat="42.1741783" lon="14.6690667"><ele>47.833333333333336</ele><time>2026-04-11T07:14:47.86Z</time></trkpt><trkpt lat="42.1741483" lon="14.669185"><ele>48.0</ele><time>2026-04-11T07:14:49.861Z</time></trkpt><trkpt lat="42.1741217" lon="14.6692983"><ele>48.0</ele><time>2026-04-11T07:14:51.861Z</time></trkpt><trkpt lat="42.174085" lon="14.6694117"><ele>48.0</ele><time>2026-04-11T07:14:53.861Z</time></trkpt><trkpt lat="42.1740467" lon="14.6695267"><ele>48.0</ele><time>2026-04-11T07:14:55.861Z</time></trkpt><trkpt lat="42.1740083" lon="14.6696367"><ele>48.0</ele><time>2026-04-11T07:14:57.861Z</time></trkpt><trkpt lat="42.1739667" lon="14.6697367"><ele>48.0</ele><time>2026-04-11T07:14:59.861Z</time></trkpt><trkpt lat="42.17392" lon="14.669845"><ele>48.0</ele><time>2026-04-11T07:15:01.861Z</time></trkpt><trkpt lat="42.1738767" lon="14.6699483"><ele>48.0</ele><time>2026-04-11T07:15:03.861Z</time></trkpt><trkpt lat="42.173835" lon="14.6700617"><ele>48.0</ele><time>2026-04-11T07:15:05.86Z</time></trkpt><trkpt lat="42.1737883" lon="14.6701583"><ele>48.0</ele><time>2026-04-11T07:15:07.861Z</time></trkpt><trkpt lat="42.1737467" lon="14.6702583"><ele>48.0</ele><time>2026-04-11T07:15:09.861Z</time></trkpt><trkpt lat="42.1737067" lon="14.670355"><ele>48.0</ele><time>2026-04-11T07:15:11.861Z</time></trkpt><trkpt lat="42.1736633" lon="14.67046"><ele>47.8</ele><time>2026-04-11T07:15:13.86Z</time></trkpt><trkpt lat="42.1736217" lon="14.6705617"><ele>47.599999999999994</ele><time>2026-04-11T07:15:15.86Z</time></trkpt><trkpt lat="42.1735767" lon="14.670665"><ele>47.400000000000006</ele><time>2026-04-11T07:15:17.861Z</time></trkpt><trkpt lat="42.1735317" lon="14.67077"><ele>47.2</ele><time>2026-04-11T07:15:19.86Z</time></trkpt><trkpt lat="42.17349" lon="14.67088"><ele>47.0</ele><time>2026-04-11T07:15:21.86Z</time></trkpt><trkpt lat="42.1734383" lon="14.6709933"><ele>47.0</ele><time>2026-04-11T07:15:23.861Z</time></trkpt><trkpt lat="42.1733817" lon="14.6711067"><ele>47.0</ele><time>2026-04-11T07:15:25.86Z</time></trkpt><trkpt lat="42.1733167" lon="14.6712417"><ele>47.0</ele><time>2026-04-11T07:15:27.861Z</time></trkpt><trkpt lat="42.1732517" lon="14.67139"><ele>47.0</ele><time>2026-04-11T07:15:29.86Z</time></trkpt><trkpt lat="42.1732217" lon="14.671475"><ele>47.0</ele><time>2026-04-11T07:15:30.861Z</time></trkpt><trkpt lat="42.1731867" lon="14.6715583"><ele>46.5</ele><time>2026-04-11T07:15:31.86Z</time></trkpt><trkpt lat="42.173145" lon="14.67164"><ele>46.0</ele><time>2026-04-11T07:15:32.861Z</time></trkpt><trkpt lat="42.1731017" lon="14.6717333"><ele>45.5</ele><time>2026-04-11T07:15:33.861Z</time></trkpt><trkpt lat="42.1730633" lon="14.67183"><ele>45.0</ele><time>2026-04-11T07:15:34.861Z</time></trkpt><trkpt lat="42.173025" lon="14.6719333"><ele>44.5</ele><time>2026-04-11T07:15:35.861Z</time></trkpt><trkpt lat="42.17299" lon="14.6720317"><ele>44.0</ele><time>2026-04-11T07:15:36.86Z</time></trkpt><trkpt lat="42.172955" lon="14.6721267"><ele>44.0</ele><time>2026-04-11T07:15:37.86Z</time></trkpt><trkpt lat="42.1729167" lon="14.67222"><ele>44.0</ele><time>2026-04-11T07:15:38.861Z</time></trkpt><trkpt lat="42.17288" lon="14.6723117"><ele>44.0</ele><time>2026-04-11T07:15:39.86Z</time></trkpt><trkpt lat="42.17284" lon="14.672395"><ele>44.0</ele><time>2026-04-11T07:15:40.861Z</time></trkpt><trkpt lat="42.172805" lon="14.6724733"><ele>44.0</ele><time>2026-04-11T07:15:41.861Z</time></trkpt><trkpt lat="42.172775" lon="14.6725533"><ele>44.0</ele><time>2026-04-11T07:15:42.861Z</time></trkpt><trkpt lat="42.17274" lon="14.6726267"><ele>44.0</ele><time>2026-04-11T07:15:43.86Z</time></trkpt><trkpt lat="42.172675" lon="14.672755"><ele>44.0</ele><time>2026-04-11T07:15:45.861Z</time></trkpt><trkpt lat="42.172615" lon="14.672855"><ele>44.0</ele><time>2026-04-11T07:15:47.861Z</time></trkpt><trkpt lat="42.172555" lon="14.6729417"><ele>44.0</ele><time>2026-04-11T07:15:49.861Z</time></trkpt><trkpt lat="42.1725017" lon="14.6730217"><ele>44.0</ele><time>2026-04-11T07:15:51.861Z</time></trkpt><trkpt lat="42.17245" lon="14.6730917"><ele>44.0</ele><time>2026-04-11T07:15:53.861Z</time></trkpt><trkpt lat="42.172395" lon="14.6731567"><ele>44.0</ele><time>2026-04-11T07:15:55.861Z</time></trkpt><trkpt lat="42.1723367" lon="14.6732233"><ele>44.166666666666664</ele><time>2026-04-11T07:15:57.861Z</time></trkpt><trkpt lat="42.1722767" lon="14.673295"><ele>44.33333333333333</ele><time>2026-04-11T07:15:59.86Z</time></trkpt><trkpt lat="42.172215" lon="14.6733717"><ele>44.5</ele><time>2026-04-11T07:16:01.861Z</time></trkpt><trkpt lat="42.1721583" lon="14.67345"><ele>44.666666666666664</ele><time>2026-04-11T07:16:03.861Z</time></trkpt><trkpt lat="42.1720983" lon="14.6735283"><ele>44.833333333333336</ele><time>2026-04-11T07:16:05.86Z</time></trkpt><trkpt lat="42.1720517" lon="14.6736117"><ele>45.0</ele><time>2026-04-11T07:16:07.861Z</time></trkpt><trkpt lat="42.1719983" lon="14.6737067"><ele>45.333333333333336</ele><time>2026-04-11T07:16:09.861Z</time></trkpt><trkpt lat="42.171955" lon="14.673805"><ele>45.666666666666664</ele><time>2026-04-11T07:16:11.86Z</time></trkpt><trkpt lat="42.17191" lon="14.6739"><ele>46.0</ele><time>2026-04-11T07:16:13.86Z</time></trkpt><trkpt lat="42.17187" lon="14.673985"><ele>46.33333333333333</ele><time>2026-04-11T07:16:15.861Z</time></trkpt><trkpt lat="42.1718233" lon="14.6740667"><ele>46.666666666666664</ele><time>2026-04-11T07:16:17.86Z</time></trkpt><trkpt lat="42.171775" lon="14.6741583"><ele>47.0</ele><time>2026-04-11T07:16:19.861Z</time></trkpt><trkpt lat="42.1717317" lon="14.6742467"><ele>47.0</ele><time>2026-04-11T07:16:21.861Z</time></trkpt><trkpt lat="42.171685" lon="14.6743383"><ele>47.0</ele><time>2026-04-11T07:16:23.861Z</time></trkpt><trkpt lat="42.171635" lon="14.6744333"><ele>47.0</ele><time>2026-04-11T07:16:25.861Z</time></trkpt><trkpt lat="42.1715883" lon="14.6745317"><ele>47.0</ele><time>2026-04-11T07:16:27.861Z</time></trkpt><trkpt lat="42.1715383" lon="14.6746233"><ele>47.0</ele><time>2026-04-11T07:16:29.861Z</time></trkpt><trkpt lat="42.1714867" lon="14.6747117"><ele>47.0</ele><time>2026-04-11T07:16:31.86Z</time></trkpt><trkpt lat="42.1714183" lon="14.674785"><ele>47.166666666666664</ele><time>2026-04-11T07:16:33.861Z</time></trkpt><trkpt lat="42.17135" lon="14.6748583"><ele>47.33333333333333</ele><time>2026-04-11T07:16:35.861Z</time></trkpt><trkpt lat="42.17128" lon="14.67492"><ele>47.5</ele><time>2026-04-11T07:16:37.861Z</time></trkpt><trkpt lat="42.17125" lon="14.6749967"><ele>47.666666666666664</ele><time>2026-04-11T07:16:39.86Z</time></trkpt><trkpt lat="42.1713" lon="14.6750783"><ele>47.833333333333336</ele><time>2026-04-11T07:16:41.86Z</time></trkpt><trkpt lat="42.17139" lon="14.67517"><ele>48.0</ele><time>2026-04-11T07:16:43.861Z</time></trkpt><trkpt lat="42.17149" lon="14.675255"><ele>47.2</ele><time>2026-04-11T07:16:45.861Z</time></trkpt><trkpt lat="42.1715983" lon="14.6753217"><ele>46.4</ele><time>2026-04-11T07:16:47.86Z</time></trkpt><trkpt lat="42.1716583" lon="14.6753567"><ele>45.6</ele><time>2026-04-11T07:16:48.861Z</time></trkpt><trkpt lat="42.1717667" lon="14.67543"><ele>44.800000000000004</ele><time>2026-04-11T07:16:50.861Z</time></trkpt><trkpt lat="42.171875" lon="14.6755"><ele>44.0</ele><time>2026-04-11T07:16:52.861Z</time></trkpt><trkpt lat="42.1719767" lon="14.6755717"><ele>44.0</ele><time>2026-04-11T07:16:54.86Z</time></trkpt><trkpt lat="42.172075" lon="14.6756467"><ele>44.0</ele><time>2026-04-11T07:16:56.861Z</time></trkpt><trkpt lat="42.1721667" lon="14.67573"><ele>44.0</ele><time>2026-04-11T07:16:58.861Z</time></trkpt><trkpt lat="42.1722633" lon="14.6758"><ele>44.0</ele><time>2026-04-11T07:17:00.86Z</time></trkpt><trkpt lat="42.1723633" lon="14.6758633"><ele>44.0</ele><time>2026-04-11T07:17:02.86Z</time></trkpt><trkpt lat="42.172455" lon="14.6759317"><ele>43.800000000000004</ele><time>2026-04-11T07:17:04.861Z</time></trkpt><trkpt lat="42.1725483" lon="14.6759967"><ele>43.6</ele><time>2026-04-11T07:17:06.86Z</time></trkpt><trkpt lat="42.1726417" lon="14.6760667"><ele>43.4</ele><time>2026-04-11T07:17:08.861Z</time></trkpt><trkpt lat="42.1727317" lon="14.67614"><ele>43.2</ele><time>2026-04-11T07:17:10.861Z</time></trkpt><trkpt lat="42.172825" lon="14.6762"><ele>43.0</ele><time>2026-04-11T07:17:12.861Z</time></trkpt><trkpt lat="42.1729183" lon="14.67627"><ele>42.599999999999994</ele><time>2026-04-11T07:17:14.861Z</time></trkpt><trkpt lat="42.17301" lon="14.676335"><ele>42.199999999999996</ele><time>2026-04-11T07:17:16.861Z</time></trkpt><trkpt lat="42.1731" lon="14.6764017"><ele>41.8</ele><time>2026-04-11T07:17:18.86Z</time></trkpt><trkpt lat="42.1731933" lon="14.676475"><ele>41.4</ele><time>2026-04-11T07:17:20.86Z</time></trkpt><trkpt lat="42.17329" lon="14.6765233"><ele>41.0</ele><time>2026-04-11T07:17:22.861Z</time></trkpt><trkpt lat="42.17339" lon="14.67658"><ele>41.0</ele><time>2026-04-11T07:17:24.861Z</time></trkpt><trkpt lat="42.173475" lon="14.6766233"><ele>41.0</ele><time>2026-04-11T07:17:26.861Z</time></trkpt><trkpt lat="42.17357" lon="14.6766667"><ele>41.0</ele><time>2026-04-11T07:17:28.86Z</time></trkpt><trkpt lat="42.1736267" lon="14.6767083"><ele>41.0</ele><time>2026-04-11T07:17:29.861Z</time></trkpt><trkpt lat="42.1736867" lon="14.67677"><ele>41.0</ele><time>2026-04-11T07:17:30.861Z</time></trkpt><trkpt lat="42.1737617" lon="14.67684"><ele>41.0</ele><time>2026-04-11T07:17:31.861Z</time></trkpt><trkpt lat="42.17386" lon="14.6769267"><ele>41.0</ele><time>2026-04-11T07:17:33.861Z</time></trkpt><trkpt lat="42.1739533" lon="14.67701"><ele>41.0</ele><time>2026-04-11T07:17:35.861Z</time></trkpt><trkpt lat="42.1740417" lon="14.6770867"><ele>41.0</ele><time>2026-04-11T07:17:37.86Z</time></trkpt><trkpt lat="42.17413" lon="14.6771517"><ele>41.0</ele><time>2026-04-11T07:17:39.861Z</time></trkpt><trkpt lat="42.174215" lon="14.6772217"><ele>41.0</ele><time>2026-04-11T07:17:41.861Z</time></trkpt><trkpt lat="42.174315" lon="14.6773067"><ele>40.599999999999994</ele><time>2026-04-11T07:17:43.861Z</time></trkpt><trkpt lat="42.174415" lon="14.6773883"><ele>40.199999999999996</ele><time>2026-04-11T07:17:45.861Z</time></trkpt><trkpt lat="42.1745083" lon="14.6774433"><ele>39.8</ele><time>2026-04-11T07:17:47.861Z</time></trkpt><trkpt lat="42.1746083" lon="14.67748"><ele>39.4</ele><time>2026-04-11T07:17:49.861Z</time></trkpt><trkpt lat="42.1746933" lon="14.6775017"><ele>39.0</ele><time>2026-04-11T07:17:51.861Z</time></trkpt><trkpt lat="42.1747733" lon="14.6775117"><ele>38.833333333333336</ele><time>2026-04-11T07:17:53.861Z</time></trkpt><trkpt lat="42.1748667" lon="14.6775167"><ele>38.666666666666664</ele><time>2026-04-11T07:17:56.86Z</time></trkpt><trkpt lat="42.1749517" lon="14.6775333"><ele>38.5</ele><time>2026-04-11T07:17:59.861Z</time></trkpt><trkpt lat="42.175035" lon="14.67754"><ele>38.33333333333333</ele><time>2026-04-11T07:18:02.86Z</time></trkpt><trkpt lat="42.1751167" lon="14.677535"><ele>38.166666666666664</ele><time>2026-04-11T07:18:05.861Z</time></trkpt><trkpt lat="42.17518" lon="14.6775233"><ele>38.0</ele><time>2026-04-11T07:18:07.861Z</time></trkpt><trkpt lat="42.1752467" lon="14.6775067"><ele>38.0</ele><time>2026-04-11T07:18:09.86Z</time></trkpt><trkpt lat="42.1753117" lon="14.6774867"><ele>38.0</ele><time>2026-04-11T07:18:11.861Z</time></trkpt><trkpt lat="42.1753717" lon="14.6774583"><ele>38.0</ele><time>2026-04-11T07:18:13.86Z</time></trkpt><trkpt lat="42.1754317" lon="14.6774283"><ele>38.0</ele><time>2026-04-11T07:18:15.861Z</time></trkpt><trkpt lat="42.1754917" lon="14.67739"><ele>38.0</ele><time>2026-04-11T07:18:17.861Z</time></trkpt><trkpt lat="42.17555" lon="14.67735"><ele>38.0</ele><time>2026-04-11T07:18:19.86Z</time></trkpt><trkpt lat="42.1756133" lon="14.677305"><ele>38.0</ele><time>2026-04-11T07:18:21.86Z</time></trkpt><trkpt lat="42.1756767" lon="14.6772583"><ele>37.83333333333333</ele><time>2026-04-11T07:18:23.861Z</time></trkpt><trkpt lat="42.1757417" lon="14.6772133"><ele>37.666666666666664</ele><time>2026-04-11T07:18:25.861Z</time></trkpt><trkpt lat="42.1758167" lon="14.6771667"><ele>37.5</ele><time>2026-04-11T07:18:27.861Z</time></trkpt><trkpt lat="42.17589" lon="14.677135"><ele>37.333333333333336</ele><time>2026-04-11T07:18:29.861Z</time></trkpt><trkpt lat="42.17596" lon="14.677125"><ele>37.16666666666667</ele><time>2026-04-11T07:18:31.86Z</time></trkpt><trkpt lat="42.1760317" lon="14.6770933"><ele>37.0</ele><time>2026-04-11T07:18:33.861Z</time></trkpt><trkpt lat="42.17612" lon="14.6770667"><ele>37.0</ele><time>2026-04-11T07:18:35.861Z</time></trkpt><trkpt lat="42.1762033" lon="14.6770583"><ele>37.0</ele><time>2026-04-11T07:18:37.86Z</time></trkpt><trkpt lat="42.1762933" lon="14.67704"><ele>37.0</ele><time>2026-04-11T07:18:39.86Z</time></trkpt><trkpt lat="42.176385" lon="14.6770317"><ele>37.0</ele><time>2026-04-11T07:18:41.861Z</time></trkpt><trkpt lat="42.176485" lon="14.67703"><ele>37.0</ele><time>2026-04-11T07:18:43.861Z</time></trkpt><trkpt lat="42.17659" lon="14.6770167"><ele>36.5</ele><time>2026-04-11T07:18:45.86Z</time></trkpt><trkpt lat="42.176685" lon="14.677"><ele>36.0</ele><time>2026-04-11T07:18:47.861Z</time></trkpt><trkpt lat="42.17678" lon="14.67698"><ele>35.5</ele><time>2026-04-11T07:18:49.861Z</time></trkpt><trkpt lat="42.17685" lon="14.67696"><ele>35.0</ele><time>2026-04-11T07:18:51.861Z</time></trkpt><trkpt lat="42.176925" lon="14.6769717"><ele>34.5</ele><time>2026-04-11T07:18:54.861Z</time></trkpt><trkpt lat="42.1769883" lon="14.6769917"><ele>34.0</ele><time>2026-04-11T07:18:56.861Z</time></trkpt><trkpt lat="42.177065" lon="14.6770033"><ele>34.0</ele><time>2026-04-11T07:18:58.861Z</time></trkpt><trkpt lat="42.1771367" lon="14.67702"><ele>34.0</ele><time>2026-04-11T07:19:00.86Z</time></trkpt><trkpt lat="42.1772367" lon="14.6770067"><ele>34.0</ele><time>2026-04-11T07:19:02.861Z</time></trkpt><trkpt lat="42.177345" lon="14.6769917"><ele>34.0</ele><time>2026-04-11T07:19:04.861Z</time></trkpt><trkpt lat="42.1774617" lon="14.6769783"><ele>34.0</ele><time>2026-04-11T07:19:06.86Z</time></trkpt><trkpt lat="42.1775783" lon="14.67698"><ele>33.16666666666667</ele><time>2026-04-11T07:19:08.861Z</time></trkpt><trkpt lat="42.1776867" lon="14.67698"><ele>32.333333333333336</ele><time>2026-04-11T07:19:10.861Z</time></trkpt><trkpt lat="42.1777683" lon="14.6770083"><ele>31.5</ele><time>2026-04-11T07:19:12.861Z</time></trkpt><trkpt lat="42.1778467" lon="14.6770633"><ele>30.666666666666664</ele><time>2026-04-11T07:19:14.861Z</time></trkpt><trkpt lat="42.177915" lon="14.6771317"><ele>29.833333333333332</ele><time>2026-04-11T07:19:16.86Z</time></trkpt><trkpt lat="42.1779767" lon="14.677195"><ele>29.0</ele><time>2026-04-11T07:19:18.861Z</time></trkpt><trkpt lat="42.1780283" lon="14.6772533"><ele>29.0</ele><time>2026-04-11T07:19:20.861Z</time></trkpt><trkpt lat="42.1781017" lon="14.6773317"><ele>29.0</ele><time>2026-04-11T07:19:23.861Z</time></trkpt><trkpt lat="42.1781633" lon="14.67738"><ele>29.0</ele><time>2026-04-11T07:19:25.861Z</time></trkpt><trkpt lat="42.1782483" lon="14.6774217"><ele>29.0</ele><time>2026-04-11T07:19:27.861Z</time></trkpt><trkpt lat="42.1783417" lon="14.6774667"><ele>29.0</ele><time>2026-04-11T07:19:29.861Z</time></trkpt><trkpt lat="42.1784383" lon="14.6775033"><ele>27.666666666666664</ele><time>2026-04-11T07:19:31.861Z</time></trkpt><trkpt lat="42.178515" lon="14.6775383"><ele>26.333333333333332</ele><time>2026-04-11T07:19:33.86Z</time></trkpt><trkpt lat="42.1785917" lon="14.67758"><ele>25.0</ele><time>2026-04-11T07:19:35.86Z</time></trkpt><trkpt lat="42.178665" lon="14.6776233"><ele>23.666666666666664</ele><time>2026-04-11T07:19:37.86Z</time></trkpt><trkpt lat="42.178735" lon="14.6776633"><ele>22.333333333333332</ele><time>2026-04-11T07:19:39.861Z</time></trkpt><trkpt lat="42.1788117" lon="14.677695"><ele>21.0</ele><time>2026-04-11T07:19:41.861Z</time></trkpt><trkpt lat="42.1789117" lon="14.6777267"><ele>21.5</ele><time>2026-04-11T07:19:43.86Z</time></trkpt><trkpt lat="42.1790117" lon="14.677775"><ele>22.0</ele><time>2026-04-11T07:19:45.86Z</time></trkpt><trkpt lat="42.1791033" lon="14.6778233"><ele>22.5</ele><time>2026-04-11T07:19:47.86Z</time></trkpt><trkpt lat="42.1791883" lon="14.6778417"><ele>23.0</ele><time>2026-04-11T07:19:49.861Z</time></trkpt><trkpt lat="42.1792517" lon="14.6778733"><ele>23.5</ele><time>2026-04-11T07:19:51.861Z</time></trkpt><trkpt lat="42.1793167" lon="14.6779233"><ele>24.0</ele><time>2026-04-11T07:19:53.861Z</time></trkpt><trkpt lat="42.1793817" lon="14.6779433"><ele>22.57142857142857</ele><time>2026-04-11T07:19:55.86Z</time></trkpt><trkpt lat="42.1794583" lon="14.6779667"><ele>21.142857142857142</ele><time>2026-04-11T07:19:57.861Z</time></trkpt><trkpt lat="42.1795283" lon="14.6780017"><ele>19.714285714285715</ele><time>2026-04-11T07:19:59.86Z</time></trkpt><trkpt lat="42.179595" lon="14.6780367"><ele>18.285714285714285</ele><time>2026-04-11T07:20:01.86Z</time></trkpt><trkpt lat="42.1796617" lon="14.6780533"><ele>16.857142857142858</ele><time>2026-04-11T07:20:03.861Z</time></trkpt><trkpt lat="42.1797317" lon="14.6780667"><ele>15.428571428571429</ele><time>2026-04-11T07:20:05.861Z</time></trkpt><trkpt lat="42.1798017" lon="14.67808"><ele>14.0</ele><time>2026-04-11T07:20:07.861Z</time></trkpt><trkpt lat="42.1798733" lon="14.6781"><ele>13.142857142857142</ele><time>2026-04-11T07:20:09.86Z</time></trkpt><trkpt lat="42.179945" lon="14.6781233"><ele>12.285714285714285</ele><time>2026-04-11T07:20:11.86Z</time></trkpt><trkpt lat="42.1800133" lon="14.678145"><ele>11.428571428571429</ele><time>2026-04-11T07:20:13.861Z</time></trkpt><trkpt lat="42.1800817" lon="14.6781683"><ele>10.571428571428571</ele><time>2026-04-11T07:20:15.861Z</time></trkpt><trkpt lat="42.1801467" lon="14.6782"><ele>9.714285714285714</ele><time>2026-04-11T07:20:17.86Z</time></trkpt><trkpt lat="42.1802" lon="14.6782483"><ele>8.857142857142858</ele><time>2026-04-11T07:20:19.86Z</time></trkpt><trkpt lat="42.1802417" lon="14.6783183"><ele>8.0</ele><time>2026-04-11T07:20:21.861Z</time></trkpt><trkpt lat="42.1802767" lon="14.678425"><ele>8.0</ele><time>2026-04-11T07:20:24.861Z</time></trkpt><trkpt lat="42.1802433" lon="14.678505"><ele>7.999999999999999</ele><time>2026-04-11T07:20:27.861Z</time></trkpt><trkpt lat="42.1801533" lon="14.6785633"><ele>8.0</ele><time>2026-04-11T07:20:30.861Z</time></trkpt><trkpt lat="42.1800933" lon="14.6785967"><ele>8.0</ele><time>2026-04-11T07:20:32.86Z</time></trkpt><trkpt lat="42.1800333" lon="14.6786467"><ele>7.999999999999999</ele><time>2026-04-11T07:20:34.861Z</time></trkpt><trkpt lat="42.17997" lon="14.6786883"><ele>8.0</ele><time>2026-04-11T07:20:36.86Z</time></trkpt><trkpt lat="42.1799083" lon="14.6787267"><ele>8.0</ele><time>2026-04-11T07:20:38.86Z</time></trkpt><trkpt lat="42.1798533" lon="14.67877"><ele>9.5</ele><time>2026-04-11T07:20:40.861Z</time></trkpt><trkpt lat="42.17977" lon="14.678825"><ele>11.0</ele><time>2026-04-11T07:20:43.861Z</time></trkpt><trkpt lat="42.1796817" lon="14.6788567"><ele>12.5</ele><time>2026-04-11T07:20:46.86Z</time></trkpt><trkpt lat="42.1796" lon="14.6788917"><ele>14.0</ele><time>2026-04-11T07:20:49.861Z</time></trkpt><trkpt lat="42.1795183" lon="14.6789467"><ele>15.500000000000002</ele><time>2026-04-11T07:20:52.861Z</time></trkpt><trkpt lat="42.1794583" lon="14.6789867"><ele>17.0</ele><time>2026-04-11T07:20:55.861Z</time></trkpt><trkpt lat="42.1793783" lon="14.67901"><ele>17.0</ele><time>2026-04-11T07:20:59.861Z</time></trkpt><trkpt lat="42.1792983" lon="14.6790517"><ele>17.0</ele><time>2026-04-11T07:21:02.86Z</time></trkpt><trkpt lat="42.179215" lon="14.6790933"><ele>17.0</ele><time>2026-04-11T07:21:05.86Z</time></trkpt><trkpt lat="42.17914" lon="14.6791217"><ele>17.0</ele><time>2026-04-11T07:21:08.86Z</time></trkpt><trkpt lat="42.1790533" lon="14.6791583"><ele>17.0</ele><time>2026-04-11T07:21:11.86Z</time></trkpt><trkpt lat="42.1789933" lon="14.6791933"><ele>17.0</ele><time>2026-04-11T07:21:13.861Z</time></trkpt><trkpt lat="42.1789233" lon="14.679255"><ele>19.166666666666668</ele><time>2026-04-11T07:21:16.861Z</time></trkpt><trkpt lat="42.1788767" lon="14.6793567"><ele>21.333333333333336</ele><time>2026-04-11T07:21:19.861Z</time></trkpt><trkpt lat="42.1788817" lon="14.67945"><ele>23.5</ele><time>2026-04-11T07:21:21.861Z</time></trkpt><trkpt lat="42.1788933" lon="14.6795683"><ele>25.666666666666668</ele><time>2026-04-11T07:21:23.861Z</time></trkpt><trkpt lat="42.1789" lon="14.67971"><ele>27.833333333333332</ele><time>2026-04-11T07:21:25.86Z</time></trkpt><trkpt lat="42.1788883" lon="14.679835"><ele>30.0</ele><time>2026-04-11T07:21:27.86Z</time></trkpt><trkpt lat="42.1788317" lon="14.67992"><ele>30.0</ele><time>2026-04-11T07:21:29.861Z</time></trkpt><trkpt lat="42.17877" lon="14.6799767"><ele>30.0</ele><time>2026-04-11T07:21:31.86Z</time></trkpt><trkpt lat="42.1787167" lon="14.6800333"><ele>30.0</ele><time>2026-04-11T07:21:33.861Z</time></trkpt><trkpt lat="42.1786583" lon="14.68008"><ele>30.0</ele><time>2026-04-11T07:21:35.861Z</time></trkpt><trkpt lat="42.17859" lon="14.68014"><ele>30.0</ele><time>2026-04-11T07:21:37.86Z</time></trkpt><trkpt lat="42.1785283" lon="14.680195"><ele>30.0</ele><time>2026-04-11T07:21:39.86Z</time></trkpt><trkpt lat="42.1784767" lon="14.680285"><ele>30.2</ele><time>2026-04-11T07:21:55.86Z</time></trkpt><trkpt lat="42.1785117" lon="14.6804067"><ele>30.4</ele><time>2026-04-11T07:21:58.86Z</time></trkpt><trkpt lat="42.1785683" lon="14.6804967"><ele>30.6</ele><time>2026-04-11T07:22:00.86Z</time></trkpt><trkpt lat="42.1786267" lon="14.6805967"><ele>30.8</ele><time>2026-04-11T07:22:02.86Z</time></trkpt><trkpt lat="42.1786767" lon="14.6806967"><ele>31.0</ele><time>2026-04-11T07:22:04.861Z</time></trkpt><trkpt lat="42.178725" lon="14.6807967"><ele>31.0</ele><time>2026-04-11T07:22:06.86Z</time></trkpt><trkpt lat="42.1787533" lon="14.6809133"><ele>31.0</ele><time>2026-04-11T07:22:08.861Z</time></trkpt><trkpt lat="42.1787817" lon="14.68105"><ele>31.0</ele><time>2026-04-11T07:22:10.861Z</time></trkpt><trkpt lat="42.1788117" lon="14.6811817"><ele>31.0</ele><time>2026-04-11T07:22:12.861Z</time></trkpt><trkpt lat="42.17884" lon="14.68133"><ele>31.0</ele><time>2026-04-11T07:22:14.861Z</time></trkpt><trkpt lat="42.1788733" lon="14.681485"><ele>31.0</ele><time>2026-04-11T07:22:16.861Z</time></trkpt><trkpt lat="42.1789017" lon="14.6816383"><ele>31.0</ele><time>2026-04-11T07:22:18.86Z</time></trkpt><trkpt lat="42.1789533" lon="14.6817633"><ele>31.0</ele><time>2026-04-11T07:22:20.861Z</time></trkpt><trkpt lat="42.179015" lon="14.6818833"><ele>31.0</ele><time>2026-04-11T07:22:22.86Z</time></trkpt><trkpt lat="42.1790783" lon="14.682"><ele>31.0</ele><time>2026-04-11T07:22:24.86Z</time></trkpt><trkpt lat="42.1791383" lon="14.6821117"><ele>29.4</ele><time>2026-04-11T07:22:26.86Z</time></trkpt><trkpt lat="42.1791967" lon="14.6822283"><ele>27.8</ele><time>2026-04-11T07:22:28.861Z</time></trkpt><trkpt lat="42.1792383" lon="14.68236"><ele>26.2</ele><time>2026-04-11T07:22:30.861Z</time></trkpt><trkpt lat="42.179255" lon="14.6824933"><ele>24.599999999999998</ele><time>2026-04-11T07:22:32.861Z</time></trkpt><trkpt lat="42.1792517" lon="14.6825983"><ele>23.0</ele><time>2026-04-11T07:22:34.861Z</time></trkpt><trkpt lat="42.1792317" lon="14.6827033"><ele>22.333333333333336</ele><time>2026-04-11T07:22:36.861Z</time></trkpt><trkpt lat="42.179205" lon="14.682795"><ele>21.666666666666668</ele><time>2026-04-11T07:22:38.861Z</time></trkpt><trkpt lat="42.17918" lon="14.6828967"><ele>21.0</ele><time>2026-04-11T07:22:40.861Z</time></trkpt><trkpt lat="42.179155" lon="14.6829883"><ele>20.333333333333332</ele><time>2026-04-11T07:22:42.861Z</time></trkpt><trkpt lat="42.1791267" lon="14.683085"><ele>19.666666666666664</ele><time>2026-04-11T07:22:44.861Z</time></trkpt><trkpt lat="42.1791317" lon="14.6831933"><ele>19.0</ele><time>2026-04-11T07:22:46.861Z</time></trkpt><trkpt lat="42.17915" lon="14.6833233"><ele>19.0</ele><time>2026-04-11T07:22:48.861Z</time></trkpt><trkpt lat="42.1791667" lon="14.6834883"><ele>19.0</ele><time>2026-04-11T07:22:50.86Z</time></trkpt><trkpt lat="42.179165" lon="14.6835783"><ele>19.0</ele><time>2026-04-11T07:22:51.861Z</time></trkpt><trkpt lat="42.179155" lon="14.68367"><ele>19.0</ele><time>2026-04-11T07:22:52.861Z</time></trkpt><trkpt lat="42.1791267" lon="14.683755"><ele>19.0</ele><time>2026-04-11T07:22:53.86Z</time></trkpt><trkpt lat="42.1790833" lon="14.6838233"><ele>19.0</ele><time>2026-04-11T07:22:54.86Z</time></trkpt><trkpt lat="42.1790283" lon="14.683895"><ele>18.5</ele><time>2026-04-11T07:22:55.861Z</time></trkpt><trkpt lat="42.178965" lon="14.683955"><ele>18.0</ele><time>2026-04-11T07:22:56.861Z</time></trkpt><trkpt lat="42.1789017" lon="14.68401"><ele>17.5</ele><time>2026-04-11T07:22:57.86Z</time></trkpt><trkpt lat="42.17884" lon="14.6840667"><ele>17.0</ele><time>2026-04-11T07:22:58.86Z</time></trkpt><trkpt lat="42.1787783" lon="14.6841317"><ele>16.5</ele><time>2026-04-11T07:22:59.861Z</time></trkpt><trkpt lat="42.1787117" lon="14.6841817"><ele>16.0</ele><time>2026-04-11T07:23:00.86Z</time></trkpt><trkpt lat="42.1786433" lon="14.6842267"><ele>15.999999999999998</ele><time>2026-04-11T07:23:01.861Z</time></trkpt><trkpt lat="42.1785783" lon="14.684265"><ele>16.0</ele><time>2026-04-11T07:23:02.861Z</time></trkpt><trkpt lat="42.17852" lon="14.6842983"><ele>16.0</ele><time>2026-04-11T07:23:03.861Z</time></trkpt><trkpt lat="42.178455" lon="14.68432"><ele>16.0</ele><time>2026-04-11T07:23:04.861Z</time></trkpt><trkpt lat="42.1783383" lon="14.684355"><ele>15.999999999999998</ele><time>2026-04-11T07:23:06.861Z</time></trkpt><trkpt lat="42.1782233" lon="14.6843967"><ele>16.0</ele><time>2026-04-11T07:23:08.86Z</time></trkpt><trkpt lat="42.17816" lon="14.6844167"><ele>15.333333333333332</ele><time>2026-04-11T07:23:09.86Z</time></trkpt><trkpt lat="42.1780917" lon="14.6844283"><ele>14.666666666666666</ele><time>2026-04-11T07:23:10.861Z</time></trkpt><trkpt lat="42.178015" lon="14.6844433"><ele>14.0</ele><time>2026-04-11T07:23:11.86Z</time></trkpt><trkpt lat="42.1779367" lon="14.6844567"><ele>13.333333333333332</ele><time>2026-04-11T07:23:12.86Z</time></trkpt><trkpt lat="42.1778667" lon="14.6844717"><ele>12.666666666666666</ele><time>2026-04-11T07:23:13.861Z</time></trkpt><trkpt lat="42.1778017" lon="14.684495"><ele>12.0</ele><time>2026-04-11T07:23:14.86Z</time></trkpt><trkpt lat="42.1777" lon="14.6845467"><ele>12.0</ele><time>2026-04-11T07:23:16.861Z</time></trkpt><trkpt lat="42.1776567" lon="14.6846367"><ele>12.0</ele><time>2026-04-11T07:23:18.86Z</time></trkpt><trkpt lat="42.177635" lon="14.68475"><ele>12.0</ele><time>2026-04-11T07:23:20.861Z</time></trkpt><trkpt lat="42.1776233" lon="14.684875"><ele>12.0</ele><time>2026-04-11T07:23:22.861Z</time></trkpt><trkpt lat="42.17766" lon="14.6849783"><ele>12.0</ele><time>2026-04-11T07:23:24.861Z</time></trkpt><trkpt lat="42.17775" lon="14.6850783"><ele>11.999999999999998</ele><time>2026-04-11T07:23:26.861Z</time></trkpt><trkpt lat="42.1778033" lon="14.68513"><ele>12.0</ele><time>2026-04-11T07:23:27.861Z</time></trkpt><trkpt lat="42.17786" lon="14.68518"><ele>12.0</ele><time>2026-04-11T07:23:28.86Z</time></trkpt><trkpt lat="42.1779167" lon="14.6852317"><ele>12.0</ele><time>2026-04-11T07:23:29.861Z</time></trkpt><trkpt lat="42.1779733" lon="14.6852883"><ele>12.0</ele><time>2026-04-11T07:23:30.861Z</time></trkpt><trkpt lat="42.1780267" lon="14.6853333"><ele>11.999999999999998</ele><time>2026-04-11T07:23:31.86Z</time></trkpt><trkpt lat="42.1780933" lon="14.6853917"><ele>12.0</ele><time>2026-04-11T07:23:33.861Z</time></trkpt><trkpt lat="42.178155" lon="14.6854517"><ele>11.428571428571427</ele><time>2026-04-11T07:23:37.861Z</time></trkpt><trkpt lat="42.1782117" lon="14.68551"><ele>10.857142857142858</ele><time>2026-04-11T07:23:41.861Z</time></trkpt><trkpt lat="42.1782667" lon="14.68556"><ele>10.285714285714285</ele><time>2026-04-11T07:23:44.861Z</time></trkpt><trkpt lat="42.17832" lon="14.68562"><ele>9.714285714285714</ele><time>2026-04-11T07:23:47.861Z</time></trkpt><trkpt lat="42.1783883" lon="14.685695"><ele>9.142857142857142</ele><time>2026-04-11T07:23:50.86Z</time></trkpt><trkpt lat="42.1784483" lon="14.6857517"><ele>8.571428571428571</ele><time>2026-04-11T07:23:52.861Z</time></trkpt><trkpt lat="42.1785167" lon="14.6858083"><ele>8.0</ele><time>2026-04-11T07:23:54.861Z</time></trkpt><trkpt lat="42.1785883" lon="14.6858733"><ele>8.0</ele><time>2026-04-11T07:23:56.861Z</time></trkpt><trkpt lat="42.178665" lon="14.6859317"><ele>8.0</ele><time>2026-04-11T07:23:58.861Z</time></trkpt><trkpt lat="42.1787417" lon="14.6859917"><ele>8.0</ele><time>2026-04-11T07:24:00.861Z</time></trkpt><trkpt lat="42.1788167" lon="14.6860617"><ele>8.0</ele><time>2026-04-11T07:24:02.861Z</time></trkpt><trkpt lat="42.1788883" lon="14.6861517"><ele>8.0</ele><time>2026-04-11T07:24:04.861Z</time></trkpt><trkpt lat="42.178965" lon="14.6862467"><ele>9.75</ele><time>2026-04-11T07:24:06.861Z</time></trkpt><trkpt lat="42.179025" lon="14.68638"><ele>11.5</ele><time>2026-04-11T07:24:08.861Z</time></trkpt><trkpt lat="42.1790717" lon="14.6865283"><ele>13.25</ele><time>2026-04-11T07:24:10.861Z</time></trkpt><trkpt lat="42.179105" lon="14.68668"><ele>15.0</ele><time>2026-04-11T07:24:12.86Z</time></trkpt><trkpt lat="42.1791333" lon="14.6868267"><ele>15.2</ele><time>2026-04-11T07:24:14.861Z</time></trkpt><trkpt lat="42.1791683" lon="14.6869733"><ele>15.4</ele><time>2026-04-11T07:24:16.861Z</time></trkpt><trkpt lat="42.1791783" lon="14.6871267"><ele>15.600000000000001</ele><time>2026-04-11T07:24:18.86Z</time></trkpt><trkpt lat="42.1791633" lon="14.6872767"><ele>15.8</ele><time>2026-04-11T07:24:20.86Z</time></trkpt><trkpt lat="42.1791267" lon="14.68741"><ele>16.0</ele><time>2026-04-11T07:24:22.861Z</time></trkpt><trkpt lat="42.17906" lon="14.68753"><ele>17.6</ele><time>2026-04-11T07:24:24.861Z</time></trkpt><trkpt lat="42.1789633" lon="14.6875967"><ele>19.200000000000003</ele><time>2026-04-11T07:24:26.86Z</time></trkpt><trkpt lat="42.17886" lon="14.6876267"><ele>20.799999999999997</ele><time>2026-04-11T07:24:28.861Z</time></trkpt><trkpt lat="42.178755" lon="14.6876167"><ele>22.4</ele><time>2026-04-11T07:24:30.861Z</time></trkpt><trkpt lat="42.1786533" lon="14.687615"><ele>24.0</ele><time>2026-04-11T07:24:32.861Z</time></trkpt><trkpt lat="42.1785467" lon="14.68764"><ele>24.0</ele><time>2026-04-11T07:24:34.86Z</time></trkpt><trkpt lat="42.1784333" lon="14.6876717"><ele>24.0</ele><time>2026-04-11T07:24:36.861Z</time></trkpt><trkpt lat="42.1783217" lon="14.687725"><ele>24.0</ele><time>2026-04-11T07:24:38.861Z</time></trkpt><trkpt lat="42.178215" lon="14.6877833"><ele>24.0</ele><time>2026-04-11T07:24:40.861Z</time></trkpt><trkpt lat="42.178115" lon="14.6878417"><ele>24.833333333333332</ele><time>2026-04-11T07:24:42.86Z</time></trkpt><trkpt lat="42.1780117" lon="14.687915"><ele>25.666666666666664</ele><time>2026-04-11T07:24:44.861Z</time></trkpt><trkpt lat="42.17791" lon="14.6880167"><ele>26.5</ele><time>2026-04-11T07:24:46.861Z</time></trkpt><trkpt lat="42.1778567" lon="14.688075"><ele>27.333333333333332</ele><time>2026-04-11T07:24:47.86Z</time></trkpt><trkpt lat="42.1778067" lon="14.6881333"><ele>28.166666666666664</ele><time>2026-04-11T07:24:48.861Z</time></trkpt><trkpt lat="42.1777583" lon="14.6881933"><ele>29.0</ele><time>2026-04-11T07:24:49.86Z</time></trkpt><trkpt lat="42.1777133" lon="14.688255"><ele>29.0</ele><time>2026-04-11T07:24:50.861Z</time></trkpt><trkpt lat="42.1776283" lon="14.6883783"><ele>29.0</ele><time>2026-04-11T07:24:52.86Z</time></trkpt><trkpt lat="42.1775483" lon="14.6884917"><ele>29.0</ele><time>2026-04-11T07:24:54.861Z</time></trkpt><trkpt lat="42.1774833" lon="14.6885967"><ele>29.0</ele><time>2026-04-11T07:24:56.86Z</time></trkpt><trkpt lat="42.1774133" lon="14.6887117"><ele>29.6</ele><time>2026-04-11T07:24:58.86Z</time></trkpt><trkpt lat="42.17734" lon="14.6888217"><ele>30.2</ele><time>2026-04-11T07:25:00.861Z</time></trkpt><trkpt lat="42.17726" lon="14.6889183"><ele>30.800000000000004</ele><time>2026-04-11T07:25:02.86Z</time></trkpt><trkpt lat="42.1771733" lon="14.6889683"><ele>31.400000000000002</ele><time>2026-04-11T07:25:04.861Z</time></trkpt><trkpt lat="42.177095" lon="14.68899"><ele>32.0</ele><time>2026-04-11T07:25:06.861Z</time></trkpt><trkpt lat="42.17701" lon="14.6889933"><ele>31.999999999999996</ele><time>2026-04-11T07:25:08.861Z</time></trkpt><trkpt lat="42.1769167" lon="14.6889933"><ele>32.0</ele><time>2026-04-11T07:25:10.861Z</time></trkpt><trkpt lat="42.17683" lon="14.6889983"><ele>32.0</ele><time>2026-04-11T07:25:12.861Z</time></trkpt><trkpt lat="42.1767433" lon="14.689035"><ele>32.0</ele><time>2026-04-11T07:25:14.861Z</time></trkpt><trkpt lat="42.17667" lon="14.68909"><ele>31.999999999999996</ele><time>2026-04-11T07:25:16.861Z</time></trkpt><trkpt lat="42.1766083" lon="14.68916"><ele>32.0</ele><time>2026-04-11T07:25:18.861Z</time></trkpt><trkpt lat="42.176555" lon="14.6892433"><ele>32.166666666666664</ele><time>2026-04-11T07:25:20.861Z</time></trkpt><trkpt lat="42.1765083" lon="14.6893417"><ele>32.33333333333333</ele><time>2026-04-11T07:25:22.861Z</time></trkpt><trkpt lat="42.17647" lon="14.6894383"><ele>32.5</ele><time>2026-04-11T07:25:24.861Z</time></trkpt><trkpt lat="42.176435" lon="14.68953"><ele>32.666666666666664</ele><time>2026-04-11T07:25:26.861Z</time></trkpt><trkpt lat="42.1764033" lon="14.68962"><ele>32.833333333333336</ele><time>2026-04-11T07:25:28.861Z</time></trkpt><trkpt lat="42.1763783" lon="14.6897183"><ele>33.0</ele><time>2026-04-11T07:25:30.861Z</time></trkpt><trkpt lat="42.1763467" lon="14.6898067"><ele>33.166666666666664</ele><time>2026-04-11T07:25:32.861Z</time></trkpt><trkpt lat="42.1763183" lon="14.6898883"><ele>33.333333333333336</ele><time>2026-04-11T07:25:34.86Z</time></trkpt><trkpt lat="42.176285" lon="14.6899783"><ele>33.5</ele><time>2026-04-11T07:25:36.86Z</time></trkpt><trkpt lat="42.176245" lon="14.6900967"><ele>33.66666666666667</ele><time>2026-04-11T07:25:39.861Z</time></trkpt><trkpt lat="42.1762133" lon="14.6901867"><ele>33.833333333333336</ele><time>2026-04-11T07:25:41.861Z</time></trkpt><trkpt lat="42.1761783" lon="14.69028"><ele>34.0</ele><time>2026-04-11T07:25:43.861Z</time></trkpt><trkpt lat="42.176145" lon="14.69037"><ele>34.16666666666667</ele><time>2026-04-11T07:25:45.861Z</time></trkpt><trkpt lat="42.1761183" lon="14.6904583"><ele>34.333333333333336</ele><time>2026-04-11T07:25:47.861Z</time></trkpt><trkpt lat="42.17609" lon="14.69054"><ele>34.5</ele><time>2026-04-11T07:25:49.861Z</time></trkpt><trkpt lat="42.1760567" lon="14.69063"><ele>34.666666666666664</ele><time>2026-04-11T07:25:51.861Z</time></trkpt><trkpt lat="42.176025" lon="14.690725"><ele>34.83333333333333</ele><time>2026-04-11T07:25:53.86Z</time></trkpt><trkpt lat="42.1759883" lon="14.6908317"><ele>35.0</ele><time>2026-04-11T07:25:55.86Z</time></trkpt><trkpt lat="42.1759567" lon="14.690935"><ele>35.0</ele><time>2026-04-11T07:25:57.86Z</time></trkpt><trkpt lat="42.1759283" lon="14.6910267"><ele>35.0</ele><time>2026-04-11T07:25:59.86Z</time></trkpt><trkpt lat="42.1759" lon="14.6911233"><ele>35.0</ele><time>2026-04-11T07:26:01.861Z</time></trkpt><trkpt lat="42.17587" lon="14.6912133"><ele>35.0</ele><time>2026-04-11T07:26:03.861Z</time></trkpt><trkpt lat="42.17584" lon="14.6913117"><ele>35.0</ele><time>2026-04-11T07:26:06.861Z</time></trkpt><trkpt lat="42.1758117" lon="14.6914233"><ele>35.0</ele><time>2026-04-11T07:26:09.86Z</time></trkpt><trkpt lat="42.1757767" lon="14.691495"><ele>35.0</ele><time>2026-04-11T07:26:11.861Z</time></trkpt><trkpt lat="42.175745" lon="14.6915817"><ele>35.0</ele><time>2026-04-11T07:26:13.861Z</time></trkpt><trkpt lat="42.17571" lon="14.6916717"><ele>35.0</ele><time>2026-04-11T07:26:15.861Z</time></trkpt><trkpt lat="42.1756767" lon="14.691765"><ele>35.0</ele><time>2026-04-11T07:26:17.86Z</time></trkpt><trkpt lat="42.17563" lon="14.691865"><ele>35.0</ele><time>2026-04-11T07:26:19.86Z</time></trkpt><trkpt lat="42.1755967" lon="14.6919633"><ele>35.0</ele><time>2026-04-11T07:26:21.861Z</time></trkpt><trkpt lat="42.1755617" lon="14.6920717"><ele>35.0</ele><time>2026-04-11T07:26:23.861Z</time></trkpt><trkpt lat="42.17552" lon="14.69216"><ele>35.0</ele><time>2026-04-11T07:26:25.861Z</time></trkpt><trkpt lat="42.1754767" lon="14.6922583"><ele>35.0</ele><time>2026-04-11T07:26:27.861Z</time></trkpt><trkpt lat="42.1754283" lon="14.6923583"><ele>35.0</ele><time>2026-04-11T07:26:29.861Z</time></trkpt><trkpt lat="42.175375" lon="14.6924467"><ele>35.0</ele><time>2026-04-11T07:26:31.861Z</time></trkpt><trkpt lat="42.1753217" lon="14.6925233"><ele>35.0</ele><time>2026-04-11T07:26:33.86Z</time></trkpt><trkpt lat="42.1752633" lon="14.6926117"><ele>35.0</ele><time>2026-04-11T07:26:35.861Z</time></trkpt><trkpt lat="42.1752083" lon="14.6926933"><ele>35.0</ele><time>2026-04-11T07:26:37.86Z</time></trkpt><trkpt lat="42.1751517" lon="14.692775"><ele>35.0</ele><time>2026-04-11T07:26:39.861Z</time></trkpt><trkpt lat="42.175085" lon="14.6928483"><ele>35.0</ele><time>2026-04-11T07:26:41.861Z</time></trkpt><trkpt lat="42.1750167" lon="14.69292"><ele>35.0</ele><time>2026-04-11T07:26:43.86Z</time></trkpt><trkpt lat="42.1749417" lon="14.6929733"><ele>35.0</ele><time>2026-04-11T07:26:45.861Z</time></trkpt><trkpt lat="42.1748717" lon="14.6930167"><ele>34.83333333333333</ele><time>2026-04-11T07:26:47.86Z</time></trkpt><trkpt lat="42.1747983" lon="14.69309"><ele>34.666666666666664</ele><time>2026-04-11T07:26:49.861Z</time></trkpt><trkpt lat="42.174735" lon="14.6931617"><ele>34.5</ele><time>2026-04-11T07:26:51.86Z</time></trkpt><trkpt lat="42.174665" lon="14.6932267"><ele>34.333333333333336</ele><time>2026-04-11T07:26:53.861Z</time></trkpt><trkpt lat="42.17459" lon="14.6932967"><ele>34.16666666666667</ele><time>2026-04-11T07:26:55.86Z</time></trkpt><trkpt lat="42.1745233" lon="14.693355"><ele>34.0</ele><time>2026-04-11T07:26:57.861Z</time></trkpt><trkpt lat="42.174465" lon="14.6934083"><ele>34.0</ele><time>2026-04-11T07:26:59.861Z</time></trkpt><trkpt lat="42.1744017" lon="14.6934917"><ele>34.0</ele><time>2026-04-11T07:27:02.86Z</time></trkpt><trkpt lat="42.1743517" lon="14.6935633"><ele>34.0</ele><time>2026-04-11T07:27:05.861Z</time></trkpt><trkpt lat="42.1743567" lon="14.693665"><ele>34.0</ele><time>2026-04-11T07:27:08.862Z</time></trkpt><trkpt lat="42.1743967" lon="14.6937317"><ele>34.0</ele><time>2026-04-11T07:27:10.862Z</time></trkpt><trkpt lat="42.1744683" lon="14.693795"><ele>34.0</ele><time>2026-04-11T07:27:13.862Z</time></trkpt><trkpt lat="42.1745183" lon="14.6938967"><ele>33.99999999999999</ele><time>2026-04-11T07:27:16.862Z</time></trkpt><trkpt lat="42.17455" lon="14.6939717"><ele>34.0</ele><time>2026-04-11T07:27:18.861Z</time></trkpt><trkpt lat="42.17461" lon="14.694025"><ele>34.0</ele><time>2026-04-11T07:27:21.862Z</time></trkpt><trkpt lat="42.1746717" lon="14.6940567"><ele>34.0</ele><time>2026-04-11T07:27:23.862Z</time></trkpt><trkpt lat="42.1747367" lon="14.6940867"><ele>34.0</ele><time>2026-04-11T07:27:25.862Z</time></trkpt><trkpt lat="42.1748117" lon="14.6941333"><ele>33.99999999999999</ele><time>2026-04-11T07:27:28.861Z</time></trkpt><trkpt lat="42.174875" lon="14.6941917"><ele>34.0</ele><time>2026-04-11T07:27:31.861Z</time></trkpt><trkpt lat="42.1749167" lon="14.6942783"><ele>33.833333333333336</ele><time>2026-04-11T07:27:34.861Z</time></trkpt><trkpt lat="42.1749283" lon="14.69438"><ele>33.66666666666667</ele><time>2026-04-11T07:27:38.861Z</time></trkpt><trkpt lat="42.174885" lon="14.69447"><ele>33.5</ele><time>2026-04-11T07:27:43.862Z</time></trkpt><trkpt lat="42.17486" lon="14.6945617"><ele>33.333333333333336</ele><time>2026-04-11T07:27:46.862Z</time></trkpt><trkpt lat="42.174835" lon="14.6946567"><ele>33.166666666666664</ele><time>2026-04-11T07:27:48.862Z</time></trkpt><trkpt lat="42.1748083" lon="14.694775"><ele>33.0</ele><time>2026-04-11T07:27:50.861Z</time></trkpt><trkpt lat="42.174775" lon="14.69489"><ele>33.0</ele><time>2026-04-11T07:27:52.861Z</time></trkpt><trkpt lat="42.174735" lon="14.6950167"><ele>33.0</ele><time>2026-04-11T07:27:54.862Z</time></trkpt><trkpt lat="42.1746917" lon="14.6951383"><ele>33.0</ele><time>2026-04-11T07:27:56.861Z</time></trkpt><trkpt lat="42.1746567" lon="14.6952417"><ele>33.0</ele><time>2026-04-11T07:27:58.861Z</time></trkpt><trkpt lat="42.1746283" lon="14.69532"><ele>33.0</ele><time>2026-04-11T07:28:00.862Z</time></trkpt><trkpt lat="42.1745983" lon="14.695415"><ele>33.0</ele><time>2026-04-11T07:28:03.862Z</time></trkpt><trkpt lat="42.174555" lon="14.6955333"><ele>32.857142857142854</ele><time>2026-04-11T07:28:06.862Z</time></trkpt><trkpt lat="42.1745233" lon="14.6956117"><ele>32.714285714285715</ele><time>2026-04-11T07:28:08.862Z</time></trkpt><trkpt lat="42.17449" lon="14.6956883"><ele>32.57142857142857</ele><time>2026-04-11T07:28:10.862Z</time></trkpt><trkpt lat="42.1744683" lon="14.6957683"><ele>32.42857142857143</ele><time>2026-04-11T07:28:12.862Z</time></trkpt><trkpt lat="42.17442" lon="14.6958717"><ele>32.285714285714285</ele><time>2026-04-11T07:28:15.862Z</time></trkpt><trkpt lat="42.1743883" lon="14.6959617"><ele>32.14285714285714</ele><time>2026-04-11T07:28:17.862Z</time></trkpt><trkpt lat="42.1743633" lon="14.6960633"><ele>32.0</ele><time>2026-04-11T07:28:19.862Z</time></trkpt><trkpt lat="42.1743333" lon="14.6961733"><ele>31.57142857142857</ele><time>2026-04-11T07:28:21.861Z</time></trkpt><trkpt lat="42.1743" lon="14.6962733"><ele>31.14285714285714</ele><time>2026-04-11T07:28:23.862Z</time></trkpt><trkpt lat="42.1742717" lon="14.6963583"><ele>30.714285714285715</ele><time>2026-04-11T07:28:25.862Z</time></trkpt><trkpt lat="42.174245" lon="14.6964383"><ele>30.285714285714285</ele><time>2026-04-11T07:28:27.861Z</time></trkpt><trkpt lat="42.1742183" lon="14.6965167"><ele>29.857142857142858</ele><time>2026-04-11T07:28:29.861Z</time></trkpt><trkpt lat="42.17419" lon="14.6965983"><ele>29.42857142857143</ele><time>2026-04-11T07:28:31.862Z</time></trkpt><trkpt lat="42.1741617" lon="14.696695"><ele>29.000000000000004</ele><time>2026-04-11T07:28:33.862Z</time></trkpt><trkpt lat="42.1741317" lon="14.6967917"><ele>28.999999999999996</ele><time>2026-04-11T07:28:35.861Z</time></trkpt><trkpt lat="42.1740917" lon="14.69688"><ele>29.0</ele><time>2026-04-11T07:28:37.862Z</time></trkpt><trkpt lat="42.17405" lon="14.696965"><ele>29.0</ele><time>2026-04-11T07:28:39.862Z</time></trkpt><trkpt lat="42.174" lon="14.69708"><ele>29.0</ele><time>2026-04-11T07:28:42.861Z</time></trkpt><trkpt lat="42.173955" lon="14.6971833"><ele>28.999999999999996</ele><time>2026-04-11T07:28:45.862Z</time></trkpt><trkpt lat="42.173955" lon="14.6973033"><ele>29.0</ele><time>2026-04-11T07:28:47.862Z</time></trkpt><trkpt lat="42.1739583" lon="14.69744"><ele>30.0</ele><time>2026-04-11T07:28:49.862Z</time></trkpt><trkpt lat="42.1739167" lon="14.6976"><ele>31.0</ele><time>2026-04-11T07:28:51.861Z</time></trkpt><trkpt lat="42.1738917" lon="14.6976783"><ele>32.0</ele><time>2026-04-11T07:28:52.861Z</time></trkpt><trkpt lat="42.1738467" lon="14.697825"><ele>33.0</ele><time>2026-04-11T07:28:54.861Z</time></trkpt><trkpt lat="42.173805" lon="14.6979767"><ele>34.0</ele><time>2026-04-11T07:28:56.862Z</time></trkpt><trkpt lat="42.1737617" lon="14.6981217"><ele>34.0</ele><time>2026-04-11T07:28:58.862Z</time></trkpt><trkpt lat="42.173715" lon="14.6982517"><ele>34.0</ele><time>2026-04-11T07:29:00.862Z</time></trkpt><trkpt lat="42.1736767" lon="14.6983683"><ele>34.0</ele><time>2026-04-11T07:29:02.862Z</time></trkpt><trkpt lat="42.1736483" lon="14.6984767"><ele>34.0</ele><time>2026-04-11T07:29:05.862Z</time></trkpt><trkpt lat="42.1736917" lon="14.6985433"><ele>34.0</ele><time>2026-04-11T07:29:10.862Z</time></trkpt><trkpt lat="42.1737517" lon="14.69857"><ele>34.0</ele><time>2026-04-11T07:29:19.862Z</time></trkpt><trkpt lat="42.1738367" lon="14.6986383"><ele>33.8</ele><time>2026-04-11T07:29:22.862Z</time></trkpt><trkpt lat="42.1738783" lon="14.6987267"><ele>33.599999999999994</ele><time>2026-04-11T07:29:24.861Z</time></trkpt><trkpt lat="42.1738633" lon="14.6988417"><ele>33.4</ele><time>2026-04-11T07:29:26.861Z</time></trkpt><trkpt lat="42.1738183" lon="14.69895"><ele>33.199999999999996</ele><time>2026-04-11T07:29:28.862Z</time></trkpt><trkpt lat="42.173765" lon="14.6990483"><ele>33.0</ele><time>2026-04-11T07:29:30.862Z</time></trkpt><trkpt lat="42.1737" lon="14.6991617"><ele>33.0</ele><time>2026-04-11T07:29:32.862Z</time></trkpt><trkpt lat="42.1736567" lon="14.699295"><ele>33.0</ele><time>2026-04-11T07:29:34.862Z</time></trkpt><trkpt lat="42.173635" lon="14.699435"><ele>33.0</ele><time>2026-04-11T07:29:36.862Z</time></trkpt><trkpt lat="42.17363" lon="14.6995667"><ele>33.0</ele><time>2026-04-11T07:29:38.862Z</time></trkpt><trkpt lat="42.1736167" lon="14.6996817"><ele>33.0</ele><time>2026-04-11T07:29:40.861Z</time></trkpt><trkpt lat="42.1735667" lon="14.69978"><ele>32.0</ele><time>2026-04-11T07:29:42.862Z</time></trkpt><trkpt lat="42.1734933" lon="14.6998583"><ele>31.0</ele><time>2026-04-11T07:29:44.862Z</time></trkpt><trkpt lat="42.1734133" lon="14.69994"><ele>30.0</ele><time>2026-04-11T07:29:46.862Z</time></trkpt><trkpt lat="42.1733517" lon="14.7000533"><ele>29.0</ele><time>2026-04-11T07:29:48.861Z</time></trkpt><trkpt lat="42.1733133" lon="14.7001467"><ele>28.0</ele><time>2026-04-11T07:29:50.862Z</time></trkpt><trkpt lat="42.1732933" lon="14.7002333"><ele>27.0</ele><time>2026-04-11T07:29:52.862Z</time></trkpt><trkpt lat="42.173255" lon="14.7003317"><ele>28.0</ele><time>2026-04-11T07:29:54.862Z</time></trkpt><trkpt lat="42.1732117" lon="14.7004317"><ele>29.0</ele><time>2026-04-11T07:29:56.862Z</time></trkpt><trkpt lat="42.1731667" lon="14.70053"><ele>30.0</ele><time>2026-04-11T07:29:58.861Z</time></trkpt><trkpt lat="42.1731317" lon="14.7006233"><ele>31.0</ele><time>2026-04-11T07:30:00.862Z</time></trkpt><trkpt lat="42.1731083" lon="14.7007267"><ele>32.0</ele><time>2026-04-11T07:30:02.862Z</time></trkpt><trkpt lat="42.17308" lon="14.7008333"><ele>33.0</ele><time>2026-04-11T07:30:04.861Z</time></trkpt><trkpt lat="42.1730417" lon="14.7009517"><ele>33.0</ele><time>2026-04-11T07:30:06.862Z</time></trkpt><trkpt lat="42.172995" lon="14.7010517"><ele>33.0</ele><time>2026-04-11T07:30:08.861Z</time></trkpt><trkpt lat="42.17295" lon="14.7011483"><ele>33.0</ele><time>2026-04-11T07:30:10.861Z</time></trkpt><trkpt lat="42.17291" lon="14.7012367"><ele>33.0</ele><time>2026-04-11T07:30:12.862Z</time></trkpt><trkpt lat="42.17287" lon="14.70132"><ele>33.0</ele><time>2026-04-11T07:30:14.862Z</time></trkpt><trkpt lat="42.17283" lon="14.701395"><ele>33.0</ele><time>2026-04-11T07:30:16.862Z</time></trkpt><trkpt lat="42.17278" lon="14.7014483"><ele>32.333333333333336</ele><time>2026-04-11T07:30:18.862Z</time></trkpt><trkpt lat="42.17273" lon="14.7015"><ele>31.666666666666664</ele><time>2026-04-11T07:30:21.862Z</time></trkpt><trkpt lat="42.1726767" lon="14.7015717"><ele>31.0</ele><time>2026-04-11T07:30:26.862Z</time></trkpt><trkpt lat="42.17264" lon="14.7016433"><ele>30.333333333333332</ele><time>2026-04-11T07:30:30.862Z</time></trkpt><trkpt lat="42.172615" lon="14.7017833"><ele>29.666666666666664</ele><time>2026-04-11T07:30:48.862Z</time></trkpt><trkpt lat="42.1726217" lon="14.7019017"><ele>29.0</ele><time>2026-04-11T07:30:51.862Z</time></trkpt><trkpt lat="42.1726217" lon="14.701995"><ele>27.499999999999996</ele><time>2026-04-11T07:30:53.862Z</time></trkpt><trkpt lat="42.172615" lon="14.7020883"><ele>26.0</ele><time>2026-04-11T07:30:55.861Z</time></trkpt><trkpt lat="42.1726067" lon="14.70219"><ele>24.5</ele><time>2026-04-11T07:30:57.862Z</time></trkpt><trkpt lat="42.1726" lon="14.7022917"><ele>23.0</ele><time>2026-04-11T07:30:59.862Z</time></trkpt><trkpt lat="42.1725817" lon="14.7023767"><ele>21.5</ele><time>2026-04-11T07:31:01.861Z</time></trkpt><trkpt lat="42.1725667" lon="14.7024733"><ele>20.0</ele><time>2026-04-11T07:31:04.862Z</time></trkpt><trkpt lat="42.172555" lon="14.7027017"><ele>18.857142857142858</ele><time>2026-04-11T07:31:41.862Z</time></trkpt><trkpt lat="42.17258" lon="14.70278"><ele>17.714285714285715</ele><time>2026-04-11T07:31:43.862Z</time></trkpt><trkpt lat="42.1726083" lon="14.7028583"><ele>16.57142857142857</ele><time>2026-04-11T07:31:45.862Z</time></trkpt><trkpt lat="42.1726417" lon="14.7029417"><ele>15.428571428571427</ele><time>2026-04-11T07:31:47.862Z</time></trkpt><trkpt lat="42.1726733" lon="14.7030317"><ele>14.285714285714285</ele><time>2026-04-11T07:31:49.861Z</time></trkpt><trkpt lat="42.1726933" lon="14.7031133"><ele>13.142857142857142</ele><time>2026-04-11T07:31:51.862Z</time></trkpt><trkpt lat="42.1727517" lon="14.7031933"><ele>12.0</ele><time>2026-04-11T07:31:54.862Z</time></trkpt><trkpt lat="42.1728517" lon="14.7032017"><ele>12.0</ele><time>2026-04-11T07:31:57.862Z</time></trkpt><trkpt lat="42.17292" lon="14.7032533"><ele>12.0</ele><time>2026-04-11T07:32:00.862Z</time></trkpt><trkpt lat="42.1729067" lon="14.7033783"><ele>12.0</ele><time>2026-04-11T07:32:03.861Z</time></trkpt><trkpt lat="42.1728933" lon="14.7034717"><ele>12.0</ele><time>2026-04-11T07:32:05.861Z</time></trkpt><trkpt lat="42.172865" lon="14.7035667"><ele>12.0</ele><time>2026-04-11T07:32:07.861Z</time></trkpt><trkpt lat="42.1728483" lon="14.70367"><ele>12.0</ele><time>2026-04-11T07:32:09.862Z</time></trkpt><trkpt lat="42.1728267" lon="14.7037633"><ele>11.571428571428571</ele><time>2026-04-11T07:32:11.862Z</time></trkpt><trkpt lat="42.1728033" lon="14.70385"><ele>11.142857142857142</ele><time>2026-04-11T07:32:13.862Z</time></trkpt><trkpt lat="42.1727783" lon="14.70395"><ele>10.714285714285715</ele><time>2026-04-11T07:32:15.861Z</time></trkpt><trkpt lat="42.17275" lon="14.7040467"><ele>10.285714285714285</ele><time>2026-04-11T07:32:17.862Z</time></trkpt><trkpt lat="42.1727283" lon="14.7041483"><ele>9.857142857142858</ele><time>2026-04-11T07:32:19.861Z</time></trkpt><trkpt lat="42.17272" lon="14.7042517"><ele>9.428571428571429</ele><time>2026-04-11T07:32:21.862Z</time></trkpt><trkpt lat="42.1727133" lon="14.7043383"><ele>9.0</ele><time>2026-04-11T07:32:23.862Z</time></trkpt><trkpt lat="42.1726933" lon="14.7044233"><ele>8.428571428571429</ele><time>2026-04-11T07:32:25.862Z</time></trkpt><trkpt lat="42.1726667" lon="14.7045033"><ele>7.857142857142858</ele><time>2026-04-11T07:32:27.861Z</time></trkpt><trkpt lat="42.1726383" lon="14.7046167"><ele>7.2857142857142865</ele><time>2026-04-11T07:32:30.862Z</time></trkpt><trkpt lat="42.1726383" lon="14.7047017"><ele>6.714285714285715</ele><time>2026-04-11T07:32:32.862Z</time></trkpt><trkpt lat="42.17262" lon="14.7047983"><ele>6.142857142857143</ele><time>2026-04-11T07:32:34.862Z</time></trkpt><trkpt lat="42.1725983" lon="14.7048933"><ele>5.571428571428571</ele><time>2026-04-11T07:32:36.862Z</time></trkpt><trkpt lat="42.17258" lon="14.704995"><ele>5.0</ele><time>2026-04-11T07:32:38.862Z</time></trkpt><trkpt lat="42.172545" lon="14.7050883"><ele>5.0</ele><time>2026-04-11T07:32:40.862Z</time></trkpt><trkpt lat="42.1725133" lon="14.70519"><ele>5.0</ele><time>2026-04-11T07:32:42.862Z</time></trkpt><trkpt lat="42.1724817" lon="14.7053033"><ele>5.0</ele><time>2026-04-11T07:32:44.861Z</time></trkpt><trkpt lat="42.172455" lon="14.7054083"><ele>5.0</ele><time>2026-04-11T07:32:46.861Z</time></trkpt><trkpt lat="42.1724267" lon="14.7055117"><ele>5.0</ele><time>2026-04-11T07:32:48.862Z</time></trkpt><trkpt lat="42.1724083" lon="14.7056117"><ele>5.0</ele><time>2026-04-11T07:32:50.861Z</time></trkpt><trkpt lat="42.172395" lon="14.7057"><ele>4.571428571428571</ele><time>2026-04-11T07:32:52.862Z</time></trkpt><trkpt lat="42.1723817" lon="14.70579"><ele>4.142857142857143</ele><time>2026-04-11T07:32:54.862Z</time></trkpt><trkpt lat="42.1723667" lon="14.705875"><ele>3.7142857142857144</ele><time>2026-04-11T07:32:56.861Z</time></trkpt><trkpt lat="42.1723433" lon="14.7059683"><ele>3.2857142857142856</ele><time>2026-04-11T07:32:58.862Z</time></trkpt><trkpt lat="42.1723183" lon="14.70607"><ele>2.8571428571428568</ele><time>2026-04-11T07:33:00.861Z</time></trkpt><trkpt lat="42.1723033" lon="14.7061683"><ele>2.4285714285714284</ele><time>2026-04-11T07:33:02.861Z</time></trkpt><trkpt lat="42.1723" lon="14.7062633"><ele>2.0</ele><time>2026-04-11T07:33:04.862Z</time></trkpt><trkpt lat="42.1723017" lon="14.7063583"><ele>4.833333333333333</ele><time>2026-04-11T07:33:06.862Z</time></trkpt><trkpt lat="42.172305" lon="14.7064517"><ele>7.666666666666666</ele><time>2026-04-11T07:33:08.862Z</time></trkpt><trkpt lat="42.1723033" lon="14.70655"><ele>10.5</ele><time>2026-04-11T07:33:10.862Z</time></trkpt><trkpt lat="42.1722983" lon="14.7066433"><ele>13.333333333333332</ele><time>2026-04-11T07:33:12.861Z</time></trkpt><trkpt lat="42.1722933" lon="14.7067433"><ele>16.166666666666664</ele><time>2026-04-11T07:33:14.862Z</time></trkpt><trkpt lat="42.172285" lon="14.70685"><ele>19.0</ele><time>2026-04-11T07:33:16.862Z</time></trkpt><trkpt lat="42.172285" lon="14.7069667"><ele>19.333333333333332</ele><time>2026-04-11T07:33:18.862Z</time></trkpt><trkpt lat="42.172295" lon="14.707065"><ele>19.666666666666664</ele><time>2026-04-11T07:33:20.862Z</time></trkpt><trkpt lat="42.1723317" lon="14.707175"><ele>20.0</ele><time>2026-04-11T07:33:23.862Z</time></trkpt><trkpt lat="42.172375" lon="14.70728"><ele>20.333333333333332</ele><time>2026-04-11T07:33:26.861Z</time></trkpt><trkpt lat="42.1724233" lon="14.7073917"><ele>20.666666666666668</ele><time>2026-04-11T07:33:29.862Z</time></trkpt><trkpt lat="42.172465" lon="14.70746"><ele>21.0</ele><time>2026-04-11T07:33:31.861Z</time></trkpt><trkpt lat="42.172515" lon="14.7075183"><ele>20.285714285714285</ele><time>2026-04-11T07:33:33.861Z</time></trkpt><trkpt lat="42.1725817" lon="14.707575"><ele>19.57142857142857</ele><time>2026-04-11T07:33:36.862Z</time></trkpt><trkpt lat="42.1726383" lon="14.7076133"><ele>18.857142857142858</ele><time>2026-04-11T07:33:38.861Z</time></trkpt><trkpt lat="42.1727067" lon="14.7076633"><ele>18.142857142857142</ele><time>2026-04-11T07:33:40.861Z</time></trkpt><trkpt lat="42.17277" lon="14.7077283"><ele>17.428571428571427</ele><time>2026-04-11T07:33:42.861Z</time></trkpt><trkpt lat="42.172815" lon="14.707805"><ele>16.714285714285715</ele><time>2026-04-11T07:33:44.862Z</time></trkpt><trkpt lat="42.1728483" lon="14.707885"><ele>16.0</ele><time>2026-04-11T07:33:46.862Z</time></trkpt><trkpt lat="42.1728917" lon="14.70797"><ele>16.0</ele><time>2026-04-11T07:33:48.862Z</time></trkpt><trkpt lat="42.1729333" lon="14.708035"><ele>15.999999999999998</ele><time>2026-04-11T07:33:50.862Z</time></trkpt><trkpt lat="42.1729833" lon="14.7080883"><ele>16.0</ele><time>2026-04-11T07:33:52.862Z</time></trkpt><trkpt lat="42.17304" lon="14.7081417"><ele>16.0</ele><time>2026-04-11T07:33:54.861Z</time></trkpt><trkpt lat="42.1730933" lon="14.7081983"><ele>15.999999999999998</ele><time>2026-04-11T07:33:56.862Z</time></trkpt><trkpt lat="42.1731667" lon="14.70827"><ele>16.0</ele><time>2026-04-11T07:33:59.862Z</time></trkpt><trkpt lat="42.1732167" lon="14.708325"><ele>16.0</ele><time>2026-04-11T07:34:01.862Z</time></trkpt><trkpt lat="42.1732783" lon="14.7083883"><ele>14.285714285714285</ele><time>2026-04-11T07:34:03.861Z</time></trkpt><trkpt lat="42.1733417" lon="14.70845"><ele>12.57142857142857</ele><time>2026-04-11T07:34:05.862Z</time></trkpt><trkpt lat="42.1733967" lon="14.70851"><ele>10.857142857142856</ele><time>2026-04-11T07:34:07.862Z</time></trkpt><trkpt lat="42.1734217" lon="14.7086083"><ele>9.142857142857142</ele><time>2026-04-11T07:34:11.862Z</time></trkpt><trkpt lat="42.1734483" lon="14.7087017"><ele>7.428571428571428</ele><time>2026-04-11T07:34:18.862Z</time></trkpt><trkpt lat="42.1734933" lon="14.708795"><ele>5.7142857142857135</ele><time>2026-04-11T07:34:22.862Z</time></trkpt><trkpt lat="42.1735183" lon="14.7088733"><ele>4.0</ele><time>2026-04-11T07:34:25.862Z</time></trkpt><trkpt lat="42.1735133" lon="14.7089667"><ele>3.6666666666666665</ele><time>2026-04-11T07:34:28.861Z</time></trkpt><trkpt lat="42.1735783" lon="14.7089917"><ele>3.333333333333333</ele><time>2026-04-11T07:34:32.862Z</time></trkpt><trkpt lat="42.1735617" lon="14.7089017"><ele>3.0</ele><time>2026-04-11T07:34:36.862Z</time></trkpt><trkpt lat="42.1735233" lon="14.7088083"><ele>2.6666666666666665</ele><time>2026-04-11T07:34:40.862Z</time></trkpt><trkpt lat="42.1735017" lon="14.7087217"><ele>2.333333333333333</ele><time>2026-04-11T07:34:44.862Z</time></trkpt><trkpt lat="42.1734317" lon="14.708695"><ele>2.0</ele><time>2026-04-11T07:34:49.861Z</time></trkpt><trkpt lat="42.173755" lon="14.7088367"><ele>2.0</ele><time>2026-04-11T07:35:54.131Z</time></trkpt><trkpt lat="42.1734317" lon="14.7087633"><ele>2.0</ele><time>2026-04-11T07:35:57.359Z</time></trkpt><trkpt lat="42.17339" lon="14.708835"><ele>2.0</ele><time>2026-04-11T07:39:39.861Z</time></trkpt><trkpt lat="42.1733717" lon="14.7089233"><ele>2.0</ele><time>2026-04-11T07:39:43.861Z</time></trkpt><trkpt lat="42.1733417" lon="14.7090083"><ele>1.9999999999999998</ele><time>2026-04-11T07:39:47.861Z</time></trkpt><trkpt lat="42.1732917" lon="14.7090833"><ele>2.0</ele><time>2026-04-11T07:39:51.861Z</time></trkpt><trkpt lat="42.1732367" lon="14.70915"><ele>2.0</ele><time>2026-04-11T07:39:55.86Z</time></trkpt><trkpt lat="42.173175" lon="14.7092033"><ele>1.9999999999999998</ele><time>2026-04-11T07:40:00.861Z</time></trkpt><trkpt lat="42.173105" lon="14.7092517"><ele>2.0</ele><time>2026-04-11T07:40:04.861Z</time></trkpt><trkpt lat="42.1730417" lon="14.7092817"><ele>2.0</ele><time>2026-04-11T07:40:07.86Z</time></trkpt><trkpt lat="42.1729717" lon="14.7093"><ele>2.4285714285714284</ele><time>2026-04-11T07:40:10.861Z</time></trkpt><trkpt lat="42.17291" lon="14.70932"><ele>2.8571428571428568</ele><time>2026-04-11T07:40:13.861Z</time></trkpt><trkpt lat="42.1728467" lon="14.7093517"><ele>3.2857142857142856</ele><time>2026-04-11T07:40:16.861Z</time></trkpt><trkpt lat="42.172775" lon="14.7093833"><ele>3.7142857142857144</ele><time>2026-04-11T07:40:19.861Z</time></trkpt><trkpt lat="42.1726967" lon="14.7094167"><ele>4.142857142857143</ele><time>2026-04-11T07:40:22.861Z</time></trkpt><trkpt lat="42.172625" lon="14.70946"><ele>4.571428571428571</ele><time>2026-04-11T07:40:25.861Z</time></trkpt><trkpt lat="42.1725567" lon="14.709505"><ele>5.0</ele><time>2026-04-11T07:40:28.86Z</time></trkpt><trkpt lat="42.1724783" lon="14.7095467"><ele>5.0</ele><time>2026-04-11T07:40:31.861Z</time></trkpt><trkpt lat="42.17241" lon="14.7095633"><ele>5.0</ele><time>2026-04-11T07:40:33.86Z</time></trkpt><trkpt lat="42.172335" lon="14.709585"><ele>5.0</ele><time>2026-04-11T07:40:35.861Z</time></trkpt><trkpt lat="42.1722533" lon="14.7096167"><ele>5.0</ele><time>2026-04-11T07:40:38.861Z</time></trkpt><trkpt lat="42.17218" lon="14.70964"><ele>5.0</ele><time>2026-04-11T07:40:41.86Z</time></trkpt><trkpt lat="42.1720933" lon="14.70968"><ele>5.0</ele><time>2026-04-11T07:40:44.86Z</time></trkpt><trkpt lat="42.1720167" lon="14.70973"><ele>6.333333333333334</ele><time>2026-04-11T07:40:47.861Z</time></trkpt><trkpt lat="42.1719367" lon="14.7097883"><ele>7.666666666666666</ele><time>2026-04-11T07:40:50.861Z</time></trkpt><trkpt lat="42.1718717" lon="14.7098567"><ele>9.0</ele><time>2026-04-11T07:40:53.861Z</time></trkpt><trkpt lat="42.1718167" lon="14.7099033"><ele>10.333333333333332</ele><time>2026-04-11T07:40:55.861Z</time></trkpt><trkpt lat="42.1717617" lon="14.7099833"><ele>11.666666666666666</ele><time>2026-04-11T07:40:58.861Z</time></trkpt><trkpt lat="42.1716967" lon="14.7100467"><ele>13.0</ele><time>2026-04-11T07:41:01.86Z</time></trkpt><trkpt lat="42.1716383" lon="14.7101417"><ele>12.999999999999998</ele><time>2026-04-11T07:41:04.861Z</time></trkpt><trkpt lat="42.171575" lon="14.710225"><ele>13.0</ele><time>2026-04-11T07:41:07.861Z</time></trkpt><trkpt lat="42.17152" lon="14.7103217"><ele>13.0</ele><time>2026-04-11T07:41:10.861Z</time></trkpt><trkpt lat="42.171475" lon="14.710395"><ele>13.0</ele><time>2026-04-11T07:41:12.86Z</time></trkpt><trkpt lat="42.1714317" lon="14.7104717"><ele>12.999999999999998</ele><time>2026-04-11T07:41:14.86Z</time></trkpt><trkpt lat="42.1713933" lon="14.7105567"><ele>13.0</ele><time>2026-04-11T07:41:16.861Z</time></trkpt><trkpt lat="42.1713633" lon="14.7106367"><ele>13.166666666666666</ele><time>2026-04-11T07:41:18.861Z</time></trkpt><trkpt lat="42.17133" lon="14.7107517"><ele>13.333333333333332</ele><time>2026-04-11T07:41:21.86Z</time></trkpt><trkpt lat="42.1713083" lon="14.7108333"><ele>13.5</ele><time>2026-04-11T07:41:23.86Z</time></trkpt><trkpt lat="42.17127" lon="14.7109467"><ele>13.666666666666668</ele><time>2026-04-11T07:41:26.86Z</time></trkpt><trkpt lat="42.17124" lon="14.7110283"><ele>13.833333333333334</ele><time>2026-04-11T07:41:28.86Z</time></trkpt><trkpt lat="42.1712033" lon="14.7111417"><ele>14.0</ele><time>2026-04-11T07:41:31.861Z</time></trkpt><trkpt lat="42.1711833" lon="14.7112233"><ele>14.500000000000002</ele><time>2026-04-11T07:41:33.86Z</time></trkpt><trkpt lat="42.1711633" lon="14.711305"><ele>15.0</ele><time>2026-04-11T07:41:35.86Z</time></trkpt><trkpt lat="42.171135" lon="14.71142"><ele>15.5</ele><time>2026-04-11T07:41:38.86Z</time></trkpt><trkpt lat="42.1711117" lon="14.7115417"><ele>16.0</ele><time>2026-04-11T07:41:41.861Z</time></trkpt><trkpt lat="42.1710983" lon="14.711665"><ele>16.5</ele><time>2026-04-11T07:41:44.861Z</time></trkpt><trkpt lat="42.17109" lon="14.7117633"><ele>17.0</ele><time>2026-04-11T07:41:46.861Z</time></trkpt><trkpt lat="42.1710983" lon="14.71185"><ele>17.666666666666668</ele><time>2026-04-11T07:41:48.86Z</time></trkpt><trkpt lat="42.1711167" lon="14.7119733"><ele>18.333333333333336</ele><time>2026-04-11T07:41:51.861Z</time></trkpt><trkpt lat="42.1711433" lon="14.7120583"><ele>19.0</ele><time>2026-04-11T07:41:53.86Z</time></trkpt><trkpt lat="42.171185" lon="14.7121383"><ele>19.666666666666668</ele><time>2026-04-11T07:41:55.86Z</time></trkpt><trkpt lat="42.1711983" lon="14.712245"><ele>20.333333333333332</ele><time>2026-04-11T07:41:58.861Z</time></trkpt><trkpt lat="42.1711533" lon="14.7121817"><ele>21.0</ele><time>2026-04-11T07:42:03.86Z</time></trkpt><trkpt lat="42.1711183" lon="14.7120783"><ele>21.0</ele><time>2026-04-11T07:42:06.86Z</time></trkpt><trkpt lat="42.1710783" lon="14.711965"><ele>21.0</ele><time>2026-04-11T07:42:09.86Z</time></trkpt><trkpt lat="42.171055" lon="14.711885"><ele>21.0</ele><time>2026-04-11T07:42:11.861Z</time></trkpt><trkpt lat="42.1710317" lon="14.7118033"><ele>21.0</ele><time>2026-04-11T07:42:13.861Z</time></trkpt><trkpt lat="42.1710067" lon="14.7117183"><ele>21.0</ele><time>2026-04-11T07:42:15.86Z</time></trkpt><trkpt lat="42.17098" lon="14.7116267"><ele>21.0</ele><time>2026-04-11T07:42:17.86Z</time></trkpt><trkpt lat="42.170955" lon="14.71154"><ele>21.0</ele><time>2026-04-11T07:42:19.86Z</time></trkpt><trkpt lat="42.1709233" lon="14.7114533"><ele>20.428571428571427</ele><time>2026-04-11T07:42:21.861Z</time></trkpt><trkpt lat="42.1708867" lon="14.711365"><ele>19.857142857142858</ele><time>2026-04-11T07:42:23.861Z</time></trkpt><trkpt lat="42.170855" lon="14.711275"><ele>19.285714285714285</ele><time>2026-04-11T07:42:25.861Z</time></trkpt><trkpt lat="42.1708217" lon="14.7111967"><ele>18.714285714285715</ele><time>2026-04-11T07:42:27.861Z</time></trkpt><trkpt lat="42.17079" lon="14.7111067"><ele>18.142857142857142</ele><time>2026-04-11T07:42:29.861Z</time></trkpt><trkpt lat="42.170785" lon="14.7110167"><ele>17.57142857142857</ele><time>2026-04-11T07:42:31.861Z</time></trkpt><trkpt lat="42.1707883" lon="14.7109283"><ele>17.0</ele><time>2026-04-11T07:42:33.86Z</time></trkpt><trkpt lat="42.1708083" lon="14.7108067"><ele>16.5</ele><time>2026-04-11T07:42:36.861Z</time></trkpt><trkpt lat="42.1708217" lon="14.7107167"><ele>16.0</ele><time>2026-04-11T07:42:38.861Z</time></trkpt><trkpt lat="42.17084" lon="14.7106067"><ele>15.5</ele><time>2026-04-11T07:42:40.861Z</time></trkpt><trkpt lat="42.17085" lon="14.7104833"><ele>15.0</ele><time>2026-04-11T07:42:43.861Z</time></trkpt><trkpt lat="42.1708567" lon="14.7103583"><ele>14.500000000000002</ele><time>2026-04-11T07:42:46.86Z</time></trkpt><trkpt lat="42.170865" lon="14.7102733"><ele>14.0</ele><time>2026-04-11T07:42:48.861Z</time></trkpt><trkpt lat="42.1708683" lon="14.7101617"><ele>14.000000000000002</ele><time>2026-04-11T07:42:51.86Z</time></trkpt><trkpt lat="42.1708717" lon="14.7100333"><ele>14.0</ele><time>2026-04-11T07:42:54.86Z</time></trkpt><trkpt lat="42.17088" lon="14.7099383"><ele>14.0</ele><time>2026-04-11T07:42:56.86Z</time></trkpt><trkpt lat="42.1708867" lon="14.70985"><ele>14.0</ele><time>2026-04-11T07:42:58.861Z</time></trkpt><trkpt lat="42.170885" lon="14.7097267"><ele>14.000000000000002</ele><time>2026-04-11T07:43:01.861Z</time></trkpt><trkpt lat="42.170895" lon="14.7096067"><ele>14.0</ele><time>2026-04-11T07:43:04.861Z</time></trkpt><trkpt lat="42.1708967" lon="14.70948"><ele>14.285714285714285</ele><time>2026-04-11T07:43:07.861Z</time></trkpt><trkpt lat="42.17089" lon="14.7093733"><ele>14.571428571428571</ele><time>2026-04-11T07:43:09.86Z</time></trkpt><trkpt lat="42.1708867" lon="14.7092733"><ele>14.857142857142858</ele><time>2026-04-11T07:43:11.861Z</time></trkpt><trkpt lat="42.1708933" lon="14.7091867"><ele>15.142857142857142</ele><time>2026-04-11T07:43:13.861Z</time></trkpt><trkpt lat="42.170895" lon="14.7091"><ele>15.428571428571427</ele><time>2026-04-11T07:43:15.86Z</time></trkpt><trkpt lat="42.1708933" lon="14.709005"><ele>15.714285714285714</ele><time>2026-04-11T07:43:17.861Z</time></trkpt><trkpt lat="42.17089" lon="14.7089167"><ele>16.0</ele><time>2026-04-11T07:43:19.86Z</time></trkpt><trkpt lat="42.1708883" lon="14.7088233"><ele>16.0</ele><time>2026-04-11T07:43:21.86Z</time></trkpt><trkpt lat="42.1708867" lon="14.7087283"><ele>15.999999999999998</ele><time>2026-04-11T07:43:23.86Z</time></trkpt><trkpt lat="42.170885" lon="14.70863"><ele>16.0</ele><time>2026-04-11T07:43:25.861Z</time></trkpt><trkpt lat="42.170895" lon="14.7085267"><ele>16.0</ele><time>2026-04-11T07:43:27.861Z</time></trkpt><trkpt lat="42.1708967" lon="14.7084367"><ele>15.999999999999998</ele><time>2026-04-11T07:43:29.861Z</time></trkpt><trkpt lat="42.170895" lon="14.7083417"><ele>16.0</ele><time>2026-04-11T07:43:31.861Z</time></trkpt><trkpt lat="42.1708883" lon="14.7082283"><ele>16.0</ele><time>2026-04-11T07:43:33.861Z</time></trkpt><trkpt lat="42.1708817" lon="14.7081233"><ele>16.333333333333332</ele><time>2026-04-11T07:43:35.861Z</time></trkpt><trkpt lat="42.1708667" lon="14.7080067"><ele>16.666666666666664</ele><time>2026-04-11T07:43:37.861Z</time></trkpt><trkpt lat="42.1708583" lon="14.7078917"><ele>17.0</ele><time>2026-04-11T07:43:39.861Z</time></trkpt><trkpt lat="42.1708517" lon="14.7077733"><ele>17.333333333333332</ele><time>2026-04-11T07:43:41.861Z</time></trkpt><trkpt lat="42.1708417" lon="14.707675"><ele>17.666666666666668</ele><time>2026-04-11T07:43:43.861Z</time></trkpt><trkpt lat="42.170835" lon="14.7075767"><ele>18.0</ele><time>2026-04-11T07:43:45.861Z</time></trkpt><trkpt lat="42.170825" lon="14.707475"><ele>18.142857142857146</ele><time>2026-04-11T07:43:47.86Z</time></trkpt><trkpt lat="42.170815" lon="14.7073733"><ele>18.285714285714285</ele><time>2026-04-11T07:43:49.861Z</time></trkpt><trkpt lat="42.1708033" lon="14.70727"><ele>18.42857142857143</ele><time>2026-04-11T07:43:51.861Z</time></trkpt><trkpt lat="42.1707917" lon="14.70717"><ele>18.571428571428573</ele><time>2026-04-11T07:43:53.86Z</time></trkpt><trkpt lat="42.17078" lon="14.7070767"><ele>18.714285714285715</ele><time>2026-04-11T07:43:55.861Z</time></trkpt><trkpt lat="42.17077" lon="14.70698"><ele>18.857142857142858</ele><time>2026-04-11T07:43:57.861Z</time></trkpt><trkpt lat="42.1707567" lon="14.706885"><ele>19.0</ele><time>2026-04-11T07:43:59.861Z</time></trkpt><trkpt lat="42.1707467" lon="14.7067933"><ele>19.0</ele><time>2026-04-11T07:44:01.86Z</time></trkpt><trkpt lat="42.1707367" lon="14.7066983"><ele>19.0</ele><time>2026-04-11T07:44:03.86Z</time></trkpt><trkpt lat="42.1707233" lon="14.7066067"><ele>19.0</ele><time>2026-04-11T07:44:05.861Z</time></trkpt><trkpt lat="42.1707133" lon="14.7065083"><ele>19.0</ele><time>2026-04-11T07:44:07.861Z</time></trkpt><trkpt lat="42.1707033" lon="14.70641"><ele>19.0</ele><time>2026-04-11T07:44:09.86Z</time></trkpt><trkpt lat="42.170695" lon="14.706315"><ele>19.0</ele><time>2026-04-11T07:44:11.86Z</time></trkpt><trkpt lat="42.170685" lon="14.70622"><ele>19.0</ele><time>2026-04-11T07:44:13.86Z</time></trkpt><trkpt lat="42.170675" lon="14.70612"><ele>19.166666666666664</ele><time>2026-04-11T07:44:15.86Z</time></trkpt><trkpt lat="42.1706633" lon="14.7060167"><ele>19.333333333333332</ele><time>2026-04-11T07:44:17.861Z</time></trkpt><trkpt lat="42.1706517" lon="14.70591"><ele>19.5</ele><time>2026-04-11T07:44:19.861Z</time></trkpt><trkpt lat="42.17064" lon="14.7058117"><ele>19.666666666666668</ele><time>2026-04-11T07:44:21.86Z</time></trkpt><trkpt lat="42.1706283" lon="14.705715"><ele>19.833333333333336</ele><time>2026-04-11T07:44:23.861Z</time></trkpt><trkpt lat="42.1706217" lon="14.7056183"><ele>20.0</ele><time>2026-04-11T07:44:25.861Z</time></trkpt><trkpt lat="42.170615" lon="14.7055167"><ele>20.0</ele><time>2026-04-11T07:44:27.86Z</time></trkpt><trkpt lat="42.1706033" lon="14.7054183"><ele>20.0</ele><time>2026-04-11T07:44:29.86Z</time></trkpt><trkpt lat="42.1705917" lon="14.70532"><ele>20.0</ele><time>2026-04-11T07:44:31.86Z</time></trkpt><trkpt lat="42.1705817" lon="14.70522"><ele>20.0</ele><time>2026-04-11T07:44:33.861Z</time></trkpt><trkpt lat="42.1705683" lon="14.705125"><ele>20.0</ele><time>2026-04-11T07:44:35.86Z</time></trkpt><trkpt lat="42.17056" lon="14.705035"><ele>20.0</ele><time>2026-04-11T07:44:37.861Z</time></trkpt><trkpt lat="42.17055" lon="14.70495"><ele>20.0</ele><time>2026-04-11T07:44:39.861Z</time></trkpt><trkpt lat="42.170525" lon="14.7048517"><ele>19.57142857142857</ele><time>2026-04-11T07:44:42.861Z</time></trkpt><trkpt lat="42.1704967" lon="14.704765"><ele>19.142857142857142</ele><time>2026-04-11T07:44:47.861Z</time></trkpt><trkpt lat="42.1704717" lon="14.70468"><ele>18.714285714285715</ele><time>2026-04-11T07:44:51.861Z</time></trkpt><trkpt lat="42.1705217" lon="14.7047333"><ele>18.285714285714285</ele><time>2026-04-11T07:45:07.861Z</time></trkpt><trkpt lat="42.1705883" lon="14.7046783"><ele>17.857142857142858</ele><time>2026-04-11T07:47:09.861Z</time></trkpt><trkpt lat="42.1706483" lon="14.7047167"><ele>17.428571428571427</ele><time>2026-04-11T07:47:18.862Z</time></trkpt><trkpt lat="42.1707067" lon="14.7047683"><ele>17.0</ele><time>2026-04-11T07:47:21.861Z</time></trkpt><trkpt lat="42.1707583" lon="14.70485"><ele>17.833333333333336</ele><time>2026-04-11T07:47:24.862Z</time></trkpt><trkpt lat="42.1707967" lon="14.704945"><ele>18.666666666666668</ele><time>2026-04-11T07:47:27.862Z</time></trkpt><trkpt lat="42.1708267" lon="14.7050533"><ele>19.5</ele><time>2026-04-11T07:47:30.862Z</time></trkpt><trkpt lat="42.1708583" lon="14.7051617"><ele>20.333333333333332</ele><time>2026-04-11T07:47:33.861Z</time></trkpt><trkpt lat="42.170895" lon="14.705245"><ele>21.166666666666664</ele><time>2026-04-11T07:47:36.862Z</time></trkpt><trkpt lat="42.1709567" lon="14.7052883"><ele>22.0</ele><time>2026-04-11T07:47:39.862Z</time></trkpt><trkpt lat="42.1710333" lon="14.7052617"><ele>22.333333333333332</ele><time>2026-04-11T07:47:42.861Z</time></trkpt><trkpt lat="42.1711117" lon="14.7052317"><ele>22.666666666666664</ele><time>2026-04-11T07:47:45.862Z</time></trkpt><trkpt lat="42.1711867" lon="14.705195"><ele>23.0</ele><time>2026-04-11T07:47:48.862Z</time></trkpt><trkpt lat="42.1712533" lon="14.7051367"><ele>23.333333333333332</ele><time>2026-04-11T07:47:51.861Z</time></trkpt><trkpt lat="42.1713183" lon="14.7050717"><ele>23.666666666666668</ele><time>2026-04-11T07:47:54.861Z</time></trkpt><trkpt lat="42.1713733" lon="14.7049967"><ele>24.0</ele><time>2026-04-11T07:47:57.862Z</time></trkpt><trkpt lat="42.1714267" lon="14.704925"><ele>23.999999999999996</ele><time>2026-04-11T07:48:00.861Z</time></trkpt><trkpt lat="42.17147" lon="14.704855"><ele>24.0</ele><time>2026-04-11T07:48:03.861Z</time></trkpt><trkpt lat="42.171515" lon="14.7047917"><ele>24.0</ele><time>2026-04-11T07:48:06.861Z</time></trkpt><trkpt lat="42.1715533" lon="14.7047083"><ele>24.0</ele><time>2026-04-11T07:48:10.862Z</time></trkpt><trkpt lat="42.1716167" lon="14.7046717"><ele>24.0</ele><time>2026-04-11T07:48:14.862Z</time></trkpt><trkpt lat="42.1716883" lon="14.7046383"><ele>23.999999999999996</ele><time>2026-04-11T07:48:18.861Z</time></trkpt><trkpt lat="42.1717317" lon="14.7045633"><ele>24.0</ele><time>2026-04-11T07:48:22.862Z</time></trkpt><trkpt lat="42.17174" lon="14.7044733"><ele>24.57142857142857</ele><time>2026-04-11T07:48:25.861Z</time></trkpt><trkpt lat="42.1717583" lon="14.7043767"><ele>25.142857142857142</ele><time>2026-04-11T07:48:29.862Z</time></trkpt><trkpt lat="42.1718117" lon="14.7043267"><ele>25.714285714285715</ele><time>2026-04-11T07:49:03.862Z</time></trkpt><trkpt lat="42.1718833" lon="14.70428"><ele>26.285714285714285</ele><time>2026-04-11T07:49:09.862Z</time></trkpt><trkpt lat="42.17189" lon="14.704195"><ele>26.857142857142858</ele><time>2026-04-11T07:49:12.862Z</time></trkpt><trkpt lat="42.1718983" lon="14.7040967"><ele>27.428571428571427</ele><time>2026-04-11T07:49:15.861Z</time></trkpt><trkpt lat="42.1719133" lon="14.7039883"><ele>28.0</ele><time>2026-04-11T07:49:19.862Z</time></trkpt><trkpt lat="42.17194" lon="14.7038883"><ele>28.0</ele><time>2026-04-11T07:49:22.862Z</time></trkpt><trkpt lat="42.1719733" lon="14.7038117"><ele>28.0</ele><time>2026-04-11T07:49:25.861Z</time></trkpt><trkpt lat="42.1719917" lon="14.7037283"><ele>28.0</ele><time>2026-04-11T07:49:28.861Z</time></trkpt><trkpt lat="42.1720117" lon="14.7036417"><ele>28.0</ele><time>2026-04-11T07:49:31.862Z</time></trkpt><trkpt lat="42.1720417" lon="14.703545"><ele>28.0</ele><time>2026-04-11T07:49:34.862Z</time></trkpt><trkpt lat="42.1720717" lon="14.7034433"><ele>28.0</ele><time>2026-04-11T07:49:37.862Z</time></trkpt><trkpt lat="42.1720967" lon="14.7033267"><ele>28.0</ele><time>2026-04-11T07:49:40.861Z</time></trkpt><trkpt lat="42.1721117" lon="14.7032433"><ele>28.166666666666668</ele><time>2026-04-11T07:49:42.861Z</time></trkpt><trkpt lat="42.17214" lon="14.703125"><ele>28.333333333333336</ele><time>2026-04-11T07:49:45.862Z</time></trkpt><trkpt lat="42.172155" lon="14.70304"><ele>28.5</ele><time>2026-04-11T07:49:47.862Z</time></trkpt><trkpt lat="42.1721867" lon="14.7029317"><ele>28.666666666666664</ele><time>2026-04-11T07:49:50.862Z</time></trkpt><trkpt lat="42.1722017" lon="14.70282"><ele>28.833333333333332</ele><time>2026-04-11T07:49:53.862Z</time></trkpt><trkpt lat="42.1722333" lon="14.70272"><ele>29.0</ele><time>2026-04-11T07:49:56.862Z</time></trkpt><trkpt lat="42.1722583" lon="14.7026167"><ele>29.166666666666664</ele><time>2026-04-11T07:49:59.862Z</time></trkpt><trkpt lat="42.1722817" lon="14.7025233"><ele>29.333333333333332</ele><time>2026-04-11T07:50:02.861Z</time></trkpt><trkpt lat="42.1723167" lon="14.7024433"><ele>29.5</ele><time>2026-04-11T07:50:05.862Z</time></trkpt><trkpt lat="42.172355" lon="14.702365"><ele>29.666666666666664</ele><time>2026-04-11T07:50:08.862Z</time></trkpt><trkpt lat="42.1723817" lon="14.7022717"><ele>29.833333333333332</ele><time>2026-04-11T07:50:11.861Z</time></trkpt><trkpt lat="42.1724217" lon="14.7021567"><ele>30.0</ele><time>2026-04-11T07:50:14.862Z</time></trkpt><trkpt lat="42.1724483" lon="14.7020667"><ele>29.857142857142858</ele><time>2026-04-11T07:50:17.862Z</time></trkpt><trkpt lat="42.17248" lon="14.7019933"><ele>29.714285714285715</ele><time>2026-04-11T07:50:19.862Z</time></trkpt><trkpt lat="42.17251" lon="14.701895"><ele>29.571428571428573</ele><time>2026-04-11T07:50:22.861Z</time></trkpt><trkpt lat="42.172555" lon="14.701815"><ele>29.42857142857143</ele><time>2026-04-11T07:50:26.862Z</time></trkpt><trkpt lat="42.17258" lon="14.7017367"><ele>29.285714285714285</ele><time>2026-04-11T07:50:30.861Z</time></trkpt><trkpt lat="42.17262" lon="14.7016417"><ele>29.142857142857146</ele><time>2026-04-11T07:50:34.862Z</time></trkpt><trkpt lat="42.1726517" lon="14.7015383"><ele>29.000000000000004</ele><time>2026-04-11T07:50:38.862Z</time></trkpt><trkpt lat="42.1726967" lon="14.701445"><ele>28.999999999999996</ele><time>2026-04-11T07:50:41.862Z</time></trkpt><trkpt lat="42.1727267" lon="14.7013583"><ele>29.0</ele><time>2026-04-11T07:50:43.861Z</time></trkpt><trkpt lat="42.17276" lon="14.70126"><ele>29.0</ele><time>2026-04-11T07:50:45.862Z</time></trkpt><trkpt lat="42.1727933" lon="14.701165"><ele>29.0</ele><time>2026-04-11T07:50:47.862Z</time></trkpt><trkpt lat="42.1728267" lon="14.701065"><ele>28.999999999999996</ele><time>2026-04-11T07:50:49.862Z</time></trkpt><trkpt lat="42.1728633" lon="14.700965"><ele>29.0</ele><time>2026-04-11T07:50:51.861Z</time></trkpt><trkpt lat="42.1729017" lon="14.7008617"><ele>29.666666666666664</ele><time>2026-04-11T07:50:53.862Z</time></trkpt><trkpt lat="42.1729367" lon="14.7007567"><ele>30.333333333333332</ele><time>2026-04-11T07:50:55.862Z</time></trkpt><trkpt lat="42.1729717" lon="14.7006583"><ele>31.0</ele><time>2026-04-11T07:50:57.861Z</time></trkpt><trkpt lat="42.1730033" lon="14.700555"><ele>31.666666666666664</ele><time>2026-04-11T07:50:59.862Z</time></trkpt><trkpt lat="42.1730417" lon="14.7004317"><ele>32.333333333333336</ele><time>2026-04-11T07:51:01.861Z</time></trkpt><trkpt lat="42.1730783" lon="14.7003283"><ele>33.0</ele><time>2026-04-11T07:51:03.862Z</time></trkpt><trkpt lat="42.173115" lon="14.7002367"><ele>33.0</ele><time>2026-04-11T07:51:05.861Z</time></trkpt><trkpt lat="42.17315" lon="14.7001433"><ele>33.0</ele><time>2026-04-11T07:51:07.861Z</time></trkpt><trkpt lat="42.1731883" lon="14.7000433"><ele>33.0</ele><time>2026-04-11T07:51:09.861Z</time></trkpt><trkpt lat="42.1732317" lon="14.69994"><ele>33.0</ele><time>2026-04-11T07:51:11.861Z</time></trkpt><trkpt lat="42.17327" lon="14.6998367"><ele>33.0</ele><time>2026-04-11T07:51:13.861Z</time></trkpt><trkpt lat="42.173315" lon="14.69972"><ele>33.0</ele><time>2026-04-11T07:51:15.86Z</time></trkpt><trkpt lat="42.17335" lon="14.6996233"><ele>33.0</ele><time>2026-04-11T07:51:17.86Z</time></trkpt><trkpt lat="42.1733867" lon="14.6995217"><ele>33.0</ele><time>2026-04-11T07:51:19.861Z</time></trkpt><trkpt lat="42.1734183" lon="14.6994233"><ele>33.0</ele><time>2026-04-11T07:51:21.86Z</time></trkpt><trkpt lat="42.1734483" lon="14.699325"><ele>33.0</ele><time>2026-04-11T07:51:23.86Z</time></trkpt><trkpt lat="42.1734767" lon="14.6992233"><ele>33.0</ele><time>2026-04-11T07:51:25.861Z</time></trkpt><trkpt lat="42.1735117" lon="14.6991217"><ele>33.0</ele><time>2026-04-11T07:51:27.86Z</time></trkpt><trkpt lat="42.1735467" lon="14.6990217"><ele>33.0</ele><time>2026-04-11T07:51:29.861Z</time></trkpt><trkpt lat="42.1735833" lon="14.698915"><ele>33.0</ele><time>2026-04-11T07:51:31.861Z</time></trkpt><trkpt lat="42.1736167" lon="14.69881"><ele>33.0</ele><time>2026-04-11T07:51:33.861Z</time></trkpt><trkpt lat="42.1736533" lon="14.6987017"><ele>33.0</ele><time>2026-04-11T07:51:35.86Z</time></trkpt><trkpt lat="42.17369" lon="14.6985983"><ele>33.0</ele><time>2026-04-11T07:51:37.861Z</time></trkpt><trkpt lat="42.173725" lon="14.698495"><ele>33.0</ele><time>2026-04-11T07:51:39.861Z</time></trkpt><trkpt lat="42.1737617" lon="14.6983867"><ele>33.166666666666664</ele><time>2026-04-11T07:51:41.861Z</time></trkpt><trkpt lat="42.173795" lon="14.6982817"><ele>33.333333333333336</ele><time>2026-04-11T07:51:43.86Z</time></trkpt><trkpt lat="42.1738317" lon="14.6981833"><ele>33.5</ele><time>2026-04-11T07:51:45.861Z</time></trkpt><trkpt lat="42.1738667" lon="14.6980867"><ele>33.66666666666667</ele><time>2026-04-11T07:51:47.861Z</time></trkpt><trkpt lat="42.1739" lon="14.6979933"><ele>33.833333333333336</ele><time>2026-04-11T07:51:49.861Z</time></trkpt><trkpt lat="42.17393" lon="14.697895"><ele>34.0</ele><time>2026-04-11T07:51:51.861Z</time></trkpt><trkpt lat="42.17396" lon="14.697785"><ele>34.0</ele><time>2026-04-11T07:51:53.861Z</time></trkpt><trkpt lat="42.1739867" lon="14.697675"><ele>34.0</ele><time>2026-04-11T07:51:55.861Z</time></trkpt><trkpt lat="42.1740083" lon="14.6975617"><ele>34.0</ele><time>2026-04-11T07:51:57.861Z</time></trkpt><trkpt lat="42.1740083" lon="14.6974217"><ele>34.0</ele><time>2026-04-11T07:51:59.86Z</time></trkpt><trkpt lat="42.1739933" lon="14.69729"><ele>34.0</ele><time>2026-04-11T07:52:01.86Z</time></trkpt><trkpt lat="42.1740033" lon="14.6971917"><ele>34.0</ele><time>2026-04-11T07:52:03.86Z</time></trkpt><trkpt lat="42.174045" lon="14.6970983"><ele>33.16666666666667</ele><time>2026-04-11T07:52:05.861Z</time></trkpt><trkpt lat="42.1740983" lon="14.69701"><ele>32.333333333333336</ele><time>2026-04-11T07:52:07.86Z</time></trkpt><trkpt lat="42.1741417" lon="14.6969133"><ele>31.5</ele><time>2026-04-11T07:52:09.861Z</time></trkpt><trkpt lat="42.1741733" lon="14.6968017"><ele>30.666666666666664</ele><time>2026-04-11T07:52:11.861Z</time></trkpt><trkpt lat="42.1742017" lon="14.6966867"><ele>29.833333333333332</ele><time>2026-04-11T07:52:13.861Z</time></trkpt><trkpt lat="42.174235" lon="14.69658"><ele>29.0</ele><time>2026-04-11T07:52:15.86Z</time></trkpt><trkpt lat="42.17427" lon="14.6964717"><ele>28.999999999999996</ele><time>2026-04-11T07:52:17.861Z</time></trkpt><trkpt lat="42.1743117" lon="14.6963633"><ele>29.0</ele><time>2026-04-11T07:52:19.861Z</time></trkpt><trkpt lat="42.174355" lon="14.696255"><ele>29.0</ele><time>2026-04-11T07:52:21.86Z</time></trkpt><trkpt lat="42.17438" lon="14.6961517"><ele>29.0</ele><time>2026-04-11T07:52:23.86Z</time></trkpt><trkpt lat="42.1744117" lon="14.6960467"><ele>28.999999999999996</ele><time>2026-04-11T07:52:25.861Z</time></trkpt><trkpt lat="42.1744533" lon="14.6959433"><ele>29.0</ele><time>2026-04-11T07:52:27.86Z</time></trkpt><trkpt lat="42.1744933" lon="14.6958333"><ele>29.499999999999996</ele><time>2026-04-11T07:52:29.86Z</time></trkpt><trkpt lat="42.17453" lon="14.695735"><ele>30.0</ele><time>2026-04-11T07:52:31.861Z</time></trkpt><trkpt lat="42.17457" lon="14.6956233"><ele>30.5</ele><time>2026-04-11T07:52:33.861Z</time></trkpt><trkpt lat="42.174615" lon="14.6955083"><ele>31.0</ele><time>2026-04-11T07:52:35.861Z</time></trkpt><trkpt lat="42.1746483" lon="14.69541"><ele>31.499999999999996</ele><time>2026-04-11T07:52:37.861Z</time></trkpt><trkpt lat="42.17468" lon="14.69533"><ele>32.0</ele><time>2026-04-11T07:52:39.861Z</time></trkpt><trkpt lat="42.1747167" lon="14.6952467"><ele>32.166666666666664</ele><time>2026-04-11T07:52:41.86Z</time></trkpt><trkpt lat="42.174755" lon="14.6951633"><ele>32.33333333333333</ele><time>2026-04-11T07:52:43.861Z</time></trkpt><trkpt lat="42.1747867" lon="14.695065"><ele>32.5</ele><time>2026-04-11T07:52:45.861Z</time></trkpt><trkpt lat="42.1748183" lon="14.6949733"><ele>32.666666666666664</ele><time>2026-04-11T07:52:47.861Z</time></trkpt><trkpt lat="42.1748467" lon="14.694875"><ele>32.833333333333336</ele><time>2026-04-11T07:52:49.861Z</time></trkpt><trkpt lat="42.1748783" lon="14.694785"><ele>33.0</ele><time>2026-04-11T07:52:51.861Z</time></trkpt><trkpt lat="42.1749133" lon="14.6946767"><ele>32.833333333333336</ele><time>2026-04-11T07:52:53.861Z</time></trkpt><trkpt lat="42.1749517" lon="14.6945767"><ele>32.666666666666664</ele><time>2026-04-11T07:52:55.86Z</time></trkpt><trkpt lat="42.17497" lon="14.6944617"><ele>32.5</ele><time>2026-04-11T07:52:57.861Z</time></trkpt><trkpt lat="42.17497" lon="14.69435"><ele>32.33333333333333</ele><time>2026-04-11T07:52:59.861Z</time></trkpt><trkpt lat="42.174945" lon="14.6942483"><ele>32.166666666666664</ele><time>2026-04-11T07:53:01.86Z</time></trkpt><trkpt lat="42.174915" lon="14.6941733"><ele>32.0</ele><time>2026-04-11T07:53:03.86Z</time></trkpt><trkpt lat="42.1748633" lon="14.6940983"><ele>32.33333333333333</ele><time>2026-04-11T07:53:06.861Z</time></trkpt><trkpt lat="42.174805" lon="14.6940633"><ele>32.666666666666664</ele><time>2026-04-11T07:53:08.861Z</time></trkpt><trkpt lat="42.1747417" lon="14.69401"><ele>33.0</ele><time>2026-04-11T07:53:11.861Z</time></trkpt><trkpt lat="42.1746717" lon="14.6939617"><ele>33.333333333333336</ele><time>2026-04-11T07:53:15.86Z</time></trkpt><trkpt lat="42.174625" lon="14.69387"><ele>33.66666666666667</ele><time>2026-04-11T07:53:17.861Z</time></trkpt><trkpt lat="42.1745617" lon="14.6937867"><ele>34.0</ele><time>2026-04-11T07:53:19.861Z</time></trkpt><trkpt lat="42.1744967" lon="14.6937267"><ele>34.0</ele><time>2026-04-11T07:53:21.861Z</time></trkpt><trkpt lat="42.1744467" lon="14.6936567"><ele>34.0</ele><time>2026-04-11T07:53:23.861Z</time></trkpt><trkpt lat="42.1744033" lon="14.6935517"><ele>34.0</ele><time>2026-04-11T07:53:26.86Z</time></trkpt><trkpt lat="42.174455" lon="14.693465"><ele>34.0</ele><time>2026-04-11T07:53:30.861Z</time></trkpt><trkpt lat="42.1745283" lon="14.6934067"><ele>34.0</ele><time>2026-04-11T07:53:33.861Z</time></trkpt><trkpt lat="42.174585" lon="14.6933667"><ele>34.0</ele><time>2026-04-11T07:53:35.861Z</time></trkpt><trkpt lat="42.1746417" lon="14.6933283"><ele>33.99999999999999</ele><time>2026-04-11T07:53:37.86Z</time></trkpt><trkpt lat="42.1747017" lon="14.693275"><ele>34.0</ele><time>2026-04-11T07:53:39.86Z</time></trkpt><trkpt lat="42.17476" lon="14.69322"><ele>34.0</ele><time>2026-04-11T07:53:41.86Z</time></trkpt><trkpt lat="42.1748217" lon="14.6931683"><ele>34.0</ele><time>2026-04-11T07:53:43.861Z</time></trkpt><trkpt lat="42.1748767" lon="14.693115"><ele>34.0</ele><time>2026-04-11T07:53:45.86Z</time></trkpt><trkpt lat="42.1749317" lon="14.6930617"><ele>33.99999999999999</ele><time>2026-04-11T07:53:47.861Z</time></trkpt><trkpt lat="42.1750017" lon="14.6929917"><ele>34.0</ele><time>2026-04-11T07:53:49.861Z</time></trkpt><trkpt lat="42.17507" lon="14.69292"><ele>34.2</ele><time>2026-04-11T07:53:51.86Z</time></trkpt><trkpt lat="42.1751367" lon="14.6928333"><ele>34.4</ele><time>2026-04-11T07:53:53.861Z</time></trkpt><trkpt lat="42.1752017" lon="14.692745"><ele>34.6</ele><time>2026-04-11T07:53:55.86Z</time></trkpt><trkpt lat="42.1752733" lon="14.6926583"><ele>34.8</ele><time>2026-04-11T07:53:57.861Z</time></trkpt><trkpt lat="42.1753317" lon="14.6925733"><ele>35.0</ele><time>2026-04-11T07:53:59.861Z</time></trkpt><trkpt lat="42.175395" lon="14.6924733"><ele>35.0</ele><time>2026-04-11T07:54:01.86Z</time></trkpt><trkpt lat="42.1754517" lon="14.6923733"><ele>35.0</ele><time>2026-04-11T07:54:03.861Z</time></trkpt><trkpt lat="42.1755067" lon="14.69226"><ele>35.0</ele><time>2026-04-11T07:54:05.861Z</time></trkpt><trkpt lat="42.1755517" lon="14.692155"><ele>35.0</ele><time>2026-04-11T07:54:07.861Z</time></trkpt><trkpt lat="42.175595" lon="14.6920433"><ele>35.0</ele><time>2026-04-11T07:54:09.861Z</time></trkpt><trkpt lat="42.175635" lon="14.6919333"><ele>34.83333333333333</ele><time>2026-04-11T07:54:11.86Z</time></trkpt><trkpt lat="42.175675" lon="14.69182"><ele>34.666666666666664</ele><time>2026-04-11T07:54:13.86Z</time></trkpt><trkpt lat="42.1757167" lon="14.6917033"><ele>34.5</ele><time>2026-04-11T07:54:15.86Z</time></trkpt><trkpt lat="42.17575" lon="14.6915933"><ele>34.333333333333336</ele><time>2026-04-11T07:54:17.86Z</time></trkpt><trkpt lat="42.17579" lon="14.6915033"><ele>34.16666666666667</ele><time>2026-04-11T07:54:19.861Z</time></trkpt><trkpt lat="42.17583" lon="14.6914317"><ele>34.0</ele><time>2026-04-11T07:54:21.86Z</time></trkpt><trkpt lat="42.175855" lon="14.691345"><ele>34.16666666666667</ele><time>2026-04-11T07:54:23.861Z</time></trkpt><trkpt lat="42.1758817" lon="14.6912433"><ele>34.333333333333336</ele><time>2026-04-11T07:54:25.86Z</time></trkpt><trkpt lat="42.1759183" lon="14.6911317"><ele>34.5</ele><time>2026-04-11T07:54:27.861Z</time></trkpt><trkpt lat="42.1759533" lon="14.691015"><ele>34.666666666666664</ele><time>2026-04-11T07:54:29.86Z</time></trkpt><trkpt lat="42.1759867" lon="14.690905"><ele>34.83333333333333</ele><time>2026-04-11T07:54:31.861Z</time></trkpt><trkpt lat="42.176015" lon="14.6908117"><ele>35.0</ele><time>2026-04-11T07:54:33.861Z</time></trkpt><trkpt lat="42.1760433" lon="14.6907267"><ele>35.0</ele><time>2026-04-11T07:54:35.861Z</time></trkpt><trkpt lat="42.176085" lon="14.6906117"><ele>35.0</ele><time>2026-04-11T07:54:38.861Z</time></trkpt><trkpt lat="42.1761117" lon="14.6905233"><ele>35.0</ele><time>2026-04-11T07:54:40.861Z</time></trkpt><trkpt lat="42.1761417" lon="14.6904217"><ele>35.0</ele><time>2026-04-11T07:54:42.861Z</time></trkpt><trkpt lat="42.176175" lon="14.6903117"><ele>35.0</ele><time>2026-04-11T07:54:44.861Z</time></trkpt><trkpt lat="42.176215" lon="14.6902033"><ele>35.0</ele><time>2026-04-11T07:54:46.861Z</time></trkpt><trkpt lat="42.1762533" lon="14.69009"><ele>34.83333333333333</ele><time>2026-04-11T07:54:48.861Z</time></trkpt><trkpt lat="42.1762917" lon="14.68998"><ele>34.666666666666664</ele><time>2026-04-11T07:54:50.86Z</time></trkpt><trkpt lat="42.1763283" lon="14.68987"><ele>34.5</ele><time>2026-04-11T07:54:52.86Z</time></trkpt><trkpt lat="42.1763633" lon="14.6897583"><ele>34.333333333333336</ele><time>2026-04-11T07:54:54.86Z</time></trkpt><trkpt lat="42.1764033" lon="14.6896583"><ele>34.16666666666667</ele><time>2026-04-11T07:54:56.86Z</time></trkpt><trkpt lat="42.1764417" lon="14.6895533"><ele>34.0</ele><time>2026-04-11T07:54:58.861Z</time></trkpt><trkpt lat="42.17648" lon="14.6894583"><ele>33.66666666666667</ele><time>2026-04-11T07:55:00.861Z</time></trkpt><trkpt lat="42.17652" lon="14.689365"><ele>33.333333333333336</ele><time>2026-04-11T07:55:02.861Z</time></trkpt><trkpt lat="42.1765583" lon="14.689275"><ele>33.0</ele><time>2026-04-11T07:55:04.861Z</time></trkpt><trkpt lat="42.1766067" lon="14.6891917"><ele>32.666666666666664</ele><time>2026-04-11T07:55:06.861Z</time></trkpt><trkpt lat="42.176665" lon="14.6891217"><ele>32.33333333333333</ele><time>2026-04-11T07:55:08.861Z</time></trkpt><trkpt lat="42.1767283" lon="14.6890717"><ele>32.0</ele><time>2026-04-11T07:55:10.861Z</time></trkpt><trkpt lat="42.1768" lon="14.6890367"><ele>31.999999999999996</ele><time>2026-04-11T07:55:12.861Z</time></trkpt><trkpt lat="42.1768717" lon="14.6890183"><ele>32.0</ele><time>2026-04-11T07:55:14.861Z</time></trkpt><trkpt lat="42.1769433" lon="14.689015"><ele>32.0</ele><time>2026-04-11T07:55:16.86Z</time></trkpt><trkpt lat="42.17702" lon="14.6890167"><ele>32.0</ele><time>2026-04-11T07:55:18.861Z</time></trkpt><trkpt lat="42.1771017" lon="14.689"><ele>31.999999999999996</ele><time>2026-04-11T07:55:20.861Z</time></trkpt><trkpt lat="42.17718" lon="14.6889767"><ele>32.0</ele><time>2026-04-11T07:55:22.861Z</time></trkpt><trkpt lat="42.1772583" lon="14.6889317"><ele>32.0</ele><time>2026-04-11T07:55:24.861Z</time></trkpt><trkpt lat="42.1773317" lon="14.6888567"><ele>32.0</ele><time>2026-04-11T07:55:26.86Z</time></trkpt><trkpt lat="42.1774033" lon="14.68876"><ele>32.0</ele><time>2026-04-11T07:55:28.86Z</time></trkpt><trkpt lat="42.1774617" lon="14.6886633"><ele>32.0</ele><time>2026-04-11T07:55:30.861Z</time></trkpt><trkpt lat="42.17752" lon="14.6885633"><ele>32.0</ele><time>2026-04-11T07:55:32.861Z</time></trkpt><trkpt lat="42.1775817" lon="14.6884633"><ele>31.400000000000002</ele><time>2026-04-11T07:55:34.861Z</time></trkpt><trkpt lat="42.17765" lon="14.688365"><ele>30.800000000000004</ele><time>2026-04-11T07:55:36.861Z</time></trkpt><trkpt lat="42.1777133" lon="14.6882783"><ele>30.2</ele><time>2026-04-11T07:55:38.861Z</time></trkpt><trkpt lat="42.1777833" lon="14.68819"><ele>29.6</ele><time>2026-04-11T07:55:40.86Z</time></trkpt><trkpt lat="42.1778483" lon="14.6881083"><ele>29.0</ele><time>2026-04-11T07:55:42.861Z</time></trkpt><trkpt lat="42.1779083" lon="14.68804"><ele>28.999999999999996</ele><time>2026-04-11T07:55:44.86Z</time></trkpt><trkpt lat="42.1779683" lon="14.68797"><ele>29.0</ele><time>2026-04-11T07:55:46.861Z</time></trkpt><trkpt lat="42.1780333" lon="14.6879183"><ele>29.0</ele><time>2026-04-11T07:55:48.861Z</time></trkpt><trkpt lat="42.1781017" lon="14.687875"><ele>29.0</ele><time>2026-04-11T07:55:50.861Z</time></trkpt><trkpt lat="42.1781717" lon="14.6878367"><ele>28.999999999999996</ele><time>2026-04-11T07:55:52.861Z</time></trkpt><trkpt lat="42.178245" lon="14.687795"><ele>29.0</ele><time>2026-04-11T07:55:54.86Z</time></trkpt><trkpt lat="42.17832" lon="14.6877517"><ele>28.166666666666664</ele><time>2026-04-11T07:55:56.86Z</time></trkpt><trkpt lat="42.1783967" lon="14.6877133"><ele>27.333333333333332</ele><time>2026-04-11T07:55:58.861Z</time></trkpt><trkpt lat="42.1784783" lon="14.687685"><ele>26.5</ele><time>2026-04-11T07:56:00.86Z</time></trkpt><trkpt lat="42.1785567" lon="14.6876667"><ele>25.666666666666664</ele><time>2026-04-11T07:56:02.861Z</time></trkpt><trkpt lat="42.178635" lon="14.687655"><ele>24.833333333333332</ele><time>2026-04-11T07:56:04.861Z</time></trkpt><trkpt lat="42.178715" lon="14.6876567"><ele>24.0</ele><time>2026-04-11T07:56:06.86Z</time></trkpt><trkpt lat="42.1788" lon="14.6876617"><ele>23.999999999999996</ele><time>2026-04-11T07:56:08.86Z</time></trkpt><trkpt lat="42.1788817" lon="14.68765"><ele>24.0</ele><time>2026-04-11T07:56:10.86Z</time></trkpt><trkpt lat="42.1789533" lon="14.687625"><ele>24.0</ele><time>2026-04-11T07:56:12.86Z</time></trkpt><trkpt lat="42.179015" lon="14.6875933"><ele>24.0</ele><time>2026-04-11T07:56:14.86Z</time></trkpt><trkpt lat="42.1790683" lon="14.6875367"><ele>24.0</ele><time>2026-04-11T07:56:16.861Z</time></trkpt><trkpt lat="42.1791067" lon="14.6874567"><ele>23.999999999999996</ele><time>2026-04-11T07:56:18.861Z</time></trkpt><trkpt lat="42.1791383" lon="14.6873783"><ele>24.0</ele><time>2026-04-11T07:56:20.861Z</time></trkpt><trkpt lat="42.1791633" lon="14.687295"><ele>22.666666666666668</ele><time>2026-04-11T07:56:22.861Z</time></trkpt><trkpt lat="42.17918" lon="14.6872083"><ele>21.333333333333332</ele><time>2026-04-11T07:56:25.861Z</time></trkpt><trkpt lat="42.1791883" lon="14.68709"><ele>20.0</ele><time>2026-04-11T07:56:28.86Z</time></trkpt><trkpt lat="42.1791833" lon="14.6869867"><ele>18.666666666666664</ele><time>2026-04-11T07:56:30.861Z</time></trkpt><trkpt lat="42.1791733" lon="14.6868633"><ele>17.333333333333332</ele><time>2026-04-11T07:56:32.86Z</time></trkpt><trkpt lat="42.1791533" lon="14.68674"><ele>16.0</ele><time>2026-04-11T07:56:34.86Z</time></trkpt><trkpt lat="42.1791317" lon="14.6866217"><ele>15.833333333333332</ele><time>2026-04-11T07:56:36.861Z</time></trkpt><trkpt lat="42.1791033" lon="14.6865183"><ele>15.666666666666666</ele><time>2026-04-11T07:56:38.86Z</time></trkpt><trkpt lat="42.1790667" lon="14.68641"><ele>15.5</ele><time>2026-04-11T07:56:41.861Z</time></trkpt><trkpt lat="42.1790383" lon="14.6863233"><ele>15.333333333333332</ele><time>2026-04-11T07:56:45.861Z</time></trkpt><trkpt lat="42.1789883" lon="14.68625"><ele>15.166666666666666</ele><time>2026-04-11T07:58:35.86Z</time></trkpt><trkpt lat="42.1789367" lon="14.6861717"><ele>15.0</ele><time>2026-04-11T07:58:38.86Z</time></trkpt><trkpt lat="42.1788783" lon="14.6861"><ele>13.833333333333334</ele><time>2026-04-11T07:58:40.86Z</time></trkpt><trkpt lat="42.1788133" lon="14.6860333"><ele>12.666666666666666</ele><time>2026-04-11T07:58:42.86Z</time></trkpt><trkpt lat="42.1787567" lon="14.68598"><ele>11.5</ele><time>2026-04-11T07:58:44.859Z</time></trkpt><trkpt lat="42.17868" lon="14.685925"><ele>10.333333333333332</ele><time>2026-04-11T07:58:47.859Z</time></trkpt><trkpt lat="42.1786" lon="14.6858683"><ele>9.166666666666666</ele><time>2026-04-11T07:58:50.859Z</time></trkpt><trkpt lat="42.178545" lon="14.6858233"><ele>8.0</ele><time>2026-04-11T07:58:52.86Z</time></trkpt><trkpt lat="42.17848" lon="14.68577"><ele>8.0</ele><time>2026-04-11T07:58:54.859Z</time></trkpt><trkpt lat="42.178415" lon="14.685705"><ele>7.999999999999999</ele><time>2026-04-11T07:58:56.86Z</time></trkpt><trkpt lat="42.1783567" lon="14.685635"><ele>8.0</ele><time>2026-04-11T07:58:58.86Z</time></trkpt><trkpt lat="42.178295" lon="14.68557"><ele>8.0</ele><time>2026-04-11T07:59:01.859Z</time></trkpt><trkpt lat="42.1782417" lon="14.6855133"><ele>7.999999999999999</ele><time>2026-04-11T07:59:05.86Z</time></trkpt><trkpt lat="42.1781817" lon="14.6854683"><ele>8.0</ele><time>2026-04-11T07:59:08.86Z</time></trkpt><trkpt lat="42.1781183" lon="14.685415"><ele>8.0</ele><time>2026-04-11T07:59:11.859Z</time></trkpt><trkpt lat="42.178055" lon="14.685345"><ele>8.666666666666666</ele><time>2026-04-11T07:59:15.859Z</time></trkpt><trkpt lat="42.1780017" lon="14.6852817"><ele>9.333333333333332</ele><time>2026-04-11T07:59:18.86Z</time></trkpt><trkpt lat="42.1779333" lon="14.6852183"><ele>10.0</ele><time>2026-04-11T07:59:21.859Z</time></trkpt><trkpt lat="42.1778633" lon="14.6851683"><ele>10.666666666666666</ele><time>2026-04-11T07:59:24.86Z</time></trkpt><trkpt lat="42.1777917" lon="14.6850983"><ele>11.333333333333334</ele><time>2026-04-11T07:59:27.86Z</time></trkpt><trkpt lat="42.1777233" lon="14.68503"><ele>12.0</ele><time>2026-04-11T07:59:30.859Z</time></trkpt><trkpt lat="42.1776783" lon="14.6849283"><ele>11.999999999999998</ele><time>2026-04-11T07:59:33.859Z</time></trkpt><trkpt lat="42.1776733" lon="14.6848433"><ele>12.0</ele><time>2026-04-11T07:59:35.86Z</time></trkpt><trkpt lat="42.1776867" lon="14.684745"><ele>12.0</ele><time>2026-04-11T07:59:37.86Z</time></trkpt><trkpt lat="42.1777" lon="14.6846467"><ele>12.0</ele><time>2026-04-11T07:59:39.86Z</time></trkpt><trkpt lat="42.177725" lon="14.6845617"><ele>12.0</ele><time>2026-04-11T07:59:42.86Z</time></trkpt><trkpt lat="42.1778033" lon="14.6845133"><ele>11.999999999999998</ele><time>2026-04-11T07:59:45.86Z</time></trkpt><trkpt lat="42.177885" lon="14.6844883"><ele>12.0</ele><time>2026-04-11T07:59:48.86Z</time></trkpt><trkpt lat="42.1779767" lon="14.684485"><ele>12.0</ele><time>2026-04-11T07:59:51.86Z</time></trkpt><trkpt lat="42.1780567" lon="14.6844783"><ele>12.0</ele><time>2026-04-11T07:59:54.86Z</time></trkpt><trkpt lat="42.1781417" lon="14.68446"><ele>12.0</ele><time>2026-04-11T07:59:57.86Z</time></trkpt><trkpt lat="42.1782233" lon="14.68443"><ele>12.0</ele><time>2026-04-11T08:00:00.859Z</time></trkpt><trkpt lat="42.1783017" lon="14.68439"><ele>12.0</ele><time>2026-04-11T08:00:03.86Z</time></trkpt><trkpt lat="42.178375" lon="14.68437"><ele>12.0</ele><time>2026-04-11T08:00:06.859Z</time></trkpt><trkpt lat="42.17845" lon="14.6843383"><ele>12.666666666666666</ele><time>2026-04-11T08:00:09.86Z</time></trkpt><trkpt lat="42.1785283" lon="14.6842983"><ele>13.333333333333332</ele><time>2026-04-11T08:00:12.859Z</time></trkpt><trkpt lat="42.1786033" lon="14.684255"><ele>14.0</ele><time>2026-04-11T08:00:15.859Z</time></trkpt><trkpt lat="42.17867" lon="14.6842133"><ele>14.666666666666666</ele><time>2026-04-11T08:00:18.86Z</time></trkpt><trkpt lat="42.178735" lon="14.684155"><ele>15.333333333333332</ele><time>2026-04-11T08:00:21.86Z</time></trkpt><trkpt lat="42.1788067" lon="14.6841033"><ele>16.0</ele><time>2026-04-11T08:00:24.86Z</time></trkpt><trkpt lat="42.1788717" lon="14.6840383"><ele>15.999999999999998</ele><time>2026-04-11T08:00:27.859Z</time></trkpt><trkpt lat="42.17892" lon="14.68398"><ele>16.0</ele><time>2026-04-11T08:00:29.86Z</time></trkpt><trkpt lat="42.1789933" lon="14.6839133"><ele>16.0</ele><time>2026-04-11T08:00:32.86Z</time></trkpt><trkpt lat="42.17906" lon="14.6838283"><ele>16.0</ele><time>2026-04-11T08:00:35.86Z</time></trkpt><trkpt lat="42.1791017" lon="14.6837617"><ele>15.999999999999998</ele><time>2026-04-11T08:00:37.859Z</time></trkpt><trkpt lat="42.17915" lon="14.6836583"><ele>16.0</ele><time>2026-04-11T08:00:40.86Z</time></trkpt><trkpt lat="42.17917" lon="14.6835367"><ele>16.5</ele><time>2026-04-11T08:00:43.859Z</time></trkpt><trkpt lat="42.179165" lon="14.683415"><ele>17.0</ele><time>2026-04-11T08:00:46.86Z</time></trkpt><trkpt lat="42.1791517" lon="14.6832967"><ele>17.5</ele><time>2026-04-11T08:00:49.859Z</time></trkpt><trkpt lat="42.1791367" lon="14.68321"><ele>18.0</ele><time>2026-04-11T08:00:51.859Z</time></trkpt><trkpt lat="42.1791117" lon="14.6830933"><ele>18.5</ele><time>2026-04-11T08:00:54.859Z</time></trkpt><trkpt lat="42.179145" lon="14.68301"><ele>19.0</ele><time>2026-04-11T08:00:57.86Z</time></trkpt><trkpt lat="42.17918" lon="14.6829183"><ele>19.0</ele><time>2026-04-11T08:01:00.86Z</time></trkpt><trkpt lat="42.17921" lon="14.68281"><ele>19.0</ele><time>2026-04-11T08:01:03.86Z</time></trkpt><trkpt lat="42.179235" lon="14.68269"><ele>19.0</ele><time>2026-04-11T08:01:06.86Z</time></trkpt><trkpt lat="42.1792483" lon="14.6825783"><ele>19.0</ele><time>2026-04-11T08:01:09.859Z</time></trkpt><trkpt lat="42.1792567" lon="14.6824733"><ele>19.0</ele><time>2026-04-11T08:01:13.86Z</time></trkpt><trkpt lat="42.1792467" lon="14.682375"><ele>19.0</ele><time>2026-04-11T08:01:16.86Z</time></trkpt><trkpt lat="42.1792183" lon="14.6822733"><ele>19.666666666666664</ele><time>2026-04-11T08:01:19.86Z</time></trkpt><trkpt lat="42.1791733" lon="14.682175"><ele>20.333333333333332</ele><time>2026-04-11T08:01:22.86Z</time></trkpt><trkpt lat="42.179125" lon="14.68207"><ele>21.0</ele><time>2026-04-11T08:01:25.86Z</time></trkpt><trkpt lat="42.17909" lon="14.6819983"><ele>21.666666666666668</ele><time>2026-04-11T08:01:27.86Z</time></trkpt><trkpt lat="42.179035" lon="14.6818967"><ele>22.333333333333336</ele><time>2026-04-11T08:01:30.86Z</time></trkpt><trkpt lat="42.178985" lon="14.6817983"><ele>23.0</ele><time>2026-04-11T08:01:33.86Z</time></trkpt><trkpt lat="42.1789483" lon="14.6817283"><ele>24.333333333333336</ele><time>2026-04-11T08:01:35.859Z</time></trkpt><trkpt lat="42.17891" lon="14.6816333"><ele>25.666666666666668</ele><time>2026-04-11T08:01:38.859Z</time></trkpt><trkpt lat="42.1788917" lon="14.68152"><ele>27.0</ele><time>2026-04-11T08:01:41.86Z</time></trkpt><trkpt lat="42.1788783" lon="14.6814367"><ele>28.333333333333336</ele><time>2026-04-11T08:01:43.86Z</time></trkpt><trkpt lat="42.1788617" lon="14.6813483"><ele>29.666666666666668</ele><time>2026-04-11T08:01:45.859Z</time></trkpt><trkpt lat="42.1788533" lon="14.6812333"><ele>31.0</ele><time>2026-04-11T08:01:48.86Z</time></trkpt><trkpt lat="42.1788283" lon="14.6811217"><ele>31.000000000000004</ele><time>2026-04-11T08:01:51.86Z</time></trkpt><trkpt lat="42.17881" lon="14.6810367"><ele>31.0</ele><time>2026-04-11T08:01:53.859Z</time></trkpt><trkpt lat="42.1787833" lon="14.6809167"><ele>31.0</ele><time>2026-04-11T08:01:56.859Z</time></trkpt><trkpt lat="42.1787533" lon="14.68084"><ele>31.0</ele><time>2026-04-11T08:01:58.859Z</time></trkpt><trkpt lat="42.1787083" lon="14.68073"><ele>31.000000000000004</ele><time>2026-04-11T08:02:01.86Z</time></trkpt><trkpt lat="42.17867" lon="14.680655"><ele>31.0</ele><time>2026-04-11T08:02:03.859Z</time></trkpt><trkpt lat="42.17863" lon="14.6805733"><ele>31.000000000000004</ele><time>2026-04-11T08:02:05.859Z</time></trkpt><trkpt lat="42.1785867" lon="14.6804983"><ele>31.0</ele><time>2026-04-11T08:02:07.859Z</time></trkpt><trkpt lat="42.1785433" lon="14.6804317"><ele>31.0</ele><time>2026-04-11T08:02:09.859Z</time></trkpt><trkpt lat="42.1785067" lon="14.680355"><ele>31.0</ele><time>2026-04-11T08:02:11.859Z</time></trkpt><trkpt lat="42.178485" lon="14.6802333"><ele>31.000000000000004</ele><time>2026-04-11T08:02:14.86Z</time></trkpt><trkpt lat="42.1784883" lon="14.680105"><ele>31.0</ele><time>2026-04-11T08:02:17.86Z</time></trkpt><trkpt lat="42.1785017" lon="14.68002"><ele>30.833333333333336</ele><time>2026-04-11T08:02:19.86Z</time></trkpt><trkpt lat="42.1785083" lon="14.6799267"><ele>30.666666666666668</ele><time>2026-04-11T08:02:21.859Z</time></trkpt><trkpt lat="42.1785083" lon="14.6798417"><ele>30.5</ele><time>2026-04-11T08:02:23.859Z</time></trkpt><trkpt lat="42.1784733" lon="14.6797283"><ele>30.333333333333336</ele><time>2026-04-11T08:02:26.859Z</time></trkpt><trkpt lat="42.17839" lon="14.67967"><ele>30.166666666666668</ele><time>2026-04-11T08:02:29.86Z</time></trkpt><trkpt lat="42.1782983" lon="14.67967"><ele>30.0</ele><time>2026-04-11T08:02:32.86Z</time></trkpt><trkpt lat="42.1782317" lon="14.6796783"><ele>30.714285714285715</ele><time>2026-04-11T08:02:34.86Z</time></trkpt><trkpt lat="42.17816" lon="14.6796833"><ele>31.428571428571427</ele><time>2026-04-11T08:02:36.86Z</time></trkpt><trkpt lat="42.17809" lon="14.6796883"><ele>32.14285714285714</ele><time>2026-04-11T08:02:38.859Z</time></trkpt><trkpt lat="42.1780183" lon="14.6796917"><ele>32.85714285714286</ele><time>2026-04-11T08:02:40.859Z</time></trkpt><trkpt lat="42.1779483" lon="14.6796933"><ele>33.57142857142857</ele><time>2026-04-11T08:02:42.86Z</time></trkpt><trkpt lat="42.1778783" lon="14.6796983"><ele>34.285714285714285</ele><time>2026-04-11T08:02:44.859Z</time></trkpt><trkpt lat="42.1778067" lon="14.6797033"><ele>35.0</ele><time>2026-04-11T08:02:46.86Z</time></trkpt><trkpt lat="42.1777383" lon="14.6797117"><ele>35.0</ele><time>2026-04-11T08:02:48.86Z</time></trkpt><trkpt lat="42.1776683" lon="14.67972"><ele>35.0</ele><time>2026-04-11T08:02:50.86Z</time></trkpt><trkpt lat="42.1775983" lon="14.679725"><ele>35.0</ele><time>2026-04-11T08:02:52.86Z</time></trkpt><trkpt lat="42.1775267" lon="14.6797317"><ele>35.0</ele><time>2026-04-11T08:02:54.859Z</time></trkpt><trkpt lat="42.177455" lon="14.679735"><ele>35.0</ele><time>2026-04-11T08:02:56.86Z</time></trkpt><trkpt lat="42.1773817" lon="14.6797417"><ele>35.0</ele><time>2026-04-11T08:02:58.86Z</time></trkpt><trkpt lat="42.1773083" lon="14.6797517"><ele>35.0</ele><time>2026-04-11T08:03:00.86Z</time></trkpt><trkpt lat="42.177235" lon="14.6797583"><ele>35.285714285714285</ele><time>2026-04-11T08:03:02.86Z</time></trkpt><trkpt lat="42.1771667" lon="14.67976"><ele>35.57142857142857</ele><time>2026-04-11T08:03:04.86Z</time></trkpt><trkpt lat="42.1770983" lon="14.6797683"><ele>35.85714285714286</ele><time>2026-04-11T08:03:06.86Z</time></trkpt><trkpt lat="42.1770317" lon="14.6797767"><ele>36.14285714285714</ele><time>2026-04-11T08:03:08.86Z</time></trkpt><trkpt lat="42.17696" lon="14.6797817"><ele>36.42857142857143</ele><time>2026-04-11T08:03:10.859Z</time></trkpt><trkpt lat="42.1768783" lon="14.679785"><ele>36.714285714285715</ele><time>2026-04-11T08:03:12.86Z</time></trkpt><trkpt lat="42.1767983" lon="14.6797867"><ele>37.0</ele><time>2026-04-11T08:03:14.86Z</time></trkpt><trkpt lat="42.1767183" lon="14.6797917"><ele>37.0</ele><time>2026-04-11T08:03:16.859Z</time></trkpt><trkpt lat="42.17664" lon="14.6797983"><ele>37.0</ele><time>2026-04-11T08:03:18.86Z</time></trkpt><trkpt lat="42.1765633" lon="14.6798067"><ele>37.0</ele><time>2026-04-11T08:03:20.86Z</time></trkpt><trkpt lat="42.1764833" lon="14.6798117"><ele>37.0</ele><time>2026-04-11T08:03:22.859Z</time></trkpt><trkpt lat="42.1764033" lon="14.6798217"><ele>37.0</ele><time>2026-04-11T08:03:24.86Z</time></trkpt><trkpt lat="42.176325" lon="14.6798317"><ele>37.0</ele><time>2026-04-11T08:03:26.86Z</time></trkpt><trkpt lat="42.176245" lon="14.6798417"><ele>36.833333333333336</ele><time>2026-04-11T08:03:28.86Z</time></trkpt><trkpt lat="42.176165" lon="14.6798467"><ele>36.66666666666667</ele><time>2026-04-11T08:03:30.859Z</time></trkpt><trkpt lat="42.176085" lon="14.6798517"><ele>36.5</ele><time>2026-04-11T08:03:32.86Z</time></trkpt><trkpt lat="42.1760033" lon="14.6798583"><ele>36.333333333333336</ele><time>2026-04-11T08:03:34.859Z</time></trkpt><trkpt lat="42.1759167" lon="14.679865"><ele>36.166666666666664</ele><time>2026-04-11T08:03:36.859Z</time></trkpt><trkpt lat="42.175825" lon="14.6798733"><ele>36.0</ele><time>2026-04-11T08:03:38.86Z</time></trkpt><trkpt lat="42.1757317" lon="14.6798833"><ele>36.0</ele><time>2026-04-11T08:03:40.86Z</time></trkpt><trkpt lat="42.1756367" lon="14.6798867"><ele>36.0</ele><time>2026-04-11T08:03:42.859Z</time></trkpt><trkpt lat="42.17556" lon="14.6798917"><ele>36.0</ele><time>2026-04-11T08:03:44.859Z</time></trkpt><trkpt lat="42.1754817" lon="14.6798383"><ele>36.0</ele><time>2026-04-11T08:03:47.86Z</time></trkpt><trkpt lat="42.1754183" lon="14.6797583"><ele>36.0</ele><time>2026-04-11T08:03:50.859Z</time></trkpt><trkpt lat="42.1753533" lon="14.6796633"><ele>36.0</ele><time>2026-04-11T08:03:53.86Z</time></trkpt><trkpt lat="42.1753033" lon="14.679585"><ele>36.0</ele><time>2026-04-11T08:03:55.86Z</time></trkpt><trkpt lat="42.175255" lon="14.679505"><ele>36.0</ele><time>2026-04-11T08:03:57.86Z</time></trkpt><trkpt lat="42.1752067" lon="14.6794233"><ele>36.0</ele><time>2026-04-11T08:03:59.86Z</time></trkpt><trkpt lat="42.1751633" lon="14.6793333"><ele>36.0</ele><time>2026-04-11T08:04:01.859Z</time></trkpt><trkpt lat="42.1751317" lon="14.6792367"><ele>36.0</ele><time>2026-04-11T08:04:03.86Z</time></trkpt><trkpt lat="42.175125" lon="14.6791367"><ele>36.0</ele><time>2026-04-11T08:04:05.86Z</time></trkpt><trkpt lat="42.1751367" lon="14.6790433"><ele>36.166666666666664</ele><time>2026-04-11T08:04:07.86Z</time></trkpt><trkpt lat="42.1751617" lon="14.6789633"><ele>36.333333333333336</ele><time>2026-04-11T08:04:09.86Z</time></trkpt><trkpt lat="42.1751983" lon="14.6788683"><ele>36.5</ele><time>2026-04-11T08:04:12.859Z</time></trkpt><trkpt lat="42.1752467" lon="14.6787767"><ele>36.66666666666667</ele><time>2026-04-11T08:04:15.859Z</time></trkpt><trkpt lat="42.175305" lon="14.6786833"><ele>36.833333333333336</ele><time>2026-04-11T08:04:18.86Z</time></trkpt><trkpt lat="42.1753633" lon="14.6785917"><ele>37.0</ele><time>2026-04-11T08:04:21.86Z</time></trkpt><trkpt lat="42.1754217" lon="14.6785033"><ele>37.0</ele><time>2026-04-11T08:04:24.86Z</time></trkpt><trkpt lat="42.17548" lon="14.6784183"><ele>37.0</ele><time>2026-04-11T08:04:27.859Z</time></trkpt><trkpt lat="42.17553" lon="14.678325"><ele>37.0</ele><time>2026-04-11T08:04:30.86Z</time></trkpt><trkpt lat="42.175575" lon="14.6782233"><ele>37.0</ele><time>2026-04-11T08:04:33.86Z</time></trkpt><trkpt lat="42.1756017" lon="14.6781217"><ele>37.0</ele><time>2026-04-11T08:04:36.86Z</time></trkpt><trkpt lat="42.1756267" lon="14.677995"><ele>37.0</ele><time>2026-04-11T08:04:39.859Z</time></trkpt><trkpt lat="42.1756533" lon="14.6778967"><ele>37.0</ele><time>2026-04-11T08:04:41.859Z</time></trkpt><trkpt lat="42.1756833" lon="14.6777983"><ele>37.0</ele><time>2026-04-11T08:04:43.859Z</time></trkpt><trkpt lat="42.1757017" lon="14.6777067"><ele>37.0</ele><time>2026-04-11T08:04:45.86Z</time></trkpt><trkpt lat="42.1757183" lon="14.6776083"><ele>37.0</ele><time>2026-04-11T08:04:47.859Z</time></trkpt><trkpt lat="42.1757217" lon="14.6775017"><ele>37.0</ele><time>2026-04-11T08:04:49.859Z</time></trkpt><trkpt lat="42.1756967" lon="14.677405"><ele>37.0</ele><time>2026-04-11T08:04:51.86Z</time></trkpt><trkpt lat="42.1756433" lon="14.6773417"><ele>37.16666666666667</ele><time>2026-04-11T08:04:53.86Z</time></trkpt><trkpt lat="42.1755667" lon="14.67734"><ele>37.333333333333336</ele><time>2026-04-11T08:04:55.86Z</time></trkpt><trkpt lat="42.1754933" lon="14.677375"><ele>37.5</ele><time>2026-04-11T08:04:57.859Z</time></trkpt><trkpt lat="42.1754133" lon="14.6774117"><ele>37.666666666666664</ele><time>2026-04-11T08:04:59.86Z</time></trkpt><trkpt lat="42.17535" lon="14.677455"><ele>37.83333333333333</ele><time>2026-04-11T08:05:01.86Z</time></trkpt><trkpt lat="42.1752883" lon="14.6774917"><ele>38.0</ele><time>2026-04-11T08:05:03.86Z</time></trkpt><trkpt lat="42.1752" lon="14.677505"><ele>38.0</ele><time>2026-04-11T08:05:05.859Z</time></trkpt><trkpt lat="42.175115" lon="14.67751"><ele>38.0</ele><time>2026-04-11T08:05:07.86Z</time></trkpt><trkpt lat="42.1750383" lon="14.677515"><ele>38.0</ele><time>2026-04-11T08:05:09.859Z</time></trkpt><trkpt lat="42.174955" lon="14.6775117"><ele>38.0</ele><time>2026-04-11T08:05:11.86Z</time></trkpt><trkpt lat="42.17486" lon="14.67751"><ele>38.0</ele><time>2026-04-11T08:05:13.859Z</time></trkpt><trkpt lat="42.174755" lon="14.6775033"><ele>38.0</ele><time>2026-04-11T08:05:15.86Z</time></trkpt><trkpt lat="42.1746433" lon="14.6774767"><ele>38.199999999999996</ele><time>2026-04-11T08:05:17.86Z</time></trkpt><trkpt lat="42.1745367" lon="14.6774367"><ele>38.4</ele><time>2026-04-11T08:05:19.859Z</time></trkpt><trkpt lat="42.17444" lon="14.6773783"><ele>38.599999999999994</ele><time>2026-04-11T08:05:21.859Z</time></trkpt><trkpt lat="42.174355" lon="14.677315"><ele>38.8</ele><time>2026-04-11T08:05:23.86Z</time></trkpt><trkpt lat="42.1742733" lon="14.6772467"><ele>39.0</ele><time>2026-04-11T08:05:25.859Z</time></trkpt><trkpt lat="42.1741917" lon="14.6771817"><ele>39.0</ele><time>2026-04-11T08:05:27.86Z</time></trkpt><trkpt lat="42.1741133" lon="14.677125"><ele>39.0</ele><time>2026-04-11T08:05:29.86Z</time></trkpt><trkpt lat="42.1740383" lon="14.6770633"><ele>39.0</ele><time>2026-04-11T08:05:31.86Z</time></trkpt><trkpt lat="42.17396" lon="14.6769933"><ele>39.0</ele><time>2026-04-11T08:05:33.86Z</time></trkpt><trkpt lat="42.1738833" lon="14.6769233"><ele>39.0</ele><time>2026-04-11T08:05:35.86Z</time></trkpt><trkpt lat="42.1738217" lon="14.676865"><ele>39.0</ele><time>2026-04-11T08:05:37.86Z</time></trkpt><trkpt lat="42.1737483" lon="14.6767967"><ele>39.333333333333336</ele><time>2026-04-11T08:05:39.86Z</time></trkpt><trkpt lat="42.1736817" lon="14.67674"><ele>39.666666666666664</ele><time>2026-04-11T08:05:41.86Z</time></trkpt><trkpt lat="42.17361" lon="14.67668"><ele>40.0</ele><time>2026-04-11T08:05:43.859Z</time></trkpt><trkpt lat="42.173545" lon="14.6766383"><ele>40.33333333333333</ele><time>2026-04-11T08:05:45.86Z</time></trkpt><trkpt lat="42.1734883" lon="14.6765933"><ele>40.666666666666664</ele><time>2026-04-11T08:05:47.86Z</time></trkpt><trkpt lat="42.1734167" lon="14.676555"><ele>41.0</ele><time>2026-04-11T08:05:49.86Z</time></trkpt><trkpt lat="42.1733333" lon="14.6765117"><ele>41.0</ele><time>2026-04-11T08:05:51.86Z</time></trkpt><trkpt lat="42.1732583" lon="14.6764683"><ele>41.0</ele><time>2026-04-11T08:05:53.86Z</time></trkpt><trkpt lat="42.173185" lon="14.6764233"><ele>41.0</ele><time>2026-04-11T08:05:55.86Z</time></trkpt><trkpt lat="42.1731217" lon="14.67638"><ele>41.0</ele><time>2026-04-11T08:05:57.859Z</time></trkpt><trkpt lat="42.1730617" lon="14.676335"><ele>41.0</ele><time>2026-04-11T08:05:59.86Z</time></trkpt><trkpt lat="42.17299" lon="14.6762967"><ele>41.0</ele><time>2026-04-11T08:06:01.859Z</time></trkpt><trkpt lat="42.1729217" lon="14.67625"><ele>41.0</ele><time>2026-04-11T08:06:03.86Z</time></trkpt><trkpt lat="42.1728533" lon="14.676205"><ele>41.0</ele><time>2026-04-11T08:06:05.86Z</time></trkpt><trkpt lat="42.172785" lon="14.676155"><ele>41.0</ele><time>2026-04-11T08:06:07.86Z</time></trkpt><trkpt lat="42.17271" lon="14.676105"><ele>41.0</ele><time>2026-04-11T08:06:09.86Z</time></trkpt><trkpt lat="42.1726383" lon="14.67605"><ele>41.0</ele><time>2026-04-11T08:06:11.86Z</time></trkpt><trkpt lat="42.1725733" lon="14.6759983"><ele>41.0</ele><time>2026-04-11T08:06:13.86Z</time></trkpt><trkpt lat="42.1725083" lon="14.67595"><ele>41.285714285714285</ele><time>2026-04-11T08:06:15.86Z</time></trkpt><trkpt lat="42.1724467" lon="14.675905"><ele>41.57142857142857</ele><time>2026-04-11T08:06:17.86Z</time></trkpt><trkpt lat="42.172385" lon="14.6758667"><ele>41.85714285714286</ele><time>2026-04-11T08:06:19.86Z</time></trkpt><trkpt lat="42.1723217" lon="14.6758217"><ele>42.14285714285714</ele><time>2026-04-11T08:06:21.859Z</time></trkpt><trkpt lat="42.1722583" lon="14.67577"><ele>42.42857142857143</ele><time>2026-04-11T08:06:23.86Z</time></trkpt><trkpt lat="42.1721933" lon="14.67572"><ele>42.714285714285715</ele><time>2026-04-11T08:06:25.86Z</time></trkpt><trkpt lat="42.1721283" lon="14.675675"><ele>43.0</ele><time>2026-04-11T08:06:27.86Z</time></trkpt><trkpt lat="42.1720667" lon="14.67563"><ele>43.142857142857146</ele><time>2026-04-11T08:06:29.859Z</time></trkpt><trkpt lat="42.17201" lon="14.6755867"><ele>43.285714285714285</ele><time>2026-04-11T08:06:31.86Z</time></trkpt><trkpt lat="42.1719517" lon="14.6755417"><ele>43.42857142857143</ele><time>2026-04-11T08:06:33.859Z</time></trkpt><trkpt lat="42.171895" lon="14.6755033"><ele>43.57142857142857</ele><time>2026-04-11T08:06:35.86Z</time></trkpt><trkpt lat="42.1718317" lon="14.675455"><ele>43.714285714285715</ele><time>2026-04-11T08:06:37.859Z</time></trkpt><trkpt lat="42.171765" lon="14.6754083"><ele>43.85714285714286</ele><time>2026-04-11T08:06:39.86Z</time></trkpt><trkpt lat="42.1716983" lon="14.67537"><ele>44.0</ele><time>2026-04-11T08:06:41.859Z</time></trkpt><trkpt lat="42.1716367" lon="14.675335"><ele>44.0</ele><time>2026-04-11T08:06:43.86Z</time></trkpt><trkpt lat="42.1715783" lon="14.675295"><ele>44.0</ele><time>2026-04-11T08:06:45.86Z</time></trkpt><trkpt lat="42.1715217" lon="14.6752567"><ele>44.0</ele><time>2026-04-11T08:06:47.86Z</time></trkpt><trkpt lat="42.1714617" lon="14.675215"><ele>44.0</ele><time>2026-04-11T08:06:49.859Z</time></trkpt><trkpt lat="42.1714083" lon="14.67517"><ele>44.0</ele><time>2026-04-11T08:06:51.859Z</time></trkpt><trkpt lat="42.1713383" lon="14.6751133"><ele>44.0</ele><time>2026-04-11T08:06:54.86Z</time></trkpt><trkpt lat="42.1712833" lon="14.675045"><ele>44.0</ele><time>2026-04-11T08:06:57.86Z</time></trkpt><trkpt lat="42.1712983" lon="14.67496"><ele>44.33333333333333</ele><time>2026-04-11T08:07:00.859Z</time></trkpt><trkpt lat="42.1713633" lon="14.6748917"><ele>44.666666666666664</ele><time>2026-04-11T08:07:03.859Z</time></trkpt><trkpt lat="42.1714417" lon="14.6748183"><ele>45.0</ele><time>2026-04-11T08:07:06.859Z</time></trkpt><trkpt lat="42.1714883" lon="14.6747533"><ele>45.333333333333336</ele><time>2026-04-11T08:07:08.86Z</time></trkpt><trkpt lat="42.1715333" lon="14.6746867"><ele>45.66666666666667</ele><time>2026-04-11T08:07:10.86Z</time></trkpt><trkpt lat="42.1715767" lon="14.6746183"><ele>46.0</ele><time>2026-04-11T08:07:12.859Z</time></trkpt><trkpt lat="42.171615" lon="14.6745217"><ele>46.16666666666667</ele><time>2026-04-11T08:07:15.86Z</time></trkpt><trkpt lat="42.1716183" lon="14.674405"><ele>46.333333333333336</ele><time>2026-04-11T08:07:18.86Z</time></trkpt><trkpt lat="42.1715967" lon="14.6742933"><ele>46.5</ele><time>2026-04-11T08:07:21.86Z</time></trkpt><trkpt lat="42.1715267" lon="14.6742533"><ele>46.666666666666664</ele><time>2026-04-11T08:07:24.859Z</time></trkpt><trkpt lat="42.171445" lon="14.67421"><ele>46.83333333333333</ele><time>2026-04-11T08:07:27.86Z</time></trkpt><trkpt lat="42.1713683" lon="14.6741567"><ele>47.0</ele><time>2026-04-11T08:07:30.86Z</time></trkpt><trkpt lat="42.1712967" lon="14.6741083"><ele>47.33333333333333</ele><time>2026-04-11T08:07:33.859Z</time></trkpt><trkpt lat="42.1712283" lon="14.67406"><ele>47.666666666666664</ele><time>2026-04-11T08:07:36.86Z</time></trkpt><trkpt lat="42.1711567" lon="14.6740283"><ele>48.0</ele><time>2026-04-11T08:07:39.859Z</time></trkpt><trkpt lat="42.171085" lon="14.6739883"><ele>48.33333333333333</ele><time>2026-04-11T08:07:43.86Z</time></trkpt><trkpt lat="42.1710183" lon="14.6739417"><ele>48.666666666666664</ele><time>2026-04-11T08:07:47.86Z</time></trkpt><trkpt lat="42.1709483" lon="14.6738933"><ele>49.0</ele><time>2026-04-11T08:07:51.86Z</time></trkpt><trkpt lat="42.1708767" lon="14.67385"><ele>48.99999999999999</ele><time>2026-04-11T08:07:55.86Z</time></trkpt><trkpt lat="42.17081" lon="14.6738067"><ele>49.0</ele><time>2026-04-11T08:07:58.86Z</time></trkpt><trkpt lat="42.1707433" lon="14.6737717"><ele>49.0</ele><time>2026-04-11T08:08:01.86Z</time></trkpt><trkpt lat="42.17068" lon="14.6737317"><ele>49.0</ele><time>2026-04-11T08:08:04.86Z</time></trkpt><trkpt lat="42.1706083" lon="14.673685"><ele>48.99999999999999</ele><time>2026-04-11T08:08:07.86Z</time></trkpt><trkpt lat="42.17053" lon="14.673635"><ele>49.0</ele><time>2026-04-11T08:08:10.859Z</time></trkpt><trkpt lat="42.170455" lon="14.67359"><ele>49.33333333333333</ele><time>2026-04-11T08:08:13.86Z</time></trkpt><trkpt lat="42.1703833" lon="14.6735417"><ele>49.666666666666664</ele><time>2026-04-11T08:08:16.859Z</time></trkpt><trkpt lat="42.1703133" lon="14.6735017"><ele>50.0</ele><time>2026-04-11T08:08:19.86Z</time></trkpt><trkpt lat="42.1702367" lon="14.673455"><ele>50.33333333333333</ele><time>2026-04-11T08:08:22.859Z</time></trkpt><trkpt lat="42.170165" lon="14.6734067"><ele>50.666666666666664</ele><time>2026-04-11T08:08:25.86Z</time></trkpt><trkpt lat="42.170115" lon="14.6733517"><ele>51.0</ele><time>2026-04-11T08:08:30.86Z</time></trkpt><trkpt lat="42.1701333" lon="14.67326"><ele>51.0</ele><time>2026-04-11T08:08:34.86Z</time></trkpt><trkpt lat="42.170165" lon="14.6731567"><ele>51.0</ele><time>2026-04-11T08:08:37.86Z</time></trkpt><trkpt lat="42.1702083" lon="14.6730467"><ele>51.0</ele><time>2026-04-11T08:08:40.859Z</time></trkpt><trkpt lat="42.1702433" lon="14.67296"><ele>51.0</ele><time>2026-04-11T08:08:42.86Z</time></trkpt><trkpt lat="42.1702783" lon="14.6728567"><ele>51.0</ele><time>2026-04-11T08:08:44.859Z</time></trkpt><trkpt lat="42.1703133" lon="14.67276"><ele>51.0</ele><time>2026-04-11T08:08:46.86Z</time></trkpt><trkpt lat="42.17031" lon="14.6726383"><ele>50.833333333333336</ele><time>2026-04-11T08:08:49.86Z</time></trkpt><trkpt lat="42.1702483" lon="14.6725433"><ele>50.66666666666667</ele><time>2026-04-11T08:08:52.86Z</time></trkpt><trkpt lat="42.1701817" lon="14.6724617"><ele>50.5</ele><time>2026-04-11T08:08:55.86Z</time></trkpt><trkpt lat="42.17011" lon="14.6723917"><ele>50.333333333333336</ele><time>2026-04-11T08:08:58.86Z</time></trkpt><trkpt lat="42.1700567" lon="14.6723417"><ele>50.16666666666667</ele><time>2026-04-11T08:09:00.86Z</time></trkpt><trkpt lat="42.16999" lon="14.6722633"><ele>50.0</ele><time>2026-04-11T08:09:03.86Z</time></trkpt><trkpt lat="42.1699367" lon="14.6722117"><ele>50.00000000000001</ele><time>2026-04-11T08:09:05.86Z</time></trkpt><trkpt lat="42.1698667" lon="14.67213"><ele>50.0</ele><time>2026-04-11T08:09:08.86Z</time></trkpt><trkpt lat="42.1698" lon="14.6720483"><ele>50.0</ele><time>2026-04-11T08:09:11.859Z</time></trkpt><trkpt lat="42.169735" lon="14.671975"><ele>50.0</ele><time>2026-04-11T08:09:14.859Z</time></trkpt><trkpt lat="42.169685" lon="14.6719233"><ele>50.00000000000001</ele><time>2026-04-11T08:09:16.86Z</time></trkpt><trkpt lat="42.169615" lon="14.6718533"><ele>50.0</ele><time>2026-04-11T08:09:19.859Z</time></trkpt><trkpt lat="42.16954" lon="14.6717817"><ele>50.66666666666667</ele><time>2026-04-11T08:09:22.859Z</time></trkpt><trkpt lat="42.169465" lon="14.6717117"><ele>51.333333333333336</ele><time>2026-04-11T08:09:25.86Z</time></trkpt><trkpt lat="42.1693967" lon="14.6716483"><ele>52.0</ele><time>2026-04-11T08:09:28.86Z</time></trkpt><trkpt lat="42.16932" lon="14.6716017"><ele>52.66666666666667</ele><time>2026-04-11T08:09:31.859Z</time></trkpt><trkpt lat="42.1692483" lon="14.671545"><ele>53.333333333333336</ele><time>2026-04-11T08:09:34.859Z</time></trkpt><trkpt lat="42.1691783" lon="14.6714983"><ele>54.0</ele><time>2026-04-11T08:09:37.859Z</time></trkpt><trkpt lat="42.1691083" lon="14.6714533"><ele>54.0</ele><time>2026-04-11T08:09:40.859Z</time></trkpt><trkpt lat="42.1690317" lon="14.6714133"><ele>54.0</ele><time>2026-04-11T08:09:43.86Z</time></trkpt><trkpt lat="42.168955" lon="14.6713633"><ele>54.0</ele><time>2026-04-11T08:09:46.86Z</time></trkpt><trkpt lat="42.1688783" lon="14.6713183"><ele>54.0</ele><time>2026-04-11T08:09:49.859Z</time></trkpt><trkpt lat="42.1688067" lon="14.6712783"><ele>54.0</ele><time>2026-04-11T08:09:52.86Z</time></trkpt><trkpt lat="42.1687567" lon="14.6712133"><ele>54.0</ele><time>2026-04-11T08:09:55.86Z</time></trkpt><trkpt lat="42.1687667" lon="14.6711117"><ele>54.666666666666664</ele><time>2026-04-11T08:09:58.86Z</time></trkpt><trkpt lat="42.1688117" lon="14.670995"><ele>55.33333333333333</ele><time>2026-04-11T08:10:01.86Z</time></trkpt><trkpt lat="42.1688467" lon="14.6709"><ele>56.0</ele><time>2026-04-11T08:10:03.86Z</time></trkpt><trkpt lat="42.1688833" lon="14.6707967"><ele>56.666666666666664</ele><time>2026-04-11T08:10:05.859Z</time></trkpt><trkpt lat="42.1689083" lon="14.6706783"><ele>57.33333333333333</ele><time>2026-04-11T08:10:07.859Z</time></trkpt><trkpt lat="42.1689267" lon="14.67055"><ele>58.0</ele><time>2026-04-11T08:10:09.859Z</time></trkpt><trkpt lat="42.1689517" lon="14.6704367"><ele>57.99999999999999</ele><time>2026-04-11T08:10:11.859Z</time></trkpt><trkpt lat="42.168975" lon="14.6703317"><ele>58.0</ele><time>2026-04-11T08:10:13.86Z</time></trkpt><trkpt lat="42.168995" lon="14.6702267"><ele>58.0</ele><time>2026-04-11T08:10:15.86Z</time></trkpt><trkpt lat="42.1690217" lon="14.6701283"><ele>58.0</ele><time>2026-04-11T08:10:17.86Z</time></trkpt><trkpt lat="42.169055" lon="14.6700317"><ele>57.99999999999999</ele><time>2026-04-11T08:10:19.859Z</time></trkpt><trkpt lat="42.1690867" lon="14.6699333"><ele>58.0</ele><time>2026-04-11T08:10:21.859Z</time></trkpt><trkpt lat="42.16912" lon="14.669825"><ele>57.666666666666664</ele><time>2026-04-11T08:10:23.86Z</time></trkpt><trkpt lat="42.16916" lon="14.6697317"><ele>57.33333333333333</ele><time>2026-04-11T08:10:25.859Z</time></trkpt><trkpt lat="42.169205" lon="14.66964"><ele>57.0</ele><time>2026-04-11T08:10:27.86Z</time></trkpt><trkpt lat="42.1692417" lon="14.6695333"><ele>56.66666666666667</ele><time>2026-04-11T08:10:29.859Z</time></trkpt><trkpt lat="42.1692767" lon="14.6694317"><ele>56.333333333333336</ele><time>2026-04-11T08:10:31.86Z</time></trkpt><trkpt lat="42.1693133" lon="14.669325"><ele>56.0</ele><time>2026-04-11T08:10:33.86Z</time></trkpt><trkpt lat="42.1693533" lon="14.6692183"><ele>56.00000000000001</ele><time>2026-04-11T08:10:35.86Z</time></trkpt><trkpt lat="42.1693933" lon="14.6691167"><ele>56.0</ele><time>2026-04-11T08:10:37.859Z</time></trkpt><trkpt lat="42.169425" lon="14.6690017"><ele>56.0</ele><time>2026-04-11T08:10:39.86Z</time></trkpt><trkpt lat="42.16945" lon="14.6688883"><ele>56.0</ele><time>2026-04-11T08:10:41.859Z</time></trkpt><trkpt lat="42.1694733" lon="14.6687767"><ele>56.00000000000001</ele><time>2026-04-11T08:10:43.859Z</time></trkpt><trkpt lat="42.1695017" lon="14.6686583"><ele>56.0</ele><time>2026-04-11T08:10:45.859Z</time></trkpt><trkpt lat="42.16953" lon="14.66854"><ele>56.50000000000001</ele><time>2026-04-11T08:10:47.86Z</time></trkpt><trkpt lat="42.1695667" lon="14.6684283"><ele>57.0</ele><time>2026-04-11T08:10:49.86Z</time></trkpt><trkpt lat="42.16961" lon="14.6683217"><ele>57.5</ele><time>2026-04-11T08:10:51.86Z</time></trkpt><trkpt lat="42.1696533" lon="14.6682183"><ele>58.0</ele><time>2026-04-11T08:10:53.86Z</time></trkpt><trkpt lat="42.1696933" lon="14.6681217"><ele>58.50000000000001</ele><time>2026-04-11T08:10:55.86Z</time></trkpt><trkpt lat="42.16973" lon="14.6680233"><ele>59.0</ele><time>2026-04-11T08:10:57.859Z</time></trkpt><trkpt lat="42.1697633" lon="14.66792"><ele>59.00000000000001</ele><time>2026-04-11T08:10:59.859Z</time></trkpt><trkpt lat="42.169795" lon="14.6678183"><ele>59.0</ele><time>2026-04-11T08:11:01.86Z</time></trkpt><trkpt lat="42.1698233" lon="14.667715"><ele>59.0</ele><time>2026-04-11T08:11:03.86Z</time></trkpt><trkpt lat="42.16985" lon="14.6676117"><ele>59.0</ele><time>2026-04-11T08:11:05.86Z</time></trkpt><trkpt lat="42.1698733" lon="14.6675083"><ele>59.00000000000001</ele><time>2026-04-11T08:11:07.859Z</time></trkpt><trkpt lat="42.1698967" lon="14.6674017"><ele>59.0</ele><time>2026-04-11T08:11:09.859Z</time></trkpt><trkpt lat="42.1699183" lon="14.6672917"><ele>59.00000000000001</ele><time>2026-04-11T08:11:11.86Z</time></trkpt><trkpt lat="42.16994" lon="14.6671883"><ele>59.0</ele><time>2026-04-11T08:11:13.86Z</time></trkpt><trkpt lat="42.1699583" lon="14.6670733"><ele>59.0</ele><time>2026-04-11T08:11:15.86Z</time></trkpt><trkpt lat="42.1699783" lon="14.6669583"><ele>59.0</ele><time>2026-04-11T08:11:17.859Z</time></trkpt><trkpt lat="42.170005" lon="14.6668517"><ele>59.00000000000001</ele><time>2026-04-11T08:11:19.86Z</time></trkpt><trkpt lat="42.1700267" lon="14.6667417"><ele>59.0</ele><time>2026-04-11T08:11:21.86Z</time></trkpt><trkpt lat="42.17006" lon="14.6666267"><ele>59.00000000000001</ele><time>2026-04-11T08:11:23.859Z</time></trkpt><trkpt lat="42.1700917" lon="14.6665167"><ele>59.0</ele><time>2026-04-11T08:11:25.86Z</time></trkpt><trkpt lat="42.1701217" lon="14.66641"><ele>59.0</ele><time>2026-04-11T08:11:27.859Z</time></trkpt><trkpt lat="42.170155" lon="14.6663167"><ele>59.0</ele><time>2026-04-11T08:11:29.86Z</time></trkpt><trkpt lat="42.1701817" lon="14.6662267"><ele>59.00000000000001</ele><time>2026-04-11T08:11:31.86Z</time></trkpt><trkpt lat="42.1702067" lon="14.6661433"><ele>59.0</ele><time>2026-04-11T08:11:33.859Z</time></trkpt><trkpt lat="42.1702367" lon="14.6660467"><ele>59.00000000000001</ele><time>2026-04-11T08:11:35.86Z</time></trkpt><trkpt lat="42.1702717" lon="14.6659433"><ele>59.0</ele><time>2026-04-11T08:11:37.86Z</time></trkpt><trkpt lat="42.1703033" lon="14.66584"><ele>59.0</ele><time>2026-04-11T08:11:39.86Z</time></trkpt><trkpt lat="42.1703383" lon="14.6657383"><ele>59.0</ele><time>2026-04-11T08:11:41.859Z</time></trkpt><trkpt lat="42.17037" lon="14.6656467"><ele>59.00000000000001</ele><time>2026-04-11T08:11:43.859Z</time></trkpt><trkpt lat="42.1704017" lon="14.665555"><ele>59.0</ele><time>2026-04-11T08:11:45.86Z</time></trkpt><trkpt lat="42.17044" lon="14.665465"><ele>59.0</ele><time>2026-04-11T08:11:47.86Z</time></trkpt><trkpt lat="42.170475" lon="14.6653617"><ele>59.00000000000001</ele><time>2026-04-11T08:11:49.859Z</time></trkpt><trkpt lat="42.17051" lon="14.665255"><ele>59.00000000000001</ele><time>2026-04-11T08:11:51.86Z</time></trkpt><trkpt lat="42.1705483" lon="14.6651517"><ele>59.0</ele><time>2026-04-11T08:11:53.86Z</time></trkpt><trkpt lat="42.1705933" lon="14.665035"><ele>59.0</ele><time>2026-04-11T08:11:55.86Z</time></trkpt><trkpt lat="42.1706467" lon="14.66492"><ele>59.2</ele><time>2026-04-11T08:11:57.86Z</time></trkpt><trkpt lat="42.1706867" lon="14.6648017"><ele>59.400000000000006</ele><time>2026-04-11T08:11:59.86Z</time></trkpt><trkpt lat="42.1707283" lon="14.6646717"><ele>59.6</ele><time>2026-04-11T08:12:01.86Z</time></trkpt><trkpt lat="42.1707767" lon="14.664535"><ele>59.8</ele><time>2026-04-11T08:12:03.86Z</time></trkpt><trkpt lat="42.1708317" lon="14.6643967"><ele>60.0</ele><time>2026-04-11T08:12:05.86Z</time></trkpt><trkpt lat="42.170885" lon="14.6642717"><ele>59.333333333333336</ele><time>2026-04-11T08:12:07.86Z</time></trkpt><trkpt lat="42.1709383" lon="14.66416"><ele>58.66666666666667</ele><time>2026-04-11T08:12:09.86Z</time></trkpt><trkpt lat="42.17099" lon="14.66406"><ele>58.0</ele><time>2026-04-11T08:12:11.859Z</time></trkpt><trkpt lat="42.1710383" lon="14.66398"><ele>57.333333333333336</ele><time>2026-04-11T08:12:13.86Z</time></trkpt><trkpt lat="42.1710817" lon="14.66389"><ele>56.66666666666667</ele><time>2026-04-11T08:12:15.859Z</time></trkpt><trkpt lat="42.1711317" lon="14.6638183"><ele>56.0</ele><time>2026-04-11T08:12:17.86Z</time></trkpt><trkpt lat="42.1711767" lon="14.66375"><ele>56.00000000000001</ele><time>2026-04-11T08:12:19.859Z</time></trkpt><trkpt lat="42.1712167" lon="14.6636783"><ele>56.0</ele><time>2026-04-11T08:12:21.859Z</time></trkpt><trkpt lat="42.171265" lon="14.6636167"><ele>56.0</ele><time>2026-04-11T08:12:23.86Z</time></trkpt><trkpt lat="42.1713283" lon="14.6635283"><ele>56.0</ele><time>2026-04-11T08:12:26.86Z</time></trkpt><trkpt lat="42.1713717" lon="14.6634617"><ele>56.00000000000001</ele><time>2026-04-11T08:12:28.859Z</time></trkpt><trkpt lat="42.1714317" lon="14.6633667"><ele>56.0</ele><time>2026-04-11T08:12:31.86Z</time></trkpt><trkpt lat="42.1714967" lon="14.66328"><ele>56.66666666666667</ele><time>2026-04-11T08:12:34.86Z</time></trkpt><trkpt lat="42.1715583" lon="14.663195"><ele>57.333333333333336</ele><time>2026-04-11T08:12:37.859Z</time></trkpt><trkpt lat="42.1716183" lon="14.6631083"><ele>58.0</ele><time>2026-04-11T08:12:40.859Z</time></trkpt><trkpt lat="42.17168" lon="14.663025"><ele>58.66666666666667</ele><time>2026-04-11T08:12:43.859Z</time></trkpt><trkpt lat="42.1717383" lon="14.662945"><ele>59.333333333333336</ele><time>2026-04-11T08:12:46.86Z</time></trkpt><trkpt lat="42.1717983" lon="14.6628883"><ele>60.0</ele><time>2026-04-11T08:12:49.859Z</time></trkpt><trkpt lat="42.1718667" lon="14.6628583"><ele>60.0</ele><time>2026-04-11T08:12:51.859Z</time></trkpt><trkpt lat="42.171935" lon="14.662825"><ele>60.0</ele><time>2026-04-11T08:12:53.859Z</time></trkpt><trkpt lat="42.172005" lon="14.6627833"><ele>60.0</ele><time>2026-04-11T08:12:55.859Z</time></trkpt><trkpt lat="42.1720717" lon="14.66274"><ele>60.0</ele><time>2026-04-11T08:12:57.86Z</time></trkpt><trkpt lat="42.1721317" lon="14.6627017"><ele>60.0</ele><time>2026-04-11T08:12:59.859Z</time></trkpt><trkpt lat="42.1722167" lon="14.6626417"><ele>60.0</ele><time>2026-04-11T08:13:02.86Z</time></trkpt><trkpt lat="42.17228" lon="14.6625917"><ele>60.0</ele><time>2026-04-11T08:13:04.86Z</time></trkpt><trkpt lat="42.1723583" lon="14.6625283"><ele>60.0</ele><time>2026-04-11T08:13:07.859Z</time></trkpt><trkpt lat="42.1724267" lon="14.66243"><ele>60.0</ele><time>2026-04-11T08:13:10.86Z</time></trkpt><trkpt lat="42.17247" lon="14.6623533"><ele>60.0</ele><time>2026-04-11T08:13:12.859Z</time></trkpt><trkpt lat="42.1725167" lon="14.6622917"><ele>60.0</ele><time>2026-04-11T08:13:14.859Z</time></trkpt><trkpt lat="42.1725667" lon="14.662205"><ele>60.0</ele><time>2026-04-11T08:13:17.859Z</time></trkpt><trkpt lat="42.1726133" lon="14.6621333"><ele>60.0</ele><time>2026-04-11T08:13:20.86Z</time></trkpt><trkpt lat="42.172675" lon="14.66208"><ele>60.0</ele><time>2026-04-11T08:13:23.859Z</time></trkpt><trkpt lat="42.1727367" lon="14.662025"><ele>60.0</ele><time>2026-04-11T08:13:26.86Z</time></trkpt><trkpt lat="42.1727967" lon="14.6619667"><ele>60.0</ele><time>2026-04-11T08:13:29.86Z</time></trkpt><trkpt lat="42.1728467" lon="14.6619133"><ele>60.0</ele><time>2026-04-11T08:13:31.859Z</time></trkpt><trkpt lat="42.1729167" lon="14.6618333"><ele>60.0</ele><time>2026-04-11T08:13:34.86Z</time></trkpt><trkpt lat="42.17297" lon="14.6617767"><ele>60.0</ele><time>2026-04-11T08:13:36.859Z</time></trkpt><trkpt lat="42.17303" lon="14.66171"><ele>59.833333333333336</ele><time>2026-04-11T08:13:38.86Z</time></trkpt><trkpt lat="42.1730983" lon="14.6616333"><ele>59.66666666666667</ele><time>2026-04-11T08:13:40.859Z</time></trkpt><trkpt lat="42.1731683" lon="14.6615583"><ele>59.5</ele><time>2026-04-11T08:13:42.859Z</time></trkpt><trkpt lat="42.173225" lon="14.6615017"><ele>59.333333333333336</ele><time>2026-04-11T08:13:44.86Z</time></trkpt><trkpt lat="42.173275" lon="14.661445"><ele>59.16666666666667</ele><time>2026-04-11T08:13:46.86Z</time></trkpt><trkpt lat="42.1733233" lon="14.66137"><ele>59.0</ele><time>2026-04-11T08:13:48.86Z</time></trkpt><trkpt lat="42.173375" lon="14.6613083"><ele>58.857142857142854</ele><time>2026-04-11T08:13:50.86Z</time></trkpt><trkpt lat="42.1734383" lon="14.661235"><ele>58.71428571428572</ele><time>2026-04-11T08:13:52.86Z</time></trkpt><trkpt lat="42.173485" lon="14.661165"><ele>58.57142857142858</ele><time>2026-04-11T08:13:54.86Z</time></trkpt><trkpt lat="42.1735367" lon="14.6611017"><ele>58.42857142857143</ele><time>2026-04-11T08:13:56.86Z</time></trkpt><trkpt lat="42.1735933" lon="14.66103"><ele>58.28571428571429</ele><time>2026-04-11T08:13:58.859Z</time></trkpt><trkpt lat="42.173645" lon="14.6609583"><ele>58.14285714285715</ele><time>2026-04-11T08:14:00.859Z</time></trkpt><trkpt lat="42.1736967" lon="14.6608917"><ele>58.00000000000001</ele><time>2026-04-11T08:14:02.86Z</time></trkpt><trkpt lat="42.1737467" lon="14.6608333"><ele>58.00000000000001</ele><time>2026-04-11T08:14:04.859Z</time></trkpt><trkpt lat="42.1738" lon="14.6607667"><ele>58.0</ele><time>2026-04-11T08:14:06.86Z</time></trkpt><trkpt lat="42.1738617" lon="14.6606933"><ele>58.00000000000001</ele><time>2026-04-11T08:14:08.86Z</time></trkpt><trkpt lat="42.1739267" lon="14.6606217"><ele>58.00000000000001</ele><time>2026-04-11T08:14:10.86Z</time></trkpt><trkpt lat="42.1739867" lon="14.6605683"><ele>58.0</ele><time>2026-04-11T08:14:12.859Z</time></trkpt><trkpt lat="42.1740517" lon="14.66058"><ele>58.00000000000001</ele><time>2026-04-11T08:14:14.86Z</time></trkpt><trkpt lat="42.1741217" lon="14.6605967"><ele>58.00000000000001</ele><time>2026-04-11T08:14:16.86Z</time></trkpt><trkpt lat="42.1741933" lon="14.6606083"><ele>57.57142857142858</ele><time>2026-04-11T08:14:18.86Z</time></trkpt><trkpt lat="42.1742667" lon="14.6606233"><ele>57.142857142857146</ele><time>2026-04-11T08:14:20.86Z</time></trkpt><trkpt lat="42.1743383" lon="14.660635"><ele>56.714285714285715</ele><time>2026-04-11T08:14:22.86Z</time></trkpt><trkpt lat="42.1744033" lon="14.6606633"><ele>56.28571428571429</ele><time>2026-04-11T08:14:24.86Z</time></trkpt><trkpt lat="42.1744667" lon="14.660685"><ele>55.85714285714286</ele><time>2026-04-11T08:14:26.859Z</time></trkpt><trkpt lat="42.1745383" lon="14.66069"><ele>55.42857142857142</ele><time>2026-04-11T08:14:28.859Z</time></trkpt><trkpt lat="42.1746067" lon="14.66071"><ele>55.0</ele><time>2026-04-11T08:14:30.859Z</time></trkpt><trkpt lat="42.1746817" lon="14.6607267"><ele>54.99999999999999</ele><time>2026-04-11T08:14:33.86Z</time></trkpt><trkpt lat="42.17475" lon="14.6607567"><ele>55.0</ele><time>2026-04-11T08:16:07.858Z</time></trkpt><trkpt lat="42.17481" lon="14.6608233"><ele>55.0</ele><time>2026-04-11T08:16:10.859Z</time></trkpt><trkpt lat="42.17488" lon="14.6608367"><ele>55.0</ele><time>2026-04-11T08:16:12.859Z</time></trkpt><trkpt lat="42.1749517" lon="14.6608417"><ele>55.0</ele><time>2026-04-11T08:16:14.858Z</time></trkpt><trkpt lat="42.175025" lon="14.66085"><ele>54.99999999999999</ele><time>2026-04-11T08:16:16.858Z</time></trkpt><trkpt lat="42.1750933" lon="14.66086"><ele>55.0</ele><time>2026-04-11T08:16:18.858Z</time></trkpt><trkpt lat="42.1751667" lon="14.6608633"><ele>54.99999999999999</ele><time>2026-04-11T08:16:20.858Z</time></trkpt><trkpt lat="42.17523" lon="14.66086"><ele>55.0</ele><time>2026-04-11T08:16:22.859Z</time></trkpt><trkpt lat="42.1753267" lon="14.66086"><ele>55.0</ele><time>2026-04-11T08:16:25.858Z</time></trkpt><trkpt lat="42.1754" lon="14.66086"><ele>55.0</ele><time>2026-04-11T08:16:27.858Z</time></trkpt><trkpt lat="42.1754717" lon="14.6608633"><ele>54.99999999999999</ele><time>2026-04-11T08:16:29.858Z</time></trkpt><trkpt lat="42.1755483" lon="14.6608667"><ele>55.0</ele><time>2026-04-11T08:16:31.859Z</time></trkpt><trkpt lat="42.1756233" lon="14.66086"><ele>54.99999999999999</ele><time>2026-04-11T08:16:33.859Z</time></trkpt><trkpt lat="42.1757017" lon="14.6608317"><ele>55.0</ele><time>2026-04-11T08:16:35.858Z</time></trkpt><trkpt lat="42.1757733" lon="14.6608183"><ele>55.0</ele><time>2026-04-11T08:16:37.859Z</time></trkpt><trkpt lat="42.1758417" lon="14.6607967"><ele>55.0</ele><time>2026-04-11T08:16:39.859Z</time></trkpt><trkpt lat="42.17591" lon="14.6607817"><ele>55.0</ele><time>2026-04-11T08:16:41.859Z</time></trkpt><trkpt lat="42.17598" lon="14.660775"><ele>54.99999999999999</ele><time>2026-04-11T08:16:43.859Z</time></trkpt><trkpt lat="42.1760533" lon="14.6607533"><ele>55.0</ele><time>2026-04-11T08:16:45.858Z</time></trkpt><trkpt lat="42.1761233" lon="14.6607283"><ele>54.99999999999999</ele><time>2026-04-11T08:16:47.859Z</time></trkpt><trkpt lat="42.1761933" lon="14.6607017"><ele>55.0</ele><time>2026-04-11T08:16:49.858Z</time></trkpt><trkpt lat="42.176255" lon="14.660675"><ele>55.0</ele><time>2026-04-11T08:16:51.859Z</time></trkpt><trkpt lat="42.1763433" lon="14.6606417"><ele>55.0</ele><time>2026-04-11T08:16:54.859Z</time></trkpt><trkpt lat="42.1764117" lon="14.66062"><ele>55.0</ele><time>2026-04-11T08:16:56.859Z</time></trkpt><trkpt lat="42.1764833" lon="14.6605967"><ele>54.99999999999999</ele><time>2026-04-11T08:16:58.858Z</time></trkpt><trkpt lat="42.1765567" lon="14.6605767"><ele>55.0</ele><time>2026-04-11T08:17:00.859Z</time></trkpt><trkpt lat="42.1766167" lon="14.66055"><ele>54.99999999999999</ele><time>2026-04-11T08:17:02.858Z</time></trkpt><trkpt lat="42.1766883" lon="14.66052"><ele>55.0</ele><time>2026-04-11T08:17:04.859Z</time></trkpt><trkpt lat="42.176755" lon="14.6604867"><ele>55.0</ele><time>2026-04-11T08:17:06.859Z</time></trkpt><trkpt lat="42.17682" lon="14.6604483"><ele>55.0</ele><time>2026-04-11T08:17:08.858Z</time></trkpt><trkpt lat="42.17689" lon="14.6604083"><ele>55.0</ele><time>2026-04-11T08:17:10.859Z</time></trkpt><trkpt lat="42.1769533" lon="14.6603733"><ele>54.99999999999999</ele><time>2026-04-11T08:17:12.859Z</time></trkpt><trkpt lat="42.1770217" lon="14.660325"><ele>55.0</ele><time>2026-04-11T08:17:14.859Z</time></trkpt><trkpt lat="42.1771" lon="14.660275"><ele>54.99999999999999</ele><time>2026-04-11T08:17:16.858Z</time></trkpt><trkpt lat="42.1771683" lon="14.6602417"><ele>55.0</ele><time>2026-04-11T08:17:18.858Z</time></trkpt><trkpt lat="42.1772367" lon="14.6602067"><ele>55.0</ele><time>2026-04-11T08:17:20.859Z</time></trkpt><trkpt lat="42.177305" lon="14.6601733"><ele>55.0</ele><time>2026-04-11T08:17:22.858Z</time></trkpt><trkpt lat="42.17737" lon="14.6601267"><ele>55.0</ele><time>2026-04-11T08:17:24.859Z</time></trkpt><trkpt lat="42.1774333" lon="14.6601"><ele>54.99999999999999</ele><time>2026-04-11T08:17:26.859Z</time></trkpt><trkpt lat="42.1775067" lon="14.660065"><ele>55.0</ele><time>2026-04-11T08:17:28.859Z</time></trkpt><trkpt lat="42.177575" lon="14.6600317"><ele>54.71428571428571</ele><time>2026-04-11T08:17:30.858Z</time></trkpt><trkpt lat="42.1776417" lon="14.659985"><ele>54.42857142857143</ele><time>2026-04-11T08:17:32.858Z</time></trkpt><trkpt lat="42.17771" lon="14.659945"><ele>54.14285714285714</ele><time>2026-04-11T08:17:34.858Z</time></trkpt><trkpt lat="42.1777767" lon="14.6599083"><ele>53.857142857142854</ele><time>2026-04-11T08:17:36.858Z</time></trkpt><trkpt lat="42.1778483" lon="14.659865"><ele>53.57142857142857</ele><time>2026-04-11T08:17:38.859Z</time></trkpt><trkpt lat="42.177915" lon="14.6598283"><ele>53.285714285714285</ele><time>2026-04-11T08:17:40.859Z</time></trkpt><trkpt lat="42.17798" lon="14.659795"><ele>53.0</ele><time>2026-04-11T08:17:42.858Z</time></trkpt><trkpt lat="42.1780433" lon="14.6597583"><ele>53.00000000000001</ele><time>2026-04-11T08:17:44.859Z</time></trkpt><trkpt lat="42.1781" lon="14.6597067"><ele>53.0</ele><time>2026-04-11T08:17:46.859Z</time></trkpt><trkpt lat="42.1781717" lon="14.6596567"><ele>53.0</ele><time>2026-04-11T08:17:49.859Z</time></trkpt><trkpt lat="42.1782633" lon="14.6596233"><ele>53.0</ele><time>2026-04-11T08:17:52.859Z</time></trkpt><trkpt lat="42.1783233" lon="14.65959"><ele>53.00000000000001</ele><time>2026-04-11T08:17:54.858Z</time></trkpt><trkpt lat="42.1783883" lon="14.6595617"><ele>53.0</ele><time>2026-04-11T08:17:56.859Z</time></trkpt><trkpt lat="42.178475" lon="14.6595183"><ele>52.85714285714286</ele><time>2026-04-11T08:17:59.858Z</time></trkpt><trkpt lat="42.1785333" lon="14.6594833"><ele>52.71428571428571</ele><time>2026-04-11T08:18:01.858Z</time></trkpt><trkpt lat="42.1785983" lon="14.659455"><ele>52.57142857142857</ele><time>2026-04-11T08:18:03.859Z</time></trkpt><trkpt lat="42.1786633" lon="14.6594283"><ele>52.42857142857143</ele><time>2026-04-11T08:18:05.859Z</time></trkpt><trkpt lat="42.1787267" lon="14.6593933"><ele>52.28571428571429</ele><time>2026-04-11T08:18:07.858Z</time></trkpt><trkpt lat="42.1787883" lon="14.6593583"><ele>52.14285714285714</ele><time>2026-04-11T08:18:09.858Z</time></trkpt><trkpt lat="42.1788533" lon="14.65932"><ele>52.0</ele><time>2026-04-11T08:18:11.859Z</time></trkpt><trkpt lat="42.17892" lon="14.6592867"><ele>51.99999999999999</ele><time>2026-04-11T08:18:13.859Z</time></trkpt><trkpt lat="42.17898" lon="14.659255"><ele>52.0</ele><time>2026-04-11T08:18:15.858Z</time></trkpt><trkpt lat="42.1790417" lon="14.65922"><ele>52.0</ele><time>2026-04-11T08:18:17.859Z</time></trkpt><trkpt lat="42.1791" lon="14.6591817"><ele>52.0</ele><time>2026-04-11T08:18:19.858Z</time></trkpt><trkpt lat="42.1791733" lon="14.6591283"><ele>51.99999999999999</ele><time>2026-04-11T08:18:22.859Z</time></trkpt><trkpt lat="42.1792283" lon="14.659205"><ele>52.0</ele><time>2026-04-11T08:18:28.859Z</time></trkpt><trkpt lat="42.17927" lon="14.6593167"><ele>51.99999999999999</ele><time>2026-04-11T08:18:31.859Z</time></trkpt><trkpt lat="42.1793017" lon="14.6594083"><ele>52.0</ele><time>2026-04-11T08:18:33.859Z</time></trkpt><trkpt lat="42.1793367" lon="14.65951"><ele>52.0</ele><time>2026-04-11T08:18:35.859Z</time></trkpt><trkpt lat="42.1793783" lon="14.659615"><ele>52.0</ele><time>2026-04-11T08:18:37.858Z</time></trkpt><trkpt lat="42.1794433" lon="14.6596883"><ele>51.99999999999999</ele><time>2026-04-11T08:18:39.859Z</time></trkpt><trkpt lat="42.1795167" lon="14.6596917"><ele>52.0</ele><time>2026-04-11T08:18:41.859Z</time></trkpt><trkpt lat="42.1795733" lon="14.6596283"><ele>51.99999999999999</ele><time>2026-04-11T08:18:43.859Z</time></trkpt><trkpt lat="42.1796233" lon="14.6595483"><ele>52.0</ele><time>2026-04-11T08:18:45.859Z</time></trkpt><trkpt lat="42.1796817" lon="14.6594517"><ele>52.0</ele><time>2026-04-11T08:18:47.859Z</time></trkpt><trkpt lat="42.1797283" lon="14.6593733"><ele>52.0</ele><time>2026-04-11T08:18:49.858Z</time></trkpt><trkpt lat="42.1797717" lon="14.6593067"><ele>51.99999999999999</ele><time>2026-04-11T08:18:51.859Z</time></trkpt><trkpt lat="42.179815" lon="14.6592267"><ele>52.0</ele><time>2026-04-11T08:18:53.859Z</time></trkpt><trkpt lat="42.1798533" lon="14.65914"><ele>52.166666666666664</ele><time>2026-04-11T08:18:55.858Z</time></trkpt><trkpt lat="42.179905" lon="14.6590533"><ele>52.33333333333333</ele><time>2026-04-11T08:18:57.859Z</time></trkpt><trkpt lat="42.17996" lon="14.6589783"><ele>52.5</ele><time>2026-04-11T08:18:59.859Z</time></trkpt><trkpt lat="42.180015" lon="14.6589033"><ele>52.66666666666667</ele><time>2026-04-11T08:19:01.859Z</time></trkpt><trkpt lat="42.1800667" lon="14.6588083"><ele>52.833333333333336</ele><time>2026-04-11T08:19:03.859Z</time></trkpt><trkpt lat="42.1801183" lon="14.6587283"><ele>53.0</ele><time>2026-04-11T08:19:05.859Z</time></trkpt><trkpt lat="42.1801667" lon="14.6586483"><ele>53.16666666666667</ele><time>2026-04-11T08:19:07.858Z</time></trkpt><trkpt lat="42.180215" lon="14.658575"><ele>53.333333333333336</ele><time>2026-04-11T08:19:09.858Z</time></trkpt><trkpt lat="42.1802633" lon="14.658505"><ele>53.5</ele><time>2026-04-11T08:19:11.859Z</time></trkpt><trkpt lat="42.180315" lon="14.6584117"><ele>53.66666666666667</ele><time>2026-04-11T08:19:13.858Z</time></trkpt><trkpt lat="42.1803767" lon="14.6583317"><ele>53.833333333333336</ele><time>2026-04-11T08:19:15.859Z</time></trkpt><trkpt lat="42.1804383" lon="14.6582533"><ele>54.0</ele><time>2026-04-11T08:19:17.858Z</time></trkpt><trkpt lat="42.180505" lon="14.6581883"><ele>54.0</ele><time>2026-04-11T08:19:19.859Z</time></trkpt><trkpt lat="42.1805717" lon="14.6581267"><ele>54.0</ele><time>2026-04-11T08:19:21.859Z</time></trkpt><trkpt lat="42.1806417" lon="14.6580667"><ele>54.0</ele><time>2026-04-11T08:19:23.859Z</time></trkpt><trkpt lat="42.18071" lon="14.657985"><ele>54.0</ele><time>2026-04-11T08:19:25.859Z</time></trkpt><trkpt lat="42.1807883" lon="14.6579133"><ele>54.0</ele><time>2026-04-11T08:19:27.859Z</time></trkpt><trkpt lat="42.18086" lon="14.657845"><ele>54.0</ele><time>2026-04-11T08:19:29.858Z</time></trkpt><trkpt lat="42.18093" lon="14.6577833"><ele>54.166666666666664</ele><time>2026-04-11T08:19:31.859Z</time></trkpt><trkpt lat="42.1809967" lon="14.6577167"><ele>54.33333333333333</ele><time>2026-04-11T08:19:33.859Z</time></trkpt><trkpt lat="42.1810667" lon="14.657645"><ele>54.5</ele><time>2026-04-11T08:19:35.859Z</time></trkpt><trkpt lat="42.1811367" lon="14.6575717"><ele>54.666666666666664</ele><time>2026-04-11T08:19:37.859Z</time></trkpt><trkpt lat="42.1812067" lon="14.6574967"><ele>54.83333333333333</ele><time>2026-04-11T08:19:39.858Z</time></trkpt><trkpt lat="42.1812767" lon="14.6574233"><ele>55.0</ele><time>2026-04-11T08:19:41.858Z</time></trkpt><trkpt lat="42.1813383" lon="14.6573517"><ele>54.99999999999999</ele><time>2026-04-11T08:19:43.859Z</time></trkpt><trkpt lat="42.1813967" lon="14.6572883"><ele>55.0</ele><time>2026-04-11T08:19:45.859Z</time></trkpt><trkpt lat="42.181455" lon="14.6572233"><ele>55.0</ele><time>2026-04-11T08:19:47.859Z</time></trkpt><trkpt lat="42.18151" lon="14.6571617"><ele>55.0</ele><time>2026-04-11T08:19:49.859Z</time></trkpt><trkpt lat="42.181565" lon="14.6571033"><ele>55.0</ele><time>2026-04-11T08:19:51.859Z</time></trkpt><trkpt lat="42.181625" lon="14.6570533"><ele>54.99999999999999</ele><time>2026-04-11T08:19:53.859Z</time></trkpt><trkpt lat="42.1816767" lon="14.6569967"><ele>55.0</ele><time>2026-04-11T08:19:55.859Z</time></trkpt><trkpt lat="42.1817283" lon="14.6569333"><ele>54.99999999999999</ele><time>2026-04-11T08:19:57.858Z</time></trkpt><trkpt lat="42.1817833" lon="14.6568767"><ele>55.0</ele><time>2026-04-11T08:19:59.858Z</time></trkpt><trkpt lat="42.181845" lon="14.65682"><ele>55.0</ele><time>2026-04-11T08:20:01.859Z</time></trkpt><trkpt lat="42.1819133" lon="14.656745"><ele>55.0</ele><time>2026-04-11T08:20:03.859Z</time></trkpt><trkpt lat="42.181985" lon="14.65666"><ele>54.99999999999999</ele><time>2026-04-11T08:20:05.859Z</time></trkpt><trkpt lat="42.182055" lon="14.6565783"><ele>55.0</ele><time>2026-04-11T08:20:07.859Z</time></trkpt><trkpt lat="42.1821267" lon="14.6564983"><ele>54.99999999999999</ele><time>2026-04-11T08:20:09.859Z</time></trkpt><trkpt lat="42.1822017" lon="14.6564183"><ele>55.0</ele><time>2026-04-11T08:20:11.858Z</time></trkpt><trkpt lat="42.1822733" lon="14.6563367"><ele>55.0</ele><time>2026-04-11T08:20:13.858Z</time></trkpt><trkpt lat="42.1823433" lon="14.6562617"><ele>55.0</ele><time>2026-04-11T08:20:15.859Z</time></trkpt><trkpt lat="42.18241" lon="14.6561883"><ele>54.99999999999999</ele><time>2026-04-11T08:20:17.858Z</time></trkpt><trkpt lat="42.1824733" lon="14.65612"><ele>55.0</ele><time>2026-04-11T08:20:19.859Z</time></trkpt><trkpt lat="42.1825417" lon="14.6560533"><ele>54.83333333333333</ele><time>2026-04-11T08:20:21.858Z</time></trkpt><trkpt lat="42.1826117" lon="14.6559883"><ele>54.666666666666664</ele><time>2026-04-11T08:20:23.859Z</time></trkpt><trkpt lat="42.1826833" lon="14.65593"><ele>54.5</ele><time>2026-04-11T08:20:25.858Z</time></trkpt><trkpt lat="42.18275" lon="14.6558783"><ele>54.33333333333333</ele><time>2026-04-11T08:20:27.858Z</time></trkpt><trkpt lat="42.1828183" lon="14.6558217"><ele>54.166666666666664</ele><time>2026-04-11T08:20:29.859Z</time></trkpt><trkpt lat="42.18288" lon="14.6557567"><ele>54.0</ele><time>2026-04-11T08:20:31.859Z</time></trkpt><trkpt lat="42.18295" lon="14.6557017"><ele>54.0</ele><time>2026-04-11T08:20:33.859Z</time></trkpt><trkpt lat="42.183005" lon="14.6556533"><ele>54.0</ele><time>2026-04-11T08:20:35.858Z</time></trkpt><trkpt lat="42.183065" lon="14.6556033"><ele>54.0</ele><time>2026-04-11T08:20:37.859Z</time></trkpt><trkpt lat="42.1831317" lon="14.6555467"><ele>54.0</ele><time>2026-04-11T08:20:39.858Z</time></trkpt><trkpt lat="42.1832033" lon="14.65548"><ele>54.0</ele><time>2026-04-11T08:20:41.858Z</time></trkpt><trkpt lat="42.1832833" lon="14.655415"><ele>54.0</ele><time>2026-04-11T08:20:43.859Z</time></trkpt><trkpt lat="42.1833633" lon="14.6553483"><ele>53.833333333333336</ele><time>2026-04-11T08:20:45.859Z</time></trkpt><trkpt lat="42.183435" lon="14.6552817"><ele>53.66666666666667</ele><time>2026-04-11T08:20:47.859Z</time></trkpt><trkpt lat="42.1835067" lon="14.6552283"><ele>53.5</ele><time>2026-04-11T08:20:49.859Z</time></trkpt><trkpt lat="42.18358" lon="14.655175"><ele>53.333333333333336</ele><time>2026-04-11T08:20:51.859Z</time></trkpt><trkpt lat="42.1836617" lon="14.6551183"><ele>53.16666666666667</ele><time>2026-04-11T08:20:53.859Z</time></trkpt><trkpt lat="42.1837417" lon="14.6550633"><ele>53.0</ele><time>2026-04-11T08:20:55.859Z</time></trkpt><trkpt lat="42.1838183" lon="14.655005"><ele>53.0</ele><time>2026-04-11T08:20:57.859Z</time></trkpt><trkpt lat="42.1838867" lon="14.6549383"><ele>53.0</ele><time>2026-04-11T08:20:59.858Z</time></trkpt><trkpt lat="42.1839667" lon="14.6548783"><ele>53.0</ele><time>2026-04-11T08:21:01.859Z</time></trkpt><trkpt lat="42.1840433" lon="14.65481"><ele>53.0</ele><time>2026-04-11T08:21:03.858Z</time></trkpt><trkpt lat="42.1841167" lon="14.654745"><ele>53.0</ele><time>2026-04-11T08:21:05.858Z</time></trkpt><trkpt lat="42.1841933" lon="14.6546667"><ele>53.16666666666667</ele><time>2026-04-11T08:21:07.859Z</time></trkpt><trkpt lat="42.1842667" lon="14.6546083"><ele>53.333333333333336</ele><time>2026-04-11T08:21:09.859Z</time></trkpt><trkpt lat="42.184335" lon="14.6545467"><ele>53.5</ele><time>2026-04-11T08:21:11.858Z</time></trkpt><trkpt lat="42.1844067" lon="14.6544883"><ele>53.66666666666667</ele><time>2026-04-11T08:21:13.859Z</time></trkpt><trkpt lat="42.184475" lon="14.6544317"><ele>53.833333333333336</ele><time>2026-04-11T08:21:15.858Z</time></trkpt><trkpt lat="42.1845517" lon="14.65436"><ele>54.0</ele><time>2026-04-11T08:21:17.858Z</time></trkpt><trkpt lat="42.1846283" lon="14.654295"><ele>54.166666666666664</ele><time>2026-04-11T08:21:19.858Z</time></trkpt><trkpt lat="42.1847033" lon="14.65423"><ele>54.33333333333333</ele><time>2026-04-11T08:21:21.859Z</time></trkpt><trkpt lat="42.184775" lon="14.65417"><ele>54.5</ele><time>2026-04-11T08:21:23.858Z</time></trkpt><trkpt lat="42.1848483" lon="14.6541117"><ele>54.666666666666664</ele><time>2026-04-11T08:21:25.859Z</time></trkpt><trkpt lat="42.1849217" lon="14.6540517"><ele>54.83333333333333</ele><time>2026-04-11T08:21:27.859Z</time></trkpt><trkpt lat="42.184995" lon="14.6539917"><ele>55.0</ele><time>2026-04-11T08:21:29.858Z</time></trkpt><trkpt lat="42.1850633" lon="14.6539333"><ele>54.83333333333333</ele><time>2026-04-11T08:21:31.859Z</time></trkpt><trkpt lat="42.1851233" lon="14.653885"><ele>54.666666666666664</ele><time>2026-04-11T08:21:33.858Z</time></trkpt><trkpt lat="42.1851917" lon="14.6538267"><ele>54.5</ele><time>2026-04-11T08:21:35.859Z</time></trkpt><trkpt lat="42.1852633" lon="14.6537683"><ele>54.33333333333333</ele><time>2026-04-11T08:21:37.858Z</time></trkpt><trkpt lat="42.18533" lon="14.65371"><ele>54.166666666666664</ele><time>2026-04-11T08:21:39.859Z</time></trkpt><trkpt lat="42.1853933" lon="14.6536483"><ele>54.0</ele><time>2026-04-11T08:21:41.858Z</time></trkpt><trkpt lat="42.18546" lon="14.6535983"><ele>54.0</ele><time>2026-04-11T08:21:43.859Z</time></trkpt><trkpt lat="42.1855317" lon="14.6535467"><ele>54.0</ele><time>2026-04-11T08:21:45.859Z</time></trkpt><trkpt lat="42.1856067" lon="14.6534917"><ele>54.0</ele><time>2026-04-11T08:21:47.859Z</time></trkpt><trkpt lat="42.185685" lon="14.6534417"><ele>54.0</ele><time>2026-04-11T08:21:49.859Z</time></trkpt><trkpt lat="42.1857583" lon="14.653375"><ele>54.0</ele><time>2026-04-11T08:21:51.858Z</time></trkpt><trkpt lat="42.185815" lon="14.6533067"><ele>54.0</ele><time>2026-04-11T08:21:53.858Z</time></trkpt><trkpt lat="42.1858667" lon="14.6532317"><ele>54.0</ele><time>2026-04-11T08:21:55.858Z</time></trkpt><trkpt lat="42.1859083" lon="14.653165"><ele>54.0</ele><time>2026-04-11T08:21:57.858Z</time></trkpt><trkpt lat="42.1859683" lon="14.6530783"><ele>54.0</ele><time>2026-04-11T08:22:00.859Z</time></trkpt><trkpt lat="42.1860333" lon="14.6531133"><ele>54.0</ele><time>2026-04-11T08:22:03.859Z</time></trkpt><trkpt lat="42.1860583" lon="14.6531917"><ele>54.0</ele><time>2026-04-11T08:22:05.858Z</time></trkpt><trkpt lat="42.186085" lon="14.6532867"><ele>54.0</ele><time>2026-04-11T08:22:07.859Z</time></trkpt><trkpt lat="42.1861117" lon="14.6533933"><ele>54.0</ele><time>2026-04-11T08:22:09.859Z</time></trkpt><trkpt lat="42.186145" lon="14.6534983"><ele>54.0</ele><time>2026-04-11T08:22:11.858Z</time></trkpt><trkpt lat="42.18618" lon="14.6536"><ele>54.0</ele><time>2026-04-11T08:22:13.859Z</time></trkpt><trkpt lat="42.1862183" lon="14.6537017"><ele>54.0</ele><time>2026-04-11T08:22:15.859Z</time></trkpt><trkpt lat="42.1862617" lon="14.6538"><ele>54.0</ele><time>2026-04-11T08:22:17.858Z</time></trkpt><trkpt lat="42.186305" lon="14.6539"><ele>54.0</ele><time>2026-04-11T08:22:19.859Z</time></trkpt><trkpt lat="42.186345" lon="14.65399"><ele>54.0</ele><time>2026-04-11T08:22:21.859Z</time></trkpt><trkpt lat="42.1863883" lon="14.65408"><ele>53.857142857142854</ele><time>2026-04-11T08:22:23.859Z</time></trkpt><trkpt lat="42.1864267" lon="14.6541667"><ele>53.71428571428571</ele><time>2026-04-11T08:22:25.859Z</time></trkpt><trkpt lat="42.186465" lon="14.654245"><ele>53.57142857142857</ele><time>2026-04-11T08:22:27.859Z</time></trkpt><trkpt lat="42.1865017" lon="14.654325"><ele>53.42857142857143</ele><time>2026-04-11T08:22:29.859Z</time></trkpt><trkpt lat="42.18654" lon="14.6544"><ele>53.285714285714285</ele><time>2026-04-11T08:22:31.859Z</time></trkpt><trkpt lat="42.186575" lon="14.6544767"><ele>53.142857142857146</ele><time>2026-04-11T08:22:33.858Z</time></trkpt><trkpt lat="42.1866133" lon="14.6545583"><ele>53.0</ele><time>2026-04-11T08:22:35.859Z</time></trkpt><trkpt lat="42.186655" lon="14.6546467"><ele>52.599999999999994</ele><time>2026-04-11T08:22:37.859Z</time></trkpt><trkpt lat="42.1866983" lon="14.6547333"><ele>52.199999999999996</ele><time>2026-04-11T08:22:39.859Z</time></trkpt><trkpt lat="42.1867633" lon="14.6548"><ele>51.8</ele><time>2026-04-11T08:22:41.859Z</time></trkpt><trkpt lat="42.1868567" lon="14.65482"><ele>51.4</ele><time>2026-04-11T08:22:43.858Z</time></trkpt><trkpt lat="42.18696" lon="14.6548167"><ele>51.0</ele><time>2026-04-11T08:22:45.858Z</time></trkpt><trkpt lat="42.18705" lon="14.6547733"><ele>51.0</ele><time>2026-04-11T08:22:47.859Z</time></trkpt><trkpt lat="42.1871167" lon="14.6547083"><ele>51.0</ele><time>2026-04-11T08:22:49.858Z</time></trkpt><trkpt lat="42.187175" lon="14.65462"><ele>51.0</ele><time>2026-04-11T08:22:51.859Z</time></trkpt><trkpt lat="42.187225" lon="14.6545217"><ele>51.0</ele><time>2026-04-11T08:22:53.858Z</time></trkpt><trkpt lat="42.18727" lon="14.6544283"><ele>51.0</ele><time>2026-04-11T08:22:55.859Z</time></trkpt><trkpt lat="42.1873117" lon="14.6543267"><ele>51.0</ele><time>2026-04-11T08:22:57.859Z</time></trkpt><trkpt lat="42.1873483" lon="14.65422"><ele>50.0</ele><time>2026-04-11T08:22:59.859Z</time></trkpt><trkpt lat="42.1873883" lon="14.6541183"><ele>49.0</ele><time>2026-04-11T08:23:01.858Z</time></trkpt><trkpt lat="42.187445" lon="14.6540233"><ele>48.0</ele><time>2026-04-11T08:23:03.859Z</time></trkpt><trkpt lat="42.1875133" lon="14.6539517"><ele>47.0</ele><time>2026-04-11T08:23:05.858Z</time></trkpt><trkpt lat="42.1875867" lon="14.6538867"><ele>46.0</ele><time>2026-04-11T08:23:07.858Z</time></trkpt><trkpt lat="42.1876333" lon="14.6537933"><ele>45.0</ele><time>2026-04-11T08:23:09.858Z</time></trkpt><trkpt lat="42.1876783" lon="14.6537117"><ele>45.0</ele><time>2026-04-11T08:23:11.858Z</time></trkpt><trkpt lat="42.1877383" lon="14.6536383"><ele>45.0</ele><time>2026-04-11T08:23:13.859Z</time></trkpt><trkpt lat="42.187815" lon="14.6535667"><ele>45.0</ele><time>2026-04-11T08:23:15.858Z</time></trkpt><trkpt lat="42.1878917" lon="14.6535017"><ele>45.0</ele><time>2026-04-11T08:23:17.859Z</time></trkpt><trkpt lat="42.18796" lon="14.6534283"><ele>45.0</ele><time>2026-04-11T08:23:19.859Z</time></trkpt><trkpt lat="42.1880367" lon="14.6533433"><ele>45.714285714285715</ele><time>2026-04-11T08:23:21.859Z</time></trkpt><trkpt lat="42.1880867" lon="14.653285"><ele>46.42857142857143</ele><time>2026-04-11T08:23:22.859Z</time></trkpt><trkpt lat="42.1881533" lon="14.6532183"><ele>47.142857142857146</ele><time>2026-04-11T08:23:23.858Z</time></trkpt><trkpt lat="42.18821" lon="14.6531617"><ele>47.85714285714286</ele><time>2026-04-11T08:23:24.859Z</time></trkpt><trkpt lat="42.18826" lon="14.65311"><ele>48.57142857142857</ele><time>2026-04-11T08:23:25.859Z</time></trkpt><trkpt lat="42.1883117" lon="14.65306"><ele>49.28571428571429</ele><time>2026-04-11T08:23:26.859Z</time></trkpt><trkpt lat="42.188365" lon="14.65301"><ele>50.0</ele><time>2026-04-11T08:23:27.859Z</time></trkpt><trkpt lat="42.1884633" lon="14.652905"><ele>48.6</ele><time>2026-04-11T08:23:29.859Z</time></trkpt><trkpt lat="42.1885283" lon="14.65279"><ele>47.2</ele><time>2026-04-11T08:23:31.859Z</time></trkpt><trkpt lat="42.188585" lon="14.6526767"><ele>45.8</ele><time>2026-04-11T08:23:33.859Z</time></trkpt><trkpt lat="42.1886183" lon="14.6525717"><ele>44.4</ele><time>2026-04-11T08:23:35.858Z</time></trkpt><trkpt lat="42.18866" lon="14.6524667"><ele>43.0</ele><time>2026-04-11T08:23:37.859Z</time></trkpt><trkpt lat="42.18869" lon="14.652365"><ele>43.0</ele><time>2026-04-11T08:23:39.859Z</time></trkpt><trkpt lat="42.188705" lon="14.652255"><ele>43.0</ele><time>2026-04-11T08:23:41.859Z</time></trkpt><trkpt lat="42.1887283" lon="14.65213"><ele>43.0</ele><time>2026-04-11T08:23:43.859Z</time></trkpt><trkpt lat="42.188765" lon="14.6520267"><ele>43.0</ele><time>2026-04-11T08:23:45.858Z</time></trkpt><trkpt lat="42.18881" lon="14.6519033"><ele>43.0</ele><time>2026-04-11T08:23:47.859Z</time></trkpt><trkpt lat="42.1888583" lon="14.6517833"><ele>44.25</ele><time>2026-04-11T08:23:49.859Z</time></trkpt><trkpt lat="42.1889167" lon="14.651645"><ele>45.5</ele><time>2026-04-11T08:23:51.859Z</time></trkpt><trkpt lat="42.1889767" lon="14.6515083"><ele>46.75</ele><time>2026-04-11T08:23:53.858Z</time></trkpt><trkpt lat="42.1890183" lon="14.6513717"><ele>48.0</ele><time>2026-04-11T08:23:55.859Z</time></trkpt><trkpt lat="42.1890667" lon="14.65123"><ele>44.0</ele><time>2026-04-11T08:23:57.858Z</time></trkpt><trkpt lat="42.1891083" lon="14.6510683"><ele>40.0</ele><time>2026-04-11T08:23:59.859Z</time></trkpt><trkpt lat="42.189125" lon="14.65097"><ele>36.0</ele><time>2026-04-11T08:24:00.859Z</time></trkpt><trkpt lat="42.189155" lon="14.6508067"><ele>32.0</ele><time>2026-04-11T08:24:02.859Z</time></trkpt><trkpt lat="42.1891767" lon="14.65072"><ele>28.0</ele><time>2026-04-11T08:24:03.859Z</time></trkpt><trkpt lat="42.1892117" lon="14.6504917"><ele>28.000000000000004</ele><time>2026-04-11T08:24:05.859Z</time></trkpt><trkpt lat="42.189225" lon="14.6503967"><ele>28.0</ele><time>2026-04-11T08:24:06.859Z</time></trkpt><trkpt lat="42.1892467" lon="14.6502983"><ele>28.0</ele><time>2026-04-11T08:24:07.859Z</time></trkpt><trkpt lat="42.1892633" lon="14.6501883"><ele>28.0</ele><time>2026-04-11T08:24:08.859Z</time></trkpt><trkpt lat="42.1892867" lon="14.6500833"><ele>28.000000000000004</ele><time>2026-04-11T08:24:09.858Z</time></trkpt><trkpt lat="42.1893" lon="14.64998"><ele>28.0</ele><time>2026-04-11T08:24:10.859Z</time></trkpt><trkpt lat="42.1893083" lon="14.6498933"><ele>26.799999999999997</ele><time>2026-04-11T08:24:11.858Z</time></trkpt><trkpt lat="42.18935" lon="14.64976"><ele>25.599999999999998</ele><time>2026-04-11T08:24:13.859Z</time></trkpt><trkpt lat="42.1894483" lon="14.649655"><ele>24.4</ele><time>2026-04-11T08:24:15.859Z</time></trkpt><trkpt lat="42.189515" lon="14.6496167"><ele>23.200000000000003</ele><time>2026-04-11T08:24:16.859Z</time></trkpt><trkpt lat="42.1895733" lon="14.6495783"><ele>22.0</ele><time>2026-04-11T08:24:17.859Z</time></trkpt><trkpt lat="42.1896483" lon="14.649465"><ele>19.8</ele><time>2026-04-11T08:24:19.859Z</time></trkpt><trkpt lat="42.1896717" lon="14.649315"><ele>17.6</ele><time>2026-04-11T08:24:21.859Z</time></trkpt><trkpt lat="42.1896817" lon="14.6491583"><ele>15.400000000000002</ele><time>2026-04-11T08:24:23.858Z</time></trkpt><trkpt lat="42.1896917" lon="14.64901"><ele>13.200000000000001</ele><time>2026-04-11T08:24:25.859Z</time></trkpt><trkpt lat="42.1897" lon="14.6488683"><ele>11.0</ele><time>2026-04-11T08:24:27.858Z</time></trkpt><trkpt lat="42.189705" lon="14.6487333"><ele>10.200000000000001</ele><time>2026-04-11T08:24:29.859Z</time></trkpt><trkpt lat="42.189705" lon="14.6485833"><ele>9.4</ele><time>2026-04-11T08:24:31.859Z</time></trkpt><trkpt lat="42.1897133" lon="14.6484417"><ele>8.6</ele><time>2026-04-11T08:24:33.858Z</time></trkpt><trkpt lat="42.189715" lon="14.6483"><ele>7.8</ele><time>2026-04-11T08:24:35.858Z</time></trkpt><trkpt lat="42.1897167" lon="14.6481767"><ele>7.0</ele><time>2026-04-11T08:24:37.859Z</time></trkpt><trkpt lat="42.189705" lon="14.648055"><ele>7.000000000000001</ele><time>2026-04-11T08:24:39.858Z</time></trkpt><trkpt lat="42.1896967" lon="14.647965"><ele>7.0</ele><time>2026-04-11T08:24:41.858Z</time></trkpt><trkpt lat="42.1897" lon="14.64783"><ele>7.0</ele><time>2026-04-11T08:25:04.859Z</time></trkpt><trkpt lat="42.18971" lon="14.6477183"><ele>7.0</ele><time>2026-04-11T08:25:07.858Z</time></trkpt><trkpt lat="42.1897083" lon="14.6476133"><ele>7.000000000000001</ele><time>2026-04-11T08:25:09.858Z</time></trkpt><trkpt lat="42.1897133" lon="14.6474883"><ele>7.0</ele><time>2026-04-11T08:25:11.859Z</time></trkpt><trkpt lat="42.1897167" lon="14.6473583"><ele>6.6</ele><time>2026-04-11T08:25:13.858Z</time></trkpt><trkpt lat="42.18972" lon="14.6472267"><ele>6.199999999999999</ele><time>2026-04-11T08:25:15.858Z</time></trkpt><trkpt lat="42.189725" lon="14.6471"><ele>5.8</ele><time>2026-04-11T08:25:17.858Z</time></trkpt><trkpt lat="42.18974" lon="14.6469867"><ele>5.4</ele><time>2026-04-11T08:25:19.859Z</time></trkpt><trkpt lat="42.1897533" lon="14.6468717"><ele>5.0</ele><time>2026-04-11T08:25:21.858Z</time></trkpt><trkpt lat="42.18977" lon="14.6467417"><ele>5.0</ele><time>2026-04-11T08:25:23.859Z</time></trkpt><trkpt lat="42.1897717" lon="14.6466067"><ele>5.0</ele><time>2026-04-11T08:25:25.859Z</time></trkpt><trkpt lat="42.1897717" lon="14.6464767"><ele>5.0</ele><time>2026-04-11T08:25:27.859Z</time></trkpt><trkpt lat="42.1897733" lon="14.64635"><ele>5.0</ele><time>2026-04-11T08:25:29.859Z</time></trkpt><trkpt lat="42.189775" lon="14.646225"><ele>5.0</ele><time>2026-04-11T08:25:31.859Z</time></trkpt><trkpt lat="42.189775" lon="14.6461033"><ele>4.666666666666667</ele><time>2026-04-11T08:25:33.858Z</time></trkpt><trkpt lat="42.1897883" lon="14.6459917"><ele>4.333333333333334</ele><time>2026-04-11T08:25:35.858Z</time></trkpt><trkpt lat="42.1898117" lon="14.645885"><ele>4.0</ele><time>2026-04-11T08:25:37.858Z</time></trkpt><trkpt lat="42.18984" lon="14.64577"><ele>3.666666666666667</ele><time>2026-04-11T08:25:39.858Z</time></trkpt><trkpt lat="42.1898783" lon="14.6456667"><ele>3.3333333333333335</ele><time>2026-04-11T08:25:41.858Z</time></trkpt><trkpt lat="42.189915" lon="14.6455583"><ele>3.0</ele><time>2026-04-11T08:25:43.858Z</time></trkpt><trkpt lat="42.1899617" lon="14.6454533"><ele>3.0</ele><time>2026-04-11T08:25:45.859Z</time></trkpt><trkpt lat="42.1900133" lon="14.6453433"><ele>3.0</ele><time>2026-04-11T08:25:47.859Z</time></trkpt><trkpt lat="42.19007" lon="14.645225"><ele>3.0</ele><time>2026-04-11T08:25:49.859Z</time></trkpt><trkpt lat="42.1901217" lon="14.64507"><ele>3.0</ele><time>2026-04-11T08:25:51.858Z</time></trkpt><trkpt lat="42.190145" lon="14.6449883"><ele>3.0</ele><time>2026-04-11T08:25:52.859Z</time></trkpt><trkpt lat="42.1901933" lon="14.6448517"><ele>3.0</ele><time>2026-04-11T08:25:54.858Z</time></trkpt><trkpt lat="42.190225" lon="14.64474"><ele>3.0</ele><time>2026-04-11T08:25:56.859Z</time></trkpt><trkpt lat="42.1902517" lon="14.6446367"><ele>3.0</ele><time>2026-04-11T08:25:59.859Z</time></trkpt><trkpt lat="42.190315" lon="14.6446133"><ele>3.0</ele><time>2026-04-11T08:26:02.859Z</time></trkpt><trkpt lat="42.1903833" lon="14.6445767"><ele>3.0</ele><time>2026-04-11T08:26:04.859Z</time></trkpt><trkpt lat="42.1904567" lon="14.644555"><ele>3.0</ele><time>2026-04-11T08:26:06.859Z</time></trkpt><trkpt lat="42.19054" lon="14.644525"><ele>3.0</ele><time>2026-04-11T08:26:08.859Z</time></trkpt><trkpt lat="42.1906283" lon="14.6444933"><ele>3.0</ele><time>2026-04-11T08:26:10.859Z</time></trkpt><trkpt lat="42.1907067" lon="14.6444683"><ele>3.0</ele><time>2026-04-11T08:26:12.859Z</time></trkpt><trkpt lat="42.190785" lon="14.6444433"><ele>3.0</ele><time>2026-04-11T08:26:14.858Z</time></trkpt><trkpt lat="42.1908567" lon="14.6444183"><ele>3.0</ele><time>2026-04-11T08:26:16.859Z</time></trkpt><trkpt lat="42.1909417" lon="14.6443783"><ele>3.0</ele><time>2026-04-11T08:26:18.858Z</time></trkpt><trkpt lat="42.1910283" lon="14.6443283"><ele>2.8333333333333335</ele><time>2026-04-11T08:26:20.859Z</time></trkpt><trkpt lat="42.1911033" lon="14.64426"><ele>2.6666666666666665</ele><time>2026-04-11T08:26:22.859Z</time></trkpt><trkpt lat="42.191165" lon="14.6441733"><ele>2.5</ele><time>2026-04-11T08:26:24.859Z</time></trkpt><trkpt lat="42.1912217" lon="14.64408"><ele>2.333333333333333</ele><time>2026-04-11T08:26:26.858Z</time></trkpt><trkpt lat="42.191275" lon="14.64398"><ele>2.1666666666666665</ele><time>2026-04-11T08:26:28.858Z</time></trkpt><trkpt lat="42.19132" lon="14.6438967"><ele>2.0</ele><time>2026-04-11T08:26:30.859Z</time></trkpt><trkpt lat="42.1913833" lon="14.6437883"><ele>2.0</ele><time>2026-04-11T08:26:32.859Z</time></trkpt><trkpt lat="42.1914517" lon="14.6436733"><ele>2.0</ele><time>2026-04-11T08:26:34.859Z</time></trkpt><trkpt lat="42.191505" lon="14.6435583"><ele>2.0</ele><time>2026-04-11T08:26:36.858Z</time></trkpt><trkpt lat="42.19157" lon="14.64347"><ele>2.0</ele><time>2026-04-11T08:26:38.859Z</time></trkpt><trkpt lat="42.1916483" lon="14.6434133"><ele>2.0</ele><time>2026-04-11T08:26:40.858Z</time></trkpt><trkpt lat="42.1917333" lon="14.64331"><ele>1.5</ele><time>2026-04-11T08:26:42.859Z</time></trkpt><trkpt lat="42.1918117" lon="14.6431867"><ele>1.0</ele><time>2026-04-11T08:26:44.858Z</time></trkpt><trkpt lat="42.19189" lon="14.6430733"><ele>0.5</ele><time>2026-04-11T08:26:46.859Z</time></trkpt><trkpt lat="42.1919583" lon="14.642955"><ele>0.0</ele><time>2026-04-11T08:26:48.859Z</time></trkpt><trkpt lat="42.1920317" lon="14.6428467"><ele>0.0</ele><time>2026-04-11T08:26:50.859Z</time></trkpt><trkpt lat="42.192095" lon="14.64275"><ele>0.0</ele><time>2026-04-11T08:26:52.859Z</time></trkpt><trkpt lat="42.19216" lon="14.6426683"><ele>0.0</ele><time>2026-04-11T08:26:54.859Z</time></trkpt><trkpt lat="42.1922367" lon="14.6426167"><ele>0.0</ele><time>2026-04-11T08:26:56.859Z</time></trkpt><trkpt lat="42.1923117" lon="14.642545"><ele>0.0</ele><time>2026-04-11T08:26:58.859Z</time></trkpt><trkpt lat="42.192375" lon="14.642435"><ele>0.0</ele><time>2026-04-11T08:27:00.859Z</time></trkpt><trkpt lat="42.192405" lon="14.642305"><ele>0.0</ele><time>2026-04-11T08:27:02.858Z</time></trkpt><trkpt lat="42.1924283" lon="14.6421717"><ele>0.0</ele><time>2026-04-11T08:27:04.858Z</time></trkpt><trkpt lat="42.1924617" lon="14.6420583"><ele>0.0</ele><time>2026-04-11T08:27:06.858Z</time></trkpt><trkpt lat="42.1925033" lon="14.6419467"><ele>0.0</ele><time>2026-04-11T08:27:08.859Z</time></trkpt><trkpt lat="42.19254" lon="14.64183"><ele>0.0</ele><time>2026-04-11T08:27:10.858Z</time></trkpt><trkpt lat="42.1925733" lon="14.64171"><ele>0.0</ele><time>2026-04-11T08:27:12.859Z</time></trkpt><trkpt lat="42.1926067" lon="14.6415917"><ele>0.0</ele><time>2026-04-11T08:27:14.859Z</time></trkpt><trkpt lat="42.192635" lon="14.6414783"><ele>0.0</ele><time>2026-04-11T08:27:16.859Z</time></trkpt><trkpt lat="42.1926717" lon="14.6413667"><ele>0.0</ele><time>2026-04-11T08:27:18.859Z</time></trkpt><trkpt lat="42.1927033" lon="14.6412483"><ele>0.0</ele><time>2026-04-11T08:27:20.859Z</time></trkpt><trkpt lat="42.192735" lon="14.6411317"><ele>0.0</ele><time>2026-04-11T08:27:22.859Z</time></trkpt><trkpt lat="42.1927583" lon="14.6410067"><ele>0.0</ele><time>2026-04-11T08:27:24.858Z</time></trkpt><trkpt lat="42.1927833" lon="14.64088"><ele>0.0</ele><time>2026-04-11T08:27:26.859Z</time></trkpt><trkpt lat="42.19282" lon="14.640755"><ele>0.0</ele><time>2026-04-11T08:27:28.859Z</time></trkpt><trkpt lat="42.1928533" lon="14.64063"><ele>0.0</ele><time>2026-04-11T08:27:30.859Z</time></trkpt><trkpt lat="42.1928783" lon="14.6405017"><ele>0.0</ele><time>2026-04-11T08:27:32.858Z</time></trkpt><trkpt lat="42.1929083" lon="14.64038"><ele>0.0</ele><time>2026-04-11T08:27:34.859Z</time></trkpt><trkpt lat="42.192945" lon="14.6402583"><ele>0.0</ele><time>2026-04-11T08:27:36.859Z</time></trkpt><trkpt lat="42.1929767" lon="14.6401367"><ele>0.0</ele><time>2026-04-11T08:27:38.859Z</time></trkpt><trkpt lat="42.1930083" lon="14.6400117"><ele>-0.2</ele><time>2026-04-11T08:27:40.858Z</time></trkpt><trkpt lat="42.19304" lon="14.6398933"><ele>-0.4</ele><time>2026-04-11T08:27:42.858Z</time></trkpt><trkpt lat="42.1930767" lon="14.6397767"><ele>-0.6000000000000001</ele><time>2026-04-11T08:27:44.859Z</time></trkpt><trkpt lat="42.1931083" lon="14.6396617"><ele>-0.8</ele><time>2026-04-11T08:27:46.858Z</time></trkpt><trkpt lat="42.193145" lon="14.6395483"><ele>-1.0</ele><time>2026-04-11T08:27:48.859Z</time></trkpt><trkpt lat="42.1931817" lon="14.6394333"><ele>-1.0</ele><time>2026-04-11T08:27:50.859Z</time></trkpt><trkpt lat="42.1932117" lon="14.6393167"><ele>-1.0</ele><time>2026-04-11T08:27:52.859Z</time></trkpt><trkpt lat="42.1932467" lon="14.6391933"><ele>-1.0</ele><time>2026-04-11T08:27:54.858Z</time></trkpt><trkpt lat="42.19328" lon="14.639075"><ele>-1.0</ele><time>2026-04-11T08:27:56.859Z</time></trkpt><trkpt lat="42.1933083" lon="14.6389583"><ele>-1.0</ele><time>2026-04-11T08:27:58.858Z</time></trkpt><trkpt lat="42.1933367" lon="14.6388317"><ele>-0.9999999999999999</ele><time>2026-04-11T08:28:00.858Z</time></trkpt><trkpt lat="42.1933667" lon="14.638705"><ele>-1.0</ele><time>2026-04-11T08:28:02.859Z</time></trkpt><trkpt lat="42.1933933" lon="14.63858"><ele>-1.0</ele><time>2026-04-11T08:28:04.859Z</time></trkpt><trkpt lat="42.1934167" lon="14.63848"><ele>-1.0</ele><time>2026-04-11T08:28:06.859Z</time></trkpt><trkpt lat="42.1934333" lon="14.63838"><ele>-0.9999999999999999</ele><time>2026-04-11T08:28:09.858Z</time></trkpt><trkpt lat="42.1934517" lon="14.6382833"><ele>-1.0</ele><time>2026-04-11T08:28:14.859Z</time></trkpt><trkpt lat="42.1934817" lon="14.6381983"><ele>-0.6666666666666666</ele><time>2026-04-11T08:28:17.858Z</time></trkpt><trkpt lat="42.19351" lon="14.63808"><ele>-0.3333333333333333</ele><time>2026-04-11T08:28:20.859Z</time></trkpt><trkpt lat="42.1935417" lon="14.637975"><ele>0.0</ele><time>2026-04-11T08:28:23.858Z</time></trkpt><trkpt lat="42.1935767" lon="14.6378567"><ele>0.3333333333333333</ele><time>2026-04-11T08:28:26.858Z</time></trkpt><trkpt lat="42.1935983" lon="14.6377667"><ele>0.6666666666666666</ele><time>2026-04-11T08:28:28.858Z</time></trkpt><trkpt lat="42.1936283" lon="14.6376683"><ele>1.0</ele><time>2026-04-11T08:28:30.858Z</time></trkpt><trkpt lat="42.1936667" lon="14.6375733"><ele>0.9999999999999999</ele><time>2026-04-11T08:28:32.859Z</time></trkpt><trkpt lat="42.1936917" lon="14.6374717"><ele>1.0</ele><time>2026-04-11T08:28:34.858Z</time></trkpt><trkpt lat="42.1937183" lon="14.6373733"><ele>1.0</ele><time>2026-04-11T08:28:36.859Z</time></trkpt><trkpt lat="42.193735" lon="14.63729"><ele>1.0</ele><time>2026-04-11T08:28:38.859Z</time></trkpt><trkpt lat="42.1937733" lon="14.6371667"><ele>0.9999999999999999</ele><time>2026-04-11T08:28:41.859Z</time></trkpt><trkpt lat="42.1937967" lon="14.6370683"><ele>1.0</ele><time>2026-04-11T08:28:43.858Z</time></trkpt><trkpt lat="42.1938267" lon="14.636955"><ele>1.1666666666666665</ele><time>2026-04-11T08:28:45.858Z</time></trkpt><trkpt lat="42.1938633" lon="14.6368467"><ele>1.3333333333333333</ele><time>2026-04-11T08:28:47.859Z</time></trkpt><trkpt lat="42.1938967" lon="14.63675"><ele>1.5</ele><time>2026-04-11T08:28:49.858Z</time></trkpt><trkpt lat="42.1939267" lon="14.6366433"><ele>1.6666666666666665</ele><time>2026-04-11T08:28:51.859Z</time></trkpt><trkpt lat="42.1939517" lon="14.636535"><ele>1.8333333333333333</ele><time>2026-04-11T08:28:53.858Z</time></trkpt><trkpt lat="42.1939833" lon="14.63643"><ele>2.0</ele><time>2026-04-11T08:28:55.858Z</time></trkpt><trkpt lat="42.1940167" lon="14.6363133"><ele>1.8</ele><time>2026-04-11T08:28:57.859Z</time></trkpt><trkpt lat="42.1940467" lon="14.6361917"><ele>1.6</ele><time>2026-04-11T08:28:59.858Z</time></trkpt><trkpt lat="42.1940767" lon="14.6360683"><ele>1.4000000000000001</ele><time>2026-04-11T08:29:01.858Z</time></trkpt><trkpt lat="42.194105" lon="14.6359517"><ele>1.2000000000000002</ele><time>2026-04-11T08:29:03.859Z</time></trkpt><trkpt lat="42.194145" lon="14.6358483"><ele>1.0</ele><time>2026-04-11T08:29:05.859Z</time></trkpt><trkpt lat="42.1941717" lon="14.635735"><ele>0.9999999999999999</ele><time>2026-04-11T08:29:07.858Z</time></trkpt><trkpt lat="42.1942" lon="14.6356167"><ele>1.0</ele><time>2026-04-11T08:29:09.859Z</time></trkpt><trkpt lat="42.1942317" lon="14.6355083"><ele>1.0</ele><time>2026-04-11T08:29:11.859Z</time></trkpt><trkpt lat="42.1942667" lon="14.63539"><ele>1.0</ele><time>2026-04-11T08:29:13.859Z</time></trkpt><trkpt lat="42.1942983" lon="14.635275"><ele>0.9999999999999999</ele><time>2026-04-11T08:29:15.859Z</time></trkpt><trkpt lat="42.1943283" lon="14.63517"><ele>1.0</ele><time>2026-04-11T08:29:17.859Z</time></trkpt><trkpt lat="42.1943617" lon="14.6350667"><ele>1.1666666666666665</ele><time>2026-04-11T08:29:19.859Z</time></trkpt><trkpt lat="42.194395" lon="14.63496"><ele>1.3333333333333333</ele><time>2026-04-11T08:29:21.859Z</time></trkpt><trkpt lat="42.19443" lon="14.63485"><ele>1.5</ele><time>2026-04-11T08:29:23.858Z</time></trkpt><trkpt lat="42.1944583" lon="14.634745"><ele>1.6666666666666665</ele><time>2026-04-11T08:29:25.858Z</time></trkpt><trkpt lat="42.194485" lon="14.6346467"><ele>1.8333333333333333</ele><time>2026-04-11T08:29:27.859Z</time></trkpt><trkpt lat="42.19451" lon="14.6345417"><ele>2.0</ele><time>2026-04-11T08:29:29.859Z</time></trkpt><trkpt lat="42.1945367" lon="14.6344417"><ele>2.2857142857142856</ele><time>2026-04-11T08:29:31.859Z</time></trkpt><trkpt lat="42.1945567" lon="14.6343583"><ele>2.571428571428571</ele><time>2026-04-11T08:29:33.859Z</time></trkpt><trkpt lat="42.1945867" lon="14.634275"><ele>2.8571428571428568</ele><time>2026-04-11T08:29:35.858Z</time></trkpt><trkpt lat="42.194625" lon="14.6341783"><ele>3.142857142857143</ele><time>2026-04-11T08:29:37.858Z</time></trkpt><trkpt lat="42.1946583" lon="14.634075"><ele>3.428571428571428</ele><time>2026-04-11T08:29:39.859Z</time></trkpt><trkpt lat="42.1946783" lon="14.63398"><ele>3.714285714285714</ele><time>2026-04-11T08:29:41.858Z</time></trkpt><trkpt lat="42.1947017" lon="14.63388"><ele>4.0</ele><time>2026-04-11T08:29:43.858Z</time></trkpt><trkpt lat="42.1947267" lon="14.633785"><ele>3.9999999999999996</ele><time>2026-04-11T08:29:45.858Z</time></trkpt><trkpt lat="42.194745" lon="14.6336983"><ele>4.0</ele><time>2026-04-11T08:29:47.858Z</time></trkpt><trkpt lat="42.1947617" lon="14.6336133"><ele>4.0</ele><time>2026-04-11T08:29:49.858Z</time></trkpt><trkpt lat="42.1947817" lon="14.6335033"><ele>4.0</ele><time>2026-04-11T08:29:52.858Z</time></trkpt><trkpt lat="42.1948067" lon="14.63342"><ele>3.9999999999999996</ele><time>2026-04-11T08:29:56.859Z</time></trkpt><trkpt lat="42.1947267" lon="14.6333"><ele>4.0</ele><time>2026-04-11T08:31:04.103Z</time></trkpt><trkpt lat="42.1947933" lon="14.6333067"><ele>6.0</ele><time>2026-04-11T08:40:29.861Z</time></trkpt><trkpt lat="42.1949283" lon="14.6333567"><ele>2.0</ele><time>2026-04-11T08:41:31.861Z</time></trkpt></trkseg></trk></gpx>